<?xml version="1.0" encoding="UTF-8" standalone="no" ?>
<gpx xmlns="http://www.topografix.com/GPX/1/1" xmlns:xsi="http://www.w3.org/2001/XMLSchema-instance" xsi:schemaLocation="http://www.topografix.com/GPX/1/1 http://www.topografix.com/GPX/1/1/gpx.xsd" version="1.1" creator="VisuGPX - https://www.visugpx.com">
  <metadata>
    <name>Les Vans Brahic Murjat Lacoste Naves </name>
    <desc><![CDATA[Réalisé le 030322
Attention: la descente dans le "valat nègre est très périlleuse, le sentier peu marqué bien que balisé en jaune avec des marches rocheuses qui nécessitent de mettre les mains.. déconseillé aux personnes peu agiles.]]></desc>
  </metadata>
  <trk>
    <name><![CDATA[Les Vans.gpx]]></name>
    <trkseg>
      <trkpt lat="44.40355" lon="4.13609">
        <ele>176.6</ele>
        <time>2022-03-03T08:44:50Z</time>
      </trkpt>
      <trkpt lat="44.40349" lon="4.13608">
        <ele>177.2</ele>
        <time>2022-03-03T08:44:51Z</time>
      </trkpt>
      <trkpt lat="44.40349" lon="4.13598">
        <ele>176.8</ele>
        <time>2022-03-03T08:44:52Z</time>
      </trkpt>
      <trkpt lat="44.4034" lon="4.13597">
        <ele>177.8</ele>
        <time>2022-03-03T08:44:54Z</time>
      </trkpt>
      <trkpt lat="44.40337" lon="4.13592">
        <ele>177.9</ele>
        <time>2022-03-03T08:44:56Z</time>
      </trkpt>
      <trkpt lat="44.40334" lon="4.13587">
        <ele>178</ele>
        <time>2022-03-03T08:44:59Z</time>
      </trkpt>
      <trkpt lat="44.40335" lon="4.13579">
        <ele>271.81552</ele>
        <time>2022-03-03T08:45:03Z</time>
      </trkpt>
      <trkpt lat="44.40335" lon="4.1357">
        <ele>271.7072</ele>
        <time>2022-03-03T08:45:08Z</time>
      </trkpt>
      <trkpt lat="44.40336" lon="4.13558">
        <ele>271.6724</ele>
        <time>2022-03-03T08:45:15Z</time>
      </trkpt>
      <trkpt lat="44.40338" lon="4.13547">
        <ele>271.61728</ele>
        <time>2022-03-03T08:45:22Z</time>
      </trkpt>
      <trkpt lat="44.40338" lon="4.13539">
        <ele>271.62888</ele>
        <time>2022-03-03T08:45:27Z</time>
      </trkpt>
      <trkpt lat="44.40338" lon="4.13532">
        <ele>176.7</ele>
        <time>2022-03-03T08:45:30Z</time>
      </trkpt>
      <trkpt lat="44.40339" lon="4.13525">
        <ele>176.7</ele>
        <time>2022-03-03T08:45:34Z</time>
      </trkpt>
      <trkpt lat="44.40338" lon="4.13518">
        <ele>177.1</ele>
        <time>2022-03-03T08:45:38Z</time>
      </trkpt>
      <trkpt lat="44.40339" lon="4.1351">
        <ele>272.10565</ele>
        <time>2022-03-03T08:45:43Z</time>
      </trkpt>
      <trkpt lat="44.40337" lon="4.13503">
        <ele>272.2778</ele>
        <time>2022-03-03T08:45:51Z</time>
      </trkpt>
      <trkpt lat="44.40338" lon="4.13495">
        <ele>272.51282</ele>
        <time>2022-03-03T08:45:57Z</time>
      </trkpt>
      <trkpt lat="44.40337" lon="4.13487">
        <ele>177.9</ele>
        <time>2022-03-03T08:46:00Z</time>
      </trkpt>
      <trkpt lat="44.40337" lon="4.1348">
        <ele>178</ele>
        <time>2022-03-03T08:46:03Z</time>
      </trkpt>
      <trkpt lat="44.40338" lon="4.13473">
        <ele>272.85034</ele>
        <time>2022-03-03T08:46:05Z</time>
      </trkpt>
      <trkpt lat="44.4034" lon="4.13467">
        <ele>178.1</ele>
        <time>2022-03-03T08:46:08Z</time>
      </trkpt>
      <trkpt lat="44.40341" lon="4.13458">
        <ele>178.4</ele>
        <time>2022-03-03T08:46:12Z</time>
      </trkpt>
      <trkpt lat="44.40342" lon="4.13451">
        <ele>273.1308</ele>
        <time>2022-03-03T08:46:16Z</time>
      </trkpt>
      <trkpt lat="44.40342" lon="4.13444">
        <ele>178.7</ele>
        <time>2022-03-03T08:46:20Z</time>
      </trkpt>
      <trkpt lat="44.4034" lon="4.13437">
        <ele>179.2</ele>
        <time>2022-03-03T08:46:24Z</time>
      </trkpt>
      <trkpt lat="44.40338" lon="4.1343">
        <ele>273.43835</ele>
        <time>2022-03-03T08:46:28Z</time>
      </trkpt>
      <trkpt lat="44.40337" lon="4.13423">
        <ele>179.9</ele>
        <time>2022-03-03T08:46:32Z</time>
      </trkpt>
      <trkpt lat="44.40337" lon="4.13415">
        <ele>273.90164</ele>
        <time>2022-03-03T08:46:36Z</time>
      </trkpt>
      <trkpt lat="44.40339" lon="4.13408">
        <ele>180.6</ele>
        <time>2022-03-03T08:46:40Z</time>
      </trkpt>
      <trkpt lat="44.40338" lon="4.13402">
        <ele>181</ele>
        <time>2022-03-03T08:46:44Z</time>
      </trkpt>
      <trkpt lat="44.40338" lon="4.13394">
        <ele>274.82242</ele>
        <time>2022-03-03T08:46:48Z</time>
      </trkpt>
      <trkpt lat="44.40339" lon="4.13387">
        <ele>181.7</ele>
        <time>2022-03-03T08:46:52Z</time>
      </trkpt>
      <trkpt lat="44.4034" lon="4.13379">
        <ele>276.11176</ele>
        <time>2022-03-03T08:46:56Z</time>
      </trkpt>
      <trkpt lat="44.40341" lon="4.13372">
        <ele>182.1</ele>
        <time>2022-03-03T08:47:00Z</time>
      </trkpt>
      <trkpt lat="44.40343" lon="4.13365">
        <ele>182.2</ele>
        <time>2022-03-03T08:47:04Z</time>
      </trkpt>
      <trkpt lat="44.40344" lon="4.13358">
        <ele>276.7908</ele>
        <time>2022-03-03T08:47:07Z</time>
      </trkpt>
      <trkpt lat="44.40346" lon="4.1335">
        <ele>182.7</ele>
        <time>2022-03-03T08:47:11Z</time>
      </trkpt>
      <trkpt lat="44.40348" lon="4.13344">
        <ele>277.21545</ele>
        <time>2022-03-03T08:47:16Z</time>
      </trkpt>
      <trkpt lat="44.40351" lon="4.13338">
        <ele>183.1</ele>
        <time>2022-03-03T08:47:19Z</time>
      </trkpt>
      <trkpt lat="44.40354" lon="4.13333">
        <ele>183.3</ele>
        <time>2022-03-03T08:47:23Z</time>
      </trkpt>
      <trkpt lat="44.40357" lon="4.13328">
        <ele>277.615</ele>
        <time>2022-03-03T08:47:26Z</time>
      </trkpt>
      <trkpt lat="44.4036" lon="4.13321">
        <ele>183.5</ele>
        <time>2022-03-03T08:47:30Z</time>
      </trkpt>
      <trkpt lat="44.40364" lon="4.13315">
        <ele>183.6</ele>
        <time>2022-03-03T08:47:34Z</time>
      </trkpt>
      <trkpt lat="44.40367" lon="4.1331">
        <ele>277.98065</ele>
        <time>2022-03-03T08:47:37Z</time>
      </trkpt>
      <trkpt lat="44.40369" lon="4.13304">
        <ele>183.8</ele>
        <time>2022-03-03T08:47:40Z</time>
      </trkpt>
      <trkpt lat="44.4037" lon="4.13298">
        <ele>278.41016</ele>
        <time>2022-03-03T08:47:45Z</time>
      </trkpt>
      <trkpt lat="44.40366" lon="4.13299">
        <ele>184.5</ele>
        <time>2022-03-03T08:47:52Z</time>
      </trkpt>
      <trkpt lat="44.4036" lon="4.133">
        <ele>184.7</ele>
        <time>2022-03-03T08:47:56Z</time>
      </trkpt>
      <trkpt lat="44.40354" lon="4.13301">
        <ele>279.7539</ele>
        <time>2022-03-03T08:48:00Z</time>
      </trkpt>
      <trkpt lat="44.40348" lon="4.13302">
        <ele>280.03253</ele>
        <time>2022-03-03T08:48:05Z</time>
      </trkpt>
      <trkpt lat="44.40344" lon="4.13303">
        <ele>185.4</ele>
        <time>2022-03-03T08:48:09Z</time>
      </trkpt>
      <trkpt lat="44.40339" lon="4.13304">
        <ele>185.7</ele>
        <time>2022-03-03T08:48:13Z</time>
      </trkpt>
      <trkpt lat="44.40334" lon="4.13307">
        <ele>280.63333</ele>
        <time>2022-03-03T08:48:18Z</time>
      </trkpt>
      <trkpt lat="44.4033" lon="4.13309">
        <ele>186</ele>
        <time>2022-03-03T08:48:21Z</time>
      </trkpt>
      <trkpt lat="44.40324" lon="4.13311">
        <ele>281.20416</ele>
        <time>2022-03-03T08:48:25Z</time>
      </trkpt>
      <trkpt lat="44.40319" lon="4.13314">
        <ele>186.3</ele>
        <time>2022-03-03T08:48:29Z</time>
      </trkpt>
      <trkpt lat="44.40315" lon="4.13316">
        <ele>186.4</ele>
        <time>2022-03-03T08:48:33Z</time>
      </trkpt>
      <trkpt lat="44.40309" lon="4.13317">
        <ele>281.90753</ele>
        <time>2022-03-03T08:48:37Z</time>
      </trkpt>
      <trkpt lat="44.40303" lon="4.13318">
        <ele>186.8</ele>
        <time>2022-03-03T08:48:41Z</time>
      </trkpt>
      <trkpt lat="44.40299" lon="4.13319">
        <ele>282.6574</ele>
        <time>2022-03-03T08:48:45Z</time>
      </trkpt>
      <trkpt lat="44.40292" lon="4.13318">
        <ele>187.6</ele>
        <time>2022-03-03T08:48:50Z</time>
      </trkpt>
      <trkpt lat="44.40288" lon="4.13316">
        <ele>188</ele>
        <time>2022-03-03T08:48:54Z</time>
      </trkpt>
      <trkpt lat="44.40283" lon="4.13314">
        <ele>283.33374</ele>
        <time>2022-03-03T08:48:57Z</time>
      </trkpt>
      <trkpt lat="44.40278" lon="4.13312">
        <ele>188.7</ele>
        <time>2022-03-03T08:49:01Z</time>
      </trkpt>
      <trkpt lat="44.40274" lon="4.13307">
        <ele>283.8969</ele>
        <time>2022-03-03T08:49:05Z</time>
      </trkpt>
      <trkpt lat="44.40269" lon="4.13304">
        <ele>190.1</ele>
        <time>2022-03-03T08:49:09Z</time>
      </trkpt>
      <trkpt lat="44.40264" lon="4.13305">
        <ele>190.7</ele>
        <time>2022-03-03T08:49:14Z</time>
      </trkpt>
      <trkpt lat="44.40259" lon="4.13304">
        <ele>285.0552</ele>
        <time>2022-03-03T08:49:18Z</time>
      </trkpt>
      <trkpt lat="44.40253" lon="4.13306">
        <ele>191.7</ele>
        <time>2022-03-03T08:49:22Z</time>
      </trkpt>
      <trkpt lat="44.40248" lon="4.13308">
        <ele>285.94064</ele>
        <time>2022-03-03T08:49:26Z</time>
      </trkpt>
      <trkpt lat="44.40243" lon="4.13309">
        <ele>192.6</ele>
        <time>2022-03-03T08:49:30Z</time>
      </trkpt>
      <trkpt lat="44.40237" lon="4.13308">
        <ele>286.8068</ele>
        <time>2022-03-03T08:49:35Z</time>
      </trkpt>
      <trkpt lat="44.40233" lon="4.13305">
        <ele>194</ele>
        <time>2022-03-03T08:49:39Z</time>
      </trkpt>
      <trkpt lat="44.40228" lon="4.13302">
        <ele>195.1</ele>
        <time>2022-03-03T08:49:43Z</time>
        <extensions>
          <gpxtpx:TrackPointExtension xmlns:gpxtpx="http://www.garmin.com/xmlschemas/TrackPointExtension/v1">
            <gpxtpx:hr>123</gpxtpx:hr>
          </gpxtpx:TrackPointExtension>
        </extensions>
      </trkpt>
      <trkpt lat="44.40224" lon="4.13297">
        <ele>287.88684</ele>
        <time>2022-03-03T08:49:47Z</time>
      </trkpt>
      <trkpt lat="44.4022" lon="4.13293">
        <ele>196.8</ele>
        <time>2022-03-03T08:49:53Z</time>
      </trkpt>
      <trkpt lat="44.40215" lon="4.13289">
        <ele>289.35022</ele>
        <time>2022-03-03T08:49:58Z</time>
      </trkpt>
      <trkpt lat="44.40211" lon="4.13285">
        <ele>198.1</ele>
        <time>2022-03-03T08:50:02Z</time>
      </trkpt>
      <trkpt lat="44.40207" lon="4.1328">
        <ele>198.7</ele>
        <time>2022-03-03T08:50:05Z</time>
      </trkpt>
      <trkpt lat="44.40204" lon="4.13274">
        <ele>199.6</ele>
        <time>2022-03-03T08:50:09Z</time>
      </trkpt>
      <trkpt lat="44.40201" lon="4.1327">
        <ele>291.67715</ele>
        <time>2022-03-03T08:50:13Z</time>
      </trkpt>
      <trkpt lat="44.40197" lon="4.13266">
        <ele>201.2</ele>
        <time>2022-03-03T08:50:18Z</time>
      </trkpt>
      <trkpt lat="44.40194" lon="4.1326">
        <ele>293.02753</ele>
        <time>2022-03-03T08:50:23Z</time>
      </trkpt>
      <trkpt lat="44.4019" lon="4.13256">
        <ele>293.96075</ele>
        <time>2022-03-03T08:50:27Z</time>
      </trkpt>
      <trkpt lat="44.40186" lon="4.13251">
        <ele>204.4</ele>
        <time>2022-03-03T08:50:31Z</time>
      </trkpt>
      <trkpt lat="44.40183" lon="4.13246">
        <ele>296.0471</ele>
        <time>2022-03-03T08:50:35Z</time>
      </trkpt>
      <trkpt lat="44.40178" lon="4.13242">
        <ele>206.5</ele>
        <time>2022-03-03T08:50:41Z</time>
      </trkpt>
      <trkpt lat="44.40174" lon="4.13238">
        <ele>298.17816</ele>
        <time>2022-03-03T08:50:46Z</time>
      </trkpt>
      <trkpt lat="44.40169" lon="4.13232">
        <ele>208</ele>
        <time>2022-03-03T08:50:51Z</time>
      </trkpt>
      <trkpt lat="44.40167" lon="4.13226">
        <ele>300.4644</ele>
        <time>2022-03-03T08:50:55Z</time>
      </trkpt>
      <trkpt lat="44.40161" lon="4.13223">
        <ele>209.5</ele>
        <time>2022-03-03T08:50:59Z</time>
      </trkpt>
      <trkpt lat="44.40157" lon="4.1322">
        <ele>302.22403</ele>
        <time>2022-03-03T08:51:05Z</time>
      </trkpt>
      <trkpt lat="44.40154" lon="4.13218">
        <ele>303.67288</ele>
        <time>2022-03-03T08:51:15Z</time>
      </trkpt>
      <trkpt lat="44.4015" lon="4.13214">
        <ele>214.4</ele>
        <time>2022-03-03T08:51:21Z</time>
      </trkpt>
      <trkpt lat="44.40145" lon="4.13211">
        <ele>305.62943</ele>
        <time>2022-03-03T08:51:26Z</time>
      </trkpt>
      <trkpt lat="44.40141" lon="4.13208">
        <ele>217.2</ele>
        <time>2022-03-03T08:51:33Z</time>
      </trkpt>
      <trkpt lat="44.40136" lon="4.13209">
        <ele>307.50766</ele>
        <time>2022-03-03T08:51:35Z</time>
      </trkpt>
      <trkpt lat="44.40131" lon="4.13207">
        <ele>217.4</ele>
        <time>2022-03-03T08:51:42Z</time>
      </trkpt>
      <trkpt lat="44.40129" lon="4.13202">
        <ele>309.54688</ele>
        <time>2022-03-03T08:51:48Z</time>
      </trkpt>
      <trkpt lat="44.40125" lon="4.13197">
        <ele>311.68512</ele>
        <time>2022-03-03T08:51:57Z</time>
      </trkpt>
      <trkpt lat="44.40121" lon="4.13194">
        <ele>221.7</ele>
        <time>2022-03-03T08:52:04Z</time>
      </trkpt>
      <trkpt lat="44.40117" lon="4.13189">
        <ele>313.84778</ele>
        <time>2022-03-03T08:52:09Z</time>
      </trkpt>
      <trkpt lat="44.40113" lon="4.13185">
        <ele>225.5</ele>
        <time>2022-03-03T08:52:14Z</time>
      </trkpt>
      <trkpt lat="44.40107" lon="4.13184">
        <ele>315.64243</ele>
        <time>2022-03-03T08:52:21Z</time>
      </trkpt>
      <trkpt lat="44.40103" lon="4.13184">
        <ele>227.3</ele>
        <time>2022-03-03T08:52:26Z</time>
      </trkpt>
      <trkpt lat="44.40098" lon="4.13183">
        <ele>318.20773</ele>
        <time>2022-03-03T08:52:32Z</time>
      </trkpt>
      <trkpt lat="44.40094" lon="4.13185">
        <ele>319.19147</ele>
        <time>2022-03-03T08:52:37Z</time>
      </trkpt>
      <trkpt lat="44.40089" lon="4.13187">
        <ele>228.2</ele>
        <time>2022-03-03T08:52:42Z</time>
      </trkpt>
      <trkpt lat="44.40083" lon="4.13185">
        <ele>320.9701</ele>
        <time>2022-03-03T08:52:49Z</time>
      </trkpt>
      <trkpt lat="44.40078" lon="4.13186">
        <ele>322.82834</ele>
        <time>2022-03-03T08:52:55Z</time>
      </trkpt>
      <trkpt lat="44.40073" lon="4.13187">
        <ele>232.1</ele>
        <time>2022-03-03T08:53:02Z</time>
      </trkpt>
      <trkpt lat="44.40069" lon="4.13191">
        <ele>324.53357</ele>
        <time>2022-03-03T08:53:07Z</time>
      </trkpt>
      <trkpt lat="44.40064" lon="4.13191">
        <ele>233.6</ele>
        <time>2022-03-03T08:53:13Z</time>
      </trkpt>
      <trkpt lat="44.40059" lon="4.1319">
        <ele>326.41153</ele>
        <time>2022-03-03T08:53:20Z</time>
      </trkpt>
      <trkpt lat="44.40054" lon="4.13188">
        <ele>328.34103</ele>
        <time>2022-03-03T08:53:25Z</time>
      </trkpt>
      <trkpt lat="44.4005" lon="4.13186">
        <ele>239.7</ele>
        <time>2022-03-03T08:53:31Z</time>
      </trkpt>
      <trkpt lat="44.40045" lon="4.13184">
        <ele>330.3706</ele>
        <time>2022-03-03T08:53:37Z</time>
      </trkpt>
      <trkpt lat="44.4004" lon="4.13184">
        <ele>243.4</ele>
        <time>2022-03-03T08:53:41Z</time>
      </trkpt>
      <trkpt lat="44.40036" lon="4.13183">
        <ele>332.4062</ele>
        <time>2022-03-03T08:53:45Z</time>
      </trkpt>
      <trkpt lat="44.40031" lon="4.13185">
        <ele>245.9</ele>
        <time>2022-03-03T08:53:53Z</time>
      </trkpt>
      <trkpt lat="44.40026" lon="4.13185">
        <ele>334.1791</ele>
        <time>2022-03-03T08:53:58Z</time>
      </trkpt>
      <trkpt lat="44.40022" lon="4.13187">
        <ele>248.4</ele>
        <time>2022-03-03T08:54:04Z</time>
      </trkpt>
      <trkpt lat="44.40016" lon="4.13189">
        <ele>336.21603</ele>
        <time>2022-03-03T08:54:11Z</time>
      </trkpt>
      <trkpt lat="44.40012" lon="4.13192">
        <ele>338.32492</ele>
        <time>2022-03-03T08:54:17Z</time>
      </trkpt>
      <trkpt lat="44.40009" lon="4.13198">
        <ele>250.6</ele>
        <time>2022-03-03T08:54:23Z</time>
      </trkpt>
      <trkpt lat="44.40007" lon="4.13203">
        <ele>340.14587</ele>
        <time>2022-03-03T08:54:30Z</time>
      </trkpt>
      <trkpt lat="44.40003" lon="4.13209">
        <ele>250.9</ele>
        <time>2022-03-03T08:54:34Z</time>
      </trkpt>
      <trkpt lat="44.40001" lon="4.13215">
        <ele>341.87482</ele>
        <time>2022-03-03T08:54:39Z</time>
      </trkpt>
      <trkpt lat="44.39997" lon="4.1322">
        <ele>251.9</ele>
        <time>2022-03-03T08:54:45Z</time>
      </trkpt>
      <trkpt lat="44.39994" lon="4.13227">
        <ele>344.36368</ele>
        <time>2022-03-03T08:54:52Z</time>
      </trkpt>
      <trkpt lat="44.39992" lon="4.13233">
        <ele>345.15164</ele>
        <time>2022-03-03T08:54:58Z</time>
      </trkpt>
      <trkpt lat="44.39989" lon="4.13239">
        <ele>254.1</ele>
        <time>2022-03-03T08:55:04Z</time>
      </trkpt>
      <trkpt lat="44.39986" lon="4.13245">
        <ele>346.7548</ele>
        <time>2022-03-03T08:55:10Z</time>
      </trkpt>
      <trkpt lat="44.39983" lon="4.13249">
        <ele>348.32315</ele>
        <time>2022-03-03T08:55:17Z</time>
      </trkpt>
      <trkpt lat="44.39981" lon="4.13256">
        <ele>257.4</ele>
        <time>2022-03-03T08:55:23Z</time>
      </trkpt>
      <trkpt lat="44.39981" lon="4.13263">
        <ele>350.13623</ele>
        <time>2022-03-03T08:55:27Z</time>
      </trkpt>
      <trkpt lat="44.3998" lon="4.13271">
        <ele>258.2</ele>
        <time>2022-03-03T08:55:34Z</time>
      </trkpt>
      <trkpt lat="44.39979" lon="4.13278">
        <ele>351.79318</ele>
        <time>2022-03-03T08:55:39Z</time>
      </trkpt>
      <trkpt lat="44.39975" lon="4.13284">
        <ele>261.6</ele>
        <time>2022-03-03T08:55:43Z</time>
        <extensions>
          <gpxtpx:TrackPointExtension xmlns:gpxtpx="http://www.garmin.com/xmlschemas/TrackPointExtension/v1">
            <gpxtpx:hr>156</gpxtpx:hr>
          </gpxtpx:TrackPointExtension>
        </extensions>
      </trkpt>
      <trkpt lat="44.39971" lon="4.13289">
        <ele>353.41043</ele>
        <time>2022-03-03T08:55:46Z</time>
      </trkpt>
      <trkpt lat="44.39969" lon="4.13295">
        <ele>266.7</ele>
        <time>2022-03-03T08:55:50Z</time>
      </trkpt>
      <trkpt lat="44.39968" lon="4.13301">
        <ele>354.62686</ele>
        <time>2022-03-03T08:55:55Z</time>
      </trkpt>
      <trkpt lat="44.39969" lon="4.13309">
        <ele>267.3</ele>
        <time>2022-03-03T08:56:00Z</time>
      </trkpt>
      <trkpt lat="44.39972" lon="4.13316">
        <ele>355.44528</ele>
        <time>2022-03-03T08:56:05Z</time>
      </trkpt>
      <trkpt lat="44.39974" lon="4.13322">
        <ele>265.1</ele>
        <time>2022-03-03T08:56:10Z</time>
      </trkpt>
      <trkpt lat="44.39978" lon="4.13328">
        <ele>263.4</ele>
        <time>2022-03-03T08:56:13Z</time>
      </trkpt>
      <trkpt lat="44.39982" lon="4.13333">
        <ele>356.5026</ele>
        <time>2022-03-03T08:56:17Z</time>
      </trkpt>
      <trkpt lat="44.39985" lon="4.13338">
        <ele>261.1</ele>
        <time>2022-03-03T08:56:22Z</time>
      </trkpt>
      <trkpt lat="44.39984" lon="4.13345">
        <ele>357.5493</ele>
        <time>2022-03-03T08:56:28Z</time>
      </trkpt>
      <trkpt lat="44.3998" lon="4.13345">
        <ele>358.1251</ele>
        <time>2022-03-03T08:56:38Z</time>
      </trkpt>
      <trkpt lat="44.3998" lon="4.13346">
        <ele>358.0707</ele>
        <time>2022-03-03T08:56:48Z</time>
      </trkpt>
      <trkpt lat="44.39979" lon="4.13347">
        <ele>265.5</ele>
        <time>2022-03-03T08:56:58Z</time>
      </trkpt>
      <trkpt lat="44.39979" lon="4.13348">
        <ele>358.38724</ele>
        <time>2022-03-03T08:57:08Z</time>
      </trkpt>
      <trkpt lat="44.3998" lon="4.1335">
        <ele>357.62503</ele>
        <time>2022-03-03T08:57:18Z</time>
      </trkpt>
      <trkpt lat="44.39983" lon="4.13349">
        <ele>358.12897</ele>
        <time>2022-03-03T08:57:28Z</time>
      </trkpt>
      <trkpt lat="44.39981" lon="4.1335">
        <ele>357.91632</ele>
        <time>2022-03-03T08:57:38Z</time>
      </trkpt>
      <trkpt lat="44.39981" lon="4.13343">
        <ele>357.97458</ele>
        <time>2022-03-03T08:57:48Z</time>
      </trkpt>
      <trkpt lat="44.39982" lon="4.13346">
        <ele>357.5949</ele>
        <time>2022-03-03T08:57:58Z</time>
      </trkpt>
      <trkpt lat="44.39982" lon="4.13354">
        <ele>264.9</ele>
        <time>2022-03-03T08:58:03Z</time>
      </trkpt>
      <trkpt lat="44.39983" lon="4.13361">
        <ele>358.46298</ele>
        <time>2022-03-03T08:58:08Z</time>
      </trkpt>
      <trkpt lat="44.39982" lon="4.13367">
        <ele>267</ele>
        <time>2022-03-03T08:58:13Z</time>
      </trkpt>
      <trkpt lat="44.39983" lon="4.1337">
        <ele>360.0827</ele>
        <time>2022-03-03T08:58:23Z</time>
      </trkpt>
      <trkpt lat="44.39982" lon="4.13378">
        <ele>360.84015</ele>
        <time>2022-03-03T08:58:31Z</time>
      </trkpt>
      <trkpt lat="44.39981" lon="4.13385">
        <ele>362.10168</ele>
        <time>2022-03-03T08:58:36Z</time>
      </trkpt>
      <trkpt lat="44.39982" lon="4.13391">
        <ele>271.3</ele>
        <time>2022-03-03T08:58:42Z</time>
      </trkpt>
      <trkpt lat="44.39984" lon="4.13398">
        <ele>363.47983</ele>
        <time>2022-03-03T08:58:51Z</time>
      </trkpt>
      <trkpt lat="44.39986" lon="4.13404">
        <ele>365.09894</ele>
        <time>2022-03-03T08:58:56Z</time>
      </trkpt>
      <trkpt lat="44.39986" lon="4.1341">
        <ele>272.5</ele>
        <time>2022-03-03T08:59:00Z</time>
      </trkpt>
      <trkpt lat="44.39988" lon="4.13417">
        <ele>366.6803</ele>
        <time>2022-03-03T08:59:06Z</time>
      </trkpt>
      <trkpt lat="44.3999" lon="4.13423">
        <ele>273.8</ele>
        <time>2022-03-03T08:59:11Z</time>
      </trkpt>
      <trkpt lat="44.39991" lon="4.13429">
        <ele>367.99658</ele>
        <time>2022-03-03T08:59:16Z</time>
      </trkpt>
      <trkpt lat="44.39993" lon="4.13435">
        <ele>276.1</ele>
        <time>2022-03-03T08:59:20Z</time>
      </trkpt>
      <trkpt lat="44.39994" lon="4.13441">
        <ele>277.3</ele>
        <time>2022-03-03T08:59:24Z</time>
      </trkpt>
      <trkpt lat="44.39997" lon="4.13447">
        <ele>277.9</ele>
        <time>2022-03-03T08:59:29Z</time>
      </trkpt>
      <trkpt lat="44.39999" lon="4.13453">
        <ele>370.49625</ele>
        <time>2022-03-03T08:59:34Z</time>
      </trkpt>
      <trkpt lat="44.39998" lon="4.1346">
        <ele>371.37747</ele>
        <time>2022-03-03T08:59:40Z</time>
      </trkpt>
      <trkpt lat="44.39994" lon="4.13456">
        <ele>373.13516</ele>
        <time>2022-03-03T08:59:48Z</time>
      </trkpt>
      <trkpt lat="44.3999" lon="4.13454">
        <ele>282.4</ele>
        <time>2022-03-03T08:59:54Z</time>
      </trkpt>
      <trkpt lat="44.39985" lon="4.1345">
        <ele>374.09616</ele>
        <time>2022-03-03T09:00:00Z</time>
      </trkpt>
      <trkpt lat="44.39981" lon="4.13446">
        <ele>283.5</ele>
        <time>2022-03-03T09:00:03Z</time>
      </trkpt>
      <trkpt lat="44.39977" lon="4.13442">
        <ele>375.59363</ele>
        <time>2022-03-03T09:00:07Z</time>
      </trkpt>
      <trkpt lat="44.39973" lon="4.13437">
        <ele>283.8</ele>
        <time>2022-03-03T09:00:12Z</time>
      </trkpt>
      <trkpt lat="44.39968" lon="4.13433">
        <ele>377.42944</ele>
        <time>2022-03-03T09:00:17Z</time>
      </trkpt>
      <trkpt lat="44.39965" lon="4.13429">
        <ele>284.1</ele>
        <time>2022-03-03T09:00:21Z</time>
      </trkpt>
      <trkpt lat="44.39961" lon="4.13424">
        <ele>378.44797</ele>
        <time>2022-03-03T09:00:25Z</time>
      </trkpt>
      <trkpt lat="44.39957" lon="4.13419">
        <ele>284.7</ele>
        <time>2022-03-03T09:00:29Z</time>
      </trkpt>
      <trkpt lat="44.39954" lon="4.13414">
        <ele>285.4</ele>
        <time>2022-03-03T09:00:33Z</time>
      </trkpt>
      <trkpt lat="44.39951" lon="4.13408">
        <ele>379.09918</ele>
        <time>2022-03-03T09:00:37Z</time>
      </trkpt>
      <trkpt lat="44.39949" lon="4.13402">
        <ele>286.6</ele>
        <time>2022-03-03T09:00:41Z</time>
      </trkpt>
      <trkpt lat="44.39947" lon="4.13394">
        <ele>380.51242</ele>
        <time>2022-03-03T09:00:46Z</time>
      </trkpt>
      <trkpt lat="44.39945" lon="4.13387">
        <ele>287.6</ele>
        <time>2022-03-03T09:00:50Z</time>
      </trkpt>
      <trkpt lat="44.39943" lon="4.13381">
        <ele>287.7</ele>
        <time>2022-03-03T09:00:54Z</time>
      </trkpt>
      <trkpt lat="44.39942" lon="4.13375">
        <ele>380.632</ele>
        <time>2022-03-03T09:00:58Z</time>
      </trkpt>
      <trkpt lat="44.39939" lon="4.13369">
        <ele>287.5</ele>
        <time>2022-03-03T09:01:02Z</time>
      </trkpt>
      <trkpt lat="44.39936" lon="4.13362">
        <ele>380.39093</ele>
        <time>2022-03-03T09:01:06Z</time>
      </trkpt>
      <trkpt lat="44.39935" lon="4.13355">
        <ele>287.4</ele>
        <time>2022-03-03T09:01:10Z</time>
      </trkpt>
      <trkpt lat="44.39932" lon="4.13349">
        <ele>287.4</ele>
        <time>2022-03-03T09:01:14Z</time>
      </trkpt>
      <trkpt lat="44.39932" lon="4.13341">
        <ele>380.46286</ele>
        <time>2022-03-03T09:01:18Z</time>
      </trkpt>
      <trkpt lat="44.39931" lon="4.13334">
        <ele>287</ele>
        <time>2022-03-03T09:01:22Z</time>
      </trkpt>
      <trkpt lat="44.39931" lon="4.13327">
        <ele>381.09662</ele>
        <time>2022-03-03T09:01:26Z</time>
      </trkpt>
      <trkpt lat="44.3993" lon="4.1332">
        <ele>287.4</ele>
        <time>2022-03-03T09:01:30Z</time>
      </trkpt>
      <trkpt lat="44.3993" lon="4.13313">
        <ele>382.07452</ele>
        <time>2022-03-03T09:01:35Z</time>
      </trkpt>
      <trkpt lat="44.39929" lon="4.13306">
        <ele>288</ele>
        <time>2022-03-03T09:01:40Z</time>
      </trkpt>
      <trkpt lat="44.39928" lon="4.13298">
        <ele>288.5</ele>
        <time>2022-03-03T09:01:46Z</time>
      </trkpt>
      <trkpt lat="44.39927" lon="4.13291">
        <ele>383.67075</ele>
        <time>2022-03-03T09:01:51Z</time>
      </trkpt>
      <trkpt lat="44.39927" lon="4.13285">
        <ele>289</ele>
        <time>2022-03-03T09:01:55Z</time>
      </trkpt>
      <trkpt lat="44.39926" lon="4.13277">
        <ele>384.78</ele>
        <time>2022-03-03T09:02:00Z</time>
      </trkpt>
      <trkpt lat="44.39926" lon="4.13269">
        <ele>385.48776</ele>
        <time>2022-03-03T09:02:05Z</time>
      </trkpt>
      <trkpt lat="44.39926" lon="4.13262">
        <ele>290.2</ele>
        <time>2022-03-03T09:02:09Z</time>
      </trkpt>
      <trkpt lat="44.39926" lon="4.13256">
        <ele>290.7</ele>
        <time>2022-03-03T09:02:14Z</time>
      </trkpt>
      <trkpt lat="44.39926" lon="4.13249">
        <ele>386.71964</ele>
        <time>2022-03-03T09:02:20Z</time>
      </trkpt>
      <trkpt lat="44.39926" lon="4.13241">
        <ele>387.75516</ele>
        <time>2022-03-03T09:02:25Z</time>
      </trkpt>
      <trkpt lat="44.39926" lon="4.13233">
        <ele>291.7</ele>
        <time>2022-03-03T09:02:30Z</time>
      </trkpt>
      <trkpt lat="44.39925" lon="4.13227">
        <ele>292.1</ele>
        <time>2022-03-03T09:02:34Z</time>
      </trkpt>
      <trkpt lat="44.39926" lon="4.1322">
        <ele>388.77515</ele>
        <time>2022-03-03T09:02:38Z</time>
      </trkpt>
      <trkpt lat="44.39927" lon="4.13214">
        <ele>389.14273</ele>
        <time>2022-03-03T09:02:46Z</time>
      </trkpt>
      <trkpt lat="44.39927" lon="4.13214">
        <ele>389.4743</ele>
        <time>2022-03-03T09:02:56Z</time>
      </trkpt>
      <trkpt lat="44.39924" lon="4.13208">
        <ele>293</ele>
        <time>2022-03-03T09:03:04Z</time>
      </trkpt>
      <trkpt lat="44.39924" lon="4.132">
        <ele>389.35568</ele>
        <time>2022-03-03T09:03:08Z</time>
      </trkpt>
      <trkpt lat="44.39923" lon="4.13192">
        <ele>293.8</ele>
        <time>2022-03-03T09:03:12Z</time>
      </trkpt>
      <trkpt lat="44.39924" lon="4.13185">
        <ele>390.00916</ele>
        <time>2022-03-03T09:03:16Z</time>
      </trkpt>
      <trkpt lat="44.39922" lon="4.13178">
        <ele>294.7</ele>
        <time>2022-03-03T09:03:20Z</time>
      </trkpt>
      <trkpt lat="44.39922" lon="4.13171">
        <ele>295.2</ele>
        <time>2022-03-03T09:03:24Z</time>
      </trkpt>
      <trkpt lat="44.39919" lon="4.13165">
        <ele>390.21338</ele>
        <time>2022-03-03T09:03:28Z</time>
      </trkpt>
      <trkpt lat="44.39917" lon="4.13159">
        <ele>297.2</ele>
        <time>2022-03-03T09:03:31Z</time>
      </trkpt>
      <trkpt lat="44.39914" lon="4.13153">
        <ele>297.4</ele>
        <time>2022-03-03T09:03:34Z</time>
        <extensions>
          <gpxtpx:TrackPointExtension xmlns:gpxtpx="http://www.garmin.com/xmlschemas/TrackPointExtension/v1">
            <gpxtpx:hr>149</gpxtpx:hr>
          </gpxtpx:TrackPointExtension>
        </extensions>
      </trkpt>
      <trkpt lat="44.39912" lon="4.13147">
        <ele>390.2192</ele>
        <time>2022-03-03T09:03:38Z</time>
      </trkpt>
      <trkpt lat="44.39909" lon="4.13142">
        <ele>297.6</ele>
        <time>2022-03-03T09:03:41Z</time>
      </trkpt>
      <trkpt lat="44.39906" lon="4.13137">
        <ele>390.30185</ele>
        <time>2022-03-03T09:03:45Z</time>
      </trkpt>
      <trkpt lat="44.39903" lon="4.1313">
        <ele>298</ele>
        <time>2022-03-03T09:03:49Z</time>
      </trkpt>
      <trkpt lat="44.399" lon="4.13125">
        <ele>298.1</ele>
        <time>2022-03-03T09:03:52Z</time>
      </trkpt>
      <trkpt lat="44.39897" lon="4.13119">
        <ele>390.3145</ele>
        <time>2022-03-03T09:03:55Z</time>
      </trkpt>
      <trkpt lat="44.39894" lon="4.13113">
        <ele>298.3</ele>
        <time>2022-03-03T09:03:59Z</time>
      </trkpt>
      <trkpt lat="44.3989" lon="4.13107">
        <ele>298.3</ele>
        <time>2022-03-03T09:04:03Z</time>
      </trkpt>
      <trkpt lat="44.39887" lon="4.13101">
        <ele>390.4808</ele>
        <time>2022-03-03T09:04:06Z</time>
      </trkpt>
      <trkpt lat="44.39884" lon="4.13095">
        <ele>298.1</ele>
        <time>2022-03-03T09:04:10Z</time>
      </trkpt>
      <trkpt lat="44.39881" lon="4.13088">
        <ele>298</ele>
        <time>2022-03-03T09:04:14Z</time>
      </trkpt>
      <trkpt lat="44.39879" lon="4.13083">
        <ele>298</ele>
        <time>2022-03-03T09:04:17Z</time>
      </trkpt>
      <trkpt lat="44.39877" lon="4.13077">
        <ele>390.95828</ele>
        <time>2022-03-03T09:04:20Z</time>
      </trkpt>
      <trkpt lat="44.39876" lon="4.1307">
        <ele>298.3</ele>
        <time>2022-03-03T09:04:25Z</time>
      </trkpt>
      <trkpt lat="44.39875" lon="4.13062">
        <ele>298.6</ele>
        <time>2022-03-03T09:04:29Z</time>
      </trkpt>
      <trkpt lat="44.39876" lon="4.13055">
        <ele>391.7927</ele>
        <time>2022-03-03T09:04:33Z</time>
      </trkpt>
      <trkpt lat="44.39877" lon="4.13048">
        <ele>392.1564</ele>
        <time>2022-03-03T09:04:36Z</time>
      </trkpt>
      <trkpt lat="44.39877" lon="4.1304">
        <ele>299.7</ele>
        <time>2022-03-03T09:04:39Z</time>
      </trkpt>
      <trkpt lat="44.39877" lon="4.13034">
        <ele>300</ele>
        <time>2022-03-03T09:04:43Z</time>
      </trkpt>
      <trkpt lat="44.39878" lon="4.13026">
        <ele>392.8012</ele>
        <time>2022-03-03T09:04:47Z</time>
      </trkpt>
      <trkpt lat="44.39879" lon="4.13018">
        <ele>300.3</ele>
        <time>2022-03-03T09:04:51Z</time>
      </trkpt>
      <trkpt lat="44.39879" lon="4.1301">
        <ele>393.35074</ele>
        <time>2022-03-03T09:04:55Z</time>
      </trkpt>
      <trkpt lat="44.39877" lon="4.13003">
        <ele>300.2</ele>
        <time>2022-03-03T09:04:59Z</time>
      </trkpt>
      <trkpt lat="44.39876" lon="4.12996">
        <ele>300.1</ele>
        <time>2022-03-03T09:05:02Z</time>
      </trkpt>
      <trkpt lat="44.39876" lon="4.12989">
        <ele>393.34976</ele>
        <time>2022-03-03T09:05:05Z</time>
      </trkpt>
      <trkpt lat="44.39875" lon="4.12981">
        <ele>300</ele>
        <time>2022-03-03T09:05:09Z</time>
      </trkpt>
      <trkpt lat="44.39876" lon="4.12975">
        <ele>300.1</ele>
        <time>2022-03-03T09:05:13Z</time>
      </trkpt>
      <trkpt lat="44.39874" lon="4.12968">
        <ele>392.91113</ele>
        <time>2022-03-03T09:05:16Z</time>
      </trkpt>
      <trkpt lat="44.39874" lon="4.1296">
        <ele>299.9</ele>
        <time>2022-03-03T09:05:20Z</time>
      </trkpt>
      <trkpt lat="44.39871" lon="4.12953">
        <ele>299.7</ele>
        <time>2022-03-03T09:05:24Z</time>
      </trkpt>
      <trkpt lat="44.3987" lon="4.12947">
        <ele>392.6495</ele>
        <time>2022-03-03T09:05:28Z</time>
      </trkpt>
      <trkpt lat="44.3987" lon="4.1294">
        <ele>299.4</ele>
        <time>2022-03-03T09:05:32Z</time>
      </trkpt>
      <trkpt lat="44.39872" lon="4.12933">
        <ele>392.01248</ele>
        <time>2022-03-03T09:05:36Z</time>
      </trkpt>
      <trkpt lat="44.39872" lon="4.12926">
        <ele>298.9</ele>
        <time>2022-03-03T09:05:40Z</time>
      </trkpt>
      <trkpt lat="44.3987" lon="4.12923">
        <ele>391.67307</ele>
        <time>2022-03-03T09:05:50Z</time>
      </trkpt>
      <trkpt lat="44.39867" lon="4.12916">
        <ele>298.2</ele>
        <time>2022-03-03T09:05:54Z</time>
      </trkpt>
      <trkpt lat="44.39866" lon="4.12908">
        <ele>391.53302</ele>
        <time>2022-03-03T09:05:57Z</time>
      </trkpt>
      <trkpt lat="44.39866" lon="4.12901">
        <ele>297.7</ele>
        <time>2022-03-03T09:06:00Z</time>
      </trkpt>
      <trkpt lat="44.39866" lon="4.12895">
        <ele>297.5</ele>
        <time>2022-03-03T09:06:03Z</time>
      </trkpt>
      <trkpt lat="44.39865" lon="4.12887">
        <ele>391.01953</ele>
        <time>2022-03-03T09:06:08Z</time>
      </trkpt>
      <trkpt lat="44.39865" lon="4.12879">
        <ele>297.6</ele>
        <time>2022-03-03T09:06:12Z</time>
      </trkpt>
      <trkpt lat="44.39865" lon="4.12872">
        <ele>390.88242</ele>
        <time>2022-03-03T09:06:15Z</time>
      </trkpt>
      <trkpt lat="44.39864" lon="4.12865">
        <ele>298</ele>
        <time>2022-03-03T09:06:19Z</time>
      </trkpt>
      <trkpt lat="44.39862" lon="4.12857">
        <ele>298.2</ele>
        <time>2022-03-03T09:06:23Z</time>
      </trkpt>
      <trkpt lat="44.39862" lon="4.1285">
        <ele>391.07108</ele>
        <time>2022-03-03T09:06:26Z</time>
      </trkpt>
      <trkpt lat="44.39861" lon="4.12842">
        <ele>298.7</ele>
        <time>2022-03-03T09:06:30Z</time>
      </trkpt>
      <trkpt lat="44.3986" lon="4.12836">
        <ele>298.9</ele>
        <time>2022-03-03T09:06:34Z</time>
      </trkpt>
      <trkpt lat="44.39859" lon="4.12829">
        <ele>391.4387</ele>
        <time>2022-03-03T09:06:37Z</time>
      </trkpt>
      <trkpt lat="44.39858" lon="4.12822">
        <ele>298.9</ele>
        <time>2022-03-03T09:06:40Z</time>
      </trkpt>
      <trkpt lat="44.39858" lon="4.12814">
        <ele>298.9</ele>
        <time>2022-03-03T09:06:44Z</time>
        <extensions>
          <gpxtpx:TrackPointExtension xmlns:gpxtpx="http://www.garmin.com/xmlschemas/TrackPointExtension/v1">
            <gpxtpx:hr>136</gpxtpx:hr>
          </gpxtpx:TrackPointExtension>
        </extensions>
      </trkpt>
      <trkpt lat="44.39859" lon="4.12808">
        <ele>298.9</ele>
        <time>2022-03-03T09:06:48Z</time>
      </trkpt>
      <trkpt lat="44.39859" lon="4.128">
        <ele>391.8024</ele>
        <time>2022-03-03T09:06:52Z</time>
      </trkpt>
      <trkpt lat="44.39858" lon="4.12792">
        <ele>299.4</ele>
        <time>2022-03-03T09:06:56Z</time>
      </trkpt>
      <trkpt lat="44.39858" lon="4.12785">
        <ele>392.22742</ele>
        <time>2022-03-03T09:07:00Z</time>
      </trkpt>
      <trkpt lat="44.39857" lon="4.12778">
        <ele>299.8</ele>
        <time>2022-03-03T09:07:04Z</time>
      </trkpt>
      <trkpt lat="44.39856" lon="4.1277">
        <ele>392.35092</ele>
        <time>2022-03-03T09:07:09Z</time>
      </trkpt>
      <trkpt lat="44.39856" lon="4.12763">
        <ele>299.9</ele>
        <time>2022-03-03T09:07:13Z</time>
      </trkpt>
      <trkpt lat="44.39856" lon="4.12756">
        <ele>392.6777</ele>
        <time>2022-03-03T09:07:17Z</time>
      </trkpt>
      <trkpt lat="44.39854" lon="4.12749">
        <ele>300</ele>
        <time>2022-03-03T09:07:22Z</time>
      </trkpt>
      <trkpt lat="44.39851" lon="4.12743">
        <ele>393.05215</ele>
        <time>2022-03-03T09:07:26Z</time>
      </trkpt>
      <trkpt lat="44.39852" lon="4.12736">
        <ele>300</ele>
        <time>2022-03-03T09:07:31Z</time>
      </trkpt>
      <trkpt lat="44.39852" lon="4.12728">
        <ele>393.56274</ele>
        <time>2022-03-03T09:07:35Z</time>
      </trkpt>
      <trkpt lat="44.39852" lon="4.12721">
        <ele>300</ele>
        <time>2022-03-03T09:07:39Z</time>
      </trkpt>
      <trkpt lat="44.39851" lon="4.12714">
        <ele>300.1</ele>
        <time>2022-03-03T09:07:42Z</time>
      </trkpt>
      <trkpt lat="44.39852" lon="4.12707">
        <ele>393.87787</ele>
        <time>2022-03-03T09:07:46Z</time>
      </trkpt>
      <trkpt lat="44.39853" lon="4.12701">
        <ele>300.2</ele>
        <time>2022-03-03T09:07:50Z</time>
      </trkpt>
      <trkpt lat="44.39853" lon="4.12694">
        <ele>300.3</ele>
        <time>2022-03-03T09:07:54Z</time>
      </trkpt>
      <trkpt lat="44.39852" lon="4.12686">
        <ele>394.06073</ele>
        <time>2022-03-03T09:07:58Z</time>
      </trkpt>
      <trkpt lat="44.39852" lon="4.12679">
        <ele>300.1</ele>
        <time>2022-03-03T09:08:02Z</time>
      </trkpt>
      <trkpt lat="44.39851" lon="4.12672">
        <ele>394.2183</ele>
        <time>2022-03-03T09:08:05Z</time>
      </trkpt>
      <trkpt lat="44.39848" lon="4.12665">
        <ele>300</ele>
        <time>2022-03-03T09:08:09Z</time>
      </trkpt>
      <trkpt lat="44.39848" lon="4.12659">
        <ele>300.1</ele>
        <time>2022-03-03T09:08:12Z</time>
      </trkpt>
      <trkpt lat="44.39847" lon="4.12652">
        <ele>393.91678</ele>
        <time>2022-03-03T09:08:16Z</time>
      </trkpt>
      <trkpt lat="44.39848" lon="4.12645">
        <ele>300.4</ele>
        <time>2022-03-03T09:08:20Z</time>
      </trkpt>
      <trkpt lat="44.39848" lon="4.12639">
        <ele>300.5</ele>
        <time>2022-03-03T09:08:24Z</time>
      </trkpt>
      <trkpt lat="44.39849" lon="4.12632">
        <ele>394.0802</ele>
        <time>2022-03-03T09:08:28Z</time>
      </trkpt>
      <trkpt lat="44.39848" lon="4.12625">
        <ele>300.7</ele>
        <time>2022-03-03T09:08:33Z</time>
      </trkpt>
      <trkpt lat="44.39849" lon="4.12617">
        <ele>394.19302</ele>
        <time>2022-03-03T09:08:38Z</time>
      </trkpt>
      <trkpt lat="44.3985" lon="4.12611">
        <ele>301</ele>
        <time>2022-03-03T09:08:42Z</time>
      </trkpt>
      <trkpt lat="44.3985" lon="4.12604">
        <ele>394.42935</ele>
        <time>2022-03-03T09:08:45Z</time>
      </trkpt>
      <trkpt lat="44.3985" lon="4.12598">
        <ele>301.5</ele>
        <time>2022-03-03T09:08:48Z</time>
      </trkpt>
      <trkpt lat="44.39849" lon="4.12592">
        <ele>301.7</ele>
        <time>2022-03-03T09:08:51Z</time>
      </trkpt>
      <trkpt lat="44.3985" lon="4.12584">
        <ele>394.90207</ele>
        <time>2022-03-03T09:08:55Z</time>
      </trkpt>
      <trkpt lat="44.39849" lon="4.12577">
        <ele>302.3</ele>
        <time>2022-03-03T09:08:59Z</time>
      </trkpt>
      <trkpt lat="44.39848" lon="4.12571">
        <ele>302.7</ele>
        <time>2022-03-03T09:09:04Z</time>
      </trkpt>
      <trkpt lat="44.39848" lon="4.12563">
        <ele>395.18414</ele>
        <time>2022-03-03T09:09:08Z</time>
      </trkpt>
      <trkpt lat="44.39847" lon="4.12556">
        <ele>303.5</ele>
        <time>2022-03-03T09:09:12Z</time>
      </trkpt>
      <trkpt lat="44.39847" lon="4.1255">
        <ele>395.93408</ele>
        <time>2022-03-03T09:09:16Z</time>
      </trkpt>
      <trkpt lat="44.39846" lon="4.12544">
        <ele>303.8</ele>
        <time>2022-03-03T09:09:19Z</time>
      </trkpt>
      <trkpt lat="44.39845" lon="4.12538">
        <ele>304</ele>
        <time>2022-03-03T09:09:22Z</time>
      </trkpt>
      <trkpt lat="44.39843" lon="4.12532">
        <ele>304.2</ele>
        <time>2022-03-03T09:09:26Z</time>
      </trkpt>
      <trkpt lat="44.39841" lon="4.12525">
        <ele>396.9545</ele>
        <time>2022-03-03T09:09:31Z</time>
      </trkpt>
      <trkpt lat="44.39838" lon="4.12519">
        <ele>304.4</ele>
        <time>2022-03-03T09:09:36Z</time>
      </trkpt>
      <trkpt lat="44.39834" lon="4.12517">
        <ele>304.9</ele>
        <time>2022-03-03T09:09:39Z</time>
      </trkpt>
      <trkpt lat="44.3983" lon="4.12512">
        <ele>397.7804</ele>
        <time>2022-03-03T09:09:43Z</time>
      </trkpt>
      <trkpt lat="44.39827" lon="4.12509">
        <ele>398.18604</ele>
        <time>2022-03-03T09:09:47Z</time>
      </trkpt>
      <trkpt lat="44.39822" lon="4.12505">
        <ele>305.3</ele>
        <time>2022-03-03T09:09:51Z</time>
      </trkpt>
      <trkpt lat="44.39817" lon="4.12501">
        <ele>398.7094</ele>
        <time>2022-03-03T09:09:56Z</time>
      </trkpt>
      <trkpt lat="44.39813" lon="4.12495">
        <ele>305.9</ele>
        <time>2022-03-03T09:10:01Z</time>
      </trkpt>
      <trkpt lat="44.39808" lon="4.12491">
        <ele>399.3953</ele>
        <time>2022-03-03T09:10:05Z</time>
      </trkpt>
      <trkpt lat="44.39805" lon="4.12487">
        <ele>307</ele>
        <time>2022-03-03T09:10:09Z</time>
      </trkpt>
      <trkpt lat="44.398" lon="4.12482">
        <ele>307.5</ele>
        <time>2022-03-03T09:10:14Z</time>
      </trkpt>
      <trkpt lat="44.39796" lon="4.12478">
        <ele>400.57443</ele>
        <time>2022-03-03T09:10:19Z</time>
      </trkpt>
      <trkpt lat="44.39792" lon="4.12476">
        <ele>308.3</ele>
        <time>2022-03-03T09:10:23Z</time>
      </trkpt>
      <trkpt lat="44.39787" lon="4.12473">
        <ele>401.79355</ele>
        <time>2022-03-03T09:10:27Z</time>
      </trkpt>
      <trkpt lat="44.39782" lon="4.12471">
        <ele>308.9</ele>
        <time>2022-03-03T09:10:31Z</time>
      </trkpt>
      <trkpt lat="44.39777" lon="4.12468">
        <ele>402.75876</ele>
        <time>2022-03-03T09:10:36Z</time>
      </trkpt>
      <trkpt lat="44.39771" lon="4.12466">
        <ele>309.4</ele>
        <time>2022-03-03T09:10:41Z</time>
      </trkpt>
      <trkpt lat="44.39767" lon="4.12463">
        <ele>403.32312</ele>
        <time>2022-03-03T09:10:45Z</time>
      </trkpt>
      <trkpt lat="44.39762" lon="4.1246">
        <ele>310</ele>
        <time>2022-03-03T09:10:49Z</time>
      </trkpt>
      <trkpt lat="44.39758" lon="4.12457">
        <ele>310.3</ele>
        <time>2022-03-03T09:10:53Z</time>
      </trkpt>
      <trkpt lat="44.39753" lon="4.12454">
        <ele>404.06363</ele>
        <time>2022-03-03T09:10:56Z</time>
      </trkpt>
      <trkpt lat="44.39748" lon="4.12452">
        <ele>310.8</ele>
        <time>2022-03-03T09:11:00Z</time>
      </trkpt>
      <trkpt lat="44.39744" lon="4.12449">
        <ele>311.1</ele>
        <time>2022-03-03T09:11:03Z</time>
      </trkpt>
      <trkpt lat="44.3974" lon="4.12445">
        <ele>404.61246</ele>
        <time>2022-03-03T09:11:07Z</time>
      </trkpt>
      <trkpt lat="44.39737" lon="4.12442">
        <ele>311.5</ele>
        <time>2022-03-03T09:11:12Z</time>
      </trkpt>
      <trkpt lat="44.39733" lon="4.12436">
        <ele>404.87616</ele>
        <time>2022-03-03T09:11:17Z</time>
      </trkpt>
      <trkpt lat="44.3973" lon="4.12431">
        <ele>311.9</ele>
        <time>2022-03-03T09:11:23Z</time>
      </trkpt>
      <trkpt lat="44.39726" lon="4.12428">
        <ele>405.15933</ele>
        <time>2022-03-03T09:11:27Z</time>
      </trkpt>
      <trkpt lat="44.39723" lon="4.12424">
        <ele>405.4902</ele>
        <time>2022-03-03T09:11:37Z</time>
      </trkpt>
      <trkpt lat="44.39719" lon="4.12421">
        <ele>311.9</ele>
        <time>2022-03-03T09:11:41Z</time>
      </trkpt>
      <trkpt lat="44.39714" lon="4.12417">
        <ele>404.89853</ele>
        <time>2022-03-03T09:11:45Z</time>
      </trkpt>
      <trkpt lat="44.39711" lon="4.12414">
        <ele>311.6</ele>
        <time>2022-03-03T09:11:51Z</time>
      </trkpt>
      <trkpt lat="44.39705" lon="4.1241">
        <ele>404.91898</ele>
        <time>2022-03-03T09:11:55Z</time>
      </trkpt>
      <trkpt lat="44.397" lon="4.12407">
        <ele>311.5</ele>
        <time>2022-03-03T09:11:59Z</time>
      </trkpt>
      <trkpt lat="44.39695" lon="4.12404">
        <ele>311.5</ele>
        <time>2022-03-03T09:12:03Z</time>
      </trkpt>
      <trkpt lat="44.3969" lon="4.124">
        <ele>311.4</ele>
        <time>2022-03-03T09:12:07Z</time>
      </trkpt>
      <trkpt lat="44.39686" lon="4.12396">
        <ele>404.59103</ele>
        <time>2022-03-03T09:12:10Z</time>
      </trkpt>
      <trkpt lat="44.39682" lon="4.12392">
        <ele>311.5</ele>
        <time>2022-03-03T09:12:13Z</time>
      </trkpt>
      <trkpt lat="44.39679" lon="4.12387">
        <ele>311.5</ele>
        <time>2022-03-03T09:12:15Z</time>
      </trkpt>
      <trkpt lat="44.39675" lon="4.12382">
        <ele>311.5</ele>
        <time>2022-03-03T09:12:19Z</time>
      </trkpt>
      <trkpt lat="44.39671" lon="4.12377">
        <ele>404.58908</ele>
        <time>2022-03-03T09:12:22Z</time>
      </trkpt>
      <trkpt lat="44.39667" lon="4.12371">
        <ele>404.69614</ele>
        <time>2022-03-03T09:12:26Z</time>
      </trkpt>
      <trkpt lat="44.39663" lon="4.12366">
        <ele>311.5</ele>
        <time>2022-03-03T09:12:30Z</time>
      </trkpt>
      <trkpt lat="44.3966" lon="4.12361">
        <ele>311.3</ele>
        <time>2022-03-03T09:12:33Z</time>
      </trkpt>
      <trkpt lat="44.39657" lon="4.12356">
        <ele>404.69516</ele>
        <time>2022-03-03T09:12:36Z</time>
      </trkpt>
      <trkpt lat="44.39654" lon="4.12349">
        <ele>310.8</ele>
        <time>2022-03-03T09:12:40Z</time>
      </trkpt>
      <trkpt lat="44.39651" lon="4.12343">
        <ele>310.7</ele>
        <time>2022-03-03T09:12:44Z</time>
        <extensions>
          <gpxtpx:TrackPointExtension xmlns:gpxtpx="http://www.garmin.com/xmlschemas/TrackPointExtension/v1">
            <gpxtpx:hr>129</gpxtpx:hr>
          </gpxtpx:TrackPointExtension>
        </extensions>
      </trkpt>
      <trkpt lat="44.39648" lon="4.12337">
        <ele>404.21152</ele>
        <time>2022-03-03T09:12:48Z</time>
      </trkpt>
      <trkpt lat="44.39645" lon="4.12331">
        <ele>310.5</ele>
        <time>2022-03-03T09:12:53Z</time>
      </trkpt>
      <trkpt lat="44.39643" lon="4.12325">
        <ele>404.1298</ele>
        <time>2022-03-03T09:12:56Z</time>
      </trkpt>
      <trkpt lat="44.39641" lon="4.12318">
        <ele>310.6</ele>
        <time>2022-03-03T09:12:59Z</time>
      </trkpt>
      <trkpt lat="44.39639" lon="4.12312">
        <ele>310.8</ele>
        <time>2022-03-03T09:13:03Z</time>
      </trkpt>
      <trkpt lat="44.39636" lon="4.12307">
        <ele>404.56378</ele>
        <time>2022-03-03T09:13:06Z</time>
      </trkpt>
      <trkpt lat="44.39634" lon="4.12301">
        <ele>310.8</ele>
        <time>2022-03-03T09:13:09Z</time>
      </trkpt>
      <trkpt lat="44.39631" lon="4.12295">
        <ele>310.8</ele>
        <time>2022-03-03T09:13:12Z</time>
      </trkpt>
      <trkpt lat="44.39629" lon="4.1229">
        <ele>404.75647</ele>
        <time>2022-03-03T09:13:15Z</time>
      </trkpt>
      <trkpt lat="44.39626" lon="4.12284">
        <ele>310.9</ele>
        <time>2022-03-03T09:13:19Z</time>
      </trkpt>
      <trkpt lat="44.39625" lon="4.12276">
        <ele>311</ele>
        <time>2022-03-03T09:13:23Z</time>
      </trkpt>
      <trkpt lat="44.39623" lon="4.12271">
        <ele>405.06104</ele>
        <time>2022-03-03T09:13:27Z</time>
      </trkpt>
      <trkpt lat="44.39619" lon="4.12264">
        <ele>311.1</ele>
        <time>2022-03-03T09:13:31Z</time>
      </trkpt>
      <trkpt lat="44.39616" lon="4.12258">
        <ele>405.14084</ele>
        <time>2022-03-03T09:13:36Z</time>
      </trkpt>
      <trkpt lat="44.39612" lon="4.12251">
        <ele>311</ele>
        <time>2022-03-03T09:13:40Z</time>
      </trkpt>
      <trkpt lat="44.39609" lon="4.12246">
        <ele>310.9</ele>
        <time>2022-03-03T09:13:44Z</time>
        <extensions>
          <gpxtpx:TrackPointExtension xmlns:gpxtpx="http://www.garmin.com/xmlschemas/TrackPointExtension/v1">
            <gpxtpx:hr>121</gpxtpx:hr>
          </gpxtpx:TrackPointExtension>
        </extensions>
      </trkpt>
      <trkpt lat="44.3961" lon="4.12246">
        <ele>404.7691</ele>
        <time>2022-03-03T09:13:54Z</time>
      </trkpt>
      <trkpt lat="44.3961" lon="4.12247">
        <ele>405.02795</ele>
        <time>2022-03-03T09:14:04Z</time>
      </trkpt>
      <trkpt lat="44.39605" lon="4.12245">
        <ele>404.98807</ele>
        <time>2022-03-03T09:14:13Z</time>
      </trkpt>
      <trkpt lat="44.39602" lon="4.1224">
        <ele>404.8966</ele>
        <time>2022-03-03T09:14:17Z</time>
      </trkpt>
      <trkpt lat="44.396" lon="4.12234">
        <ele>310.6</ele>
        <time>2022-03-03T09:14:20Z</time>
      </trkpt>
      <trkpt lat="44.39596" lon="4.12228">
        <ele>310.6</ele>
        <time>2022-03-03T09:14:24Z</time>
      </trkpt>
      <trkpt lat="44.39592" lon="4.12222">
        <ele>405.12234</ele>
        <time>2022-03-03T09:14:28Z</time>
      </trkpt>
      <trkpt lat="44.39589" lon="4.12217">
        <ele>310.7</ele>
        <time>2022-03-03T09:14:31Z</time>
      </trkpt>
      <trkpt lat="44.39585" lon="4.12213">
        <ele>310.8</ele>
        <time>2022-03-03T09:14:35Z</time>
      </trkpt>
      <trkpt lat="44.39581" lon="4.12208">
        <ele>310.9</ele>
        <time>2022-03-03T09:14:39Z</time>
      </trkpt>
      <trkpt lat="44.39577" lon="4.12204">
        <ele>404.7331</ele>
        <time>2022-03-03T09:14:43Z</time>
      </trkpt>
      <trkpt lat="44.39572" lon="4.12199">
        <ele>310.9</ele>
        <time>2022-03-03T09:14:47Z</time>
      </trkpt>
      <trkpt lat="44.39569" lon="4.12194">
        <ele>404.35068</ele>
        <time>2022-03-03T09:14:50Z</time>
      </trkpt>
      <trkpt lat="44.39564" lon="4.1219">
        <ele>310.6</ele>
        <time>2022-03-03T09:14:53Z</time>
      </trkpt>
      <trkpt lat="44.3956" lon="4.12188">
        <ele>404.11227</ele>
        <time>2022-03-03T09:14:56Z</time>
      </trkpt>
      <trkpt lat="44.39556" lon="4.12184">
        <ele>310</ele>
        <time>2022-03-03T09:15:00Z</time>
      </trkpt>
      <trkpt lat="44.39552" lon="4.12179">
        <ele>309.9</ele>
        <time>2022-03-03T09:15:04Z</time>
      </trkpt>
      <trkpt lat="44.39549" lon="4.12175">
        <ele>403.83786</ele>
        <time>2022-03-03T09:15:07Z</time>
      </trkpt>
      <trkpt lat="44.39545" lon="4.12169">
        <ele>309.6</ele>
        <time>2022-03-03T09:15:11Z</time>
      </trkpt>
      <trkpt lat="44.39541" lon="4.12164">
        <ele>309.6</ele>
        <time>2022-03-03T09:15:14Z</time>
      </trkpt>
      <trkpt lat="44.39537" lon="4.12158">
        <ele>403.7892</ele>
        <time>2022-03-03T09:15:18Z</time>
      </trkpt>
      <trkpt lat="44.39534" lon="4.12153">
        <ele>309.7</ele>
        <time>2022-03-03T09:15:22Z</time>
      </trkpt>
      <trkpt lat="44.39529" lon="4.12147">
        <ele>404.05585</ele>
        <time>2022-03-03T09:15:27Z</time>
      </trkpt>
      <trkpt lat="44.39526" lon="4.12142">
        <ele>309.7</ele>
        <time>2022-03-03T09:15:31Z</time>
      </trkpt>
      <trkpt lat="44.39521" lon="4.12139">
        <ele>309.5</ele>
        <time>2022-03-03T09:15:34Z</time>
      </trkpt>
      <trkpt lat="44.39517" lon="4.12135">
        <ele>403.79214</ele>
        <time>2022-03-03T09:15:38Z</time>
      </trkpt>
      <trkpt lat="44.39512" lon="4.12132">
        <ele>309.2</ele>
        <time>2022-03-03T09:15:43Z</time>
      </trkpt>
      <trkpt lat="44.39507" lon="4.12128">
        <ele>403.76196</ele>
        <time>2022-03-03T09:15:48Z</time>
      </trkpt>
      <trkpt lat="44.39503" lon="4.12127">
        <ele>309</ele>
        <time>2022-03-03T09:15:51Z</time>
      </trkpt>
      <trkpt lat="44.39498" lon="4.12125">
        <ele>403.79407</ele>
        <time>2022-03-03T09:15:55Z</time>
      </trkpt>
      <trkpt lat="44.39492" lon="4.12122">
        <ele>309.5</ele>
        <time>2022-03-03T09:15:59Z</time>
      </trkpt>
      <trkpt lat="44.39487" lon="4.12123">
        <ele>309.6</ele>
        <time>2022-03-03T09:16:03Z</time>
      </trkpt>
      <trkpt lat="44.39483" lon="4.12121">
        <ele>403.96826</ele>
        <time>2022-03-03T09:16:07Z</time>
      </trkpt>
      <trkpt lat="44.39477" lon="4.12121">
        <ele>310.2</ele>
        <time>2022-03-03T09:16:11Z</time>
      </trkpt>
      <trkpt lat="44.39471" lon="4.1212">
        <ele>404.7516</ele>
        <time>2022-03-03T09:16:15Z</time>
      </trkpt>
      <trkpt lat="44.39466" lon="4.12119">
        <ele>310.8</ele>
        <time>2022-03-03T09:16:19Z</time>
      </trkpt>
      <trkpt lat="44.39461" lon="4.12118">
        <ele>311</ele>
        <time>2022-03-03T09:16:23Z</time>
      </trkpt>
      <trkpt lat="44.39456" lon="4.12117">
        <ele>405.4104</ele>
        <time>2022-03-03T09:16:26Z</time>
      </trkpt>
      <trkpt lat="44.3945" lon="4.12115">
        <ele>311.6</ele>
        <time>2022-03-03T09:16:30Z</time>
      </trkpt>
      <trkpt lat="44.39446" lon="4.12112">
        <ele>311.9</ele>
        <time>2022-03-03T09:16:34Z</time>
      </trkpt>
      <trkpt lat="44.39441" lon="4.12107">
        <ele>406.22202</ele>
        <time>2022-03-03T09:16:39Z</time>
      </trkpt>
      <trkpt lat="44.39438" lon="4.12101">
        <ele>313</ele>
        <time>2022-03-03T09:16:42Z</time>
      </trkpt>
      <trkpt lat="44.39437" lon="4.12095">
        <ele>407.22733</ele>
        <time>2022-03-03T09:16:45Z</time>
      </trkpt>
      <trkpt lat="44.39436" lon="4.12088">
        <ele>313.5</ele>
        <time>2022-03-03T09:16:48Z</time>
      </trkpt>
      <trkpt lat="44.39434" lon="4.12082">
        <ele>313.8</ele>
        <time>2022-03-03T09:16:52Z</time>
      </trkpt>
      <trkpt lat="44.39431" lon="4.12076">
        <ele>407.7811</ele>
        <time>2022-03-03T09:16:57Z</time>
      </trkpt>
      <trkpt lat="44.39427" lon="4.1207">
        <ele>314.7</ele>
        <time>2022-03-03T09:17:01Z</time>
      </trkpt>
      <trkpt lat="44.39424" lon="4.12064">
        <ele>408.53345</ele>
        <time>2022-03-03T09:17:05Z</time>
      </trkpt>
      <trkpt lat="44.39422" lon="4.12057">
        <ele>315.5</ele>
        <time>2022-03-03T09:17:10Z</time>
      </trkpt>
      <trkpt lat="44.39419" lon="4.12052">
        <ele>316</ele>
        <time>2022-03-03T09:17:14Z</time>
      </trkpt>
      <trkpt lat="44.39417" lon="4.12046">
        <ele>316.3</ele>
        <time>2022-03-03T09:17:18Z</time>
      </trkpt>
      <trkpt lat="44.39415" lon="4.12038">
        <ele>410.24454</ele>
        <time>2022-03-03T09:17:23Z</time>
      </trkpt>
      <trkpt lat="44.39413" lon="4.12032">
        <ele>317.1</ele>
        <time>2022-03-03T09:17:28Z</time>
      </trkpt>
      <trkpt lat="44.3941" lon="4.12026">
        <ele>411.12057</ele>
        <time>2022-03-03T09:17:33Z</time>
      </trkpt>
      <trkpt lat="44.39407" lon="4.12021">
        <ele>411.67642</ele>
        <time>2022-03-03T09:17:37Z</time>
      </trkpt>
      <trkpt lat="44.39405" lon="4.12016">
        <ele>318.5</ele>
        <time>2022-03-03T09:17:41Z</time>
      </trkpt>
      <trkpt lat="44.39402" lon="4.12011">
        <ele>412.67517</ele>
        <time>2022-03-03T09:17:46Z</time>
      </trkpt>
      <trkpt lat="44.39397" lon="4.12009">
        <ele>319.6</ele>
        <time>2022-03-03T09:17:52Z</time>
      </trkpt>
      <trkpt lat="44.39396" lon="4.12005">
        <ele>413.83948</ele>
        <time>2022-03-03T09:18:02Z</time>
      </trkpt>
      <trkpt lat="44.39391" lon="4.12001">
        <ele>414.29022</ele>
        <time>2022-03-03T09:18:07Z</time>
      </trkpt>
      <trkpt lat="44.39386" lon="4.11998">
        <ele>321.4</ele>
        <time>2022-03-03T09:18:13Z</time>
      </trkpt>
      <trkpt lat="44.39381" lon="4.11996">
        <ele>415.50525</ele>
        <time>2022-03-03T09:18:19Z</time>
      </trkpt>
      <trkpt lat="44.39376" lon="4.11995">
        <ele>322.5</ele>
        <time>2022-03-03T09:18:24Z</time>
      </trkpt>
      <trkpt lat="44.39372" lon="4.11991">
        <ele>416.74857</ele>
        <time>2022-03-03T09:18:29Z</time>
      </trkpt>
      <trkpt lat="44.39367" lon="4.1199">
        <ele>323.7</ele>
        <time>2022-03-03T09:18:31Z</time>
      </trkpt>
      <trkpt lat="44.39364" lon="4.11986">
        <ele>418.03967</ele>
        <time>2022-03-03T09:18:35Z</time>
      </trkpt>
      <trkpt lat="44.3936" lon="4.11981">
        <ele>324.8</ele>
        <time>2022-03-03T09:18:41Z</time>
      </trkpt>
      <trkpt lat="44.39356" lon="4.11976">
        <ele>418.9842</ele>
        <time>2022-03-03T09:18:50Z</time>
      </trkpt>
      <trkpt lat="44.39352" lon="4.11972">
        <ele>420.0719</ele>
        <time>2022-03-03T09:18:56Z</time>
      </trkpt>
      <trkpt lat="44.39348" lon="4.11969">
        <ele>326.5</ele>
        <time>2022-03-03T09:19:01Z</time>
      </trkpt>
      <trkpt lat="44.39344" lon="4.11965">
        <ele>420.8948</ele>
        <time>2022-03-03T09:19:06Z</time>
      </trkpt>
      <trkpt lat="44.39341" lon="4.11959">
        <ele>327.6</ele>
        <time>2022-03-03T09:19:12Z</time>
      </trkpt>
      <trkpt lat="44.39339" lon="4.11954">
        <ele>421.62033</ele>
        <time>2022-03-03T09:19:17Z</time>
      </trkpt>
      <trkpt lat="44.39335" lon="4.1195">
        <ele>328.6</ele>
        <time>2022-03-03T09:19:22Z</time>
      </trkpt>
      <trkpt lat="44.3933" lon="4.11946">
        <ele>422.80167</ele>
        <time>2022-03-03T09:19:25Z</time>
      </trkpt>
      <trkpt lat="44.39325" lon="4.11943">
        <ele>329.9</ele>
        <time>2022-03-03T09:19:31Z</time>
      </trkpt>
      <trkpt lat="44.39321" lon="4.1194">
        <ele>424.1282</ele>
        <time>2022-03-03T09:19:35Z</time>
      </trkpt>
      <trkpt lat="44.39316" lon="4.11938">
        <ele>331.1</ele>
        <time>2022-03-03T09:19:41Z</time>
      </trkpt>
      <trkpt lat="44.39312" lon="4.11936">
        <ele>331.6</ele>
        <time>2022-03-03T09:19:48Z</time>
      </trkpt>
      <trkpt lat="44.39306" lon="4.11935">
        <ele>426.23212</ele>
        <time>2022-03-03T09:19:53Z</time>
      </trkpt>
      <trkpt lat="44.39302" lon="4.11932">
        <ele>332.9</ele>
        <time>2022-03-03T09:19:57Z</time>
      </trkpt>
      <trkpt lat="44.39297" lon="4.11932">
        <ele>427.3348</ele>
        <time>2022-03-03T09:20:01Z</time>
      </trkpt>
      <trkpt lat="44.39292" lon="4.1193">
        <ele>427.94757</ele>
        <time>2022-03-03T09:20:05Z</time>
      </trkpt>
      <trkpt lat="44.39288" lon="4.11928">
        <ele>334.5</ele>
        <time>2022-03-03T09:20:09Z</time>
      </trkpt>
      <trkpt lat="44.39283" lon="4.11927">
        <ele>335.1</ele>
        <time>2022-03-03T09:20:13Z</time>
      </trkpt>
      <trkpt lat="44.39278" lon="4.11927">
        <ele>429.38257</ele>
        <time>2022-03-03T09:20:17Z</time>
      </trkpt>
      <trkpt lat="44.39274" lon="4.11924">
        <ele>336.2</ele>
        <time>2022-03-03T09:20:21Z</time>
      </trkpt>
      <trkpt lat="44.39269" lon="4.11921">
        <ele>430.7816</ele>
        <time>2022-03-03T09:20:25Z</time>
      </trkpt>
      <trkpt lat="44.39265" lon="4.11916">
        <ele>337.3</ele>
        <time>2022-03-03T09:20:29Z</time>
      </trkpt>
      <trkpt lat="44.39262" lon="4.11912">
        <ele>337.8</ele>
        <time>2022-03-03T09:20:34Z</time>
      </trkpt>
      <trkpt lat="44.39259" lon="4.11907">
        <ele>432.30057</ele>
        <time>2022-03-03T09:20:39Z</time>
      </trkpt>
      <trkpt lat="44.39255" lon="4.11903">
        <ele>338.9</ele>
        <time>2022-03-03T09:20:42Z</time>
      </trkpt>
      <trkpt lat="44.39253" lon="4.11898">
        <ele>433.59457</ele>
        <time>2022-03-03T09:20:45Z</time>
      </trkpt>
      <trkpt lat="44.39249" lon="4.11893">
        <ele>340</ele>
        <time>2022-03-03T09:20:49Z</time>
      </trkpt>
      <trkpt lat="44.39246" lon="4.11888">
        <ele>340.7</ele>
        <time>2022-03-03T09:20:54Z</time>
      </trkpt>
      <trkpt lat="44.39243" lon="4.11884">
        <ele>434.6762</ele>
        <time>2022-03-03T09:20:59Z</time>
      </trkpt>
      <trkpt lat="44.39239" lon="4.11879">
        <ele>342.4</ele>
        <time>2022-03-03T09:21:04Z</time>
      </trkpt>
      <trkpt lat="44.39234" lon="4.11875">
        <ele>435.90506</ele>
        <time>2022-03-03T09:21:08Z</time>
      </trkpt>
      <trkpt lat="44.39229" lon="4.11872">
        <ele>344.4</ele>
        <time>2022-03-03T09:21:13Z</time>
      </trkpt>
      <trkpt lat="44.39225" lon="4.11867">
        <ele>437.75964</ele>
        <time>2022-03-03T09:21:18Z</time>
      </trkpt>
      <trkpt lat="44.39221" lon="4.11861">
        <ele>346.2</ele>
        <time>2022-03-03T09:21:23Z</time>
      </trkpt>
      <trkpt lat="44.39217" lon="4.11856">
        <ele>439.5803</ele>
        <time>2022-03-03T09:21:28Z</time>
      </trkpt>
      <trkpt lat="44.39213" lon="4.11852">
        <ele>347.7</ele>
        <time>2022-03-03T09:21:33Z</time>
      </trkpt>
      <trkpt lat="44.39211" lon="4.11846">
        <ele>441.04532</ele>
        <time>2022-03-03T09:21:38Z</time>
      </trkpt>
      <trkpt lat="44.39207" lon="4.11842">
        <ele>348.9</ele>
        <time>2022-03-03T09:21:43Z</time>
      </trkpt>
      <trkpt lat="44.39203" lon="4.11837">
        <ele>442.33398</ele>
        <time>2022-03-03T09:21:47Z</time>
      </trkpt>
      <trkpt lat="44.39199" lon="4.11832">
        <ele>350.3</ele>
        <time>2022-03-03T09:21:54Z</time>
      </trkpt>
      <trkpt lat="44.39196" lon="4.11826">
        <ele>443.69098</ele>
        <time>2022-03-03T09:21:58Z</time>
      </trkpt>
      <trkpt lat="44.39195" lon="4.11819">
        <ele>350.9</ele>
        <time>2022-03-03T09:22:03Z</time>
      </trkpt>
      <trkpt lat="44.39192" lon="4.11812">
        <ele>444.42508</ele>
        <time>2022-03-03T09:22:09Z</time>
      </trkpt>
      <trkpt lat="44.39189" lon="4.11808">
        <ele>352</ele>
        <time>2022-03-03T09:22:14Z</time>
      </trkpt>
      <trkpt lat="44.39186" lon="4.11803">
        <ele>445.44974</ele>
        <time>2022-03-03T09:22:19Z</time>
      </trkpt>
      <trkpt lat="44.39181" lon="4.11799">
        <ele>353.2</ele>
        <time>2022-03-03T09:22:24Z</time>
      </trkpt>
      <trkpt lat="44.39177" lon="4.11795">
        <ele>447.3978</ele>
        <time>2022-03-03T09:22:30Z</time>
      </trkpt>
      <trkpt lat="44.39172" lon="4.11792">
        <ele>354.6</ele>
        <time>2022-03-03T09:22:36Z</time>
      </trkpt>
      <trkpt lat="44.39168" lon="4.11788">
        <ele>448.42358</ele>
        <time>2022-03-03T09:22:42Z</time>
      </trkpt>
      <trkpt lat="44.39164" lon="4.11785">
        <ele>448.96964</ele>
        <time>2022-03-03T09:22:47Z</time>
      </trkpt>
      <trkpt lat="44.39161" lon="4.11779">
        <ele>355.9</ele>
        <time>2022-03-03T09:22:54Z</time>
      </trkpt>
      <trkpt lat="44.39157" lon="4.11776">
        <ele>449.348</ele>
        <time>2022-03-03T09:23:01Z</time>
      </trkpt>
      <trkpt lat="44.39153" lon="4.1177">
        <ele>449.99158</ele>
        <time>2022-03-03T09:23:05Z</time>
      </trkpt>
      <trkpt lat="44.39149" lon="4.11765">
        <ele>356.4</ele>
        <time>2022-03-03T09:23:09Z</time>
      </trkpt>
      <trkpt lat="44.39145" lon="4.1176">
        <ele>356.7</ele>
        <time>2022-03-03T09:23:14Z</time>
      </trkpt>
      <trkpt lat="44.3914" lon="4.11755">
        <ele>450.27438</ele>
        <time>2022-03-03T09:23:18Z</time>
      </trkpt>
      <trkpt lat="44.39137" lon="4.1175">
        <ele>357.4</ele>
        <time>2022-03-03T09:23:22Z</time>
      </trkpt>
      <trkpt lat="44.39134" lon="4.11744">
        <ele>451.2135</ele>
        <time>2022-03-03T09:23:27Z</time>
      </trkpt>
      <trkpt lat="44.39131" lon="4.11739">
        <ele>358.2</ele>
        <time>2022-03-03T09:23:31Z</time>
      </trkpt>
      <trkpt lat="44.39128" lon="4.11733">
        <ele>451.80255</ele>
        <time>2022-03-03T09:23:35Z</time>
      </trkpt>
      <trkpt lat="44.39126" lon="4.11725">
        <ele>358.8</ele>
        <time>2022-03-03T09:23:40Z</time>
      </trkpt>
      <trkpt lat="44.39124" lon="4.11718">
        <ele>359.7</ele>
        <time>2022-03-03T09:23:44Z</time>
      </trkpt>
      <trkpt lat="44.39121" lon="4.11712">
        <ele>452.9134</ele>
        <time>2022-03-03T09:23:52Z</time>
      </trkpt>
      <trkpt lat="44.39121" lon="4.11705">
        <ele>454.01453</ele>
        <time>2022-03-03T09:24:01Z</time>
      </trkpt>
      <trkpt lat="44.39122" lon="4.11699">
        <ele>455.22302</ele>
        <time>2022-03-03T09:24:05Z</time>
      </trkpt>
      <trkpt lat="44.39121" lon="4.11693">
        <ele>362.4</ele>
        <time>2022-03-03T09:24:11Z</time>
      </trkpt>
      <trkpt lat="44.39122" lon="4.11686">
        <ele>456.46765</ele>
        <time>2022-03-03T09:24:16Z</time>
      </trkpt>
      <trkpt lat="44.39122" lon="4.11678">
        <ele>364</ele>
        <time>2022-03-03T09:24:21Z</time>
      </trkpt>
      <trkpt lat="44.39124" lon="4.11672">
        <ele>457.9543</ele>
        <time>2022-03-03T09:24:25Z</time>
      </trkpt>
      <trkpt lat="44.39124" lon="4.11666">
        <ele>365.2</ele>
        <time>2022-03-03T09:24:31Z</time>
      </trkpt>
      <trkpt lat="44.39125" lon="4.11658">
        <ele>459.44888</ele>
        <time>2022-03-03T09:24:37Z</time>
      </trkpt>
      <trkpt lat="44.39126" lon="4.11651">
        <ele>367.1</ele>
        <time>2022-03-03T09:24:43Z</time>
      </trkpt>
      <trkpt lat="44.39124" lon="4.11645">
        <ele>461.17184</ele>
        <time>2022-03-03T09:24:51Z</time>
      </trkpt>
      <trkpt lat="44.3912" lon="4.11644">
        <ele>369</ele>
        <time>2022-03-03T09:24:58Z</time>
      </trkpt>
      <trkpt lat="44.39115" lon="4.11642">
        <ele>463.6229</ele>
        <time>2022-03-03T09:25:03Z</time>
      </trkpt>
      <trkpt lat="44.39111" lon="4.11643">
        <ele>370.5</ele>
        <time>2022-03-03T09:25:09Z</time>
      </trkpt>
      <trkpt lat="44.39106" lon="4.11643">
        <ele>465.61847</ele>
        <time>2022-03-03T09:25:19Z</time>
      </trkpt>
      <trkpt lat="44.39101" lon="4.11643">
        <ele>371.6</ele>
        <time>2022-03-03T09:25:24Z</time>
      </trkpt>
      <trkpt lat="44.39095" lon="4.11642">
        <ele>466.70856</ele>
        <time>2022-03-03T09:25:28Z</time>
      </trkpt>
      <trkpt lat="44.3909" lon="4.1164">
        <ele>373</ele>
        <time>2022-03-03T09:25:33Z</time>
      </trkpt>
      <trkpt lat="44.39085" lon="4.11639">
        <ele>467.90604</ele>
        <time>2022-03-03T09:25:37Z</time>
      </trkpt>
      <trkpt lat="44.39081" lon="4.11637">
        <ele>374.7</ele>
        <time>2022-03-03T09:25:42Z</time>
      </trkpt>
      <trkpt lat="44.39076" lon="4.11635">
        <ele>469.56918</ele>
        <time>2022-03-03T09:25:46Z</time>
      </trkpt>
      <trkpt lat="44.39071" lon="4.11633">
        <ele>376.3</ele>
        <time>2022-03-03T09:25:51Z</time>
      </trkpt>
      <trkpt lat="44.39066" lon="4.11633">
        <ele>470.9103</ele>
        <time>2022-03-03T09:25:56Z</time>
      </trkpt>
      <trkpt lat="44.39062" lon="4.11631">
        <ele>377.8</ele>
        <time>2022-03-03T09:26:02Z</time>
      </trkpt>
      <trkpt lat="44.39058" lon="4.11628">
        <ele>472.14514</ele>
        <time>2022-03-03T09:26:07Z</time>
      </trkpt>
      <trkpt lat="44.39053" lon="4.11625">
        <ele>379.6</ele>
        <time>2022-03-03T09:26:13Z</time>
      </trkpt>
      <trkpt lat="44.39049" lon="4.11624">
        <ele>473.5665</ele>
        <time>2022-03-03T09:26:17Z</time>
      </trkpt>
      <trkpt lat="44.39044" lon="4.11623">
        <ele>380.5</ele>
        <time>2022-03-03T09:26:21Z</time>
      </trkpt>
      <trkpt lat="44.3904" lon="4.11621">
        <ele>475.21738</ele>
        <time>2022-03-03T09:26:31Z</time>
      </trkpt>
      <trkpt lat="44.3904" lon="4.11622">
        <ele>475.81195</ele>
        <time>2022-03-03T09:26:41Z</time>
      </trkpt>
      <trkpt lat="44.39041" lon="4.11621">
        <ele>475.86566</ele>
        <time>2022-03-03T09:26:51Z</time>
      </trkpt>
      <trkpt lat="44.39041" lon="4.11621">
        <ele>475.99454</ele>
        <time>2022-03-03T09:27:01Z</time>
      </trkpt>
      <trkpt lat="44.39043" lon="4.11621">
        <ele>475.87738</ele>
        <time>2022-03-03T09:27:11Z</time>
      </trkpt>
      <trkpt lat="44.39042" lon="4.1162">
        <ele>475.86957</ele>
        <time>2022-03-03T09:27:21Z</time>
      </trkpt>
      <trkpt lat="44.39042" lon="4.1162">
        <ele>476.12048</ele>
        <time>2022-03-03T09:27:31Z</time>
      </trkpt>
      <trkpt lat="44.39042" lon="4.11619">
        <ele>475.9223</ele>
        <time>2022-03-03T09:27:41Z</time>
      </trkpt>
      <trkpt lat="44.39043" lon="4.11618">
        <ele>475.93692</ele>
        <time>2022-03-03T09:27:51Z</time>
      </trkpt>
      <trkpt lat="44.39042" lon="4.11618">
        <ele>476.07654</ele>
        <time>2022-03-03T09:28:01Z</time>
      </trkpt>
      <trkpt lat="44.39042" lon="4.11618">
        <ele>476.11462</ele>
        <time>2022-03-03T09:28:11Z</time>
      </trkpt>
      <trkpt lat="44.39043" lon="4.11621">
        <ele>476.1576</ele>
        <time>2022-03-03T09:28:21Z</time>
      </trkpt>
      <trkpt lat="44.39042" lon="4.11621">
        <ele>476.0297</ele>
        <time>2022-03-03T09:28:31Z</time>
      </trkpt>
      <trkpt lat="44.39041" lon="4.1162">
        <ele>475.99844</ele>
        <time>2022-03-03T09:28:41Z</time>
      </trkpt>
      <trkpt lat="44.39041" lon="4.11618">
        <ele>476.0043</ele>
        <time>2022-03-03T09:28:51Z</time>
      </trkpt>
      <trkpt lat="44.3904" lon="4.11618">
        <ele>475.90277</ele>
        <time>2022-03-03T09:29:01Z</time>
      </trkpt>
      <trkpt lat="44.3904" lon="4.11619">
        <ele>476.27573</ele>
        <time>2022-03-03T09:29:11Z</time>
      </trkpt>
      <trkpt lat="44.39035" lon="4.1162">
        <ele>476.15466</ele>
        <time>2022-03-03T09:29:20Z</time>
      </trkpt>
      <trkpt lat="44.3903" lon="4.11622">
        <ele>476.33823</ele>
        <time>2022-03-03T09:29:26Z</time>
      </trkpt>
      <trkpt lat="44.39025" lon="4.11621">
        <ele>381.8</ele>
        <time>2022-03-03T09:29:32Z</time>
      </trkpt>
      <trkpt lat="44.3902" lon="4.11619">
        <ele>476.88693</ele>
        <time>2022-03-03T09:29:38Z</time>
      </trkpt>
      <trkpt lat="44.39015" lon="4.11618">
        <ele>382.9</ele>
        <time>2022-03-03T09:29:44Z</time>
      </trkpt>
      <trkpt lat="44.39011" lon="4.11615">
        <ele>477.9776</ele>
        <time>2022-03-03T09:29:50Z</time>
      </trkpt>
      <trkpt lat="44.39006" lon="4.11613">
        <ele>479.12787</ele>
        <time>2022-03-03T09:29:55Z</time>
      </trkpt>
      <trkpt lat="44.39002" lon="4.11609">
        <ele>385.1</ele>
        <time>2022-03-03T09:29:59Z</time>
      </trkpt>
      <trkpt lat="44.38999" lon="4.11605">
        <ele>386</ele>
        <time>2022-03-03T09:30:04Z</time>
      </trkpt>
      <trkpt lat="44.38996" lon="4.11599">
        <ele>480.56726</ele>
        <time>2022-03-03T09:30:09Z</time>
      </trkpt>
      <trkpt lat="44.38991" lon="4.11595">
        <ele>387.7</ele>
        <time>2022-03-03T09:30:15Z</time>
      </trkpt>
      <trkpt lat="44.38988" lon="4.1159">
        <ele>483.0625</ele>
        <time>2022-03-03T09:30:20Z</time>
      </trkpt>
      <trkpt lat="44.38985" lon="4.11584">
        <ele>389.5</ele>
        <time>2022-03-03T09:30:25Z</time>
      </trkpt>
      <trkpt lat="44.38984" lon="4.11577">
        <ele>390.5</ele>
        <time>2022-03-03T09:30:29Z</time>
      </trkpt>
      <trkpt lat="44.38983" lon="4.11571">
        <ele>485.03156</ele>
        <time>2022-03-03T09:30:34Z</time>
      </trkpt>
      <trkpt lat="44.38982" lon="4.11564">
        <ele>392.3</ele>
        <time>2022-03-03T09:30:39Z</time>
      </trkpt>
      <trkpt lat="44.38983" lon="4.11557">
        <ele>486.64816</ele>
        <time>2022-03-03T09:30:44Z</time>
      </trkpt>
      <trkpt lat="44.38984" lon="4.1155">
        <ele>487.4326</ele>
        <time>2022-03-03T09:30:48Z</time>
      </trkpt>
      <trkpt lat="44.38983" lon="4.11543">
        <ele>394</ele>
        <time>2022-03-03T09:30:53Z</time>
      </trkpt>
      <trkpt lat="44.38982" lon="4.11536">
        <ele>488.49835</ele>
        <time>2022-03-03T09:30:58Z</time>
      </trkpt>
      <trkpt lat="44.38981" lon="4.11529">
        <ele>394.6</ele>
        <time>2022-03-03T09:31:03Z</time>
      </trkpt>
      <trkpt lat="44.38979" lon="4.11522">
        <ele>489.00247</ele>
        <time>2022-03-03T09:31:07Z</time>
      </trkpt>
      <trkpt lat="44.38978" lon="4.11516">
        <ele>395</ele>
        <time>2022-03-03T09:31:11Z</time>
      </trkpt>
      <trkpt lat="44.38977" lon="4.11509">
        <ele>488.90378</ele>
        <time>2022-03-03T09:31:15Z</time>
      </trkpt>
      <trkpt lat="44.38975" lon="4.11503">
        <ele>395.2</ele>
        <time>2022-03-03T09:31:20Z</time>
      </trkpt>
      <trkpt lat="44.38973" lon="4.11497">
        <ele>488.99365</ele>
        <time>2022-03-03T09:31:25Z</time>
      </trkpt>
      <trkpt lat="44.38972" lon="4.1149">
        <ele>395.3</ele>
        <time>2022-03-03T09:31:29Z</time>
      </trkpt>
      <trkpt lat="44.3897" lon="4.11483">
        <ele>395.1</ele>
        <time>2022-03-03T09:31:33Z</time>
      </trkpt>
      <trkpt lat="44.38968" lon="4.11477">
        <ele>488.93018</ele>
        <time>2022-03-03T09:31:37Z</time>
      </trkpt>
      <trkpt lat="44.38965" lon="4.11472">
        <ele>394.5</ele>
        <time>2022-03-03T09:31:41Z</time>
      </trkpt>
      <trkpt lat="44.38963" lon="4.11465">
        <ele>488.82953</ele>
        <time>2022-03-03T09:31:45Z</time>
      </trkpt>
      <trkpt lat="44.38964" lon="4.11458">
        <ele>394.8</ele>
        <time>2022-03-03T09:31:49Z</time>
      </trkpt>
      <trkpt lat="44.38961" lon="4.11452">
        <ele>394.3</ele>
        <time>2022-03-03T09:31:54Z</time>
      </trkpt>
      <trkpt lat="44.38958" lon="4.11447">
        <ele>488.47296</ele>
        <time>2022-03-03T09:31:58Z</time>
      </trkpt>
      <trkpt lat="44.38956" lon="4.1144">
        <ele>393.5</ele>
        <time>2022-03-03T09:32:03Z</time>
      </trkpt>
      <trkpt lat="44.38954" lon="4.11434">
        <ele>488.3186</ele>
        <time>2022-03-03T09:32:07Z</time>
      </trkpt>
      <trkpt lat="44.38955" lon="4.11427">
        <ele>393.9</ele>
        <time>2022-03-03T09:32:11Z</time>
      </trkpt>
      <trkpt lat="44.38955" lon="4.1142">
        <ele>394.1</ele>
        <time>2022-03-03T09:32:14Z</time>
      </trkpt>
      <trkpt lat="44.38953" lon="4.11412">
        <ele>488.34793</ele>
        <time>2022-03-03T09:32:18Z</time>
      </trkpt>
      <trkpt lat="44.38952" lon="4.11404">
        <ele>394</ele>
        <time>2022-03-03T09:32:24Z</time>
      </trkpt>
      <trkpt lat="44.38953" lon="4.11396">
        <ele>488.49738</ele>
        <time>2022-03-03T09:32:28Z</time>
      </trkpt>
      <trkpt lat="44.38956" lon="4.11389">
        <ele>395.7</ele>
        <time>2022-03-03T09:32:32Z</time>
      </trkpt>
      <trkpt lat="44.38959" lon="4.11383">
        <ele>488.7045</ele>
        <time>2022-03-03T09:32:37Z</time>
      </trkpt>
      <trkpt lat="44.38959" lon="4.11376">
        <ele>396.4</ele>
        <time>2022-03-03T09:32:41Z</time>
      </trkpt>
      <trkpt lat="44.38959" lon="4.1137">
        <ele>489.18222</ele>
        <time>2022-03-03T09:32:46Z</time>
      </trkpt>
      <trkpt lat="44.3896" lon="4.11362">
        <ele>396.6</ele>
        <time>2022-03-03T09:32:51Z</time>
      </trkpt>
      <trkpt lat="44.38962" lon="4.11355">
        <ele>489.6736</ele>
        <time>2022-03-03T09:32:55Z</time>
      </trkpt>
      <trkpt lat="44.38965" lon="4.11347">
        <ele>396.8</ele>
        <time>2022-03-03T09:32:59Z</time>
      </trkpt>
      <trkpt lat="44.38966" lon="4.1134">
        <ele>396.6</ele>
        <time>2022-03-03T09:33:03Z</time>
      </trkpt>
      <trkpt lat="44.3897" lon="4.11335">
        <ele>397.4</ele>
        <time>2022-03-03T09:33:06Z</time>
      </trkpt>
      <trkpt lat="44.38973" lon="4.11329">
        <ele>397.8</ele>
        <time>2022-03-03T09:33:09Z</time>
      </trkpt>
      <trkpt lat="44.38976" lon="4.11324">
        <ele>490.5656</ele>
        <time>2022-03-03T09:33:12Z</time>
      </trkpt>
      <trkpt lat="44.38979" lon="4.11319">
        <ele>399.8</ele>
        <time>2022-03-03T09:33:16Z</time>
      </trkpt>
      <trkpt lat="44.38982" lon="4.11314">
        <ele>491.19287</ele>
        <time>2022-03-03T09:33:22Z</time>
      </trkpt>
      <trkpt lat="44.38984" lon="4.11307">
        <ele>491.59836</ele>
        <time>2022-03-03T09:33:28Z</time>
      </trkpt>
      <trkpt lat="44.38986" lon="4.113">
        <ele>400.6</ele>
        <time>2022-03-03T09:33:32Z</time>
      </trkpt>
      <trkpt lat="44.38987" lon="4.11294">
        <ele>400.1</ele>
        <time>2022-03-03T09:33:34Z</time>
      </trkpt>
      <trkpt lat="44.3899" lon="4.11288">
        <ele>491.9794</ele>
        <time>2022-03-03T09:33:38Z</time>
      </trkpt>
      <trkpt lat="44.38993" lon="4.11283">
        <ele>400.5</ele>
        <time>2022-03-03T09:33:42Z</time>
      </trkpt>
      <trkpt lat="44.38996" lon="4.11277">
        <ele>493.1959</ele>
        <time>2022-03-03T09:33:47Z</time>
      </trkpt>
      <trkpt lat="44.38999" lon="4.11271">
        <ele>401.2</ele>
        <time>2022-03-03T09:33:51Z</time>
      </trkpt>
      <trkpt lat="44.39002" lon="4.11265">
        <ele>494.1887</ele>
        <time>2022-03-03T09:33:56Z</time>
      </trkpt>
      <trkpt lat="44.39004" lon="4.11258">
        <ele>402.1</ele>
        <time>2022-03-03T09:34:00Z</time>
      </trkpt>
      <trkpt lat="44.39007" lon="4.11253">
        <ele>495.00952</ele>
        <time>2022-03-03T09:34:05Z</time>
      </trkpt>
      <trkpt lat="44.39011" lon="4.11247">
        <ele>403.7</ele>
        <time>2022-03-03T09:34:11Z</time>
      </trkpt>
      <trkpt lat="44.39011" lon="4.1124">
        <ele>495.9174</ele>
        <time>2022-03-03T09:34:16Z</time>
      </trkpt>
      <trkpt lat="44.39013" lon="4.11233">
        <ele>403.3</ele>
        <time>2022-03-03T09:34:20Z</time>
      </trkpt>
      <trkpt lat="44.39017" lon="4.11228">
        <ele>404</ele>
        <time>2022-03-03T09:34:22Z</time>
      </trkpt>
      <trkpt lat="44.3902" lon="4.11222">
        <ele>496.49493</ele>
        <time>2022-03-03T09:34:26Z</time>
      </trkpt>
      <trkpt lat="44.39022" lon="4.11216">
        <ele>404.6</ele>
        <time>2022-03-03T09:34:31Z</time>
      </trkpt>
      <trkpt lat="44.39022" lon="4.11209">
        <ele>497.1683</ele>
        <time>2022-03-03T09:34:37Z</time>
      </trkpt>
      <trkpt lat="44.39024" lon="4.11203">
        <ele>404.6</ele>
        <time>2022-03-03T09:34:42Z</time>
      </trkpt>
      <trkpt lat="44.39026" lon="4.11197">
        <ele>498.2551</ele>
        <time>2022-03-03T09:34:46Z</time>
      </trkpt>
      <trkpt lat="44.39029" lon="4.11191">
        <ele>405.4</ele>
        <time>2022-03-03T09:34:50Z</time>
      </trkpt>
      <trkpt lat="44.39032" lon="4.11185">
        <ele>499.12204</ele>
        <time>2022-03-03T09:34:55Z</time>
      </trkpt>
      <trkpt lat="44.39033" lon="4.11179">
        <ele>406</ele>
        <time>2022-03-03T09:34:57Z</time>
      </trkpt>
      <trkpt lat="44.39032" lon="4.11172">
        <ele>405.5</ele>
        <time>2022-03-03T09:35:01Z</time>
      </trkpt>
      <trkpt lat="44.39033" lon="4.11165">
        <ele>499.816</ele>
        <time>2022-03-03T09:35:05Z</time>
      </trkpt>
      <trkpt lat="44.39033" lon="4.11159">
        <ele>405.9</ele>
        <time>2022-03-03T09:35:10Z</time>
      </trkpt>
      <trkpt lat="44.3903" lon="4.11153">
        <ele>500.19427</ele>
        <time>2022-03-03T09:35:17Z</time>
      </trkpt>
      <trkpt lat="44.39029" lon="4.11146">
        <ele>405.7</ele>
        <time>2022-03-03T09:35:22Z</time>
      </trkpt>
      <trkpt lat="44.39025" lon="4.11142">
        <ele>501.10037</ele>
        <time>2022-03-03T09:35:27Z</time>
      </trkpt>
      <trkpt lat="44.39021" lon="4.1114">
        <ele>405.7</ele>
        <time>2022-03-03T09:35:32Z</time>
      </trkpt>
      <trkpt lat="44.39016" lon="4.11136">
        <ele>501.8599</ele>
        <time>2022-03-03T09:35:37Z</time>
      </trkpt>
      <trkpt lat="44.39012" lon="4.11135">
        <ele>406.3</ele>
        <time>2022-03-03T09:35:43Z</time>
      </trkpt>
      <trkpt lat="44.39007" lon="4.11133">
        <ele>406.4</ele>
        <time>2022-03-03T09:35:47Z</time>
      </trkpt>
      <trkpt lat="44.39003" lon="4.1113">
        <ele>503.21674</ele>
        <time>2022-03-03T09:35:52Z</time>
      </trkpt>
      <trkpt lat="44.38998" lon="4.11127">
        <ele>407.6</ele>
        <time>2022-03-03T09:35:58Z</time>
      </trkpt>
      <trkpt lat="44.38994" lon="4.11125">
        <ele>504.7526</ele>
        <time>2022-03-03T09:36:02Z</time>
      </trkpt>
      <trkpt lat="44.38989" lon="4.11122">
        <ele>409.1</ele>
        <time>2022-03-03T09:36:08Z</time>
      </trkpt>
      <trkpt lat="44.38985" lon="4.11117">
        <ele>506.43033</ele>
        <time>2022-03-03T09:36:12Z</time>
      </trkpt>
      <trkpt lat="44.38987" lon="4.1111">
        <ele>507.45306</ele>
        <time>2022-03-03T09:36:19Z</time>
      </trkpt>
      <trkpt lat="44.38989" lon="4.11104">
        <ele>413.2</ele>
        <time>2022-03-03T09:36:23Z</time>
      </trkpt>
      <trkpt lat="44.38987" lon="4.11099">
        <ele>508.62936</ele>
        <time>2022-03-03T09:36:33Z</time>
      </trkpt>
      <trkpt lat="44.38984" lon="4.11094">
        <ele>510.10983</ele>
        <time>2022-03-03T09:36:40Z</time>
      </trkpt>
      <trkpt lat="44.38979" lon="4.1109">
        <ele>511.75766</ele>
        <time>2022-03-03T09:36:48Z</time>
      </trkpt>
      <trkpt lat="44.38975" lon="4.11089">
        <ele>513.6374</ele>
        <time>2022-03-03T09:36:55Z</time>
      </trkpt>
      <trkpt lat="44.38971" lon="4.11085">
        <ele>417.6</ele>
        <time>2022-03-03T09:37:02Z</time>
      </trkpt>
      <trkpt lat="44.38966" lon="4.11083">
        <ele>515.10846</ele>
        <time>2022-03-03T09:37:08Z</time>
      </trkpt>
      <trkpt lat="44.38961" lon="4.1108">
        <ele>418.9</ele>
        <time>2022-03-03T09:37:13Z</time>
      </trkpt>
      <trkpt lat="44.38957" lon="4.11076">
        <ele>516.6628</ele>
        <time>2022-03-03T09:37:16Z</time>
      </trkpt>
      <trkpt lat="44.38953" lon="4.11072">
        <ele>421.1</ele>
        <time>2022-03-03T09:37:20Z</time>
      </trkpt>
      <trkpt lat="44.38949" lon="4.11067">
        <ele>518.32086</ele>
        <time>2022-03-03T09:37:26Z</time>
      </trkpt>
      <trkpt lat="44.38944" lon="4.11065">
        <ele>422.6</ele>
        <time>2022-03-03T09:37:30Z</time>
      </trkpt>
      <trkpt lat="44.38939" lon="4.11065">
        <ele>519.8676</ele>
        <time>2022-03-03T09:37:35Z</time>
      </trkpt>
      <trkpt lat="44.38935" lon="4.11063">
        <ele>424</ele>
        <time>2022-03-03T09:37:40Z</time>
      </trkpt>
      <trkpt lat="44.3893" lon="4.11062">
        <ele>521.08856</ele>
        <time>2022-03-03T09:37:45Z</time>
      </trkpt>
      <trkpt lat="44.38925" lon="4.11064">
        <ele>424.3</ele>
        <time>2022-03-03T09:37:50Z</time>
      </trkpt>
      <trkpt lat="44.3892" lon="4.11063">
        <ele>424.9</ele>
        <time>2022-03-03T09:37:54Z</time>
      </trkpt>
      <trkpt lat="44.38915" lon="4.11062">
        <ele>522.7236</ele>
        <time>2022-03-03T09:37:58Z</time>
      </trkpt>
      <trkpt lat="44.38911" lon="4.11062">
        <ele>426.1</ele>
        <time>2022-03-03T09:38:04Z</time>
      </trkpt>
      <trkpt lat="44.38905" lon="4.11061">
        <ele>523.65314</ele>
        <time>2022-03-03T09:38:08Z</time>
      </trkpt>
      <trkpt lat="44.389" lon="4.11057">
        <ele>428</ele>
        <time>2022-03-03T09:38:13Z</time>
      </trkpt>
      <trkpt lat="44.38897" lon="4.11053">
        <ele>524.5867</ele>
        <time>2022-03-03T09:38:19Z</time>
      </trkpt>
      <trkpt lat="44.38892" lon="4.11051">
        <ele>429.7</ele>
        <time>2022-03-03T09:38:24Z</time>
      </trkpt>
      <trkpt lat="44.38889" lon="4.11045">
        <ele>430.5</ele>
        <time>2022-03-03T09:38:28Z</time>
      </trkpt>
      <trkpt lat="44.38889" lon="4.11038">
        <ele>526.40295</ele>
        <time>2022-03-03T09:38:32Z</time>
      </trkpt>
      <trkpt lat="44.38892" lon="4.11033">
        <ele>432.8</ele>
        <time>2022-03-03T09:38:38Z</time>
      </trkpt>
      <trkpt lat="44.38897" lon="4.11034">
        <ele>527.684</ele>
        <time>2022-03-03T09:38:44Z</time>
      </trkpt>
      <trkpt lat="44.38902" lon="4.11032">
        <ele>434.2</ele>
        <time>2022-03-03T09:38:49Z</time>
      </trkpt>
      <trkpt lat="44.38907" lon="4.1103">
        <ele>529.3929</ele>
        <time>2022-03-03T09:38:54Z</time>
      </trkpt>
      <trkpt lat="44.3891" lon="4.11025">
        <ele>529.88226</ele>
        <time>2022-03-03T09:38:59Z</time>
      </trkpt>
      <trkpt lat="44.38915" lon="4.11022">
        <ele>438.1</ele>
        <time>2022-03-03T09:39:04Z</time>
      </trkpt>
      <trkpt lat="44.38919" lon="4.11018">
        <ele>531.6814</ele>
        <time>2022-03-03T09:39:09Z</time>
      </trkpt>
      <trkpt lat="44.38923" lon="4.11014">
        <ele>438.9</ele>
        <time>2022-03-03T09:39:14Z</time>
      </trkpt>
      <trkpt lat="44.38926" lon="4.11009">
        <ele>532.8904</ele>
        <time>2022-03-03T09:39:19Z</time>
      </trkpt>
      <trkpt lat="44.38928" lon="4.11004">
        <ele>535.30945</ele>
        <time>2022-03-03T09:39:25Z</time>
      </trkpt>
      <trkpt lat="44.38932" lon="4.10999">
        <ele>442.7</ele>
        <time>2022-03-03T09:39:31Z</time>
      </trkpt>
      <trkpt lat="44.38936" lon="4.10995">
        <ele>536.8603</ele>
        <time>2022-03-03T09:39:37Z</time>
      </trkpt>
      <trkpt lat="44.38935" lon="4.10988">
        <ele>538.1636</ele>
        <time>2022-03-03T09:39:45Z</time>
      </trkpt>
      <trkpt lat="44.38936" lon="4.10982">
        <ele>443.7</ele>
        <time>2022-03-03T09:39:49Z</time>
      </trkpt>
      <trkpt lat="44.38939" lon="4.10976">
        <ele>444.5</ele>
        <time>2022-03-03T09:39:54Z</time>
      </trkpt>
      <trkpt lat="44.3894" lon="4.1097">
        <ele>539.56775</ele>
        <time>2022-03-03T09:39:59Z</time>
      </trkpt>
      <trkpt lat="44.38944" lon="4.10965">
        <ele>446.1</ele>
        <time>2022-03-03T09:40:03Z</time>
      </trkpt>
      <trkpt lat="44.38948" lon="4.1096">
        <ele>541.4617</ele>
        <time>2022-03-03T09:40:07Z</time>
      </trkpt>
      <trkpt lat="44.38953" lon="4.10957">
        <ele>447.1</ele>
        <time>2022-03-03T09:40:13Z</time>
      </trkpt>
      <trkpt lat="44.38957" lon="4.10952">
        <ele>542.7211</ele>
        <time>2022-03-03T09:40:22Z</time>
      </trkpt>
      <trkpt lat="44.38961" lon="4.10948">
        <ele>543.6976</ele>
        <time>2022-03-03T09:40:28Z</time>
      </trkpt>
      <trkpt lat="44.38963" lon="4.10946">
        <ele>544.02765</ele>
        <time>2022-03-03T09:40:38Z</time>
      </trkpt>
      <trkpt lat="44.38967" lon="4.1094">
        <ele>544.46643</ele>
        <time>2022-03-03T09:40:47Z</time>
      </trkpt>
      <trkpt lat="44.38969" lon="4.10935">
        <ele>451.3</ele>
        <time>2022-03-03T09:40:51Z</time>
      </trkpt>
      <trkpt lat="44.38973" lon="4.10929">
        <ele>545.81226</ele>
        <time>2022-03-03T09:40:56Z</time>
      </trkpt>
      <trkpt lat="44.38974" lon="4.10922">
        <ele>451.9</ele>
        <time>2022-03-03T09:41:00Z</time>
      </trkpt>
      <trkpt lat="44.38976" lon="4.10916">
        <ele>452.2</ele>
        <time>2022-03-03T09:41:04Z</time>
      </trkpt>
      <trkpt lat="44.38977" lon="4.10909">
        <ele>546.24426</ele>
        <time>2022-03-03T09:41:07Z</time>
      </trkpt>
      <trkpt lat="44.38978" lon="4.10902">
        <ele>453.2</ele>
        <time>2022-03-03T09:41:11Z</time>
      </trkpt>
      <trkpt lat="44.38977" lon="4.10895">
        <ele>453</ele>
        <time>2022-03-03T09:41:15Z</time>
      </trkpt>
      <trkpt lat="44.38976" lon="4.10888">
        <ele>545.6977</ele>
        <time>2022-03-03T09:41:20Z</time>
      </trkpt>
      <trkpt lat="44.38975" lon="4.1088">
        <ele>452.3</ele>
        <time>2022-03-03T09:41:24Z</time>
      </trkpt>
      <trkpt lat="44.38975" lon="4.10873">
        <ele>452.2</ele>
        <time>2022-03-03T09:41:28Z</time>
      </trkpt>
      <trkpt lat="44.38975" lon="4.10866">
        <ele>545.41266</ele>
        <time>2022-03-03T09:41:32Z</time>
      </trkpt>
      <trkpt lat="44.38974" lon="4.10859">
        <ele>452.1</ele>
        <time>2022-03-03T09:41:37Z</time>
      </trkpt>
      <trkpt lat="44.38973" lon="4.10853">
        <ele>545.2285</ele>
        <time>2022-03-03T09:41:42Z</time>
      </trkpt>
      <trkpt lat="44.38972" lon="4.10846">
        <ele>545.44495</ele>
        <time>2022-03-03T09:41:47Z</time>
      </trkpt>
      <trkpt lat="44.3897" lon="4.1084">
        <ele>452.3</ele>
        <time>2022-03-03T09:41:51Z</time>
      </trkpt>
      <trkpt lat="44.38967" lon="4.10834">
        <ele>545.1051</ele>
        <time>2022-03-03T09:41:56Z</time>
      </trkpt>
      <trkpt lat="44.38963" lon="4.10828">
        <ele>451.4</ele>
        <time>2022-03-03T09:42:01Z</time>
      </trkpt>
      <trkpt lat="44.3896" lon="4.10822">
        <ele>544.70447</ele>
        <time>2022-03-03T09:42:05Z</time>
      </trkpt>
      <trkpt lat="44.38958" lon="4.10816">
        <ele>451.8</ele>
        <time>2022-03-03T09:42:08Z</time>
      </trkpt>
      <trkpt lat="44.38955" lon="4.1081">
        <ele>451.7</ele>
        <time>2022-03-03T09:42:12Z</time>
      </trkpt>
      <trkpt lat="44.38952" lon="4.10804">
        <ele>544.60065</ele>
        <time>2022-03-03T09:42:17Z</time>
      </trkpt>
      <trkpt lat="44.38949" lon="4.10798">
        <ele>451.7</ele>
        <time>2022-03-03T09:42:21Z</time>
      </trkpt>
      <trkpt lat="44.38946" lon="4.10795">
        <ele>544.76715</ele>
        <time>2022-03-03T09:42:31Z</time>
      </trkpt>
      <trkpt lat="44.38942" lon="4.10793">
        <ele>545.4616</ele>
        <time>2022-03-03T09:42:36Z</time>
      </trkpt>
      <trkpt lat="44.38938" lon="4.10787">
        <ele>451.3</ele>
        <time>2022-03-03T09:42:41Z</time>
      </trkpt>
      <trkpt lat="44.38933" lon="4.10784">
        <ele>546.1708</ele>
        <time>2022-03-03T09:42:45Z</time>
      </trkpt>
      <trkpt lat="44.38929" lon="4.10781">
        <ele>451.3</ele>
        <time>2022-03-03T09:42:48Z</time>
      </trkpt>
      <trkpt lat="44.38925" lon="4.10776">
        <ele>451.6</ele>
        <time>2022-03-03T09:42:52Z</time>
      </trkpt>
      <trkpt lat="44.38921" lon="4.10773">
        <ele>547.0073</ele>
        <time>2022-03-03T09:42:56Z</time>
      </trkpt>
      <trkpt lat="44.38917" lon="4.10768">
        <ele>451.9</ele>
        <time>2022-03-03T09:43:01Z</time>
      </trkpt>
      <trkpt lat="44.38914" lon="4.10763">
        <ele>547.7871</ele>
        <time>2022-03-03T09:43:05Z</time>
        <extensions>
          <gpxtpx:TrackPointExtension xmlns:gpxtpx="http://www.garmin.com/xmlschemas/TrackPointExtension/v1">
            <gpxtpx:hr>163</gpxtpx:hr>
          </gpxtpx:TrackPointExtension>
        </extensions>
      </trkpt>
      <trkpt lat="44.38911" lon="4.10757">
        <ele>452.5</ele>
        <time>2022-03-03T09:43:09Z</time>
      </trkpt>
      <trkpt lat="44.3891" lon="4.1075">
        <ele>453.7</ele>
        <time>2022-03-03T09:43:13Z</time>
      </trkpt>
      <trkpt lat="44.38907" lon="4.10743">
        <ele>547.839</ele>
        <time>2022-03-03T09:43:17Z</time>
      </trkpt>
      <trkpt lat="44.38905" lon="4.10735">
        <ele>454.2</ele>
        <time>2022-03-03T09:43:21Z</time>
      </trkpt>
      <trkpt lat="44.38903" lon="4.1073">
        <ele>454.1</ele>
        <time>2022-03-03T09:43:24Z</time>
      </trkpt>
      <trkpt lat="44.38901" lon="4.10722">
        <ele>548.0359</ele>
        <time>2022-03-03T09:43:28Z</time>
      </trkpt>
      <trkpt lat="44.389" lon="4.10715">
        <ele>454.7</ele>
        <time>2022-03-03T09:43:32Z</time>
      </trkpt>
      <trkpt lat="44.389" lon="4.10707">
        <ele>548.51495</ele>
        <time>2022-03-03T09:43:36Z</time>
      </trkpt>
      <trkpt lat="44.38899" lon="4.107">
        <ele>455.7</ele>
        <time>2022-03-03T09:43:40Z</time>
      </trkpt>
      <trkpt lat="44.38899" lon="4.10694">
        <ele>456.1</ele>
        <time>2022-03-03T09:43:44Z</time>
        <extensions>
          <gpxtpx:TrackPointExtension xmlns:gpxtpx="http://www.garmin.com/xmlschemas/TrackPointExtension/v1">
            <gpxtpx:hr>162</gpxtpx:hr>
          </gpxtpx:TrackPointExtension>
        </extensions>
      </trkpt>
      <trkpt lat="44.38899" lon="4.10686">
        <ele>549.0489</ele>
        <time>2022-03-03T09:43:49Z</time>
      </trkpt>
      <trkpt lat="44.389" lon="4.10679">
        <ele>457.5</ele>
        <time>2022-03-03T09:43:54Z</time>
      </trkpt>
      <trkpt lat="44.389" lon="4.10672">
        <ele>550.02856</ele>
        <time>2022-03-03T09:44:00Z</time>
      </trkpt>
      <trkpt lat="44.389" lon="4.10666">
        <ele>458.5</ele>
        <time>2022-03-03T09:44:04Z</time>
      </trkpt>
      <trkpt lat="44.38896" lon="4.10662">
        <ele>550.1569</ele>
        <time>2022-03-03T09:44:10Z</time>
      </trkpt>
      <trkpt lat="44.38892" lon="4.10664">
        <ele>454.9</ele>
        <time>2022-03-03T09:44:16Z</time>
      </trkpt>
      <trkpt lat="44.38887" lon="4.10665">
        <ele>551.3042</ele>
        <time>2022-03-03T09:44:22Z</time>
      </trkpt>
      <trkpt lat="44.38882" lon="4.10666">
        <ele>551.946</ele>
        <time>2022-03-03T09:44:27Z</time>
      </trkpt>
      <trkpt lat="44.38877" lon="4.10667">
        <ele>454.6</ele>
        <time>2022-03-03T09:44:30Z</time>
      </trkpt>
      <trkpt lat="44.38872" lon="4.10668">
        <ele>455.1</ele>
        <time>2022-03-03T09:44:33Z</time>
      </trkpt>
      <trkpt lat="44.38868" lon="4.1067">
        <ele>552.74744</ele>
        <time>2022-03-03T09:44:36Z</time>
      </trkpt>
      <trkpt lat="44.38863" lon="4.10673">
        <ele>454.9</ele>
        <time>2022-03-03T09:44:41Z</time>
      </trkpt>
      <trkpt lat="44.38859" lon="4.10677">
        <ele>553.5813</ele>
        <time>2022-03-03T09:44:45Z</time>
      </trkpt>
      <trkpt lat="44.38854" lon="4.1068">
        <ele>454.3</ele>
        <time>2022-03-03T09:44:49Z</time>
      </trkpt>
      <trkpt lat="44.38849" lon="4.10681">
        <ele>455.1</ele>
        <time>2022-03-03T09:44:54Z</time>
      </trkpt>
      <trkpt lat="44.38844" lon="4.10678">
        <ele>554.8454</ele>
        <time>2022-03-03T09:44:59Z</time>
      </trkpt>
      <trkpt lat="44.38839" lon="4.10678">
        <ele>457.9</ele>
        <time>2022-03-03T09:45:02Z</time>
      </trkpt>
      <trkpt lat="44.38833" lon="4.1068">
        <ele>556.1233</ele>
        <time>2022-03-03T09:45:06Z</time>
      </trkpt>
      <trkpt lat="44.38828" lon="4.1068">
        <ele>459.5</ele>
        <time>2022-03-03T09:45:10Z</time>
      </trkpt>
      <trkpt lat="44.38823" lon="4.1068">
        <ele>557.3728</ele>
        <time>2022-03-03T09:45:17Z</time>
      </trkpt>
      <trkpt lat="44.38819" lon="4.1068">
        <ele>461.6</ele>
        <time>2022-03-03T09:45:22Z</time>
      </trkpt>
      <trkpt lat="44.38813" lon="4.10681">
        <ele>558.64594</ele>
        <time>2022-03-03T09:45:26Z</time>
      </trkpt>
      <trkpt lat="44.38807" lon="4.10681">
        <ele>463.6</ele>
        <time>2022-03-03T09:45:30Z</time>
      </trkpt>
      <trkpt lat="44.38802" lon="4.10682">
        <ele>559.7819</ele>
        <time>2022-03-03T09:45:35Z</time>
      </trkpt>
      <trkpt lat="44.38797" lon="4.10685">
        <ele>463.4</ele>
        <time>2022-03-03T09:45:39Z</time>
      </trkpt>
      <trkpt lat="44.38794" lon="4.1068">
        <ele>560.69055</ele>
        <time>2022-03-03T09:45:45Z</time>
      </trkpt>
      <trkpt lat="44.38793" lon="4.10673">
        <ele>464.9</ele>
        <time>2022-03-03T09:45:52Z</time>
      </trkpt>
      <trkpt lat="44.38794" lon="4.10667">
        <ele>560.96106</ele>
        <time>2022-03-03T09:46:00Z</time>
      </trkpt>
      <trkpt lat="44.38793" lon="4.10659">
        <ele>560.89343</ele>
        <time>2022-03-03T09:46:06Z</time>
      </trkpt>
      <trkpt lat="44.38794" lon="4.10653">
        <ele>466.6</ele>
        <time>2022-03-03T09:46:12Z</time>
      </trkpt>
      <trkpt lat="44.38796" lon="4.10643">
        <ele>560.3769</ele>
        <time>2022-03-03T09:46:17Z</time>
      </trkpt>
      <trkpt lat="44.38797" lon="4.1063">
        <ele>467.4</ele>
        <time>2022-03-03T09:46:24Z</time>
      </trkpt>
      <trkpt lat="44.38799" lon="4.10624">
        <ele>559.69073</ele>
        <time>2022-03-03T09:46:26Z</time>
      </trkpt>
      <trkpt lat="44.388" lon="4.10615">
        <ele>467.2</ele>
        <time>2022-03-03T09:46:29Z</time>
      </trkpt>
      <trkpt lat="44.388" lon="4.10608">
        <ele>466.4</ele>
        <time>2022-03-03T09:46:33Z</time>
      </trkpt>
      <trkpt lat="44.388" lon="4.10601">
        <ele>465.4</ele>
        <time>2022-03-03T09:46:37Z</time>
      </trkpt>
      <trkpt lat="44.38801" lon="4.10595">
        <ele>558.2617</ele>
        <time>2022-03-03T09:46:42Z</time>
      </trkpt>
      <trkpt lat="44.38801" lon="4.10588">
        <ele>463.8</ele>
        <time>2022-03-03T09:46:48Z</time>
      </trkpt>
      <trkpt lat="44.38804" lon="4.10582">
        <ele>556.9563</ele>
        <time>2022-03-03T09:46:54Z</time>
      </trkpt>
      <trkpt lat="44.38807" lon="4.10577">
        <ele>556.0086</ele>
        <time>2022-03-03T09:47:01Z</time>
      </trkpt>
      <trkpt lat="44.38807" lon="4.10571">
        <ele>555.78125</ele>
        <time>2022-03-03T09:47:07Z</time>
      </trkpt>
      <trkpt lat="44.38809" lon="4.10564">
        <ele>555.7215</ele>
        <time>2022-03-03T09:47:17Z</time>
      </trkpt>
      <trkpt lat="44.38811" lon="4.10558">
        <ele>463.5</ele>
        <time>2022-03-03T09:47:21Z</time>
      </trkpt>
      <trkpt lat="44.38814" lon="4.10553">
        <ele>554.6612</ele>
        <time>2022-03-03T09:47:26Z</time>
      </trkpt>
      <trkpt lat="44.38816" lon="4.10546">
        <ele>463.3</ele>
        <time>2022-03-03T09:47:33Z</time>
      </trkpt>
      <trkpt lat="44.38818" lon="4.10539">
        <ele>553.1208</ele>
        <time>2022-03-03T09:47:36Z</time>
      </trkpt>
      <trkpt lat="44.3882" lon="4.10532">
        <ele>462.1</ele>
        <time>2022-03-03T09:47:39Z</time>
      </trkpt>
      <trkpt lat="44.38823" lon="4.10527">
        <ele>552.71216</ele>
        <time>2022-03-03T09:47:45Z</time>
      </trkpt>
      <trkpt lat="44.38823" lon="4.10518">
        <ele>461</ele>
        <time>2022-03-03T09:47:49Z</time>
      </trkpt>
      <trkpt lat="44.38825" lon="4.10511">
        <ele>460.7</ele>
        <time>2022-03-03T09:47:52Z</time>
      </trkpt>
      <trkpt lat="44.38827" lon="4.10504">
        <ele>551.846</ele>
        <time>2022-03-03T09:47:55Z</time>
      </trkpt>
      <trkpt lat="44.38826" lon="4.10496">
        <ele>458.7</ele>
        <time>2022-03-03T09:47:58Z</time>
      </trkpt>
      <trkpt lat="44.38828" lon="4.1049">
        <ele>458.4</ele>
        <time>2022-03-03T09:48:02Z</time>
      </trkpt>
      <trkpt lat="44.38827" lon="4.10483">
        <ele>457</ele>
        <time>2022-03-03T09:48:04Z</time>
      </trkpt>
      <trkpt lat="44.38826" lon="4.10476">
        <ele>550.1197</ele>
        <time>2022-03-03T09:48:07Z</time>
      </trkpt>
      <trkpt lat="44.38828" lon="4.10469">
        <ele>455.7</ele>
        <time>2022-03-03T09:48:11Z</time>
      </trkpt>
      <trkpt lat="44.38828" lon="4.10461">
        <ele>549.9962</ele>
        <time>2022-03-03T09:48:15Z</time>
      </trkpt>
      <trkpt lat="44.38829" lon="4.10453">
        <ele>456.8</ele>
        <time>2022-03-03T09:48:19Z</time>
      </trkpt>
      <trkpt lat="44.3883" lon="4.10446">
        <ele>457.4</ele>
        <time>2022-03-03T09:48:24Z</time>
      </trkpt>
      <trkpt lat="44.38829" lon="4.10438">
        <ele>550.73596</ele>
        <time>2022-03-03T09:48:29Z</time>
      </trkpt>
      <trkpt lat="44.38828" lon="4.1043">
        <ele>458.6</ele>
        <time>2022-03-03T09:48:34Z</time>
      </trkpt>
      <trkpt lat="44.38826" lon="4.10424">
        <ele>551.76373</ele>
        <time>2022-03-03T09:48:38Z</time>
      </trkpt>
      <trkpt lat="44.38824" lon="4.10416">
        <ele>460.1</ele>
        <time>2022-03-03T09:48:42Z</time>
      </trkpt>
      <trkpt lat="44.38821" lon="4.10411">
        <ele>552.4251</ele>
        <time>2022-03-03T09:48:46Z</time>
      </trkpt>
      <trkpt lat="44.38816" lon="4.1041">
        <ele>459.9</ele>
        <time>2022-03-03T09:48:49Z</time>
      </trkpt>
      <trkpt lat="44.38811" lon="4.10408">
        <ele>459.4</ele>
        <time>2022-03-03T09:48:53Z</time>
      </trkpt>
      <trkpt lat="44.38805" lon="4.10409">
        <ele>553.78613</ele>
        <time>2022-03-03T09:48:59Z</time>
      </trkpt>
      <trkpt lat="44.388" lon="4.1041">
        <ele>459</ele>
        <time>2022-03-03T09:49:03Z</time>
      </trkpt>
      <trkpt lat="44.38795" lon="4.10413">
        <ele>554.8679</ele>
        <time>2022-03-03T09:49:07Z</time>
      </trkpt>
      <trkpt lat="44.3879" lon="4.10412">
        <ele>460</ele>
        <time>2022-03-03T09:49:11Z</time>
      </trkpt>
      <trkpt lat="44.38785" lon="4.10411">
        <ele>556.0096</ele>
        <time>2022-03-03T09:49:16Z</time>
      </trkpt>
      <trkpt lat="44.3878" lon="4.10412">
        <ele>461.3</ele>
        <time>2022-03-03T09:49:20Z</time>
      </trkpt>
      <trkpt lat="44.38774" lon="4.10413">
        <ele>461.3</ele>
        <time>2022-03-03T09:49:24Z</time>
      </trkpt>
      <trkpt lat="44.38769" lon="4.10414">
        <ele>461.5</ele>
        <time>2022-03-03T09:49:28Z</time>
      </trkpt>
      <trkpt lat="44.38763" lon="4.10414">
        <ele>557.44434</ele>
        <time>2022-03-03T09:49:32Z</time>
      </trkpt>
      <trkpt lat="44.38758" lon="4.10412">
        <ele>462.6</ele>
        <time>2022-03-03T09:49:38Z</time>
      </trkpt>
      <trkpt lat="44.38752" lon="4.10411">
        <ele>558.4078</ele>
        <time>2022-03-03T09:49:42Z</time>
      </trkpt>
      <trkpt lat="44.38748" lon="4.10412">
        <ele>558.92426</ele>
        <time>2022-03-03T09:49:47Z</time>
      </trkpt>
      <trkpt lat="44.38743" lon="4.10414">
        <ele>462.5</ele>
        <time>2022-03-03T09:49:52Z</time>
      </trkpt>
      <trkpt lat="44.38738" lon="4.10415">
        <ele>559.532</ele>
        <time>2022-03-03T09:49:55Z</time>
      </trkpt>
      <trkpt lat="44.38733" lon="4.10416">
        <ele>462.6</ele>
        <time>2022-03-03T09:49:58Z</time>
      </trkpt>
      <trkpt lat="44.38728" lon="4.10416">
        <ele>462.9</ele>
        <time>2022-03-03T09:50:01Z</time>
      </trkpt>
      <trkpt lat="44.38723" lon="4.10417">
        <ele>462.9</ele>
        <time>2022-03-03T09:50:04Z</time>
      </trkpt>
      <trkpt lat="44.38718" lon="4.10417">
        <ele>559.0556</ele>
        <time>2022-03-03T09:50:08Z</time>
      </trkpt>
      <trkpt lat="44.38712" lon="4.10417">
        <ele>462.9</ele>
        <time>2022-03-03T09:50:12Z</time>
      </trkpt>
      <trkpt lat="44.38707" lon="4.10416">
        <ele>559.1232</ele>
        <time>2022-03-03T09:50:15Z</time>
      </trkpt>
      <trkpt lat="44.38701" lon="4.10415">
        <ele>463.5</ele>
        <time>2022-03-03T09:50:19Z</time>
      </trkpt>
      <trkpt lat="44.38696" lon="4.10414">
        <ele>463.8</ele>
        <time>2022-03-03T09:50:24Z</time>
      </trkpt>
      <trkpt lat="44.38691" lon="4.10412">
        <ele>559.4104</ele>
        <time>2022-03-03T09:50:28Z</time>
      </trkpt>
      <trkpt lat="44.38687" lon="4.10409">
        <ele>463</ele>
        <time>2022-03-03T09:50:31Z</time>
      </trkpt>
      <trkpt lat="44.38682" lon="4.10403">
        <ele>559.35065</ele>
        <time>2022-03-03T09:50:35Z</time>
      </trkpt>
      <trkpt lat="44.38678" lon="4.10398">
        <ele>462.7</ele>
        <time>2022-03-03T09:50:38Z</time>
      </trkpt>
      <trkpt lat="44.38676" lon="4.10391">
        <ele>463.2</ele>
        <time>2022-03-03T09:50:42Z</time>
      </trkpt>
      <trkpt lat="44.38673" lon="4.10384">
        <ele>558.68414</ele>
        <time>2022-03-03T09:50:46Z</time>
      </trkpt>
      <trkpt lat="44.38672" lon="4.10378">
        <ele>463.2</ele>
        <time>2022-03-03T09:50:50Z</time>
      </trkpt>
      <trkpt lat="44.38671" lon="4.1037">
        <ele>557.42474</ele>
        <time>2022-03-03T09:50:55Z</time>
      </trkpt>
      <trkpt lat="44.3867" lon="4.10363">
        <ele>463.6</ele>
        <time>2022-03-03T09:50:59Z</time>
      </trkpt>
      <trkpt lat="44.3867" lon="4.10357">
        <ele>463.6</ele>
        <time>2022-03-03T09:51:02Z</time>
      </trkpt>
      <trkpt lat="44.38668" lon="4.1035">
        <ele>556.36926</ele>
        <time>2022-03-03T09:51:06Z</time>
      </trkpt>
      <trkpt lat="44.38667" lon="4.10344">
        <ele>462.3</ele>
        <time>2022-03-03T09:51:09Z</time>
      </trkpt>
      <trkpt lat="44.38666" lon="4.10337">
        <ele>461.6</ele>
        <time>2022-03-03T09:51:13Z</time>
      </trkpt>
      <trkpt lat="44.38665" lon="4.1033">
        <ele>554.9218</ele>
        <time>2022-03-03T09:51:17Z</time>
      </trkpt>
      <trkpt lat="44.38664" lon="4.10323">
        <ele>460</ele>
        <time>2022-03-03T09:51:20Z</time>
      </trkpt>
      <trkpt lat="44.38664" lon="4.10316">
        <ele>459.8</ele>
        <time>2022-03-03T09:51:24Z</time>
      </trkpt>
      <trkpt lat="44.38663" lon="4.10308">
        <ele>553.2305</ele>
        <time>2022-03-03T09:51:28Z</time>
      </trkpt>
      <trkpt lat="44.38664" lon="4.103">
        <ele>458.4</ele>
        <time>2022-03-03T09:51:32Z</time>
      </trkpt>
      <trkpt lat="44.38665" lon="4.10294">
        <ele>551.8607</ele>
        <time>2022-03-03T09:51:37Z</time>
      </trkpt>
      <trkpt lat="44.38666" lon="4.10286">
        <ele>457.9</ele>
        <time>2022-03-03T09:51:41Z</time>
      </trkpt>
      <trkpt lat="44.38667" lon="4.10279">
        <ele>457.4</ele>
        <time>2022-03-03T09:51:44Z</time>
      </trkpt>
      <trkpt lat="44.38668" lon="4.10273">
        <ele>550.91327</ele>
        <time>2022-03-03T09:51:48Z</time>
      </trkpt>
      <trkpt lat="44.3867" lon="4.10267">
        <ele>458.4</ele>
        <time>2022-03-03T09:51:52Z</time>
      </trkpt>
      <trkpt lat="44.3867" lon="4.10259">
        <ele>457.6</ele>
        <time>2022-03-03T09:51:56Z</time>
      </trkpt>
      <trkpt lat="44.38668" lon="4.10251">
        <ele>549.7925</ele>
        <time>2022-03-03T09:52:00Z</time>
      </trkpt>
      <trkpt lat="44.38668" lon="4.10244">
        <ele>456.5</ele>
        <time>2022-03-03T09:52:04Z</time>
      </trkpt>
      <trkpt lat="44.38667" lon="4.10236">
        <ele>455.9</ele>
        <time>2022-03-03T09:52:08Z</time>
      </trkpt>
      <trkpt lat="44.38667" lon="4.10229">
        <ele>549.0646</ele>
        <time>2022-03-03T09:52:13Z</time>
      </trkpt>
      <trkpt lat="44.38666" lon="4.10221">
        <ele>456</ele>
        <time>2022-03-03T09:52:19Z</time>
      </trkpt>
      <trkpt lat="44.38665" lon="4.10213">
        <ele>548.4405</ele>
        <time>2022-03-03T09:52:24Z</time>
      </trkpt>
      <trkpt lat="44.38661" lon="4.10208">
        <ele>548.0898</ele>
        <time>2022-03-03T09:52:29Z</time>
      </trkpt>
      <trkpt lat="44.38656" lon="4.10206">
        <ele>548.0046</ele>
        <time>2022-03-03T09:52:37Z</time>
      </trkpt>
      <trkpt lat="44.38651" lon="4.1021">
        <ele>456.5</ele>
        <time>2022-03-03T09:52:41Z</time>
      </trkpt>
      <trkpt lat="44.38646" lon="4.10212">
        <ele>549.1723</ele>
        <time>2022-03-03T09:52:45Z</time>
      </trkpt>
      <trkpt lat="44.38642" lon="4.10213">
        <ele>456.1</ele>
        <time>2022-03-03T09:52:51Z</time>
      </trkpt>
      <trkpt lat="44.38636" lon="4.10213">
        <ele>550.53705</ele>
        <time>2022-03-03T09:52:57Z</time>
      </trkpt>
      <trkpt lat="44.38631" lon="4.10213">
        <ele>456.4</ele>
        <time>2022-03-03T09:53:01Z</time>
      </trkpt>
      <trkpt lat="44.38627" lon="4.10214">
        <ele>552.0851</ele>
        <time>2022-03-03T09:53:07Z</time>
      </trkpt>
      <trkpt lat="44.38622" lon="4.10214">
        <ele>456.7</ele>
        <time>2022-03-03T09:53:12Z</time>
      </trkpt>
      <trkpt lat="44.38617" lon="4.10214">
        <ele>553.7459</ele>
        <time>2022-03-03T09:53:16Z</time>
      </trkpt>
      <trkpt lat="44.38612" lon="4.10213">
        <ele>457.7</ele>
        <time>2022-03-03T09:53:20Z</time>
      </trkpt>
      <trkpt lat="44.38607" lon="4.10212">
        <ele>555.4432</ele>
        <time>2022-03-03T09:53:25Z</time>
      </trkpt>
      <trkpt lat="44.38604" lon="4.10207">
        <ele>459.2</ele>
        <time>2022-03-03T09:53:30Z</time>
      </trkpt>
      <trkpt lat="44.38602" lon="4.102">
        <ele>556.9494</ele>
        <time>2022-03-03T09:53:38Z</time>
      </trkpt>
      <trkpt lat="44.38599" lon="4.10194">
        <ele>462.3</ele>
        <time>2022-03-03T09:53:43Z</time>
      </trkpt>
      <trkpt lat="44.38595" lon="4.10191">
        <ele>558.5518</ele>
        <time>2022-03-03T09:53:47Z</time>
      </trkpt>
      <trkpt lat="44.38591" lon="4.10188">
        <ele>463.4</ele>
        <time>2022-03-03T09:53:52Z</time>
      </trkpt>
      <trkpt lat="44.38587" lon="4.10185">
        <ele>560.0916</ele>
        <time>2022-03-03T09:53:58Z</time>
      </trkpt>
      <trkpt lat="44.38585" lon="4.10178">
        <ele>465.9</ele>
        <time>2022-03-03T09:54:02Z</time>
      </trkpt>
      <trkpt lat="44.38582" lon="4.10172">
        <ele>561.96875</ele>
        <time>2022-03-03T09:54:06Z</time>
      </trkpt>
      <trkpt lat="44.3858" lon="4.10167">
        <ele>469.5</ele>
        <time>2022-03-03T09:54:10Z</time>
      </trkpt>
      <trkpt lat="44.38577" lon="4.10162">
        <ele>563.6902</ele>
        <time>2022-03-03T09:54:15Z</time>
      </trkpt>
      <trkpt lat="44.38573" lon="4.10157">
        <ele>473.5</ele>
        <time>2022-03-03T09:54:20Z</time>
      </trkpt>
      <trkpt lat="44.38569" lon="4.10153">
        <ele>565.52545</ele>
        <time>2022-03-03T09:54:26Z</time>
      </trkpt>
      <trkpt lat="44.38564" lon="4.10151">
        <ele>475.4</ele>
        <time>2022-03-03T09:54:31Z</time>
      </trkpt>
      <trkpt lat="44.38559" lon="4.1015">
        <ele>475.6</ele>
        <time>2022-03-03T09:54:39Z</time>
      </trkpt>
      <trkpt lat="44.38554" lon="4.10153">
        <ele>567.3285</ele>
        <time>2022-03-03T09:54:46Z</time>
      </trkpt>
      <trkpt lat="44.38552" lon="4.10159">
        <ele>569.3102</ele>
        <time>2022-03-03T09:54:52Z</time>
      </trkpt>
      <trkpt lat="44.38548" lon="4.10163">
        <ele>475</ele>
        <time>2022-03-03T09:54:59Z</time>
      </trkpt>
      <trkpt lat="44.38543" lon="4.10166">
        <ele>571.1852</ele>
        <time>2022-03-03T09:55:03Z</time>
      </trkpt>
      <trkpt lat="44.38538" lon="4.10165">
        <ele>571.85205</ele>
        <time>2022-03-03T09:55:08Z</time>
      </trkpt>
      <trkpt lat="44.38532" lon="4.10164">
        <ele>477.4</ele>
        <time>2022-03-03T09:55:11Z</time>
      </trkpt>
      <trkpt lat="44.38527" lon="4.10164">
        <ele>478.3</ele>
        <time>2022-03-03T09:55:14Z</time>
      </trkpt>
      <trkpt lat="44.38523" lon="4.10163">
        <ele>573.5978</ele>
        <time>2022-03-03T09:55:20Z</time>
      </trkpt>
      <trkpt lat="44.38518" lon="4.10163">
        <ele>575.7517</ele>
        <time>2022-03-03T09:55:26Z</time>
      </trkpt>
      <trkpt lat="44.38513" lon="4.10161">
        <ele>481.2</ele>
        <time>2022-03-03T09:55:32Z</time>
      </trkpt>
      <trkpt lat="44.38508" lon="4.10159">
        <ele>577.75183</ele>
        <time>2022-03-03T09:55:37Z</time>
      </trkpt>
      <trkpt lat="44.38504" lon="4.10155">
        <ele>484.2</ele>
        <time>2022-03-03T09:55:42Z</time>
      </trkpt>
      <trkpt lat="44.38499" lon="4.10154">
        <ele>579.7639</ele>
        <time>2022-03-03T09:55:48Z</time>
      </trkpt>
      <trkpt lat="44.38494" lon="4.10152">
        <ele>486.9</ele>
        <time>2022-03-03T09:55:54Z</time>
      </trkpt>
      <trkpt lat="44.3849" lon="4.10149">
        <ele>581.7899</ele>
        <time>2022-03-03T09:56:01Z</time>
      </trkpt>
      <trkpt lat="44.38485" lon="4.10146">
        <ele>583.3226</ele>
        <time>2022-03-03T09:56:07Z</time>
      </trkpt>
      <trkpt lat="44.3848" lon="4.10143">
        <ele>490.8</ele>
        <time>2022-03-03T09:56:12Z</time>
      </trkpt>
      <trkpt lat="44.38476" lon="4.10139">
        <ele>585.32635</ele>
        <time>2022-03-03T09:56:17Z</time>
      </trkpt>
      <trkpt lat="44.38474" lon="4.10134">
        <ele>493.4</ele>
        <time>2022-03-03T09:56:23Z</time>
      </trkpt>
      <trkpt lat="44.3847" lon="4.1013">
        <ele>587.60803</ele>
        <time>2022-03-03T09:56:29Z</time>
      </trkpt>
      <trkpt lat="44.38466" lon="4.10125">
        <ele>589.74567</ele>
        <time>2022-03-03T09:56:35Z</time>
      </trkpt>
      <trkpt lat="44.38461" lon="4.10121">
        <ele>498.3</ele>
        <time>2022-03-03T09:56:41Z</time>
      </trkpt>
      <trkpt lat="44.38456" lon="4.10117">
        <ele>591.74023</ele>
        <time>2022-03-03T09:56:48Z</time>
      </trkpt>
      <trkpt lat="44.38453" lon="4.10114">
        <ele>500.7</ele>
        <time>2022-03-03T09:56:53Z</time>
      </trkpt>
      <trkpt lat="44.38447" lon="4.10111">
        <ele>593.5514</ele>
        <time>2022-03-03T09:57:00Z</time>
      </trkpt>
      <trkpt lat="44.38443" lon="4.10107">
        <ele>595.2469</ele>
        <time>2022-03-03T09:57:07Z</time>
      </trkpt>
      <trkpt lat="44.38442" lon="4.10102">
        <ele>503.9</ele>
        <time>2022-03-03T09:57:17Z</time>
      </trkpt>
      <trkpt lat="44.38441" lon="4.10105">
        <ele>597.7496</ele>
        <time>2022-03-03T09:57:27Z</time>
      </trkpt>
      <trkpt lat="44.3844" lon="4.10105">
        <ele>598.31024</ele>
        <time>2022-03-03T09:57:37Z</time>
      </trkpt>
      <trkpt lat="44.3844" lon="4.10106">
        <ele>598.1826</ele>
        <time>2022-03-03T09:57:47Z</time>
      </trkpt>
      <trkpt lat="44.3844" lon="4.10106">
        <ele>598.0088</ele>
        <time>2022-03-03T09:57:57Z</time>
      </trkpt>
      <trkpt lat="44.3844" lon="4.10105">
        <ele>598.35736</ele>
        <time>2022-03-03T09:58:07Z</time>
      </trkpt>
      <trkpt lat="44.3844" lon="4.10105">
        <ele>598.0903</ele>
        <time>2022-03-03T09:58:17Z</time>
      </trkpt>
      <trkpt lat="44.3844" lon="4.10104">
        <ele>598.29156</ele>
        <time>2022-03-03T09:58:27Z</time>
      </trkpt>
      <trkpt lat="44.38439" lon="4.10104">
        <ele>598.26117</ele>
        <time>2022-03-03T09:58:37Z</time>
      </trkpt>
      <trkpt lat="44.3844" lon="4.10105">
        <ele>598.1865</ele>
        <time>2022-03-03T09:58:47Z</time>
      </trkpt>
      <trkpt lat="44.38439" lon="4.10105">
        <ele>598.3417</ele>
        <time>2022-03-03T09:58:57Z</time>
      </trkpt>
      <trkpt lat="44.3844" lon="4.10106">
        <ele>598.28375</ele>
        <time>2022-03-03T09:59:07Z</time>
      </trkpt>
      <trkpt lat="44.3844" lon="4.10106">
        <ele>598.2896</ele>
        <time>2022-03-03T09:59:17Z</time>
      </trkpt>
      <trkpt lat="44.3844" lon="4.10106">
        <ele>598.3456</ele>
        <time>2022-03-03T09:59:27Z</time>
      </trkpt>
      <trkpt lat="44.38441" lon="4.10106">
        <ele>598.39075</ele>
        <time>2022-03-03T09:59:37Z</time>
      </trkpt>
      <trkpt lat="44.3844" lon="4.10106">
        <ele>503.2</ele>
        <time>2022-03-03T09:59:47Z</time>
      </trkpt>
      <trkpt lat="44.3844" lon="4.10106">
        <ele>598.15607</ele>
        <time>2022-03-03T09:59:57Z</time>
      </trkpt>
      <trkpt lat="44.38439" lon="4.10107">
        <ele>598.1728</ele>
        <time>2022-03-03T10:00:07Z</time>
      </trkpt>
      <trkpt lat="44.38439" lon="4.10108">
        <ele>598.16394</ele>
        <time>2022-03-03T10:00:17Z</time>
      </trkpt>
      <trkpt lat="44.38439" lon="4.10108">
        <ele>597.8576</ele>
        <time>2022-03-03T10:00:27Z</time>
      </trkpt>
      <trkpt lat="44.3844" lon="4.10107">
        <ele>597.7535</ele>
        <time>2022-03-03T10:00:37Z</time>
      </trkpt>
      <trkpt lat="44.3844" lon="4.10106">
        <ele>598.14923</ele>
        <time>2022-03-03T10:00:47Z</time>
      </trkpt>
      <trkpt lat="44.3844" lon="4.10106">
        <ele>598.1482</ele>
        <time>2022-03-03T10:00:57Z</time>
      </trkpt>
      <trkpt lat="44.3844" lon="4.10107">
        <ele>597.97833</ele>
        <time>2022-03-03T10:01:07Z</time>
      </trkpt>
      <trkpt lat="44.3844" lon="4.10106">
        <ele>598.17377</ele>
        <time>2022-03-03T10:01:17Z</time>
      </trkpt>
      <trkpt lat="44.38438" lon="4.10106">
        <ele>597.71716</ele>
        <time>2022-03-03T10:01:27Z</time>
      </trkpt>
      <trkpt lat="44.38437" lon="4.10107">
        <ele>598.30927</ele>
        <time>2022-03-03T10:01:37Z</time>
      </trkpt>
      <trkpt lat="44.38436" lon="4.10107">
        <ele>597.98914</ele>
        <time>2022-03-03T10:01:47Z</time>
      </trkpt>
      <trkpt lat="44.38438" lon="4.10107">
        <ele>598.9436</ele>
        <time>2022-03-03T10:01:57Z</time>
      </trkpt>
      <trkpt lat="44.38437" lon="4.10108">
        <ele>598.51447</ele>
        <time>2022-03-03T10:02:07Z</time>
      </trkpt>
      <trkpt lat="44.38438" lon="4.10108">
        <ele>598.22284</ele>
        <time>2022-03-03T10:02:17Z</time>
      </trkpt>
      <trkpt lat="44.38437" lon="4.10108">
        <ele>502.9</ele>
        <time>2022-03-03T10:02:27Z</time>
      </trkpt>
      <trkpt lat="44.38438" lon="4.10105">
        <ele>597.9715</ele>
        <time>2022-03-03T10:02:37Z</time>
      </trkpt>
      <trkpt lat="44.38435" lon="4.10101">
        <ele>597.7535</ele>
        <time>2022-03-03T10:02:43Z</time>
      </trkpt>
      <trkpt lat="44.3843" lon="4.10097">
        <ele>504.7</ele>
        <time>2022-03-03T10:02:48Z</time>
      </trkpt>
      <trkpt lat="44.38427" lon="4.10093">
        <ele>598.0009</ele>
        <time>2022-03-03T10:02:53Z</time>
      </trkpt>
      <trkpt lat="44.38425" lon="4.10084">
        <ele>598.1109</ele>
        <time>2022-03-03T10:02:58Z</time>
      </trkpt>
      <trkpt lat="44.38424" lon="4.1008">
        <ele>598.71576</ele>
        <time>2022-03-03T10:03:08Z</time>
      </trkpt>
      <trkpt lat="44.38423" lon="4.10078">
        <ele>599.358</ele>
        <time>2022-03-03T10:03:18Z</time>
      </trkpt>
      <trkpt lat="44.38421" lon="4.10071">
        <ele>507.4</ele>
        <time>2022-03-03T10:03:24Z</time>
      </trkpt>
      <trkpt lat="44.38421" lon="4.10065">
        <ele>599.82245</ele>
        <time>2022-03-03T10:03:28Z</time>
      </trkpt>
      <trkpt lat="44.38424" lon="4.1006">
        <ele>600.98517</ele>
        <time>2022-03-03T10:03:36Z</time>
      </trkpt>
      <trkpt lat="44.38424" lon="4.10053">
        <ele>601.81696</ele>
        <time>2022-03-03T10:03:46Z</time>
      </trkpt>
      <trkpt lat="44.38423" lon="4.10046">
        <ele>509.6</ele>
        <time>2022-03-03T10:03:50Z</time>
      </trkpt>
      <trkpt lat="44.38425" lon="4.1004">
        <ele>602.48676</ele>
        <time>2022-03-03T10:03:55Z</time>
      </trkpt>
      <trkpt lat="44.38426" lon="4.10034">
        <ele>510.8</ele>
        <time>2022-03-03T10:03:59Z</time>
      </trkpt>
      <trkpt lat="44.38427" lon="4.10029">
        <ele>602.54663</ele>
        <time>2022-03-03T10:04:09Z</time>
      </trkpt>
      <trkpt lat="44.38432" lon="4.10027">
        <ele>603.13495</ele>
        <time>2022-03-03T10:04:19Z</time>
      </trkpt>
      <trkpt lat="44.38436" lon="4.10022">
        <ele>604.2389</ele>
        <time>2022-03-03T10:04:26Z</time>
      </trkpt>
      <trkpt lat="44.38438" lon="4.10015">
        <ele>514.5</ele>
        <time>2022-03-03T10:04:33Z</time>
      </trkpt>
      <trkpt lat="44.38441" lon="4.1001">
        <ele>605.73285</ele>
        <time>2022-03-03T10:04:37Z</time>
      </trkpt>
      <trkpt lat="44.38443" lon="4.10004">
        <ele>516.9</ele>
        <time>2022-03-03T10:04:42Z</time>
      </trkpt>
      <trkpt lat="44.38444" lon="4.09997">
        <ele>606.7112</ele>
        <time>2022-03-03T10:04:47Z</time>
      </trkpt>
      <trkpt lat="44.38446" lon="4.09991">
        <ele>518</ele>
        <time>2022-03-03T10:04:51Z</time>
      </trkpt>
      <trkpt lat="44.38447" lon="4.09984">
        <ele>607.6483</ele>
        <time>2022-03-03T10:04:55Z</time>
      </trkpt>
      <trkpt lat="44.38448" lon="4.09978">
        <ele>518.2</ele>
        <time>2022-03-03T10:05:01Z</time>
      </trkpt>
      <trkpt lat="44.38448" lon="4.09977">
        <ele>608.2102</ele>
        <time>2022-03-03T10:05:11Z</time>
      </trkpt>
      <trkpt lat="44.38447" lon="4.09973">
        <ele>608.3291</ele>
        <time>2022-03-03T10:05:21Z</time>
      </trkpt>
      <trkpt lat="44.38442" lon="4.09971">
        <ele>608.2672</ele>
        <time>2022-03-03T10:05:31Z</time>
      </trkpt>
      <trkpt lat="44.38438" lon="4.09973">
        <ele>607.1915</ele>
        <time>2022-03-03T10:05:36Z</time>
      </trkpt>
      <trkpt lat="44.38434" lon="4.0997">
        <ele>512.7</ele>
        <time>2022-03-03T10:05:39Z</time>
      </trkpt>
      <trkpt lat="44.3843" lon="4.09967">
        <ele>605.6906</ele>
        <time>2022-03-03T10:05:49Z</time>
      </trkpt>
      <trkpt lat="44.38429" lon="4.09966">
        <ele>603.82935</ele>
        <time>2022-03-03T10:05:59Z</time>
      </trkpt>
      <trkpt lat="44.38417" lon="4.09978">
        <ele>507.3</ele>
        <time>2022-03-03T10:06:36Z</time>
      </trkpt>
      <trkpt lat="44.38411" lon="4.09979">
        <ele>506.1</ele>
        <time>2022-03-03T10:06:39Z</time>
      </trkpt>
      <trkpt lat="44.38406" lon="4.09978">
        <ele>505.1</ele>
        <time>2022-03-03T10:06:42Z</time>
      </trkpt>
      <trkpt lat="44.38403" lon="4.09973">
        <ele>504</ele>
        <time>2022-03-03T10:06:44Z</time>
      </trkpt>
      <trkpt lat="44.384" lon="4.09966">
        <ele>595.8222</ele>
        <time>2022-03-03T10:06:48Z</time>
      </trkpt>
      <trkpt lat="44.38398" lon="4.09959">
        <ele>502.4</ele>
        <time>2022-03-03T10:06:52Z</time>
      </trkpt>
      <trkpt lat="44.38398" lon="4.09952">
        <ele>594.2789</ele>
        <time>2022-03-03T10:06:57Z</time>
      </trkpt>
      <trkpt lat="44.38401" lon="4.09949">
        <ele>593.8921</ele>
        <time>2022-03-03T10:07:07Z</time>
      </trkpt>
      <trkpt lat="44.38401" lon="4.09948">
        <ele>594.1689</ele>
        <time>2022-03-03T10:07:17Z</time>
      </trkpt>
      <trkpt lat="44.384" lon="4.09942">
        <ele>593.3374</ele>
        <time>2022-03-03T10:07:26Z</time>
      </trkpt>
      <trkpt lat="44.38402" lon="4.09936">
        <ele>502.1</ele>
        <time>2022-03-03T10:07:33Z</time>
      </trkpt>
      <trkpt lat="44.38405" lon="4.0993">
        <ele>502.7</ele>
        <time>2022-03-03T10:07:39Z</time>
      </trkpt>
      <trkpt lat="44.38406" lon="4.09922">
        <ele>591.7304</ele>
        <time>2022-03-03T10:07:43Z</time>
      </trkpt>
      <trkpt lat="44.38406" lon="4.09916">
        <ele>502.2</ele>
        <time>2022-03-03T10:07:46Z</time>
      </trkpt>
      <trkpt lat="44.38405" lon="4.09909">
        <ele>501.1</ele>
        <time>2022-03-03T10:07:49Z</time>
      </trkpt>
      <trkpt lat="44.38403" lon="4.09903">
        <ele>590.0784</ele>
        <time>2022-03-03T10:07:52Z</time>
      </trkpt>
      <trkpt lat="44.384" lon="4.09896">
        <ele>498.4</ele>
        <time>2022-03-03T10:07:56Z</time>
      </trkpt>
      <trkpt lat="44.38396" lon="4.09892">
        <ele>497</ele>
        <time>2022-03-03T10:07:59Z</time>
      </trkpt>
      <trkpt lat="44.38393" lon="4.09886">
        <ele>589.74176</ele>
        <time>2022-03-03T10:08:02Z</time>
      </trkpt>
      <trkpt lat="44.38388" lon="4.09883">
        <ele>589.8203</ele>
        <time>2022-03-03T10:08:06Z</time>
      </trkpt>
      <trkpt lat="44.38383" lon="4.09882">
        <ele>496</ele>
        <time>2022-03-03T10:08:10Z</time>
      </trkpt>
      <trkpt lat="44.38378" lon="4.0988">
        <ele>495.6</ele>
        <time>2022-03-03T10:08:14Z</time>
      </trkpt>
      <trkpt lat="44.38373" lon="4.09879">
        <ele>590.0863</ele>
        <time>2022-03-03T10:08:18Z</time>
      </trkpt>
      <trkpt lat="44.38368" lon="4.09877">
        <ele>495.6</ele>
        <time>2022-03-03T10:08:23Z</time>
      </trkpt>
      <trkpt lat="44.38363" lon="4.09875">
        <ele>589.59064</ele>
        <time>2022-03-03T10:08:27Z</time>
      </trkpt>
      <trkpt lat="44.38358" lon="4.09876">
        <ele>494.6</ele>
        <time>2022-03-03T10:08:31Z</time>
      </trkpt>
      <trkpt lat="44.38353" lon="4.09876">
        <ele>588.45404</ele>
        <time>2022-03-03T10:08:35Z</time>
      </trkpt>
      <trkpt lat="44.38348" lon="4.09876">
        <ele>493</ele>
        <time>2022-03-03T10:08:39Z</time>
      </trkpt>
      <trkpt lat="44.38343" lon="4.09875">
        <ele>492.4</ele>
        <time>2022-03-03T10:08:43Z</time>
      </trkpt>
      <trkpt lat="44.38339" lon="4.09873">
        <ele>587.25964</ele>
        <time>2022-03-03T10:08:46Z</time>
      </trkpt>
      <trkpt lat="44.38334" lon="4.09872">
        <ele>492.2</ele>
        <time>2022-03-03T10:08:50Z</time>
      </trkpt>
      <trkpt lat="44.38329" lon="4.09869">
        <ele>492.2</ele>
        <time>2022-03-03T10:08:54Z</time>
      </trkpt>
      <trkpt lat="44.38324" lon="4.09867">
        <ele>586.3401</ele>
        <time>2022-03-03T10:08:58Z</time>
      </trkpt>
      <trkpt lat="44.38319" lon="4.09865">
        <ele>491.1</ele>
        <time>2022-03-03T10:09:02Z</time>
      </trkpt>
      <trkpt lat="44.38314" lon="4.09863">
        <ele>585.6109</ele>
        <time>2022-03-03T10:09:06Z</time>
      </trkpt>
      <trkpt lat="44.3831" lon="4.09863">
        <ele>489.4</ele>
        <time>2022-03-03T10:09:09Z</time>
      </trkpt>
      <trkpt lat="44.38304" lon="4.09861">
        <ele>489</ele>
        <time>2022-03-03T10:09:14Z</time>
      </trkpt>
      <trkpt lat="44.38298" lon="4.0986">
        <ele>585.2017</ele>
        <time>2022-03-03T10:09:18Z</time>
      </trkpt>
      <trkpt lat="44.38294" lon="4.09857">
        <ele>489.1</ele>
        <time>2022-03-03T10:09:22Z</time>
      </trkpt>
      <trkpt lat="44.38288" lon="4.09855">
        <ele>584.9819</ele>
        <time>2022-03-03T10:09:26Z</time>
      </trkpt>
      <trkpt lat="44.38284" lon="4.09852">
        <ele>490</ele>
        <time>2022-03-03T10:09:29Z</time>
      </trkpt>
      <trkpt lat="44.38279" lon="4.0985">
        <ele>490.1</ele>
        <time>2022-03-03T10:09:33Z</time>
      </trkpt>
      <trkpt lat="44.38274" lon="4.09848">
        <ele>584.9397</ele>
        <time>2022-03-03T10:09:37Z</time>
      </trkpt>
      <trkpt lat="44.3827" lon="4.09845">
        <ele>490.5</ele>
        <time>2022-03-03T10:09:41Z</time>
      </trkpt>
      <trkpt lat="44.38266" lon="4.09843">
        <ele>585.0702</ele>
        <time>2022-03-03T10:09:45Z</time>
      </trkpt>
      <trkpt lat="44.38261" lon="4.09841">
        <ele>490.4</ele>
        <time>2022-03-03T10:09:49Z</time>
      </trkpt>
      <trkpt lat="44.38257" lon="4.09837">
        <ele>490.9</ele>
        <time>2022-03-03T10:09:53Z</time>
      </trkpt>
      <trkpt lat="44.38252" lon="4.09835">
        <ele>585.11536</ele>
        <time>2022-03-03T10:09:57Z</time>
      </trkpt>
      <trkpt lat="44.38248" lon="4.09833">
        <ele>490.8</ele>
        <time>2022-03-03T10:10:01Z</time>
      </trkpt>
      <trkpt lat="44.38242" lon="4.09832">
        <ele>490.6</ele>
        <time>2022-03-03T10:10:06Z</time>
      </trkpt>
      <trkpt lat="44.38238" lon="4.09831">
        <ele>584.8131</ele>
        <time>2022-03-03T10:10:10Z</time>
      </trkpt>
      <trkpt lat="44.38232" lon="4.09829">
        <ele>490.3</ele>
        <time>2022-03-03T10:10:15Z</time>
      </trkpt>
      <trkpt lat="44.38228" lon="4.09828">
        <ele>490.2</ele>
        <time>2022-03-03T10:10:19Z</time>
      </trkpt>
      <trkpt lat="44.38223" lon="4.09826">
        <ele>584.78955</ele>
        <time>2022-03-03T10:10:23Z</time>
      </trkpt>
      <trkpt lat="44.38218" lon="4.09823">
        <ele>489.8</ele>
        <time>2022-03-03T10:10:27Z</time>
      </trkpt>
      <trkpt lat="44.38213" lon="4.09821">
        <ele>585.1556</ele>
        <time>2022-03-03T10:10:31Z</time>
      </trkpt>
      <trkpt lat="44.38208" lon="4.09818">
        <ele>585.15753</ele>
        <time>2022-03-03T10:10:35Z</time>
      </trkpt>
      <trkpt lat="44.38203" lon="4.09814">
        <ele>489.5</ele>
        <time>2022-03-03T10:10:39Z</time>
      </trkpt>
      <trkpt lat="44.38199" lon="4.09811">
        <ele>489.5</ele>
        <time>2022-03-03T10:10:43Z</time>
      </trkpt>
      <trkpt lat="44.38194" lon="4.09808">
        <ele>584.76794</ele>
        <time>2022-03-03T10:10:47Z</time>
      </trkpt>
      <trkpt lat="44.3819" lon="4.09807">
        <ele>490</ele>
        <time>2022-03-03T10:10:51Z</time>
      </trkpt>
      <trkpt lat="44.38185" lon="4.09808">
        <ele>584.44806</ele>
        <time>2022-03-03T10:10:56Z</time>
      </trkpt>
      <trkpt lat="44.38179" lon="4.0981">
        <ele>490.4</ele>
        <time>2022-03-03T10:11:00Z</time>
      </trkpt>
      <trkpt lat="44.38174" lon="4.09811">
        <ele>490.6</ele>
        <time>2022-03-03T10:11:04Z</time>
      </trkpt>
      <trkpt lat="44.3817" lon="4.09813">
        <ele>584.48926</ele>
        <time>2022-03-03T10:11:08Z</time>
      </trkpt>
      <trkpt lat="44.38164" lon="4.09816">
        <ele>490.3</ele>
        <time>2022-03-03T10:11:14Z</time>
      </trkpt>
      <trkpt lat="44.3816" lon="4.09819">
        <ele>584.34503</ele>
        <time>2022-03-03T10:11:18Z</time>
      </trkpt>
      <trkpt lat="44.38155" lon="4.09823">
        <ele>489.1</ele>
        <time>2022-03-03T10:11:23Z</time>
      </trkpt>
      <trkpt lat="44.38153" lon="4.09823">
        <ele>584.1566</ele>
        <time>2022-03-03T10:11:33Z</time>
      </trkpt>
      <trkpt lat="44.38147" lon="4.09824">
        <ele>584.24884</ele>
        <time>2022-03-03T10:11:39Z</time>
      </trkpt>
      <trkpt lat="44.38142" lon="4.09825">
        <ele>490</ele>
        <time>2022-03-03T10:11:43Z</time>
      </trkpt>
      <trkpt lat="44.38136" lon="4.09825">
        <ele>584.22235</ele>
        <time>2022-03-03T10:11:47Z</time>
      </trkpt>
      <trkpt lat="44.38131" lon="4.09825">
        <ele>490.3</ele>
        <time>2022-03-03T10:11:51Z</time>
      </trkpt>
      <trkpt lat="44.38126" lon="4.09825">
        <ele>584.3166</ele>
        <time>2022-03-03T10:11:55Z</time>
      </trkpt>
      <trkpt lat="44.3812" lon="4.09826">
        <ele>490</ele>
        <time>2022-03-03T10:11:59Z</time>
      </trkpt>
      <trkpt lat="44.38115" lon="4.09825">
        <ele>490.1</ele>
        <time>2022-03-03T10:12:03Z</time>
      </trkpt>
      <trkpt lat="44.38109" lon="4.09824">
        <ele>583.43243</ele>
        <time>2022-03-03T10:12:07Z</time>
      </trkpt>
      <trkpt lat="44.38103" lon="4.09823">
        <ele>489</ele>
        <time>2022-03-03T10:12:11Z</time>
      </trkpt>
      <trkpt lat="44.38098" lon="4.09822">
        <ele>582.29034</ele>
        <time>2022-03-03T10:12:15Z</time>
      </trkpt>
      <trkpt lat="44.38094" lon="4.09819">
        <ele>487.8</ele>
        <time>2022-03-03T10:12:19Z</time>
      </trkpt>
      <trkpt lat="44.38089" lon="4.09815">
        <ele>487.5</ele>
        <time>2022-03-03T10:12:23Z</time>
      </trkpt>
      <trkpt lat="44.38085" lon="4.09811">
        <ele>581.1993</ele>
        <time>2022-03-03T10:12:27Z</time>
      </trkpt>
      <trkpt lat="44.38081" lon="4.09808">
        <ele>487.5</ele>
        <time>2022-03-03T10:12:30Z</time>
      </trkpt>
      <trkpt lat="44.38076" lon="4.09805">
        <ele>488.1</ele>
        <time>2022-03-03T10:12:33Z</time>
      </trkpt>
      <trkpt lat="44.38071" lon="4.09801">
        <ele>580.7175</ele>
        <time>2022-03-03T10:12:37Z</time>
      </trkpt>
      <trkpt lat="44.38067" lon="4.098">
        <ele>489.4</ele>
        <time>2022-03-03T10:12:41Z</time>
      </trkpt>
      <trkpt lat="44.38062" lon="4.09802">
        <ele>489</ele>
        <time>2022-03-03T10:12:45Z</time>
      </trkpt>
      <trkpt lat="44.38058" lon="4.09805">
        <ele>488.1</ele>
        <time>2022-03-03T10:12:48Z</time>
      </trkpt>
      <trkpt lat="44.38053" lon="4.09808">
        <ele>581.0629</ele>
        <time>2022-03-03T10:12:52Z</time>
      </trkpt>
      <trkpt lat="44.38049" lon="4.09812">
        <ele>488.3</ele>
        <time>2022-03-03T10:12:55Z</time>
      </trkpt>
      <trkpt lat="44.38045" lon="4.09816">
        <ele>581.31995</ele>
        <time>2022-03-03T10:13:00Z</time>
      </trkpt>
      <trkpt lat="44.3804" lon="4.09821">
        <ele>488.4</ele>
        <time>2022-03-03T10:13:04Z</time>
      </trkpt>
      <trkpt lat="44.38036" lon="4.09824">
        <ele>488.6</ele>
        <time>2022-03-03T10:13:08Z</time>
      </trkpt>
      <trkpt lat="44.38031" lon="4.09827">
        <ele>581.5898</ele>
        <time>2022-03-03T10:13:11Z</time>
      </trkpt>
      <trkpt lat="44.38026" lon="4.09829">
        <ele>581.79877</ele>
        <time>2022-03-03T10:13:15Z</time>
      </trkpt>
      <trkpt lat="44.38022" lon="4.09831">
        <ele>489.1</ele>
        <time>2022-03-03T10:13:19Z</time>
      </trkpt>
      <trkpt lat="44.38016" lon="4.09835">
        <ele>488.9</ele>
        <time>2022-03-03T10:13:23Z</time>
      </trkpt>
      <trkpt lat="44.3801" lon="4.09837">
        <ele>581.9999</ele>
        <time>2022-03-03T10:13:27Z</time>
      </trkpt>
      <trkpt lat="44.38005" lon="4.09839">
        <ele>488.9</ele>
        <time>2022-03-03T10:13:31Z</time>
      </trkpt>
      <trkpt lat="44.38001" lon="4.09842">
        <ele>582.0774</ele>
        <time>2022-03-03T10:13:35Z</time>
      </trkpt>
      <trkpt lat="44.37995" lon="4.09844">
        <ele>488.3</ele>
        <time>2022-03-03T10:13:39Z</time>
      </trkpt>
      <trkpt lat="44.3799" lon="4.09846">
        <ele>488</ele>
        <time>2022-03-03T10:13:43Z</time>
      </trkpt>
      <trkpt lat="44.37984" lon="4.09847">
        <ele>582.37866</ele>
        <time>2022-03-03T10:13:47Z</time>
      </trkpt>
      <trkpt lat="44.3798" lon="4.09848">
        <ele>487.6</ele>
        <time>2022-03-03T10:13:51Z</time>
      </trkpt>
      <trkpt lat="44.37975" lon="4.09848">
        <ele>582.1137</ele>
        <time>2022-03-03T10:13:55Z</time>
      </trkpt>
      <trkpt lat="44.3797" lon="4.09847">
        <ele>487.9</ele>
        <time>2022-03-03T10:13:59Z</time>
      </trkpt>
      <trkpt lat="44.37965" lon="4.09848">
        <ele>487.5</ele>
        <time>2022-03-03T10:14:03Z</time>
      </trkpt>
      <trkpt lat="44.37959" lon="4.09848">
        <ele>581.20026</ele>
        <time>2022-03-03T10:14:07Z</time>
      </trkpt>
      <trkpt lat="44.37954" lon="4.09849">
        <ele>486.7</ele>
        <time>2022-03-03T10:14:10Z</time>
      </trkpt>
      <trkpt lat="44.37949" lon="4.09849">
        <ele>486.4</ele>
        <time>2022-03-03T10:14:13Z</time>
      </trkpt>
      <trkpt lat="44.37944" lon="4.09848">
        <ele>580.64</ele>
        <time>2022-03-03T10:14:17Z</time>
      </trkpt>
      <trkpt lat="44.37939" lon="4.09849">
        <ele>485.3</ele>
        <time>2022-03-03T10:14:21Z</time>
      </trkpt>
      <trkpt lat="44.37934" lon="4.09847">
        <ele>579.06934</ele>
        <time>2022-03-03T10:14:26Z</time>
      </trkpt>
      <trkpt lat="44.37928" lon="4.09845">
        <ele>484.9</ele>
        <time>2022-03-03T10:14:30Z</time>
      </trkpt>
      <trkpt lat="44.37922" lon="4.09844">
        <ele>484.2</ele>
        <time>2022-03-03T10:14:34Z</time>
      </trkpt>
      <trkpt lat="44.37917" lon="4.09841">
        <ele>578.1079</ele>
        <time>2022-03-03T10:14:38Z</time>
      </trkpt>
      <trkpt lat="44.37912" lon="4.09837">
        <ele>484.3</ele>
        <time>2022-03-03T10:14:43Z</time>
        <extensions>
          <gpxtpx:TrackPointExtension xmlns:gpxtpx="http://www.garmin.com/xmlschemas/TrackPointExtension/v1">
            <gpxtpx:hr>139</gpxtpx:hr>
          </gpxtpx:TrackPointExtension>
        </extensions>
      </trkpt>
      <trkpt lat="44.37908" lon="4.09834">
        <ele>577.53406</ele>
        <time>2022-03-03T10:14:47Z</time>
      </trkpt>
      <trkpt lat="44.37904" lon="4.09832">
        <ele>484.4</ele>
        <time>2022-03-03T10:14:51Z</time>
      </trkpt>
      <trkpt lat="44.37899" lon="4.09829">
        <ele>577.0063</ele>
        <time>2022-03-03T10:14:55Z</time>
      </trkpt>
      <trkpt lat="44.37894" lon="4.09828">
        <ele>483.7</ele>
        <time>2022-03-03T10:14:58Z</time>
      </trkpt>
      <trkpt lat="44.3789" lon="4.09825">
        <ele>483.6</ele>
        <time>2022-03-03T10:15:01Z</time>
      </trkpt>
      <trkpt lat="44.37885" lon="4.09822">
        <ele>576.49133</ele>
        <time>2022-03-03T10:15:05Z</time>
      </trkpt>
      <trkpt lat="44.3788" lon="4.0982">
        <ele>482.9</ele>
        <time>2022-03-03T10:15:09Z</time>
      </trkpt>
      <trkpt lat="44.37876" lon="4.09815">
        <ele>483</ele>
        <time>2022-03-03T10:15:13Z</time>
      </trkpt>
      <trkpt lat="44.37873" lon="4.09808">
        <ele>483.7</ele>
        <time>2022-03-03T10:15:16Z</time>
      </trkpt>
      <trkpt lat="44.3787" lon="4.09804">
        <ele>483.7</ele>
        <time>2022-03-03T10:15:19Z</time>
      </trkpt>
      <trkpt lat="44.37867" lon="4.09799">
        <ele>576.6453</ele>
        <time>2022-03-03T10:15:22Z</time>
      </trkpt>
      <trkpt lat="44.37863" lon="4.09794">
        <ele>483.6</ele>
        <time>2022-03-03T10:15:26Z</time>
      </trkpt>
      <trkpt lat="44.37859" lon="4.09789">
        <ele>576.4746</ele>
        <time>2022-03-03T10:15:31Z</time>
      </trkpt>
      <trkpt lat="44.37854" lon="4.09787">
        <ele>483</ele>
        <time>2022-03-03T10:15:35Z</time>
      </trkpt>
      <trkpt lat="44.3785" lon="4.09783">
        <ele>482.9</ele>
        <time>2022-03-03T10:15:39Z</time>
      </trkpt>
      <trkpt lat="44.37845" lon="4.0978">
        <ele>575.87335</ele>
        <time>2022-03-03T10:15:43Z</time>
      </trkpt>
      <trkpt lat="44.3784" lon="4.0978">
        <ele>575.5781</ele>
        <time>2022-03-03T10:15:46Z</time>
      </trkpt>
      <trkpt lat="44.37835" lon="4.09779">
        <ele>481.8</ele>
        <time>2022-03-03T10:15:49Z</time>
      </trkpt>
      <trkpt lat="44.3783" lon="4.09779">
        <ele>481.7</ele>
        <time>2022-03-03T10:15:53Z</time>
      </trkpt>
      <trkpt lat="44.37825" lon="4.09779">
        <ele>575.18475</ele>
        <time>2022-03-03T10:15:58Z</time>
      </trkpt>
      <trkpt lat="44.37821" lon="4.09781">
        <ele>481.3</ele>
        <time>2022-03-03T10:16:01Z</time>
      </trkpt>
      <trkpt lat="44.37816" lon="4.09784">
        <ele>574.8042</ele>
        <time>2022-03-03T10:16:05Z</time>
      </trkpt>
      <trkpt lat="44.37811" lon="4.09786">
        <ele>480.5</ele>
        <time>2022-03-03T10:16:09Z</time>
      </trkpt>
      <trkpt lat="44.37807" lon="4.09789">
        <ele>480</ele>
        <time>2022-03-03T10:16:13Z</time>
      </trkpt>
      <trkpt lat="44.37801" lon="4.09792">
        <ele>574.40106</ele>
        <time>2022-03-03T10:16:19Z</time>
      </trkpt>
      <trkpt lat="44.37796" lon="4.09794">
        <ele>479.5</ele>
        <time>2022-03-03T10:16:22Z</time>
      </trkpt>
      <trkpt lat="44.37791" lon="4.09795">
        <ele>573.8969</ele>
        <time>2022-03-03T10:16:25Z</time>
      </trkpt>
      <trkpt lat="44.37787" lon="4.09797">
        <ele>479.6</ele>
        <time>2022-03-03T10:16:29Z</time>
      </trkpt>
      <trkpt lat="44.37782" lon="4.09799">
        <ele>479.5</ele>
        <time>2022-03-03T10:16:33Z</time>
      </trkpt>
      <trkpt lat="44.37777" lon="4.098">
        <ele>573.1829</ele>
        <time>2022-03-03T10:16:37Z</time>
      </trkpt>
      <trkpt lat="44.37772" lon="4.09801">
        <ele>479.1</ele>
        <time>2022-03-03T10:16:41Z</time>
      </trkpt>
      <trkpt lat="44.37767" lon="4.09802">
        <ele>572.2071</ele>
        <time>2022-03-03T10:16:45Z</time>
      </trkpt>
      <trkpt lat="44.37762" lon="4.09803">
        <ele>478.2</ele>
        <time>2022-03-03T10:16:49Z</time>
      </trkpt>
      <trkpt lat="44.37758" lon="4.09805">
        <ele>477.6</ele>
        <time>2022-03-03T10:16:52Z</time>
      </trkpt>
      <trkpt lat="44.37753" lon="4.09807">
        <ele>570.55365</ele>
        <time>2022-03-03T10:16:56Z</time>
      </trkpt>
      <trkpt lat="44.37748" lon="4.0981">
        <ele>476</ele>
        <time>2022-03-03T10:17:00Z</time>
      </trkpt>
      <trkpt lat="44.37743" lon="4.09811">
        <ele>569.02484</ele>
        <time>2022-03-03T10:17:05Z</time>
      </trkpt>
      <trkpt lat="44.37738" lon="4.09811">
        <ele>474.5</ele>
        <time>2022-03-03T10:17:08Z</time>
      </trkpt>
      <trkpt lat="44.37733" lon="4.09811">
        <ele>473.8</ele>
        <time>2022-03-03T10:17:12Z</time>
      </trkpt>
      <trkpt lat="44.37727" lon="4.09811">
        <ele>567.0785</ele>
        <time>2022-03-03T10:17:16Z</time>
      </trkpt>
      <trkpt lat="44.37723" lon="4.0981">
        <ele>472.5</ele>
        <time>2022-03-03T10:17:20Z</time>
      </trkpt>
      <trkpt lat="44.37717" lon="4.09809">
        <ele>471.9</ele>
        <time>2022-03-03T10:17:24Z</time>
      </trkpt>
      <trkpt lat="44.37713" lon="4.09807">
        <ele>565.6215</ele>
        <time>2022-03-03T10:17:28Z</time>
      </trkpt>
      <trkpt lat="44.37707" lon="4.09805">
        <ele>470.9</ele>
        <time>2022-03-03T10:17:32Z</time>
      </trkpt>
      <trkpt lat="44.37703" lon="4.09804">
        <ele>564.449</ele>
        <time>2022-03-03T10:17:36Z</time>
      </trkpt>
      <trkpt lat="44.37698" lon="4.09802">
        <ele>469.9</ele>
        <time>2022-03-03T10:17:40Z</time>
      </trkpt>
      <trkpt lat="44.37693" lon="4.09801">
        <ele>469.3</ele>
        <time>2022-03-03T10:17:44Z</time>
        <extensions>
          <gpxtpx:TrackPointExtension xmlns:gpxtpx="http://www.garmin.com/xmlschemas/TrackPointExtension/v1">
            <gpxtpx:hr>146</gpxtpx:hr>
          </gpxtpx:TrackPointExtension>
        </extensions>
      </trkpt>
      <trkpt lat="44.37687" lon="4.09801">
        <ele>468.7</ele>
        <time>2022-03-03T10:17:48Z</time>
      </trkpt>
      <trkpt lat="44.37683" lon="4.098">
        <ele>562.1913</ele>
        <time>2022-03-03T10:17:52Z</time>
      </trkpt>
      <trkpt lat="44.37678" lon="4.09797">
        <ele>467.8</ele>
        <time>2022-03-03T10:17:56Z</time>
      </trkpt>
      <trkpt lat="44.37673" lon="4.09795">
        <ele>561.0346</ele>
        <time>2022-03-03T10:18:00Z</time>
      </trkpt>
      <trkpt lat="44.37668" lon="4.09792">
        <ele>467</ele>
        <time>2022-03-03T10:18:04Z</time>
      </trkpt>
      <trkpt lat="44.37662" lon="4.09791">
        <ele>466.2</ele>
        <time>2022-03-03T10:18:08Z</time>
      </trkpt>
      <trkpt lat="44.37657" lon="4.09788">
        <ele>559.99066</ele>
        <time>2022-03-03T10:18:12Z</time>
      </trkpt>
      <trkpt lat="44.37653" lon="4.09785">
        <ele>559.4673</ele>
        <time>2022-03-03T10:18:16Z</time>
      </trkpt>
      <trkpt lat="44.37648" lon="4.09781">
        <ele>465.2</ele>
        <time>2022-03-03T10:18:20Z</time>
      </trkpt>
      <trkpt lat="44.37644" lon="4.09776">
        <ele>465.1</ele>
        <time>2022-03-03T10:18:24Z</time>
      </trkpt>
      <trkpt lat="44.37641" lon="4.09771">
        <ele>558.9723</ele>
        <time>2022-03-03T10:18:28Z</time>
      </trkpt>
      <trkpt lat="44.37638" lon="4.09766">
        <ele>464.6</ele>
        <time>2022-03-03T10:18:32Z</time>
      </trkpt>
      <trkpt lat="44.37635" lon="4.0976">
        <ele>558.21173</ele>
        <time>2022-03-03T10:18:36Z</time>
      </trkpt>
      <trkpt lat="44.37634" lon="4.09752">
        <ele>464.5</ele>
        <time>2022-03-03T10:18:40Z</time>
      </trkpt>
      <trkpt lat="44.37634" lon="4.09744">
        <ele>464.2</ele>
        <time>2022-03-03T10:18:44Z</time>
      </trkpt>
      <trkpt lat="44.37634" lon="4.09737">
        <ele>557.52765</ele>
        <time>2022-03-03T10:18:48Z</time>
      </trkpt>
      <trkpt lat="44.37634" lon="4.0973">
        <ele>463.3</ele>
        <time>2022-03-03T10:18:52Z</time>
      </trkpt>
      <trkpt lat="44.37636" lon="4.09723">
        <ele>556.6691</ele>
        <time>2022-03-03T10:18:56Z</time>
      </trkpt>
      <trkpt lat="44.37638" lon="4.09716">
        <ele>462.9</ele>
        <time>2022-03-03T10:19:00Z</time>
      </trkpt>
      <trkpt lat="44.37641" lon="4.09711">
        <ele>555.66565</ele>
        <time>2022-03-03T10:19:06Z</time>
      </trkpt>
      <trkpt lat="44.37645" lon="4.09705">
        <ele>462.4</ele>
        <time>2022-03-03T10:19:10Z</time>
      </trkpt>
      <trkpt lat="44.37648" lon="4.097">
        <ele>462</ele>
        <time>2022-03-03T10:19:13Z</time>
      </trkpt>
      <trkpt lat="44.37652" lon="4.09697">
        <ele>555.0649</ele>
        <time>2022-03-03T10:19:17Z</time>
      </trkpt>
      <trkpt lat="44.37657" lon="4.09693">
        <ele>461.3</ele>
        <time>2022-03-03T10:19:22Z</time>
      </trkpt>
      <trkpt lat="44.37661" lon="4.09689">
        <ele>554.43677</ele>
        <time>2022-03-03T10:19:26Z</time>
      </trkpt>
      <trkpt lat="44.37666" lon="4.09688">
        <ele>460.9</ele>
        <time>2022-03-03T10:19:33Z</time>
      </trkpt>
      <trkpt lat="44.37671" lon="4.09686">
        <ele>554.6318</ele>
        <time>2022-03-03T10:19:41Z</time>
      </trkpt>
      <trkpt lat="44.37675" lon="4.09682">
        <ele>553.5539</ele>
        <time>2022-03-03T10:19:45Z</time>
      </trkpt>
      <trkpt lat="44.37679" lon="4.0968">
        <ele>459.4</ele>
        <time>2022-03-03T10:19:48Z</time>
      </trkpt>
      <trkpt lat="44.37685" lon="4.09676">
        <ele>458.6</ele>
        <time>2022-03-03T10:19:51Z</time>
      </trkpt>
      <trkpt lat="44.37691" lon="4.09675">
        <ele>551.5697</ele>
        <time>2022-03-03T10:19:55Z</time>
      </trkpt>
      <trkpt lat="44.37696" lon="4.09672">
        <ele>458.1</ele>
        <time>2022-03-03T10:20:01Z</time>
      </trkpt>
      <trkpt lat="44.37701" lon="4.09669">
        <ele>549.862</ele>
        <time>2022-03-03T10:20:05Z</time>
      </trkpt>
      <trkpt lat="44.37705" lon="4.09666">
        <ele>456.8</ele>
        <time>2022-03-03T10:20:10Z</time>
      </trkpt>
      <trkpt lat="44.37709" lon="4.09662">
        <ele>455.9</ele>
        <time>2022-03-03T10:20:13Z</time>
      </trkpt>
      <trkpt lat="44.37713" lon="4.09657">
        <ele>454.7</ele>
        <time>2022-03-03T10:20:19Z</time>
      </trkpt>
      <trkpt lat="44.37717" lon="4.09654">
        <ele>547.95166</ele>
        <time>2022-03-03T10:20:24Z</time>
      </trkpt>
      <trkpt lat="44.37723" lon="4.09652">
        <ele>453.6</ele>
        <time>2022-03-03T10:20:29Z</time>
      </trkpt>
      <trkpt lat="44.37727" lon="4.09649">
        <ele>546.7595</ele>
        <time>2022-03-03T10:20:33Z</time>
      </trkpt>
      <trkpt lat="44.37732" lon="4.09647">
        <ele>451.8</ele>
        <time>2022-03-03T10:20:37Z</time>
      </trkpt>
      <trkpt lat="44.37736" lon="4.09644">
        <ele>545.23926</ele>
        <time>2022-03-03T10:20:40Z</time>
      </trkpt>
      <trkpt lat="44.3774" lon="4.0964">
        <ele>449.2</ele>
        <time>2022-03-03T10:20:43Z</time>
      </trkpt>
      <trkpt lat="44.37744" lon="4.09639">
        <ele>544.36066</ele>
        <time>2022-03-03T10:20:47Z</time>
      </trkpt>
      <trkpt lat="44.37748" lon="4.09637">
        <ele>448.2</ele>
        <time>2022-03-03T10:20:51Z</time>
      </trkpt>
      <trkpt lat="44.37753" lon="4.09635">
        <ele>447.4</ele>
        <time>2022-03-03T10:20:54Z</time>
      </trkpt>
      <trkpt lat="44.37758" lon="4.09634">
        <ele>542.37836</ele>
        <time>2022-03-03T10:20:59Z</time>
      </trkpt>
      <trkpt lat="44.37763" lon="4.09631">
        <ele>444.8</ele>
        <time>2022-03-03T10:21:04Z</time>
      </trkpt>
      <trkpt lat="44.37767" lon="4.09627">
        <ele>539.97705</ele>
        <time>2022-03-03T10:21:08Z</time>
      </trkpt>
      <trkpt lat="44.37772" lon="4.09625">
        <ele>442.1</ele>
        <time>2022-03-03T10:21:13Z</time>
      </trkpt>
      <trkpt lat="44.37777" lon="4.09623">
        <ele>538.13416</ele>
        <time>2022-03-03T10:21:19Z</time>
      </trkpt>
      <trkpt lat="44.37781" lon="4.0962">
        <ele>439.9</ele>
        <time>2022-03-03T10:21:23Z</time>
      </trkpt>
      <trkpt lat="44.37786" lon="4.09617">
        <ele>535.99774</ele>
        <time>2022-03-03T10:21:29Z</time>
      </trkpt>
      <trkpt lat="44.37791" lon="4.09614">
        <ele>438.8</ele>
        <time>2022-03-03T10:21:33Z</time>
      </trkpt>
      <trkpt lat="44.37796" lon="4.09612">
        <ele>533.8869</ele>
        <time>2022-03-03T10:21:37Z</time>
      </trkpt>
      <trkpt lat="44.378" lon="4.09608">
        <ele>437.1</ele>
        <time>2022-03-03T10:21:41Z</time>
      </trkpt>
      <trkpt lat="44.37805" lon="4.09605">
        <ele>532.72394</ele>
        <time>2022-03-03T10:21:45Z</time>
      </trkpt>
      <trkpt lat="44.37809" lon="4.09602">
        <ele>436.6</ele>
        <time>2022-03-03T10:21:49Z</time>
      </trkpt>
      <trkpt lat="44.37813" lon="4.09597">
        <ele>436.2</ele>
        <time>2022-03-03T10:21:54Z</time>
      </trkpt>
      <trkpt lat="44.37818" lon="4.09594">
        <ele>531.1185</ele>
        <time>2022-03-03T10:22:00Z</time>
      </trkpt>
      <trkpt lat="44.37823" lon="4.09591">
        <ele>438.3</ele>
        <time>2022-03-03T10:22:04Z</time>
      </trkpt>
      <trkpt lat="44.37825" lon="4.09585">
        <ele>529.56024</ele>
        <time>2022-03-03T10:22:09Z</time>
      </trkpt>
      <trkpt lat="44.37824" lon="4.09578">
        <ele>435.2</ele>
        <time>2022-03-03T10:22:14Z</time>
      </trkpt>
      <trkpt lat="44.37825" lon="4.09571">
        <ele>528.08527</ele>
        <time>2022-03-03T10:22:18Z</time>
      </trkpt>
      <trkpt lat="44.37827" lon="4.09564">
        <ele>432.4</ele>
        <time>2022-03-03T10:22:23Z</time>
      </trkpt>
      <trkpt lat="44.3783" lon="4.09558">
        <ele>526.2591</ele>
        <time>2022-03-03T10:22:27Z</time>
      </trkpt>
      <trkpt lat="44.37832" lon="4.09552">
        <ele>431.2</ele>
        <time>2022-03-03T10:22:32Z</time>
      </trkpt>
      <trkpt lat="44.37833" lon="4.09546">
        <ele>524.27057</ele>
        <time>2022-03-03T10:22:36Z</time>
      </trkpt>
      <trkpt lat="44.37835" lon="4.09539">
        <ele>426.4</ele>
        <time>2022-03-03T10:22:41Z</time>
      </trkpt>
      <trkpt lat="44.3784" lon="4.09535">
        <ele>426.6</ele>
        <time>2022-03-03T10:22:49Z</time>
      </trkpt>
      <trkpt lat="44.37845" lon="4.09533">
        <ele>521.89386</ele>
        <time>2022-03-03T10:22:52Z</time>
      </trkpt>
      <trkpt lat="44.37849" lon="4.09528">
        <ele>426.8</ele>
        <time>2022-03-03T10:22:56Z</time>
      </trkpt>
      <trkpt lat="44.37851" lon="4.09522">
        <ele>519.9752</ele>
        <time>2022-03-03T10:23:00Z</time>
      </trkpt>
      <trkpt lat="44.3785" lon="4.09514">
        <ele>427.3</ele>
        <time>2022-03-03T10:23:05Z</time>
      </trkpt>
      <trkpt lat="44.37846" lon="4.09511">
        <ele>518.5107</ele>
        <time>2022-03-03T10:23:11Z</time>
      </trkpt>
      <trkpt lat="44.37843" lon="4.09506">
        <ele>518.14966</ele>
        <time>2022-03-03T10:23:15Z</time>
      </trkpt>
      <trkpt lat="44.3784" lon="4.09501">
        <ele>420.4</ele>
        <time>2022-03-03T10:23:19Z</time>
      </trkpt>
      <trkpt lat="44.3784" lon="4.09494">
        <ele>420.2</ele>
        <time>2022-03-03T10:23:23Z</time>
      </trkpt>
      <trkpt lat="44.37838" lon="4.09487">
        <ele>517.146</ele>
        <time>2022-03-03T10:23:28Z</time>
      </trkpt>
      <trkpt lat="44.37837" lon="4.09479">
        <ele>419.8</ele>
        <time>2022-03-03T10:23:32Z</time>
      </trkpt>
      <trkpt lat="44.37836" lon="4.09472">
        <ele>515.5066</ele>
        <time>2022-03-03T10:23:36Z</time>
      </trkpt>
      <trkpt lat="44.37839" lon="4.09465">
        <ele>420.2</ele>
        <time>2022-03-03T10:23:41Z</time>
      </trkpt>
      <trkpt lat="44.37841" lon="4.09459">
        <ele>514.4903</ele>
        <time>2022-03-03T10:23:45Z</time>
      </trkpt>
      <trkpt lat="44.37844" lon="4.09453">
        <ele>419.7</ele>
        <time>2022-03-03T10:23:51Z</time>
      </trkpt>
      <trkpt lat="44.37847" lon="4.09448">
        <ele>513.44476</ele>
        <time>2022-03-03T10:23:57Z</time>
      </trkpt>
      <trkpt lat="44.37846" lon="4.09445">
        <ele>513.5347</ele>
        <time>2022-03-03T10:24:07Z</time>
      </trkpt>
      <trkpt lat="44.37848" lon="4.09438">
        <ele>416.7</ele>
        <time>2022-03-03T10:24:13Z</time>
      </trkpt>
      <trkpt lat="44.37852" lon="4.09435">
        <ele>512.6662</ele>
        <time>2022-03-03T10:24:17Z</time>
      </trkpt>
      <trkpt lat="44.37857" lon="4.0943">
        <ele>415.9</ele>
        <time>2022-03-03T10:24:22Z</time>
      </trkpt>
      <trkpt lat="44.37861" lon="4.09425">
        <ele>510.8511</ele>
        <time>2022-03-03T10:24:26Z</time>
      </trkpt>
      <trkpt lat="44.37866" lon="4.09421">
        <ele>414.5</ele>
        <time>2022-03-03T10:24:31Z</time>
      </trkpt>
      <trkpt lat="44.37869" lon="4.09417">
        <ele>509.68936</ele>
        <time>2022-03-03T10:24:35Z</time>
      </trkpt>
      <trkpt lat="44.37873" lon="4.09412">
        <ele>412.1</ele>
        <time>2022-03-03T10:24:38Z</time>
      </trkpt>
      <trkpt lat="44.37877" lon="4.09408">
        <ele>411.2</ele>
        <time>2022-03-03T10:24:42Z</time>
      </trkpt>
      <trkpt lat="44.37882" lon="4.09405">
        <ele>508.43573</ele>
        <time>2022-03-03T10:24:47Z</time>
      </trkpt>
      <trkpt lat="44.37886" lon="4.09402">
        <ele>411.3</ele>
        <time>2022-03-03T10:24:51Z</time>
      </trkpt>
      <trkpt lat="44.37891" lon="4.09399">
        <ele>506.52222</ele>
        <time>2022-03-03T10:24:55Z</time>
      </trkpt>
      <trkpt lat="44.37895" lon="4.09396">
        <ele>411.3</ele>
        <time>2022-03-03T10:24:58Z</time>
      </trkpt>
      <trkpt lat="44.37899" lon="4.09392">
        <ele>410.2</ele>
        <time>2022-03-03T10:25:02Z</time>
      </trkpt>
      <trkpt lat="44.37902" lon="4.09387">
        <ele>504.32047</ele>
        <time>2022-03-03T10:25:07Z</time>
      </trkpt>
      <trkpt lat="44.37906" lon="4.09382">
        <ele>408.5</ele>
        <time>2022-03-03T10:25:12Z</time>
      </trkpt>
      <trkpt lat="44.3791" lon="4.09377">
        <ele>407.9</ele>
        <time>2022-03-03T10:25:16Z</time>
      </trkpt>
      <trkpt lat="44.37914" lon="4.09372">
        <ele>501.14047</ele>
        <time>2022-03-03T10:25:20Z</time>
      </trkpt>
      <trkpt lat="44.37917" lon="4.09367">
        <ele>406.1</ele>
        <time>2022-03-03T10:25:25Z</time>
      </trkpt>
      <trkpt lat="44.3792" lon="4.0936">
        <ele>404.7</ele>
        <time>2022-03-03T10:25:29Z</time>
      </trkpt>
      <trkpt lat="44.37922" lon="4.09353">
        <ele>499.17773</ele>
        <time>2022-03-03T10:25:33Z</time>
      </trkpt>
      <trkpt lat="44.37924" lon="4.09347">
        <ele>401.7</ele>
        <time>2022-03-03T10:25:39Z</time>
      </trkpt>
      <trkpt lat="44.37925" lon="4.09341">
        <ele>496.9709</ele>
        <time>2022-03-03T10:25:44Z</time>
      </trkpt>
      <trkpt lat="44.37927" lon="4.09334">
        <ele>495.82062</ele>
        <time>2022-03-03T10:25:48Z</time>
      </trkpt>
      <trkpt lat="44.3793" lon="4.09329">
        <ele>397.8</ele>
        <time>2022-03-03T10:25:54Z</time>
      </trkpt>
      <trkpt lat="44.37934" lon="4.09323">
        <ele>493.78317</ele>
        <time>2022-03-03T10:25:59Z</time>
      </trkpt>
      <trkpt lat="44.37936" lon="4.09316">
        <ele>397</ele>
        <time>2022-03-03T10:26:04Z</time>
      </trkpt>
      <trkpt lat="44.37939" lon="4.0931">
        <ele>491.8602</ele>
        <time>2022-03-03T10:26:09Z</time>
      </trkpt>
      <trkpt lat="44.37943" lon="4.09305">
        <ele>396.3</ele>
        <time>2022-03-03T10:26:14Z</time>
      </trkpt>
      <trkpt lat="44.37946" lon="4.093">
        <ele>490.39856</ele>
        <time>2022-03-03T10:26:18Z</time>
      </trkpt>
      <trkpt lat="44.37949" lon="4.09294">
        <ele>395.6</ele>
        <time>2022-03-03T10:26:24Z</time>
      </trkpt>
      <trkpt lat="44.37952" lon="4.09288">
        <ele>488.82953</ele>
        <time>2022-03-03T10:26:29Z</time>
      </trkpt>
      <trkpt lat="44.37956" lon="4.09284">
        <ele>395.2</ele>
        <time>2022-03-03T10:26:33Z</time>
      </trkpt>
      <trkpt lat="44.37957" lon="4.09277">
        <ele>487.4277</ele>
        <time>2022-03-03T10:26:37Z</time>
      </trkpt>
      <trkpt lat="44.37957" lon="4.0927">
        <ele>392.7</ele>
        <time>2022-03-03T10:26:40Z</time>
      </trkpt>
      <trkpt lat="44.3796" lon="4.09265">
        <ele>392.4</ele>
        <time>2022-03-03T10:26:44Z</time>
      </trkpt>
      <trkpt lat="44.37962" lon="4.09259">
        <ele>486.21542</ele>
        <time>2022-03-03T10:26:48Z</time>
      </trkpt>
      <trkpt lat="44.37964" lon="4.09254">
        <ele>391.7</ele>
        <time>2022-03-03T10:26:51Z</time>
      </trkpt>
      <trkpt lat="44.37967" lon="4.09247">
        <ele>485.51996</ele>
        <time>2022-03-03T10:26:56Z</time>
      </trkpt>
      <trkpt lat="44.3797" lon="4.0924">
        <ele>391.5</ele>
        <time>2022-03-03T10:27:00Z</time>
      </trkpt>
      <trkpt lat="44.37973" lon="4.09233">
        <ele>391.3</ele>
        <time>2022-03-03T10:27:03Z</time>
      </trkpt>
      <trkpt lat="44.37973" lon="4.09226">
        <ele>484.75125</ele>
        <time>2022-03-03T10:27:08Z</time>
      </trkpt>
      <trkpt lat="44.37975" lon="4.09219">
        <ele>389.5</ele>
        <time>2022-03-03T10:27:13Z</time>
      </trkpt>
      <trkpt lat="44.37978" lon="4.09213">
        <ele>484.1017</ele>
        <time>2022-03-03T10:27:18Z</time>
      </trkpt>
      <trkpt lat="44.37981" lon="4.09208">
        <ele>390.1</ele>
        <time>2022-03-03T10:27:22Z</time>
      </trkpt>
      <trkpt lat="44.37984" lon="4.09202">
        <ele>483.335</ele>
        <time>2022-03-03T10:27:26Z</time>
      </trkpt>
      <trkpt lat="44.37985" lon="4.09195">
        <ele>389.3</ele>
        <time>2022-03-03T10:27:30Z</time>
      </trkpt>
      <trkpt lat="44.37986" lon="4.09188">
        <ele>387.8</ele>
        <time>2022-03-03T10:27:33Z</time>
      </trkpt>
      <trkpt lat="44.37986" lon="4.09181">
        <ele>481.48428</ele>
        <time>2022-03-03T10:27:38Z</time>
      </trkpt>
      <trkpt lat="44.37987" lon="4.09175">
        <ele>384.2</ele>
        <time>2022-03-03T10:27:42Z</time>
      </trkpt>
      <trkpt lat="44.37988" lon="4.09173">
        <ele>480.27917</ele>
        <time>2022-03-03T10:27:52Z</time>
      </trkpt>
      <trkpt lat="44.37993" lon="4.09172">
        <ele>384.2</ele>
        <time>2022-03-03T10:27:57Z</time>
      </trkpt>
      <trkpt lat="44.37998" lon="4.09172">
        <ele>479.8212</ele>
        <time>2022-03-03T10:28:00Z</time>
      </trkpt>
      <trkpt lat="44.38002" lon="4.09174">
        <ele>386.8</ele>
        <time>2022-03-03T10:28:04Z</time>
      </trkpt>
      <trkpt lat="44.38007" lon="4.09172">
        <ele>479.25287</ele>
        <time>2022-03-03T10:28:14Z</time>
      </trkpt>
      <trkpt lat="44.38007" lon="4.09165">
        <ele>385.4</ele>
        <time>2022-03-03T10:28:17Z</time>
      </trkpt>
      <trkpt lat="44.38006" lon="4.09158">
        <ele>479.07318</ele>
        <time>2022-03-03T10:28:20Z</time>
      </trkpt>
      <trkpt lat="44.38005" lon="4.09152">
        <ele>384.6</ele>
        <time>2022-03-03T10:28:23Z</time>
      </trkpt>
      <trkpt lat="44.38003" lon="4.09146">
        <ele>478.84763</ele>
        <time>2022-03-03T10:28:26Z</time>
      </trkpt>
      <trkpt lat="44.38001" lon="4.09139">
        <ele>382.5</ele>
        <time>2022-03-03T10:28:29Z</time>
      </trkpt>
      <trkpt lat="44.38001" lon="4.09132">
        <ele>382.5</ele>
        <time>2022-03-03T10:28:33Z</time>
      </trkpt>
      <trkpt lat="44.38001" lon="4.09125">
        <ele>478.23636</ele>
        <time>2022-03-03T10:28:36Z</time>
      </trkpt>
      <trkpt lat="44.38001" lon="4.09117">
        <ele>382.5</ele>
        <time>2022-03-03T10:28:40Z</time>
      </trkpt>
      <trkpt lat="44.37999" lon="4.09109">
        <ele>381</ele>
        <time>2022-03-03T10:28:43Z</time>
        <extensions>
          <gpxtpx:TrackPointExtension xmlns:gpxtpx="http://www.garmin.com/xmlschemas/TrackPointExtension/v1">
            <gpxtpx:hr>141</gpxtpx:hr>
          </gpxtpx:TrackPointExtension>
        </extensions>
      </trkpt>
      <trkpt lat="44.38" lon="4.09101">
        <ele>477.6036</ele>
        <time>2022-03-03T10:28:47Z</time>
      </trkpt>
      <trkpt lat="44.38" lon="4.09093">
        <ele>379.4</ele>
        <time>2022-03-03T10:28:50Z</time>
      </trkpt>
      <trkpt lat="44.38002" lon="4.09086">
        <ele>379.3</ele>
        <time>2022-03-03T10:28:54Z</time>
      </trkpt>
      <trkpt lat="44.38003" lon="4.09078">
        <ele>477.10077</ele>
        <time>2022-03-03T10:28:59Z</time>
      </trkpt>
      <trkpt lat="44.38001" lon="4.09071">
        <ele>379.9</ele>
        <time>2022-03-03T10:29:02Z</time>
      </trkpt>
      <trkpt lat="44.37999" lon="4.09065">
        <ele>476.86838</ele>
        <time>2022-03-03T10:29:05Z</time>
      </trkpt>
      <trkpt lat="44.37997" lon="4.09059">
        <ele>380.3</ele>
        <time>2022-03-03T10:29:08Z</time>
      </trkpt>
      <trkpt lat="44.37994" lon="4.09052">
        <ele>380.4</ele>
        <time>2022-03-03T10:29:12Z</time>
      </trkpt>
      <trkpt lat="44.37991" lon="4.09045">
        <ele>476.7151</ele>
        <time>2022-03-03T10:29:16Z</time>
      </trkpt>
      <trkpt lat="44.37989" lon="4.09039">
        <ele>381.1</ele>
        <time>2022-03-03T10:29:20Z</time>
      </trkpt>
      <trkpt lat="44.37988" lon="4.09032">
        <ele>381.4</ele>
        <time>2022-03-03T10:29:24Z</time>
      </trkpt>
      <trkpt lat="44.37986" lon="4.09026">
        <ele>476.67114</ele>
        <time>2022-03-03T10:29:28Z</time>
      </trkpt>
      <trkpt lat="44.37983" lon="4.0902">
        <ele>381.4</ele>
        <time>2022-03-03T10:29:32Z</time>
      </trkpt>
      <trkpt lat="44.37981" lon="4.09014">
        <ele>476.76587</ele>
        <time>2022-03-03T10:29:36Z</time>
      </trkpt>
      <trkpt lat="44.3798" lon="4.09008">
        <ele>381.4</ele>
        <time>2022-03-03T10:29:40Z</time>
      </trkpt>
      <trkpt lat="44.37978" lon="4.09001">
        <ele>476.77856</ele>
        <time>2022-03-03T10:29:47Z</time>
      </trkpt>
      <trkpt lat="44.37976" lon="4.08995">
        <ele>477.19742</ele>
        <time>2022-03-03T10:29:55Z</time>
      </trkpt>
      <trkpt lat="44.37973" lon="4.08988">
        <ele>382.1</ele>
        <time>2022-03-03T10:30:00Z</time>
      </trkpt>
      <trkpt lat="44.37971" lon="4.08982">
        <ele>383.2</ele>
        <time>2022-03-03T10:30:04Z</time>
      </trkpt>
      <trkpt lat="44.37968" lon="4.08976">
        <ele>477.72958</ele>
        <time>2022-03-03T10:30:08Z</time>
      </trkpt>
      <trkpt lat="44.37967" lon="4.0897">
        <ele>385.5</ele>
        <time>2022-03-03T10:30:14Z</time>
      </trkpt>
      <trkpt lat="44.37964" lon="4.08964">
        <ele>478.87985</ele>
        <time>2022-03-03T10:30:18Z</time>
      </trkpt>
      <trkpt lat="44.37962" lon="4.08958">
        <ele>387.5</ele>
        <time>2022-03-03T10:30:23Z</time>
      </trkpt>
      <trkpt lat="44.37961" lon="4.08951">
        <ele>479.77042</ele>
        <time>2022-03-03T10:30:29Z</time>
      </trkpt>
      <trkpt lat="44.3796" lon="4.08944">
        <ele>389.9</ele>
        <time>2022-03-03T10:30:34Z</time>
      </trkpt>
      <trkpt lat="44.37957" lon="4.08939">
        <ele>389.2</ele>
        <time>2022-03-03T10:30:38Z</time>
      </trkpt>
      <trkpt lat="44.37956" lon="4.08931">
        <ele>482.12006</ele>
        <time>2022-03-03T10:30:47Z</time>
      </trkpt>
      <trkpt lat="44.37957" lon="4.08924">
        <ele>482.4472</ele>
        <time>2022-03-03T10:30:53Z</time>
      </trkpt>
      <trkpt lat="44.37956" lon="4.08921">
        <ele>482.4511</ele>
        <time>2022-03-03T10:31:03Z</time>
      </trkpt>
      <trkpt lat="44.37955" lon="4.08916">
        <ele>482.43256</ele>
        <time>2022-03-03T10:31:13Z</time>
      </trkpt>
      <trkpt lat="44.37957" lon="4.08919">
        <ele>482.40912</ele>
        <time>2022-03-03T10:31:23Z</time>
      </trkpt>
      <trkpt lat="44.37956" lon="4.08925">
        <ele>482.7568</ele>
        <time>2022-03-03T10:31:29Z</time>
      </trkpt>
      <trkpt lat="44.37956" lon="4.0893">
        <ele>483.16214</ele>
        <time>2022-03-03T10:31:39Z</time>
      </trkpt>
      <trkpt lat="44.37955" lon="4.08924">
        <ele>483.44733</ele>
        <time>2022-03-03T10:31:49Z</time>
      </trkpt>
      <trkpt lat="44.37954" lon="4.08916">
        <ele>388.3</ele>
        <time>2022-03-03T10:31:53Z</time>
      </trkpt>
      <trkpt lat="44.37954" lon="4.08909">
        <ele>482.91895</ele>
        <time>2022-03-03T10:31:58Z</time>
      </trkpt>
      <trkpt lat="44.37954" lon="4.08903">
        <ele>385.9</ele>
        <time>2022-03-03T10:32:03Z</time>
      </trkpt>
      <trkpt lat="44.37955" lon="4.08901">
        <ele>481.7538</ele>
        <time>2022-03-03T10:32:13Z</time>
      </trkpt>
      <trkpt lat="44.37956" lon="4.089">
        <ele>481.29675</ele>
        <time>2022-03-03T10:32:23Z</time>
      </trkpt>
      <trkpt lat="44.37956" lon="4.08897">
        <ele>480.8827</ele>
        <time>2022-03-03T10:32:33Z</time>
      </trkpt>
      <trkpt lat="44.37959" lon="4.08892">
        <ele>480.74792</ele>
        <time>2022-03-03T10:32:37Z</time>
      </trkpt>
      <trkpt lat="44.37962" lon="4.08886">
        <ele>384.9</ele>
        <time>2022-03-03T10:32:41Z</time>
      </trkpt>
      <trkpt lat="44.37965" lon="4.08882">
        <ele>385.1</ele>
        <time>2022-03-03T10:32:44Z</time>
        <extensions>
          <gpxtpx:TrackPointExtension xmlns:gpxtpx="http://www.garmin.com/xmlschemas/TrackPointExtension/v1">
            <gpxtpx:hr>139</gpxtpx:hr>
          </gpxtpx:TrackPointExtension>
        </extensions>
      </trkpt>
      <trkpt lat="44.3797" lon="4.08877">
        <ele>480.12976</ele>
        <time>2022-03-03T10:32:48Z</time>
      </trkpt>
      <trkpt lat="44.37974" lon="4.08873">
        <ele>386.3</ele>
        <time>2022-03-03T10:32:51Z</time>
      </trkpt>
      <trkpt lat="44.37978" lon="4.08869">
        <ele>480.1405</ele>
        <time>2022-03-03T10:32:55Z</time>
      </trkpt>
      <trkpt lat="44.37981" lon="4.08863">
        <ele>388.2</ele>
        <time>2022-03-03T10:33:00Z</time>
      </trkpt>
      <trkpt lat="44.37984" lon="4.08857">
        <ele>388.5</ele>
        <time>2022-03-03T10:33:04Z</time>
      </trkpt>
      <trkpt lat="44.37986" lon="4.08849">
        <ele>388.9</ele>
        <time>2022-03-03T10:33:08Z</time>
      </trkpt>
      <trkpt lat="44.37988" lon="4.08842">
        <ele>481.53214</ele>
        <time>2022-03-03T10:33:13Z</time>
      </trkpt>
      <trkpt lat="44.37989" lon="4.08836">
        <ele>389.4</ele>
        <time>2022-03-03T10:33:19Z</time>
      </trkpt>
      <trkpt lat="44.37988" lon="4.08829">
        <ele>482.2968</ele>
        <time>2022-03-03T10:33:25Z</time>
      </trkpt>
      <trkpt lat="44.37988" lon="4.08823">
        <ele>389.4</ele>
        <time>2022-03-03T10:33:29Z</time>
      </trkpt>
      <trkpt lat="44.37988" lon="4.08816">
        <ele>483.83606</ele>
        <time>2022-03-03T10:33:33Z</time>
      </trkpt>
      <trkpt lat="44.37988" lon="4.08808">
        <ele>390.2</ele>
        <time>2022-03-03T10:33:38Z</time>
      </trkpt>
      <trkpt lat="44.37986" lon="4.088">
        <ele>485.3959</ele>
        <time>2022-03-03T10:33:41Z</time>
      </trkpt>
      <trkpt lat="44.37986" lon="4.08794">
        <ele>390</ele>
        <time>2022-03-03T10:33:44Z</time>
      </trkpt>
      <trkpt lat="44.37986" lon="4.08787">
        <ele>486.36295</ele>
        <time>2022-03-03T10:33:48Z</time>
      </trkpt>
      <trkpt lat="44.37987" lon="4.0878">
        <ele>391.9</ele>
        <time>2022-03-03T10:33:52Z</time>
      </trkpt>
      <trkpt lat="44.37989" lon="4.08773">
        <ele>487.74323</ele>
        <time>2022-03-03T10:33:57Z</time>
      </trkpt>
      <trkpt lat="44.37989" lon="4.08767">
        <ele>393.3</ele>
        <time>2022-03-03T10:34:01Z</time>
      </trkpt>
      <trkpt lat="44.3799" lon="4.08759">
        <ele>488.5912</ele>
        <time>2022-03-03T10:34:06Z</time>
      </trkpt>
      <trkpt lat="44.37991" lon="4.08753">
        <ele>393.9</ele>
        <time>2022-03-03T10:34:10Z</time>
      </trkpt>
      <trkpt lat="44.37992" lon="4.08746">
        <ele>489.6111</ele>
        <time>2022-03-03T10:34:15Z</time>
      </trkpt>
      <trkpt lat="44.37994" lon="4.0874">
        <ele>395.6</ele>
        <time>2022-03-03T10:34:20Z</time>
      </trkpt>
      <trkpt lat="44.37995" lon="4.08734">
        <ele>490.54022</ele>
        <time>2022-03-03T10:34:25Z</time>
      </trkpt>
      <trkpt lat="44.37996" lon="4.08726">
        <ele>396.5</ele>
        <time>2022-03-03T10:34:30Z</time>
      </trkpt>
      <trkpt lat="44.37995" lon="4.08719">
        <ele>396.3</ele>
        <time>2022-03-03T10:34:33Z</time>
      </trkpt>
      <trkpt lat="44.37996" lon="4.08712">
        <ele>491.23</ele>
        <time>2022-03-03T10:34:37Z</time>
      </trkpt>
      <trkpt lat="44.37995" lon="4.08705">
        <ele>396.1</ele>
        <time>2022-03-03T10:34:41Z</time>
      </trkpt>
      <trkpt lat="44.37996" lon="4.08697">
        <ele>491.82794</ele>
        <time>2022-03-03T10:34:45Z</time>
      </trkpt>
      <trkpt lat="44.37997" lon="4.08691">
        <ele>396.9</ele>
        <time>2022-03-03T10:34:50Z</time>
      </trkpt>
      <trkpt lat="44.37998" lon="4.08683">
        <ele>397.1</ele>
        <time>2022-03-03T10:34:54Z</time>
      </trkpt>
      <trkpt lat="44.37999" lon="4.08676">
        <ele>492.58716</ele>
        <time>2022-03-03T10:34:58Z</time>
      </trkpt>
      <trkpt lat="44.38001" lon="4.08669">
        <ele>397.2</ele>
        <time>2022-03-03T10:35:02Z</time>
      </trkpt>
      <trkpt lat="44.38004" lon="4.08664">
        <ele>493.54474</ele>
        <time>2022-03-03T10:35:06Z</time>
      </trkpt>
      <trkpt lat="44.38009" lon="4.08661">
        <ele>396.5</ele>
        <time>2022-03-03T10:35:10Z</time>
      </trkpt>
      <trkpt lat="44.38012" lon="4.08666">
        <ele>494.59714</ele>
        <time>2022-03-03T10:35:16Z</time>
      </trkpt>
      <trkpt lat="44.38015" lon="4.08671">
        <ele>398.1</ele>
        <time>2022-03-03T10:35:21Z</time>
      </trkpt>
      <trkpt lat="44.38017" lon="4.08677">
        <ele>496.12946</ele>
        <time>2022-03-03T10:35:27Z</time>
      </trkpt>
      <trkpt lat="44.3802" lon="4.08683">
        <ele>400.1</ele>
        <time>2022-03-03T10:35:32Z</time>
      </trkpt>
      <trkpt lat="44.38022" lon="4.08689">
        <ele>497.54065</ele>
        <time>2022-03-03T10:35:38Z</time>
      </trkpt>
      <trkpt lat="44.38023" lon="4.08695">
        <ele>402.4</ele>
        <time>2022-03-03T10:35:42Z</time>
      </trkpt>
      <trkpt lat="44.38026" lon="4.087">
        <ele>403.5</ele>
        <time>2022-03-03T10:35:46Z</time>
      </trkpt>
      <trkpt lat="44.3803" lon="4.08704">
        <ele>499.19144</ele>
        <time>2022-03-03T10:35:51Z</time>
      </trkpt>
      <trkpt lat="44.38033" lon="4.0871">
        <ele>403.9</ele>
        <time>2022-03-03T10:35:56Z</time>
      </trkpt>
      <trkpt lat="44.38036" lon="4.08715">
        <ele>500.42398</ele>
        <time>2022-03-03T10:36:01Z</time>
      </trkpt>
      <trkpt lat="44.38038" lon="4.08722">
        <ele>405</ele>
        <time>2022-03-03T10:36:05Z</time>
      </trkpt>
      <trkpt lat="44.38041" lon="4.08728">
        <ele>502.24017</ele>
        <time>2022-03-03T10:36:10Z</time>
      </trkpt>
      <trkpt lat="44.38043" lon="4.08733">
        <ele>502.91858</ele>
        <time>2022-03-03T10:36:15Z</time>
      </trkpt>
      <trkpt lat="44.38047" lon="4.08738">
        <ele>407.8</ele>
        <time>2022-03-03T10:36:24Z</time>
      </trkpt>
      <trkpt lat="44.38052" lon="4.08738">
        <ele>504.18457</ele>
        <time>2022-03-03T10:36:27Z</time>
      </trkpt>
      <trkpt lat="44.38052" lon="4.08738">
        <ele>504.9364</ele>
        <time>2022-03-03T10:36:37Z</time>
      </trkpt>
      <trkpt lat="44.38051" lon="4.08737">
        <ele>505.20038</ele>
        <time>2022-03-03T10:36:47Z</time>
      </trkpt>
      <trkpt lat="44.38054" lon="4.08742">
        <ele>505.2952</ele>
        <time>2022-03-03T10:36:56Z</time>
      </trkpt>
      <trkpt lat="44.38059" lon="4.08746">
        <ele>410</ele>
        <time>2022-03-03T10:37:01Z</time>
      </trkpt>
      <trkpt lat="44.38063" lon="4.08749">
        <ele>506.25043</ele>
        <time>2022-03-03T10:37:07Z</time>
      </trkpt>
      <trkpt lat="44.38068" lon="4.08751">
        <ele>410</ele>
        <time>2022-03-03T10:37:12Z</time>
      </trkpt>
      <trkpt lat="44.38073" lon="4.0875">
        <ele>506.6718</ele>
        <time>2022-03-03T10:37:17Z</time>
      </trkpt>
      <trkpt lat="44.38076" lon="4.08755">
        <ele>410.1</ele>
        <time>2022-03-03T10:37:23Z</time>
      </trkpt>
      <trkpt lat="44.38078" lon="4.08762">
        <ele>507.2438</ele>
        <time>2022-03-03T10:37:28Z</time>
      </trkpt>
      <trkpt lat="44.38084" lon="4.08764">
        <ele>412.6</ele>
        <time>2022-03-03T10:37:34Z</time>
      </trkpt>
      <trkpt lat="44.38088" lon="4.08768">
        <ele>507.95074</ele>
        <time>2022-03-03T10:37:38Z</time>
      </trkpt>
      <trkpt lat="44.38092" lon="4.08769">
        <ele>413.2</ele>
        <time>2022-03-03T10:37:43Z</time>
      </trkpt>
      <trkpt lat="44.38094" lon="4.08769">
        <ele>507.9752</ele>
        <time>2022-03-03T10:37:53Z</time>
      </trkpt>
      <trkpt lat="44.38098" lon="4.08769">
        <ele>507.90186</ele>
        <time>2022-03-03T10:38:03Z</time>
      </trkpt>
      <trkpt lat="44.38102" lon="4.08768">
        <ele>507.73172</ele>
        <time>2022-03-03T10:38:13Z</time>
      </trkpt>
      <trkpt lat="44.38102" lon="4.08767">
        <ele>507.20175</ele>
        <time>2022-03-03T10:38:23Z</time>
      </trkpt>
      <trkpt lat="44.38107" lon="4.08766">
        <ele>410.2</ele>
        <time>2022-03-03T10:38:28Z</time>
      </trkpt>
      <trkpt lat="44.38112" lon="4.08766">
        <ele>506.61218</ele>
        <time>2022-03-03T10:38:31Z</time>
      </trkpt>
      <trkpt lat="44.38117" lon="4.08765">
        <ele>409.2</ele>
        <time>2022-03-03T10:38:39Z</time>
      </trkpt>
      <trkpt lat="44.38123" lon="4.08767">
        <ele>505.85834</ele>
        <time>2022-03-03T10:38:44Z</time>
        <extensions>
          <gpxtpx:TrackPointExtension xmlns:gpxtpx="http://www.garmin.com/xmlschemas/TrackPointExtension/v1">
            <gpxtpx:hr>132</gpxtpx:hr>
          </gpxtpx:TrackPointExtension>
        </extensions>
      </trkpt>
      <trkpt lat="44.38128" lon="4.08769">
        <ele>409.8</ele>
        <time>2022-03-03T10:38:49Z</time>
      </trkpt>
      <trkpt lat="44.38134" lon="4.0877">
        <ele>505.6325</ele>
        <time>2022-03-03T10:38:53Z</time>
      </trkpt>
      <trkpt lat="44.38139" lon="4.0877">
        <ele>505.8437</ele>
        <time>2022-03-03T10:38:57Z</time>
      </trkpt>
      <trkpt lat="44.38143" lon="4.0877">
        <ele>409.9</ele>
        <time>2022-03-03T10:39:01Z</time>
      </trkpt>
      <trkpt lat="44.38148" lon="4.0877">
        <ele>410.3</ele>
        <time>2022-03-03T10:39:04Z</time>
      </trkpt>
      <trkpt lat="44.38153" lon="4.08771">
        <ele>506.60043</ele>
        <time>2022-03-03T10:39:08Z</time>
      </trkpt>
      <trkpt lat="44.38158" lon="4.08772">
        <ele>411.6</ele>
        <time>2022-03-03T10:39:12Z</time>
      </trkpt>
      <trkpt lat="44.38164" lon="4.08774">
        <ele>506.50366</ele>
        <time>2022-03-03T10:39:16Z</time>
      </trkpt>
      <trkpt lat="44.3817" lon="4.08773">
        <ele>413.1</ele>
        <time>2022-03-03T10:39:19Z</time>
      </trkpt>
      <trkpt lat="44.38176" lon="4.08773">
        <ele>413.9</ele>
        <time>2022-03-03T10:39:22Z</time>
      </trkpt>
      <trkpt lat="44.38181" lon="4.08771">
        <ele>505.85345</ele>
        <time>2022-03-03T10:39:25Z</time>
      </trkpt>
      <trkpt lat="44.38187" lon="4.08769">
        <ele>414.8</ele>
        <time>2022-03-03T10:39:28Z</time>
      </trkpt>
      <trkpt lat="44.38191" lon="4.08766">
        <ele>414.8</ele>
        <time>2022-03-03T10:39:33Z</time>
      </trkpt>
      <trkpt lat="44.38195" lon="4.08763">
        <ele>506.181</ele>
        <time>2022-03-03T10:39:36Z</time>
      </trkpt>
      <trkpt lat="44.382" lon="4.08763">
        <ele>415.5</ele>
        <time>2022-03-03T10:39:40Z</time>
      </trkpt>
      <trkpt lat="44.38204" lon="4.08759">
        <ele>414.9</ele>
        <time>2022-03-03T10:39:44Z</time>
        <extensions>
          <gpxtpx:TrackPointExtension xmlns:gpxtpx="http://www.garmin.com/xmlschemas/TrackPointExtension/v1">
            <gpxtpx:hr>129</gpxtpx:hr>
          </gpxtpx:TrackPointExtension>
        </extensions>
      </trkpt>
      <trkpt lat="44.38208" lon="4.08755">
        <ele>506.89767</ele>
        <time>2022-03-03T10:39:49Z</time>
      </trkpt>
      <trkpt lat="44.38213" lon="4.08754">
        <ele>414.3</ele>
        <time>2022-03-03T10:39:53Z</time>
      </trkpt>
      <trkpt lat="44.38219" lon="4.08752">
        <ele>506.39804</ele>
        <time>2022-03-03T10:39:56Z</time>
      </trkpt>
      <trkpt lat="44.38223" lon="4.0875">
        <ele>414.3</ele>
        <time>2022-03-03T10:40:00Z</time>
      </trkpt>
      <trkpt lat="44.38229" lon="4.08747">
        <ele>416.1</ele>
        <time>2022-03-03T10:40:03Z</time>
      </trkpt>
      <trkpt lat="44.38225" lon="4.08743">
        <ele>505.96982</ele>
        <time>2022-03-03T10:40:13Z</time>
      </trkpt>
      <trkpt lat="44.38221" lon="4.0874">
        <ele>508.63034</ele>
        <time>2022-03-03T10:40:22Z</time>
      </trkpt>
      <trkpt lat="44.38215" lon="4.08736">
        <ele>511.76157</ele>
        <time>2022-03-03T10:40:26Z</time>
      </trkpt>
      <trkpt lat="44.38211" lon="4.08732">
        <ele>412.9</ele>
        <time>2022-03-03T10:40:29Z</time>
      </trkpt>
      <trkpt lat="44.38206" lon="4.0873">
        <ele>411.3</ele>
        <time>2022-03-03T10:40:32Z</time>
      </trkpt>
      <trkpt lat="44.38203" lon="4.08725">
        <ele>514.1177</ele>
        <time>2022-03-03T10:40:36Z</time>
      </trkpt>
      <trkpt lat="44.382" lon="4.0872">
        <ele>409.2</ele>
        <time>2022-03-03T10:40:39Z</time>
      </trkpt>
      <trkpt lat="44.38196" lon="4.08714">
        <ele>410.8</ele>
        <time>2022-03-03T10:40:43Z</time>
      </trkpt>
      <trkpt lat="44.38194" lon="4.08707">
        <ele>515.7834</ele>
        <time>2022-03-03T10:40:48Z</time>
      </trkpt>
      <trkpt lat="44.38193" lon="4.087">
        <ele>416.6</ele>
        <time>2022-03-03T10:40:54Z</time>
      </trkpt>
      <trkpt lat="44.38193" lon="4.08693">
        <ele>517.281</ele>
        <time>2022-03-03T10:41:04Z</time>
      </trkpt>
      <trkpt lat="44.38194" lon="4.0869">
        <ele>517.2937</ele>
        <time>2022-03-03T10:41:14Z</time>
      </trkpt>
      <trkpt lat="44.38193" lon="4.08689">
        <ele>517.1939</ele>
        <time>2022-03-03T10:41:24Z</time>
      </trkpt>
      <trkpt lat="44.38194" lon="4.08689">
        <ele>517.2331</ele>
        <time>2022-03-03T10:41:34Z</time>
      </trkpt>
      <trkpt lat="44.38193" lon="4.08689">
        <ele>517.07263</ele>
        <time>2022-03-03T10:41:44Z</time>
      </trkpt>
      <trkpt lat="44.38192" lon="4.0869">
        <ele>517.15186</ele>
        <time>2022-03-03T10:41:54Z</time>
      </trkpt>
      <trkpt lat="44.38193" lon="4.08689">
        <ele>517.2419</ele>
        <time>2022-03-03T10:42:04Z</time>
      </trkpt>
      <trkpt lat="44.38193" lon="4.08689">
        <ele>517.2908</ele>
        <time>2022-03-03T10:42:14Z</time>
      </trkpt>
      <trkpt lat="44.38194" lon="4.08689">
        <ele>517.17535</ele>
        <time>2022-03-03T10:42:24Z</time>
      </trkpt>
      <trkpt lat="44.38194" lon="4.0869">
        <ele>517.3328</ele>
        <time>2022-03-03T10:42:34Z</time>
      </trkpt>
      <trkpt lat="44.38195" lon="4.08689">
        <ele>517.4248</ele>
        <time>2022-03-03T10:42:44Z</time>
      </trkpt>
      <trkpt lat="44.38195" lon="4.08689">
        <ele>517.50793</ele>
        <time>2022-03-03T10:42:54Z</time>
      </trkpt>
      <trkpt lat="44.38194" lon="4.08689">
        <ele>517.63025</ele>
        <time>2022-03-03T10:43:04Z</time>
      </trkpt>
      <trkpt lat="44.38195" lon="4.08687">
        <ele>517.58716</ele>
        <time>2022-03-03T10:43:14Z</time>
      </trkpt>
      <trkpt lat="44.38195" lon="4.08686">
        <ele>517.8386</ele>
        <time>2022-03-03T10:43:24Z</time>
      </trkpt>
      <trkpt lat="44.38199" lon="4.08691">
        <ele>517.9208</ele>
        <time>2022-03-03T10:43:34Z</time>
      </trkpt>
      <trkpt lat="44.38203" lon="4.08695">
        <ele>519.95465</ele>
        <time>2022-03-03T10:43:42Z</time>
      </trkpt>
      <trkpt lat="44.38208" lon="4.08691">
        <ele>424.8</ele>
        <time>2022-03-03T10:43:48Z</time>
      </trkpt>
      <trkpt lat="44.3821" lon="4.08684">
        <ele>521.71674</ele>
        <time>2022-03-03T10:43:53Z</time>
      </trkpt>
      <trkpt lat="44.38215" lon="4.08681">
        <ele>521.0504</ele>
        <time>2022-03-03T10:44:02Z</time>
      </trkpt>
      <trkpt lat="44.38218" lon="4.08675">
        <ele>520.2501</ele>
        <time>2022-03-03T10:44:07Z</time>
      </trkpt>
      <trkpt lat="44.38219" lon="4.08668">
        <ele>426.3</ele>
        <time>2022-03-03T10:44:11Z</time>
      </trkpt>
      <trkpt lat="44.38223" lon="4.08664">
        <ele>519.67975</ele>
        <time>2022-03-03T10:44:20Z</time>
      </trkpt>
      <trkpt lat="44.38223" lon="4.08659">
        <ele>519.8373</ele>
        <time>2022-03-03T10:44:30Z</time>
      </trkpt>
      <trkpt lat="44.38224" lon="4.08652">
        <ele>518.02155</ele>
        <time>2022-03-03T10:44:36Z</time>
      </trkpt>
      <trkpt lat="44.38226" lon="4.08646">
        <ele>419.9</ele>
        <time>2022-03-03T10:44:40Z</time>
      </trkpt>
      <trkpt lat="44.38229" lon="4.0864">
        <ele>517.11664</ele>
        <time>2022-03-03T10:44:45Z</time>
      </trkpt>
      <trkpt lat="44.38234" lon="4.08641">
        <ele>423.1</ele>
        <time>2022-03-03T10:44:51Z</time>
      </trkpt>
      <trkpt lat="44.38237" lon="4.08635">
        <ele>516.1952</ele>
        <time>2022-03-03T10:45:00Z</time>
      </trkpt>
      <trkpt lat="44.3824" lon="4.08629">
        <ele>421.3</ele>
        <time>2022-03-03T10:45:04Z</time>
      </trkpt>
      <trkpt lat="44.38243" lon="4.08624">
        <ele>516.5591</ele>
        <time>2022-03-03T10:45:10Z</time>
      </trkpt>
      <trkpt lat="44.38247" lon="4.08619">
        <ele>518.12427</ele>
        <time>2022-03-03T10:45:15Z</time>
      </trkpt>
      <trkpt lat="44.38253" lon="4.08618">
        <ele>425.2</ele>
        <time>2022-03-03T10:45:20Z</time>
      </trkpt>
      <trkpt lat="44.38257" lon="4.08616">
        <ele>426.9</ele>
        <time>2022-03-03T10:45:24Z</time>
      </trkpt>
      <trkpt lat="44.38262" lon="4.08612">
        <ele>519.12604</ele>
        <time>2022-03-03T10:45:28Z</time>
      </trkpt>
      <trkpt lat="44.38265" lon="4.08607">
        <ele>428.5</ele>
        <time>2022-03-03T10:45:33Z</time>
      </trkpt>
      <trkpt lat="44.3827" lon="4.08604">
        <ele>520.3548</ele>
        <time>2022-03-03T10:45:38Z</time>
      </trkpt>
      <trkpt lat="44.38273" lon="4.08598">
        <ele>521.78033</ele>
        <time>2022-03-03T10:45:48Z</time>
      </trkpt>
      <trkpt lat="44.38275" lon="4.08591">
        <ele>523.82336</ele>
        <time>2022-03-03T10:45:58Z</time>
      </trkpt>
      <trkpt lat="44.38278" lon="4.08586">
        <ele>429.1</ele>
        <time>2022-03-03T10:46:03Z</time>
      </trkpt>
      <trkpt lat="44.38282" lon="4.08583">
        <ele>525.4292</ele>
        <time>2022-03-03T10:46:07Z</time>
      </trkpt>
      <trkpt lat="44.38286" lon="4.08578">
        <ele>432.8</ele>
        <time>2022-03-03T10:46:13Z</time>
      </trkpt>
      <trkpt lat="44.38288" lon="4.08571">
        <ele>432.6</ele>
        <time>2022-03-03T10:46:19Z</time>
      </trkpt>
      <trkpt lat="44.3829" lon="4.08566">
        <ele>528.142</ele>
        <time>2022-03-03T10:46:26Z</time>
      </trkpt>
      <trkpt lat="44.38292" lon="4.08559">
        <ele>529.5622</ele>
        <time>2022-03-03T10:46:30Z</time>
      </trkpt>
      <trkpt lat="44.38295" lon="4.08554">
        <ele>434.5</ele>
        <time>2022-03-03T10:46:34Z</time>
      </trkpt>
      <trkpt lat="44.38298" lon="4.08546">
        <ele>435.8</ele>
        <time>2022-03-03T10:46:39Z</time>
      </trkpt>
      <trkpt lat="44.38301" lon="4.08539">
        <ele>531.05884</ele>
        <time>2022-03-03T10:46:44Z</time>
      </trkpt>
      <trkpt lat="44.38303" lon="4.08534">
        <ele>531.8547</ele>
        <time>2022-03-03T10:46:50Z</time>
      </trkpt>
      <trkpt lat="44.38306" lon="4.08529">
        <ele>439.3</ele>
        <time>2022-03-03T10:46:54Z</time>
      </trkpt>
      <trkpt lat="44.38308" lon="4.08522">
        <ele>534.30695</ele>
        <time>2022-03-03T10:46:59Z</time>
      </trkpt>
      <trkpt lat="44.38312" lon="4.08517">
        <ele>440.5</ele>
        <time>2022-03-03T10:47:04Z</time>
      </trkpt>
      <trkpt lat="44.38316" lon="4.08513">
        <ele>536.1798</ele>
        <time>2022-03-03T10:47:08Z</time>
      </trkpt>
      <trkpt lat="44.38317" lon="4.08505">
        <ele>440.6</ele>
        <time>2022-03-03T10:47:13Z</time>
      </trkpt>
      <trkpt lat="44.38319" lon="4.08499">
        <ele>536.1759</ele>
        <time>2022-03-03T10:47:17Z</time>
      </trkpt>
      <trkpt lat="44.38323" lon="4.08493">
        <ele>439.6</ele>
        <time>2022-03-03T10:47:22Z</time>
      </trkpt>
      <trkpt lat="44.38326" lon="4.08486">
        <ele>535.2017</ele>
        <time>2022-03-03T10:47:26Z</time>
      </trkpt>
      <trkpt lat="44.38331" lon="4.08484">
        <ele>439.2</ele>
        <time>2022-03-03T10:47:30Z</time>
      </trkpt>
      <trkpt lat="44.38335" lon="4.0848">
        <ele>534.0504</ele>
        <time>2022-03-03T10:47:36Z</time>
      </trkpt>
      <trkpt lat="44.38339" lon="4.08477">
        <ele>437.9</ele>
        <time>2022-03-03T10:47:41Z</time>
      </trkpt>
      <trkpt lat="44.38344" lon="4.08475">
        <ele>533.2986</ele>
        <time>2022-03-03T10:47:46Z</time>
      </trkpt>
      <trkpt lat="44.38349" lon="4.08473">
        <ele>437.3</ele>
        <time>2022-03-03T10:47:51Z</time>
      </trkpt>
      <trkpt lat="44.38355" lon="4.08473">
        <ele>533.3015</ele>
        <time>2022-03-03T10:47:55Z</time>
      </trkpt>
      <trkpt lat="44.3836" lon="4.08472">
        <ele>437.7</ele>
        <time>2022-03-03T10:47:58Z</time>
      </trkpt>
      <trkpt lat="44.38365" lon="4.08472">
        <ele>437.5</ele>
        <time>2022-03-03T10:48:02Z</time>
      </trkpt>
      <trkpt lat="44.3837" lon="4.08473">
        <ele>533.9917</ele>
        <time>2022-03-03T10:48:07Z</time>
      </trkpt>
      <trkpt lat="44.38376" lon="4.08473">
        <ele>436.7</ele>
        <time>2022-03-03T10:48:10Z</time>
      </trkpt>
      <trkpt lat="44.38381" lon="4.08474">
        <ele>436.3</ele>
        <time>2022-03-03T10:48:13Z</time>
      </trkpt>
      <trkpt lat="44.38387" lon="4.08474">
        <ele>533.35046</ele>
        <time>2022-03-03T10:48:16Z</time>
      </trkpt>
      <trkpt lat="44.38392" lon="4.08474">
        <ele>435.4</ele>
        <time>2022-03-03T10:48:20Z</time>
      </trkpt>
      <trkpt lat="44.38398" lon="4.08475">
        <ele>531.3515</ele>
        <time>2022-03-03T10:48:26Z</time>
      </trkpt>
      <trkpt lat="44.38403" lon="4.08477">
        <ele>435.8</ele>
        <time>2022-03-03T10:48:32Z</time>
      </trkpt>
      <trkpt lat="44.38408" lon="4.0848">
        <ele>530.541</ele>
        <time>2022-03-03T10:48:36Z</time>
      </trkpt>
      <trkpt lat="44.38413" lon="4.08482">
        <ele>436.6</ele>
        <time>2022-03-03T10:48:40Z</time>
      </trkpt>
      <trkpt lat="44.38417" lon="4.08478">
        <ele>530.682</ele>
        <time>2022-03-03T10:48:48Z</time>
      </trkpt>
      <trkpt lat="44.38422" lon="4.08475">
        <ele>435.1</ele>
        <time>2022-03-03T10:48:53Z</time>
      </trkpt>
      <trkpt lat="44.38427" lon="4.08474">
        <ele>435.2</ele>
        <time>2022-03-03T10:48:56Z</time>
      </trkpt>
      <trkpt lat="44.38432" lon="4.08476">
        <ele>532.8042</ele>
        <time>2022-03-03T10:49:00Z</time>
      </trkpt>
      <trkpt lat="44.38437" lon="4.08479">
        <ele>437.8</ele>
        <time>2022-03-03T10:49:06Z</time>
      </trkpt>
      <trkpt lat="44.38442" lon="4.08483">
        <ele>439.5</ele>
        <time>2022-03-03T10:49:09Z</time>
      </trkpt>
      <trkpt lat="44.38447" lon="4.08484">
        <ele>533.9888</ele>
        <time>2022-03-03T10:49:14Z</time>
      </trkpt>
      <trkpt lat="44.38452" lon="4.08484">
        <ele>441.2</ele>
        <time>2022-03-03T10:49:19Z</time>
      </trkpt>
      <trkpt lat="44.38458" lon="4.08486">
        <ele>535.0637</ele>
        <time>2022-03-03T10:49:23Z</time>
      </trkpt>
      <trkpt lat="44.38461" lon="4.0849">
        <ele>535.64233</ele>
        <time>2022-03-03T10:49:28Z</time>
      </trkpt>
      <trkpt lat="44.38462" lon="4.0849">
        <ele>538.14496</ele>
        <time>2022-03-03T10:49:38Z</time>
      </trkpt>
      <trkpt lat="44.38466" lon="4.08486">
        <ele>539.1447</ele>
        <time>2022-03-03T10:49:46Z</time>
      </trkpt>
      <trkpt lat="44.38472" lon="4.08484">
        <ele>443.6</ele>
        <time>2022-03-03T10:49:51Z</time>
      </trkpt>
      <trkpt lat="44.38476" lon="4.08481">
        <ele>541.0709</ele>
        <time>2022-03-03T10:49:55Z</time>
      </trkpt>
      <trkpt lat="44.3848" lon="4.08477">
        <ele>444.1</ele>
        <time>2022-03-03T10:49:58Z</time>
      </trkpt>
      <trkpt lat="44.38484" lon="4.08473">
        <ele>444</ele>
        <time>2022-03-03T10:50:02Z</time>
      </trkpt>
      <trkpt lat="44.38488" lon="4.08471">
        <ele>542.5938</ele>
        <time>2022-03-03T10:50:07Z</time>
      </trkpt>
      <trkpt lat="44.38493" lon="4.08468">
        <ele>445.8</ele>
        <time>2022-03-03T10:50:11Z</time>
      </trkpt>
      <trkpt lat="44.38498" lon="4.08465">
        <ele>543.9003</ele>
        <time>2022-03-03T10:50:16Z</time>
      </trkpt>
      <trkpt lat="44.38503" lon="4.08462">
        <ele>447</ele>
        <time>2022-03-03T10:50:21Z</time>
      </trkpt>
      <trkpt lat="44.38507" lon="4.08457">
        <ele>543.82587</ele>
        <time>2022-03-03T10:50:25Z</time>
      </trkpt>
      <trkpt lat="44.38511" lon="4.08456">
        <ele>446</ele>
        <time>2022-03-03T10:50:29Z</time>
      </trkpt>
      <trkpt lat="44.38514" lon="4.08457">
        <ele>543.81903</ele>
        <time>2022-03-03T10:50:39Z</time>
      </trkpt>
      <trkpt lat="44.38516" lon="4.08458">
        <ele>543.7456</ele>
        <time>2022-03-03T10:50:49Z</time>
      </trkpt>
      <trkpt lat="44.38519" lon="4.08458">
        <ele>543.5095</ele>
        <time>2022-03-03T10:50:59Z</time>
      </trkpt>
      <trkpt lat="44.38522" lon="4.08461">
        <ele>543.48895</ele>
        <time>2022-03-03T10:51:09Z</time>
      </trkpt>
      <trkpt lat="44.38524" lon="4.08463">
        <ele>543.6418</ele>
        <time>2022-03-03T10:51:19Z</time>
      </trkpt>
      <trkpt lat="44.38529" lon="4.08461">
        <ele>542.0973</ele>
        <time>2022-03-03T10:51:26Z</time>
      </trkpt>
      <trkpt lat="44.38534" lon="4.0846">
        <ele>448.4</ele>
        <time>2022-03-03T10:51:32Z</time>
      </trkpt>
      <trkpt lat="44.38538" lon="4.0846">
        <ele>539.77826</ele>
        <time>2022-03-03T10:51:41Z</time>
      </trkpt>
      <trkpt lat="44.38541" lon="4.08458">
        <ele>538.2125</ele>
        <time>2022-03-03T10:51:51Z</time>
      </trkpt>
      <trkpt lat="44.38544" lon="4.08454">
        <ele>536.3962</ele>
        <time>2022-03-03T10:52:01Z</time>
      </trkpt>
      <trkpt lat="44.38543" lon="4.08452">
        <ele>535.62274</ele>
        <time>2022-03-03T10:52:11Z</time>
      </trkpt>
      <trkpt lat="44.38543" lon="4.08447">
        <ele>535.08527</ele>
        <time>2022-03-03T10:52:21Z</time>
      </trkpt>
      <trkpt lat="44.38543" lon="4.08451">
        <ele>535.14984</ele>
        <time>2022-03-03T10:52:31Z</time>
      </trkpt>
      <trkpt lat="44.38546" lon="4.08446">
        <ele>535.1283</ele>
        <time>2022-03-03T10:52:41Z</time>
      </trkpt>
      <trkpt lat="44.3855" lon="4.08442">
        <ele>534.84247</ele>
        <time>2022-03-03T10:52:48Z</time>
      </trkpt>
      <trkpt lat="44.38556" lon="4.08443">
        <ele>438.1</ele>
        <time>2022-03-03T10:52:52Z</time>
      </trkpt>
      <trkpt lat="44.38561" lon="4.08442">
        <ele>533.34064</ele>
        <time>2022-03-03T10:52:59Z</time>
      </trkpt>
      <trkpt lat="44.38565" lon="4.08441">
        <ele>437.3</ele>
        <time>2022-03-03T10:53:03Z</time>
      </trkpt>
      <trkpt lat="44.38571" lon="4.0844">
        <ele>531.8253</ele>
        <time>2022-03-03T10:53:07Z</time>
      </trkpt>
      <trkpt lat="44.38576" lon="4.08438">
        <ele>436.1</ele>
        <time>2022-03-03T10:53:12Z</time>
      </trkpt>
      <trkpt lat="44.38581" lon="4.08436">
        <ele>530.9932</ele>
        <time>2022-03-03T10:53:17Z</time>
      </trkpt>
      <trkpt lat="44.38586" lon="4.08433">
        <ele>432.8</ele>
        <time>2022-03-03T10:53:22Z</time>
      </trkpt>
      <trkpt lat="44.38591" lon="4.08432">
        <ele>528.75085</ele>
        <time>2022-03-03T10:53:27Z</time>
      </trkpt>
      <trkpt lat="44.38595" lon="4.08429">
        <ele>430</ele>
        <time>2022-03-03T10:53:34Z</time>
      </trkpt>
      <trkpt lat="44.38598" lon="4.08426">
        <ele>526.9412</ele>
        <time>2022-03-03T10:53:44Z</time>
        <extensions>
          <gpxtpx:TrackPointExtension xmlns:gpxtpx="http://www.garmin.com/xmlschemas/TrackPointExtension/v1">
            <gpxtpx:hr>114</gpxtpx:hr>
          </gpxtpx:TrackPointExtension>
        </extensions>
      </trkpt>
      <trkpt lat="44.38604" lon="4.08426">
        <ele>524.55536</ele>
        <time>2022-03-03T10:53:51Z</time>
      </trkpt>
      <trkpt lat="44.38609" lon="4.08426">
        <ele>522.0435</ele>
        <time>2022-03-03T10:53:55Z</time>
      </trkpt>
      <trkpt lat="44.38614" lon="4.08429">
        <ele>427.8</ele>
        <time>2022-03-03T10:54:03Z</time>
      </trkpt>
      <trkpt lat="44.38618" lon="4.08427">
        <ele>522.0964</ele>
        <time>2022-03-03T10:54:10Z</time>
      </trkpt>
      <trkpt lat="44.38623" lon="4.08427">
        <ele>426.6</ele>
        <time>2022-03-03T10:54:17Z</time>
      </trkpt>
      <trkpt lat="44.38628" lon="4.08427">
        <ele>519.06537</ele>
        <time>2022-03-03T10:54:21Z</time>
      </trkpt>
      <trkpt lat="44.38632" lon="4.08426">
        <ele>425.9</ele>
        <time>2022-03-03T10:54:26Z</time>
      </trkpt>
      <trkpt lat="44.38637" lon="4.08424">
        <ele>519.1984</ele>
        <time>2022-03-03T10:54:32Z</time>
      </trkpt>
      <trkpt lat="44.38641" lon="4.08419">
        <ele>423.7</ele>
        <time>2022-03-03T10:54:35Z</time>
      </trkpt>
      <trkpt lat="44.38645" lon="4.08415">
        <ele>423.5</ele>
        <time>2022-03-03T10:54:38Z</time>
      </trkpt>
      <trkpt lat="44.38648" lon="4.0841">
        <ele>520.3949</ele>
        <time>2022-03-03T10:54:41Z</time>
      </trkpt>
      <trkpt lat="44.38649" lon="4.08403">
        <ele>420.5</ele>
        <time>2022-03-03T10:54:46Z</time>
      </trkpt>
      <trkpt lat="44.38652" lon="4.084">
        <ele>519.98596</ele>
        <time>2022-03-03T10:54:53Z</time>
      </trkpt>
      <trkpt lat="44.38657" lon="4.08398">
        <ele>519.893</ele>
        <time>2022-03-03T10:54:57Z</time>
      </trkpt>
      <trkpt lat="44.38662" lon="4.08395">
        <ele>421.1</ele>
        <time>2022-03-03T10:55:02Z</time>
      </trkpt>
      <trkpt lat="44.38666" lon="4.08393">
        <ele>520.2305</ele>
        <time>2022-03-03T10:55:07Z</time>
      </trkpt>
      <trkpt lat="44.38671" lon="4.08393">
        <ele>422.4</ele>
        <time>2022-03-03T10:55:11Z</time>
      </trkpt>
      <trkpt lat="44.38676" lon="4.08392">
        <ele>521.36255</ele>
        <time>2022-03-03T10:55:16Z</time>
      </trkpt>
      <trkpt lat="44.3868" lon="4.08394">
        <ele>425.3</ele>
        <time>2022-03-03T10:55:22Z</time>
      </trkpt>
      <trkpt lat="44.38686" lon="4.08392">
        <ele>522.9564</ele>
        <time>2022-03-03T10:55:25Z</time>
      </trkpt>
      <trkpt lat="44.38689" lon="4.0839">
        <ele>522.9897</ele>
        <time>2022-03-03T10:55:35Z</time>
      </trkpt>
      <trkpt lat="44.38693" lon="4.08388">
        <ele>524.8264</ele>
        <time>2022-03-03T10:55:45Z</time>
      </trkpt>
      <trkpt lat="44.38694" lon="4.08389">
        <ele>527.0704</ele>
        <time>2022-03-03T10:55:55Z</time>
      </trkpt>
      <trkpt lat="44.38689" lon="4.08385">
        <ele>427.5</ele>
        <time>2022-03-03T10:56:00Z</time>
      </trkpt>
      <trkpt lat="44.38685" lon="4.08383">
        <ele>527.5587</ele>
        <time>2022-03-03T10:56:05Z</time>
      </trkpt>
      <trkpt lat="44.38681" lon="4.0838">
        <ele>426.8</ele>
        <time>2022-03-03T10:56:11Z</time>
      </trkpt>
      <trkpt lat="44.38677" lon="4.08377">
        <ele>526.20917</ele>
        <time>2022-03-03T10:56:18Z</time>
      </trkpt>
      <trkpt lat="44.38672" lon="4.08373">
        <ele>426.6</ele>
        <time>2022-03-03T10:56:23Z</time>
      </trkpt>
      <trkpt lat="44.38669" lon="4.08369">
        <ele>525.1239</ele>
        <time>2022-03-03T10:56:27Z</time>
      </trkpt>
      <trkpt lat="44.38665" lon="4.08364">
        <ele>426.6</ele>
        <time>2022-03-03T10:56:32Z</time>
      </trkpt>
      <trkpt lat="44.38661" lon="4.0836">
        <ele>526.0976</ele>
        <time>2022-03-03T10:56:35Z</time>
      </trkpt>
      <trkpt lat="44.38657" lon="4.08355">
        <ele>426.7</ele>
        <time>2022-03-03T10:56:39Z</time>
      </trkpt>
      <trkpt lat="44.38652" lon="4.0835">
        <ele>427.1</ele>
        <time>2022-03-03T10:56:43Z</time>
      </trkpt>
      <trkpt lat="44.38649" lon="4.08346">
        <ele>526.7259</ele>
        <time>2022-03-03T10:56:46Z</time>
      </trkpt>
      <trkpt lat="44.38645" lon="4.08342">
        <ele>427.9</ele>
        <time>2022-03-03T10:56:50Z</time>
      </trkpt>
      <trkpt lat="44.38641" lon="4.08338">
        <ele>427.8</ele>
        <time>2022-03-03T10:56:55Z</time>
      </trkpt>
      <trkpt lat="44.38637" lon="4.08333">
        <ele>428.2</ele>
        <time>2022-03-03T10:56:59Z</time>
      </trkpt>
      <trkpt lat="44.38633" lon="4.08333">
        <ele>528.5766</ele>
        <time>2022-03-03T10:57:04Z</time>
      </trkpt>
      <trkpt lat="44.38628" lon="4.08331">
        <ele>425.4</ele>
        <time>2022-03-03T10:57:09Z</time>
      </trkpt>
      <trkpt lat="44.38625" lon="4.08324">
        <ele>530.3991</ele>
        <time>2022-03-03T10:57:13Z</time>
      </trkpt>
      <trkpt lat="44.38624" lon="4.08318">
        <ele>429.7</ele>
        <time>2022-03-03T10:57:15Z</time>
      </trkpt>
      <trkpt lat="44.38621" lon="4.08312">
        <ele>430.9</ele>
        <time>2022-03-03T10:57:18Z</time>
      </trkpt>
      <trkpt lat="44.3862" lon="4.08305">
        <ele>531.8253</ele>
        <time>2022-03-03T10:57:21Z</time>
      </trkpt>
      <trkpt lat="44.3862" lon="4.08298">
        <ele>435.7</ele>
        <time>2022-03-03T10:57:26Z</time>
      </trkpt>
      <trkpt lat="44.3862" lon="4.08292">
        <ele>534.33435</ele>
        <time>2022-03-03T10:57:34Z</time>
      </trkpt>
      <trkpt lat="44.38621" lon="4.08286">
        <ele>535.44354</ele>
        <time>2022-03-03T10:57:38Z</time>
      </trkpt>
      <trkpt lat="44.38623" lon="4.0828">
        <ele>442</ele>
        <time>2022-03-03T10:57:42Z</time>
      </trkpt>
      <trkpt lat="44.38624" lon="4.08273">
        <ele>537.28424</ele>
        <time>2022-03-03T10:57:48Z</time>
      </trkpt>
      <trkpt lat="44.38625" lon="4.08266">
        <ele>442.9</ele>
        <time>2022-03-03T10:57:53Z</time>
      </trkpt>
      <trkpt lat="44.38627" lon="4.0826">
        <ele>539.55206</ele>
        <time>2022-03-03T10:58:00Z</time>
      </trkpt>
      <trkpt lat="44.38632" lon="4.08257">
        <ele>541.97485</ele>
        <time>2022-03-03T10:58:07Z</time>
      </trkpt>
      <trkpt lat="44.38636" lon="4.08253">
        <ele>448.5</ele>
        <time>2022-03-03T10:58:11Z</time>
      </trkpt>
      <trkpt lat="44.38637" lon="4.08246">
        <ele>543.5869</ele>
        <time>2022-03-03T10:58:16Z</time>
      </trkpt>
      <trkpt lat="44.3864" lon="4.08238">
        <ele>450.4</ele>
        <time>2022-03-03T10:58:21Z</time>
      </trkpt>
      <trkpt lat="44.38644" lon="4.08237">
        <ele>453.3</ele>
        <time>2022-03-03T10:58:24Z</time>
      </trkpt>
      <trkpt lat="44.38648" lon="4.08233">
        <ele>544.80634</ele>
        <time>2022-03-03T10:58:28Z</time>
      </trkpt>
      <trkpt lat="44.3865" lon="4.08227">
        <ele>456.3</ele>
        <time>2022-03-03T10:58:32Z</time>
      </trkpt>
      <trkpt lat="44.3865" lon="4.08219">
        <ele>546.72815</ele>
        <time>2022-03-03T10:58:40Z</time>
      </trkpt>
      <trkpt lat="44.38649" lon="4.08211">
        <ele>456.1</ele>
        <time>2022-03-03T10:58:44Z</time>
        <extensions>
          <gpxtpx:TrackPointExtension xmlns:gpxtpx="http://www.garmin.com/xmlschemas/TrackPointExtension/v1">
            <gpxtpx:hr>160</gpxtpx:hr>
          </gpxtpx:TrackPointExtension>
        </extensions>
      </trkpt>
      <trkpt lat="44.3865" lon="4.08204">
        <ele>548.0418</ele>
        <time>2022-03-03T10:58:48Z</time>
      </trkpt>
      <trkpt lat="44.38649" lon="4.08197">
        <ele>456.1</ele>
        <time>2022-03-03T10:58:52Z</time>
      </trkpt>
      <trkpt lat="44.38651" lon="4.08189">
        <ele>549.0616</ele>
        <time>2022-03-03T10:58:56Z</time>
      </trkpt>
      <trkpt lat="44.38652" lon="4.08183">
        <ele>456.5</ele>
        <time>2022-03-03T10:59:00Z</time>
      </trkpt>
      <trkpt lat="44.38653" lon="4.08176">
        <ele>550.1697</ele>
        <time>2022-03-03T10:59:05Z</time>
      </trkpt>
      <trkpt lat="44.38654" lon="4.0817">
        <ele>456.4</ele>
        <time>2022-03-03T10:59:11Z</time>
      </trkpt>
      <trkpt lat="44.38657" lon="4.08164">
        <ele>551.8411</ele>
        <time>2022-03-03T10:59:16Z</time>
      </trkpt>
      <trkpt lat="44.38661" lon="4.08161">
        <ele>457.9</ele>
        <time>2022-03-03T10:59:21Z</time>
      </trkpt>
      <trkpt lat="44.38666" lon="4.08158">
        <ele>553.06</ele>
        <time>2022-03-03T10:59:27Z</time>
      </trkpt>
      <trkpt lat="44.38671" lon="4.08159">
        <ele>460.1</ele>
        <time>2022-03-03T10:59:32Z</time>
      </trkpt>
      <trkpt lat="44.38676" lon="4.08157">
        <ele>553.8381</ele>
        <time>2022-03-03T10:59:37Z</time>
      </trkpt>
      <trkpt lat="44.38681" lon="4.08154">
        <ele>459.1</ele>
        <time>2022-03-03T10:59:41Z</time>
      </trkpt>
      <trkpt lat="44.38685" lon="4.08152">
        <ele>458.9</ele>
        <time>2022-03-03T10:59:47Z</time>
      </trkpt>
      <trkpt lat="44.38688" lon="4.08151">
        <ele>554.10657</ele>
        <time>2022-03-03T10:59:57Z</time>
      </trkpt>
      <trkpt lat="44.38688" lon="4.08152">
        <ele>554.9326</ele>
        <time>2022-03-03T11:00:07Z</time>
      </trkpt>
      <trkpt lat="44.38693" lon="4.08154">
        <ele>554.8346</ele>
        <time>2022-03-03T11:00:12Z</time>
      </trkpt>
      <trkpt lat="44.38697" lon="4.08152">
        <ele>460.1</ele>
        <time>2022-03-03T11:00:19Z</time>
      </trkpt>
      <trkpt lat="44.38703" lon="4.0815">
        <ele>553.7459</ele>
        <time>2022-03-03T11:00:24Z</time>
      </trkpt>
      <trkpt lat="44.38708" lon="4.08149">
        <ele>553.0737</ele>
        <time>2022-03-03T11:00:28Z</time>
      </trkpt>
      <trkpt lat="44.38713" lon="4.08149">
        <ele>460.8</ele>
        <time>2022-03-03T11:00:33Z</time>
      </trkpt>
      <trkpt lat="44.38717" lon="4.08147">
        <ele>551.18567</ele>
        <time>2022-03-03T11:00:37Z</time>
      </trkpt>
      <trkpt lat="44.38722" lon="4.08145">
        <ele>459.7</ele>
        <time>2022-03-03T11:00:41Z</time>
      </trkpt>
      <trkpt lat="44.38727" lon="4.08143">
        <ele>550.4998</ele>
        <time>2022-03-03T11:00:45Z</time>
      </trkpt>
      <trkpt lat="44.38732" lon="4.08143">
        <ele>460</ele>
        <time>2022-03-03T11:00:50Z</time>
      </trkpt>
      <trkpt lat="44.38736" lon="4.08141">
        <ele>549.8679</ele>
        <time>2022-03-03T11:00:55Z</time>
      </trkpt>
      <trkpt lat="44.38741" lon="4.08137">
        <ele>458.2</ele>
        <time>2022-03-03T11:01:00Z</time>
      </trkpt>
      <trkpt lat="44.38745" lon="4.08135">
        <ele>548.3984</ele>
        <time>2022-03-03T11:01:05Z</time>
      </trkpt>
      <trkpt lat="44.38751" lon="4.08133">
        <ele>457.3</ele>
        <time>2022-03-03T11:01:10Z</time>
      </trkpt>
      <trkpt lat="44.38755" lon="4.08132">
        <ele>456.8</ele>
        <time>2022-03-03T11:01:14Z</time>
      </trkpt>
      <trkpt lat="44.38761" lon="4.08134">
        <ele>547.3051</ele>
        <time>2022-03-03T11:01:18Z</time>
      </trkpt>
      <trkpt lat="44.38766" lon="4.08135">
        <ele>547.69305</ele>
        <time>2022-03-03T11:01:25Z</time>
      </trkpt>
      <trkpt lat="44.38772" lon="4.08132">
        <ele>457.3</ele>
        <time>2022-03-03T11:01:29Z</time>
      </trkpt>
      <trkpt lat="44.38776" lon="4.0813">
        <ele>456.1</ele>
        <time>2022-03-03T11:01:34Z</time>
      </trkpt>
      <trkpt lat="44.38782" lon="4.08127">
        <ele>547.55786</ele>
        <time>2022-03-03T11:01:38Z</time>
      </trkpt>
      <trkpt lat="44.38786" lon="4.08125">
        <ele>455.3</ele>
        <time>2022-03-03T11:01:42Z</time>
      </trkpt>
      <trkpt lat="44.38791" lon="4.08123">
        <ele>548.563</ele>
        <time>2022-03-03T11:01:46Z</time>
      </trkpt>
      <trkpt lat="44.38796" lon="4.08118">
        <ele>453</ele>
        <time>2022-03-03T11:01:50Z</time>
      </trkpt>
      <trkpt lat="44.388" lon="4.08117">
        <ele>453</ele>
        <time>2022-03-03T11:01:54Z</time>
      </trkpt>
      <trkpt lat="44.38805" lon="4.08114">
        <ele>548.0085</ele>
        <time>2022-03-03T11:01:58Z</time>
      </trkpt>
      <trkpt lat="44.38811" lon="4.0811">
        <ele>452</ele>
        <time>2022-03-03T11:02:02Z</time>
      </trkpt>
      <trkpt lat="44.38815" lon="4.08108">
        <ele>547.62646</ele>
        <time>2022-03-03T11:02:06Z</time>
      </trkpt>
      <trkpt lat="44.3882" lon="4.08105">
        <ele>452.5</ele>
        <time>2022-03-03T11:02:10Z</time>
      </trkpt>
      <trkpt lat="44.38825" lon="4.08103">
        <ele>452.9</ele>
        <time>2022-03-03T11:02:14Z</time>
      </trkpt>
      <trkpt lat="44.38829" lon="4.08098">
        <ele>547.1327</ele>
        <time>2022-03-03T11:02:20Z</time>
      </trkpt>
      <trkpt lat="44.38833" lon="4.08093">
        <ele>450.7</ele>
        <time>2022-03-03T11:02:25Z</time>
      </trkpt>
      <trkpt lat="44.38837" lon="4.08088">
        <ele>450.2</ele>
        <time>2022-03-03T11:02:29Z</time>
      </trkpt>
      <trkpt lat="44.38841" lon="4.08084">
        <ele>545.56055</ele>
        <time>2022-03-03T11:02:32Z</time>
      </trkpt>
      <trkpt lat="44.38844" lon="4.0808">
        <ele>450</ele>
        <time>2022-03-03T11:02:35Z</time>
      </trkpt>
      <trkpt lat="44.38849" lon="4.08076">
        <ele>450.7</ele>
        <time>2022-03-03T11:02:38Z</time>
      </trkpt>
      <trkpt lat="44.38853" lon="4.08072">
        <ele>546.0258</ele>
        <time>2022-03-03T11:02:42Z</time>
      </trkpt>
      <trkpt lat="44.38857" lon="4.08067">
        <ele>450.8</ele>
        <time>2022-03-03T11:02:46Z</time>
      </trkpt>
      <trkpt lat="44.38863" lon="4.08064">
        <ele>546.4431</ele>
        <time>2022-03-03T11:02:50Z</time>
      </trkpt>
      <trkpt lat="44.38868" lon="4.08062">
        <ele>451.9</ele>
        <time>2022-03-03T11:02:55Z</time>
      </trkpt>
      <trkpt lat="44.38873" lon="4.08057">
        <ele>545.8906</ele>
        <time>2022-03-03T11:03:00Z</time>
      </trkpt>
      <trkpt lat="44.38877" lon="4.08054">
        <ele>545.4469</ele>
        <time>2022-03-03T11:03:05Z</time>
      </trkpt>
      <trkpt lat="44.38881" lon="4.08049">
        <ele>449.6</ele>
        <time>2022-03-03T11:03:12Z</time>
      </trkpt>
      <trkpt lat="44.38885" lon="4.08046">
        <ele>544.8073</ele>
        <time>2022-03-03T11:03:21Z</time>
      </trkpt>
      <trkpt lat="44.38891" lon="4.08044">
        <ele>545.79663</ele>
        <time>2022-03-03T11:03:25Z</time>
      </trkpt>
      <trkpt lat="44.38895" lon="4.08043">
        <ele>450.1</ele>
        <time>2022-03-03T11:03:29Z</time>
      </trkpt>
      <trkpt lat="44.389" lon="4.08042">
        <ele>450.7</ele>
        <time>2022-03-03T11:03:34Z</time>
      </trkpt>
      <trkpt lat="44.38905" lon="4.08041">
        <ele>545.8544</ele>
        <time>2022-03-03T11:03:38Z</time>
      </trkpt>
      <trkpt lat="44.38908" lon="4.08035">
        <ele>546.0425</ele>
        <time>2022-03-03T11:03:45Z</time>
      </trkpt>
      <trkpt lat="44.38909" lon="4.08027">
        <ele>449.2</ele>
        <time>2022-03-03T11:03:50Z</time>
      </trkpt>
      <trkpt lat="44.38908" lon="4.0802">
        <ele>546.7076</ele>
        <time>2022-03-03T11:03:55Z</time>
      </trkpt>
      <trkpt lat="44.38908" lon="4.08012">
        <ele>448</ele>
        <time>2022-03-03T11:04:01Z</time>
      </trkpt>
      <trkpt lat="44.38906" lon="4.08005">
        <ele>547.70483</ele>
        <time>2022-03-03T11:04:06Z</time>
      </trkpt>
      <trkpt lat="44.38905" lon="4.07998">
        <ele>445.7</ele>
        <time>2022-03-03T11:04:10Z</time>
      </trkpt>
      <trkpt lat="44.38904" lon="4.07991">
        <ele>547.3904</ele>
        <time>2022-03-03T11:04:15Z</time>
      </trkpt>
      <trkpt lat="44.38904" lon="4.07983">
        <ele>445.9</ele>
        <time>2022-03-03T11:04:21Z</time>
      </trkpt>
      <trkpt lat="44.38904" lon="4.07975">
        <ele>547.7724</ele>
        <time>2022-03-03T11:04:25Z</time>
      </trkpt>
      <trkpt lat="44.38905" lon="4.07969">
        <ele>447.6</ele>
        <time>2022-03-03T11:04:28Z</time>
      </trkpt>
      <trkpt lat="44.38906" lon="4.07962">
        <ele>448.6</ele>
        <time>2022-03-03T11:04:32Z</time>
      </trkpt>
      <trkpt lat="44.38908" lon="4.07956">
        <ele>549.1948</ele>
        <time>2022-03-03T11:04:37Z</time>
      </trkpt>
      <trkpt lat="44.38912" lon="4.07949">
        <ele>452.9</ele>
        <time>2022-03-03T11:04:41Z</time>
      </trkpt>
      <trkpt lat="44.38913" lon="4.07943">
        <ele>550.8006</ele>
        <time>2022-03-03T11:04:46Z</time>
      </trkpt>
      <trkpt lat="44.38912" lon="4.07936">
        <ele>455</ele>
        <time>2022-03-03T11:04:51Z</time>
      </trkpt>
      <trkpt lat="44.38911" lon="4.07929">
        <ele>551.5776</ele>
        <time>2022-03-03T11:04:55Z</time>
      </trkpt>
      <trkpt lat="44.3891" lon="4.07923">
        <ele>455.6</ele>
        <time>2022-03-03T11:04:59Z</time>
      </trkpt>
      <trkpt lat="44.38908" lon="4.07917">
        <ele>455.7</ele>
        <time>2022-03-03T11:05:03Z</time>
      </trkpt>
      <trkpt lat="44.38908" lon="4.07909">
        <ele>452.7</ele>
        <time>2022-03-03T11:05:08Z</time>
      </trkpt>
      <trkpt lat="44.38913" lon="4.07906">
        <ele>553.29816</ele>
        <time>2022-03-03T11:05:15Z</time>
      </trkpt>
      <trkpt lat="44.38918" lon="4.07906">
        <ele>458.2</ele>
        <time>2022-03-03T11:05:19Z</time>
      </trkpt>
      <trkpt lat="44.38922" lon="4.07904">
        <ele>552.49664</ele>
        <time>2022-03-03T11:05:23Z</time>
      </trkpt>
      <trkpt lat="44.38924" lon="4.07897">
        <ele>553.06885</ele>
        <time>2022-03-03T11:05:30Z</time>
      </trkpt>
      <trkpt lat="44.38925" lon="4.0789">
        <ele>457</ele>
        <time>2022-03-03T11:05:34Z</time>
      </trkpt>
      <trkpt lat="44.38926" lon="4.07883">
        <ele>456.3</ele>
        <time>2022-03-03T11:05:37Z</time>
      </trkpt>
      <trkpt lat="44.38926" lon="4.07875">
        <ele>553.0169</ele>
        <time>2022-03-03T11:05:41Z</time>
      </trkpt>
      <trkpt lat="44.38926" lon="4.07868">
        <ele>453.5</ele>
        <time>2022-03-03T11:05:44Z</time>
        <extensions>
          <gpxtpx:TrackPointExtension xmlns:gpxtpx="http://www.garmin.com/xmlschemas/TrackPointExtension/v1">
            <gpxtpx:hr>142</gpxtpx:hr>
          </gpxtpx:TrackPointExtension>
        </extensions>
      </trkpt>
      <trkpt lat="44.38926" lon="4.07862">
        <ele>553.02673</ele>
        <time>2022-03-03T11:05:48Z</time>
      </trkpt>
      <trkpt lat="44.38926" lon="4.07855">
        <ele>451.7</ele>
        <time>2022-03-03T11:05:52Z</time>
      </trkpt>
      <trkpt lat="44.38929" lon="4.07849">
        <ele>552.13116</ele>
        <time>2022-03-03T11:05:58Z</time>
      </trkpt>
      <trkpt lat="44.3893" lon="4.07842">
        <ele>453.1</ele>
        <time>2022-03-03T11:06:03Z</time>
      </trkpt>
      <trkpt lat="44.38929" lon="4.07836">
        <ele>552.9542</ele>
        <time>2022-03-03T11:06:07Z</time>
      </trkpt>
      <trkpt lat="44.3893" lon="4.07829">
        <ele>451.5</ele>
        <time>2022-03-03T11:06:12Z</time>
      </trkpt>
      <trkpt lat="44.38932" lon="4.07821">
        <ele>554.3927</ele>
        <time>2022-03-03T11:06:17Z</time>
      </trkpt>
      <trkpt lat="44.38932" lon="4.07815">
        <ele>451.7</ele>
        <time>2022-03-03T11:06:21Z</time>
      </trkpt>
      <trkpt lat="44.38935" lon="4.07809">
        <ele>554.5514</ele>
        <time>2022-03-03T11:06:26Z</time>
      </trkpt>
      <trkpt lat="44.38937" lon="4.07803">
        <ele>454.5</ele>
        <time>2022-03-03T11:06:31Z</time>
      </trkpt>
      <trkpt lat="44.3894" lon="4.07797">
        <ele>555.1982</ele>
        <time>2022-03-03T11:06:35Z</time>
      </trkpt>
      <trkpt lat="44.38941" lon="4.0779">
        <ele>455.7</ele>
        <time>2022-03-03T11:06:39Z</time>
      </trkpt>
      <trkpt lat="44.38943" lon="4.07783">
        <ele>455.9</ele>
        <time>2022-03-03T11:06:43Z</time>
      </trkpt>
      <trkpt lat="44.38945" lon="4.07776">
        <ele>554.77875</ele>
        <time>2022-03-03T11:06:47Z</time>
      </trkpt>
      <trkpt lat="44.38946" lon="4.0777">
        <ele>456.4</ele>
        <time>2022-03-03T11:06:53Z</time>
      </trkpt>
      <trkpt lat="44.38944" lon="4.07762">
        <ele>553.79395</ele>
        <time>2022-03-03T11:06:59Z</time>
      </trkpt>
      <trkpt lat="44.38943" lon="4.07756">
        <ele>453.4</ele>
        <time>2022-03-03T11:07:02Z</time>
      </trkpt>
      <trkpt lat="44.38942" lon="4.07749">
        <ele>552.44763</ele>
        <time>2022-03-03T11:07:05Z</time>
      </trkpt>
      <trkpt lat="44.3894" lon="4.07742">
        <ele>452.3</ele>
        <time>2022-03-03T11:07:08Z</time>
      </trkpt>
      <trkpt lat="44.38938" lon="4.07736">
        <ele>451.3</ele>
        <time>2022-03-03T11:07:12Z</time>
      </trkpt>
      <trkpt lat="44.38936" lon="4.0773">
        <ele>551.87445</ele>
        <time>2022-03-03T11:07:16Z</time>
      </trkpt>
      <trkpt lat="44.38934" lon="4.07724">
        <ele>449.8</ele>
        <time>2022-03-03T11:07:22Z</time>
      </trkpt>
      <trkpt lat="44.38935" lon="4.07718">
        <ele>550.72906</ele>
        <time>2022-03-03T11:07:26Z</time>
      </trkpt>
      <trkpt lat="44.38936" lon="4.07711">
        <ele>452.5</ele>
        <time>2022-03-03T11:07:30Z</time>
      </trkpt>
      <trkpt lat="44.38936" lon="4.07704">
        <ele>549.63965</ele>
        <time>2022-03-03T11:07:35Z</time>
      </trkpt>
      <trkpt lat="44.38936" lon="4.07697">
        <ele>453.3</ele>
        <time>2022-03-03T11:07:40Z</time>
      </trkpt>
      <trkpt lat="44.38933" lon="4.07691">
        <ele>451.6</ele>
        <time>2022-03-03T11:07:44Z</time>
        <extensions>
          <gpxtpx:TrackPointExtension xmlns:gpxtpx="http://www.garmin.com/xmlschemas/TrackPointExtension/v1">
            <gpxtpx:hr>136</gpxtpx:hr>
          </gpxtpx:TrackPointExtension>
        </extensions>
      </trkpt>
      <trkpt lat="44.38931" lon="4.07684">
        <ele>449.9</ele>
        <time>2022-03-03T11:07:49Z</time>
      </trkpt>
      <trkpt lat="44.38927" lon="4.07678">
        <ele>548.06726</ele>
        <time>2022-03-03T11:07:53Z</time>
      </trkpt>
      <trkpt lat="44.38925" lon="4.07673">
        <ele>547.0504</ele>
        <time>2022-03-03T11:08:00Z</time>
      </trkpt>
      <trkpt lat="44.38922" lon="4.07667">
        <ele>447.7</ele>
        <time>2022-03-03T11:08:08Z</time>
      </trkpt>
      <trkpt lat="44.38919" lon="4.07661">
        <ele>545.4734</ele>
        <time>2022-03-03T11:08:14Z</time>
      </trkpt>
      <trkpt lat="44.38924" lon="4.07657">
        <ele>446.4</ele>
        <time>2022-03-03T11:08:19Z</time>
      </trkpt>
      <trkpt lat="44.38929" lon="4.07655">
        <ele>544.0972</ele>
        <time>2022-03-03T11:08:27Z</time>
      </trkpt>
      <trkpt lat="44.3893" lon="4.07654">
        <ele>542.40576</ele>
        <time>2022-03-03T11:08:37Z</time>
      </trkpt>
      <trkpt lat="44.38934" lon="4.07654">
        <ele>542.26666</ele>
        <time>2022-03-03T11:08:47Z</time>
      </trkpt>
      <trkpt lat="44.38939" lon="4.07653">
        <ele>541.03174</ele>
        <time>2022-03-03T11:08:56Z</time>
      </trkpt>
      <trkpt lat="44.38941" lon="4.07651">
        <ele>540.1572</ele>
        <time>2022-03-03T11:09:06Z</time>
      </trkpt>
      <trkpt lat="44.38946" lon="4.0765">
        <ele>444.1</ele>
        <time>2022-03-03T11:09:11Z</time>
      </trkpt>
      <trkpt lat="44.38952" lon="4.0765">
        <ele>538.9048</ele>
        <time>2022-03-03T11:09:16Z</time>
      </trkpt>
      <trkpt lat="44.38957" lon="4.07649">
        <ele>442.3</ele>
        <time>2022-03-03T11:09:20Z</time>
      </trkpt>
      <trkpt lat="44.38963" lon="4.07648">
        <ele>537.5976</ele>
        <time>2022-03-03T11:09:26Z</time>
      </trkpt>
      <trkpt lat="44.38966" lon="4.07647">
        <ele>537.33325</ele>
        <time>2022-03-03T11:09:36Z</time>
      </trkpt>
      <trkpt lat="44.38968" lon="4.07646">
        <ele>537.0865</ele>
        <time>2022-03-03T11:09:46Z</time>
      </trkpt>
      <trkpt lat="44.38973" lon="4.07649">
        <ele>439.9</ele>
        <time>2022-03-03T11:09:52Z</time>
      </trkpt>
      <trkpt lat="44.38977" lon="4.07649">
        <ele>535.67365</ele>
        <time>2022-03-03T11:09:58Z</time>
      </trkpt>
      <trkpt lat="44.38983" lon="4.07649">
        <ele>440.1</ele>
        <time>2022-03-03T11:10:03Z</time>
      </trkpt>
      <trkpt lat="44.38988" lon="4.07648">
        <ele>533.7244</ele>
        <time>2022-03-03T11:10:09Z</time>
      </trkpt>
      <trkpt lat="44.38993" lon="4.07652">
        <ele>531.4103</ele>
        <time>2022-03-03T11:10:15Z</time>
      </trkpt>
      <trkpt lat="44.38997" lon="4.07656">
        <ele>441.6</ele>
        <time>2022-03-03T11:10:20Z</time>
      </trkpt>
      <trkpt lat="44.39" lon="4.07655">
        <ele>532.35</ele>
        <time>2022-03-03T11:10:30Z</time>
      </trkpt>
      <trkpt lat="44.39002" lon="4.07655">
        <ele>533.1527</ele>
        <time>2022-03-03T11:10:40Z</time>
      </trkpt>
      <trkpt lat="44.39001" lon="4.07648">
        <ele>440.6</ele>
        <time>2022-03-03T11:10:46Z</time>
      </trkpt>
      <trkpt lat="44.38998" lon="4.07643">
        <ele>535.4005</ele>
        <time>2022-03-03T11:10:50Z</time>
      </trkpt>
      <trkpt lat="44.38996" lon="4.07637">
        <ele>439.1</ele>
        <time>2022-03-03T11:10:56Z</time>
      </trkpt>
      <trkpt lat="44.38993" lon="4.07632">
        <ele>536.5225</ele>
        <time>2022-03-03T11:11:01Z</time>
      </trkpt>
      <trkpt lat="44.38989" lon="4.07626">
        <ele>537.34204</ele>
        <time>2022-03-03T11:11:10Z</time>
      </trkpt>
      <trkpt lat="44.38985" lon="4.07621">
        <ele>442.5</ele>
        <time>2022-03-03T11:11:14Z</time>
      </trkpt>
      <trkpt lat="44.38983" lon="4.07614">
        <ele>537.77484</ele>
        <time>2022-03-03T11:11:20Z</time>
      </trkpt>
      <trkpt lat="44.3898" lon="4.07609">
        <ele>539.5589</ele>
        <time>2022-03-03T11:11:25Z</time>
      </trkpt>
      <trkpt lat="44.38977" lon="4.07604">
        <ele>444.8</ele>
        <time>2022-03-03T11:11:30Z</time>
      </trkpt>
      <trkpt lat="44.38973" lon="4.07599">
        <ele>541.5939</ele>
        <time>2022-03-03T11:11:35Z</time>
      </trkpt>
      <trkpt lat="44.3897" lon="4.07594">
        <ele>446.9</ele>
        <time>2022-03-03T11:11:39Z</time>
      </trkpt>
      <trkpt lat="44.38968" lon="4.07589">
        <ele>543.75146</ele>
        <time>2022-03-03T11:11:45Z</time>
      </trkpt>
      <trkpt lat="44.38964" lon="4.07584">
        <ele>449.4</ele>
        <time>2022-03-03T11:11:52Z</time>
      </trkpt>
      <trkpt lat="44.3896" lon="4.07579">
        <ele>545.6516</ele>
        <time>2022-03-03T11:11:56Z</time>
      </trkpt>
      <trkpt lat="44.38957" lon="4.07574">
        <ele>451</ele>
        <time>2022-03-03T11:12:03Z</time>
      </trkpt>
      <trkpt lat="44.38955" lon="4.07568">
        <ele>547.7949</ele>
        <time>2022-03-03T11:12:10Z</time>
      </trkpt>
      <trkpt lat="44.38951" lon="4.07562">
        <ele>550.2686</ele>
        <time>2022-03-03T11:12:16Z</time>
      </trkpt>
      <trkpt lat="44.38948" lon="4.07557">
        <ele>455.2</ele>
        <time>2022-03-03T11:12:23Z</time>
      </trkpt>
      <trkpt lat="44.38944" lon="4.07551">
        <ele>551.9959</ele>
        <time>2022-03-03T11:12:29Z</time>
      </trkpt>
      <trkpt lat="44.38942" lon="4.07545">
        <ele>457.5</ele>
        <time>2022-03-03T11:12:34Z</time>
      </trkpt>
      <trkpt lat="44.38939" lon="4.0754">
        <ele>553.91254</ele>
        <time>2022-03-03T11:12:38Z</time>
      </trkpt>
      <trkpt lat="44.38935" lon="4.07535">
        <ele>458.8</ele>
        <time>2022-03-03T11:12:43Z</time>
      </trkpt>
      <trkpt lat="44.38932" lon="4.0753">
        <ele>555.6225</ele>
        <time>2022-03-03T11:12:48Z</time>
      </trkpt>
      <trkpt lat="44.38928" lon="4.07526">
        <ele>459.7</ele>
        <time>2022-03-03T11:12:53Z</time>
      </trkpt>
      <trkpt lat="44.38924" lon="4.07521">
        <ele>556.6397</ele>
        <time>2022-03-03T11:12:57Z</time>
      </trkpt>
      <trkpt lat="44.38921" lon="4.07515">
        <ele>461.1</ele>
        <time>2022-03-03T11:13:01Z</time>
      </trkpt>
      <trkpt lat="44.38917" lon="4.07511">
        <ele>557.63153</ele>
        <time>2022-03-03T11:13:05Z</time>
      </trkpt>
      <trkpt lat="44.38913" lon="4.07507">
        <ele>461.6</ele>
        <time>2022-03-03T11:13:08Z</time>
      </trkpt>
      <trkpt lat="44.38909" lon="4.07503">
        <ele>462.9</ele>
        <time>2022-03-03T11:13:12Z</time>
      </trkpt>
      <trkpt lat="44.38904" lon="4.075">
        <ele>463.3</ele>
        <time>2022-03-03T11:13:16Z</time>
      </trkpt>
      <trkpt lat="44.38899" lon="4.07496">
        <ele>558.5342</ele>
        <time>2022-03-03T11:13:20Z</time>
      </trkpt>
      <trkpt lat="44.38895" lon="4.07494">
        <ele>462</ele>
        <time>2022-03-03T11:13:24Z</time>
      </trkpt>
      <trkpt lat="44.38891" lon="4.0749">
        <ele>461.2</ele>
        <time>2022-03-03T11:13:29Z</time>
      </trkpt>
      <trkpt lat="44.38887" lon="4.07485">
        <ele>558.43616</ele>
        <time>2022-03-03T11:13:34Z</time>
      </trkpt>
      <trkpt lat="44.38891" lon="4.07479">
        <ele>462.1</ele>
        <time>2022-03-03T11:13:39Z</time>
      </trkpt>
      <trkpt lat="44.38893" lon="4.07473">
        <ele>557.9991</ele>
        <time>2022-03-03T11:13:44Z</time>
      </trkpt>
      <trkpt lat="44.38896" lon="4.07468">
        <ele>463.2</ele>
        <time>2022-03-03T11:13:49Z</time>
      </trkpt>
      <trkpt lat="44.389" lon="4.07464">
        <ele>556.97296</ele>
        <time>2022-03-03T11:13:53Z</time>
      </trkpt>
      <trkpt lat="44.38905" lon="4.07461">
        <ele>556.9484</ele>
        <time>2022-03-03T11:13:57Z</time>
      </trkpt>
      <trkpt lat="44.38909" lon="4.07456">
        <ele>463.6</ele>
        <time>2022-03-03T11:14:00Z</time>
      </trkpt>
      <trkpt lat="44.38912" lon="4.0745">
        <ele>557.60016</ele>
        <time>2022-03-03T11:14:05Z</time>
      </trkpt>
      <trkpt lat="44.38917" lon="4.07447">
        <ele>463.2</ele>
        <time>2022-03-03T11:14:10Z</time>
      </trkpt>
      <trkpt lat="44.38922" lon="4.07443">
        <ele>463.8</ele>
        <time>2022-03-03T11:14:14Z</time>
      </trkpt>
      <trkpt lat="44.38927" lon="4.07439">
        <ele>557.57275</ele>
        <time>2022-03-03T11:14:18Z</time>
      </trkpt>
      <trkpt lat="44.38932" lon="4.07435">
        <ele>464.4</ele>
        <time>2022-03-03T11:14:23Z</time>
      </trkpt>
      <trkpt lat="44.38936" lon="4.07431">
        <ele>557.77954</ele>
        <time>2022-03-03T11:14:28Z</time>
      </trkpt>
      <trkpt lat="44.3894" lon="4.07429">
        <ele>464.7</ele>
        <time>2022-03-03T11:14:33Z</time>
      </trkpt>
      <trkpt lat="44.38945" lon="4.07428">
        <ele>558.23627</ele>
        <time>2022-03-03T11:14:38Z</time>
      </trkpt>
      <trkpt lat="44.3895" lon="4.07427">
        <ele>467</ele>
        <time>2022-03-03T11:14:42Z</time>
      </trkpt>
      <trkpt lat="44.38954" lon="4.07423">
        <ele>558.20294</ele>
        <time>2022-03-03T11:14:46Z</time>
      </trkpt>
      <trkpt lat="44.38959" lon="4.07422">
        <ele>466.9</ele>
        <time>2022-03-03T11:14:50Z</time>
      </trkpt>
      <trkpt lat="44.38964" lon="4.07419">
        <ele>467.6</ele>
        <time>2022-03-03T11:14:54Z</time>
      </trkpt>
      <trkpt lat="44.38969" lon="4.07417">
        <ele>559.48883</ele>
        <time>2022-03-03T11:14:58Z</time>
      </trkpt>
      <trkpt lat="44.38974" lon="4.07414">
        <ele>468.4</ele>
        <time>2022-03-03T11:15:03Z</time>
      </trkpt>
      <trkpt lat="44.38977" lon="4.0741">
        <ele>560.3514</ele>
        <time>2022-03-03T11:15:07Z</time>
      </trkpt>
      <trkpt lat="44.38983" lon="4.07408">
        <ele>470.8</ele>
        <time>2022-03-03T11:15:13Z</time>
      </trkpt>
      <trkpt lat="44.38987" lon="4.07405">
        <ele>562.1952</ele>
        <time>2022-03-03T11:15:19Z</time>
      </trkpt>
      <trkpt lat="44.38991" lon="4.07399">
        <ele>471.3</ele>
        <time>2022-03-03T11:15:23Z</time>
      </trkpt>
      <trkpt lat="44.38994" lon="4.07394">
        <ele>564.2852</ele>
        <time>2022-03-03T11:15:27Z</time>
      </trkpt>
      <trkpt lat="44.38999" lon="4.07391">
        <ele>472.3</ele>
        <time>2022-03-03T11:15:31Z</time>
      </trkpt>
      <trkpt lat="44.39002" lon="4.07386">
        <ele>565.20483</ele>
        <time>2022-03-03T11:15:35Z</time>
      </trkpt>
      <trkpt lat="44.39006" lon="4.07383">
        <ele>471.2</ele>
        <time>2022-03-03T11:15:39Z</time>
      </trkpt>
      <trkpt lat="44.39011" lon="4.07379">
        <ele>471.7</ele>
        <time>2022-03-03T11:15:44Z</time>
      </trkpt>
      <trkpt lat="44.39015" lon="4.07377">
        <ele>472.9</ele>
        <time>2022-03-03T11:15:49Z</time>
      </trkpt>
      <trkpt lat="44.3902" lon="4.07376">
        <ele>567.0216</ele>
        <time>2022-03-03T11:15:55Z</time>
      </trkpt>
      <trkpt lat="44.39024" lon="4.07375">
        <ele>569.0778</ele>
        <time>2022-03-03T11:16:00Z</time>
      </trkpt>
      <trkpt lat="44.39029" lon="4.07373">
        <ele>478.3</ele>
        <time>2022-03-03T11:16:05Z</time>
      </trkpt>
      <trkpt lat="44.39033" lon="4.07368">
        <ele>570.52325</ele>
        <time>2022-03-03T11:16:11Z</time>
      </trkpt>
      <trkpt lat="44.39037" lon="4.07364">
        <ele>479.5</ele>
        <time>2022-03-03T11:16:16Z</time>
      </trkpt>
      <trkpt lat="44.39041" lon="4.07361">
        <ele>572.5258</ele>
        <time>2022-03-03T11:16:24Z</time>
      </trkpt>
      <trkpt lat="44.39045" lon="4.07356">
        <ele>573.38104</ele>
        <time>2022-03-03T11:16:30Z</time>
      </trkpt>
      <trkpt lat="44.39049" lon="4.07351">
        <ele>574.95917</ele>
        <time>2022-03-03T11:16:36Z</time>
      </trkpt>
      <trkpt lat="44.39053" lon="4.07346">
        <ele>482.4</ele>
        <time>2022-03-03T11:16:42Z</time>
      </trkpt>
      <trkpt lat="44.39056" lon="4.07341">
        <ele>576.9896</ele>
        <time>2022-03-03T11:16:48Z</time>
      </trkpt>
      <trkpt lat="44.39057" lon="4.07335">
        <ele>481.6</ele>
        <time>2022-03-03T11:16:54Z</time>
      </trkpt>
      <trkpt lat="44.39059" lon="4.07329">
        <ele>578.0883</ele>
        <time>2022-03-03T11:16:59Z</time>
      </trkpt>
      <trkpt lat="44.39061" lon="4.07323">
        <ele>579.1792</ele>
        <time>2022-03-03T11:17:05Z</time>
      </trkpt>
      <trkpt lat="44.39063" lon="4.07317">
        <ele>481.2</ele>
        <time>2022-03-03T11:17:11Z</time>
      </trkpt>
      <trkpt lat="44.39065" lon="4.0731">
        <ele>580.6312</ele>
        <time>2022-03-03T11:17:18Z</time>
      </trkpt>
      <trkpt lat="44.39068" lon="4.07305">
        <ele>481.4</ele>
        <time>2022-03-03T11:17:22Z</time>
      </trkpt>
      <trkpt lat="44.39071" lon="4.07299">
        <ele>582.0588</ele>
        <time>2022-03-03T11:17:27Z</time>
      </trkpt>
      <trkpt lat="44.39074" lon="4.07294">
        <ele>482.9</ele>
        <time>2022-03-03T11:17:33Z</time>
      </trkpt>
      <trkpt lat="44.39077" lon="4.07287">
        <ele>583.80536</ele>
        <time>2022-03-03T11:17:40Z</time>
      </trkpt>
      <trkpt lat="44.39079" lon="4.0728">
        <ele>585.3872</ele>
        <time>2022-03-03T11:17:45Z</time>
      </trkpt>
      <trkpt lat="44.3908" lon="4.07273">
        <ele>484.1</ele>
        <time>2022-03-03T11:17:50Z</time>
      </trkpt>
      <trkpt lat="44.39081" lon="4.07266">
        <ele>586.74634</ele>
        <time>2022-03-03T11:17:56Z</time>
      </trkpt>
      <trkpt lat="44.39079" lon="4.07261">
        <ele>484.2</ele>
        <time>2022-03-03T11:18:01Z</time>
      </trkpt>
      <trkpt lat="44.39077" lon="4.07254">
        <ele>587.61395</ele>
        <time>2022-03-03T11:18:06Z</time>
      </trkpt>
      <trkpt lat="44.39074" lon="4.07247">
        <ele>482.7</ele>
        <time>2022-03-03T11:18:10Z</time>
      </trkpt>
      <trkpt lat="44.39072" lon="4.07242">
        <ele>482.3</ele>
        <time>2022-03-03T11:18:14Z</time>
      </trkpt>
      <trkpt lat="44.39072" lon="4.07234">
        <ele>589.11163</ele>
        <time>2022-03-03T11:18:20Z</time>
      </trkpt>
      <trkpt lat="44.39071" lon="4.07226">
        <ele>483.9</ele>
        <time>2022-03-03T11:18:24Z</time>
      </trkpt>
      <trkpt lat="44.39071" lon="4.0722">
        <ele>485.3</ele>
        <time>2022-03-03T11:18:29Z</time>
      </trkpt>
      <trkpt lat="44.3907" lon="4.07214">
        <ele>591.0345</ele>
        <time>2022-03-03T11:18:37Z</time>
      </trkpt>
      <trkpt lat="44.39067" lon="4.07207">
        <ele>592.20355</ele>
        <time>2022-03-03T11:18:43Z</time>
      </trkpt>
      <trkpt lat="44.39066" lon="4.072">
        <ele>485.9</ele>
        <time>2022-03-03T11:18:47Z</time>
      </trkpt>
      <trkpt lat="44.39066" lon="4.07193">
        <ele>593.3266</ele>
        <time>2022-03-03T11:18:52Z</time>
      </trkpt>
      <trkpt lat="44.39066" lon="4.07187">
        <ele>489.3</ele>
        <time>2022-03-03T11:18:56Z</time>
      </trkpt>
      <trkpt lat="44.39066" lon="4.07179">
        <ele>594.056</ele>
        <time>2022-03-03T11:19:00Z</time>
      </trkpt>
      <trkpt lat="44.39066" lon="4.07172">
        <ele>492.9</ele>
        <time>2022-03-03T11:19:03Z</time>
      </trkpt>
      <trkpt lat="44.39066" lon="4.07163">
        <ele>593.98334</ele>
        <time>2022-03-03T11:19:07Z</time>
      </trkpt>
      <trkpt lat="44.39067" lon="4.07155">
        <ele>494.1</ele>
        <time>2022-03-03T11:19:11Z</time>
      </trkpt>
      <trkpt lat="44.39068" lon="4.07149">
        <ele>593.0311</ele>
        <time>2022-03-03T11:19:15Z</time>
      </trkpt>
      <trkpt lat="44.3907" lon="4.07142">
        <ele>494.4</ele>
        <time>2022-03-03T11:19:20Z</time>
      </trkpt>
      <trkpt lat="44.39072" lon="4.07136">
        <ele>495.1</ele>
        <time>2022-03-03T11:19:23Z</time>
      </trkpt>
      <trkpt lat="44.39073" lon="4.07129">
        <ele>592.4254</ele>
        <time>2022-03-03T11:19:28Z</time>
      </trkpt>
      <trkpt lat="44.39073" lon="4.07122">
        <ele>494.5</ele>
        <time>2022-03-03T11:19:32Z</time>
      </trkpt>
      <trkpt lat="44.39071" lon="4.07115">
        <ele>593.16754</ele>
        <time>2022-03-03T11:19:37Z</time>
      </trkpt>
      <trkpt lat="44.3907" lon="4.07108">
        <ele>492.1</ele>
        <time>2022-03-03T11:19:43Z</time>
      </trkpt>
      <trkpt lat="44.3907" lon="4.071">
        <ele>595.04364</ele>
        <time>2022-03-03T11:19:48Z</time>
      </trkpt>
      <trkpt lat="44.39071" lon="4.07094">
        <ele>494.7</ele>
        <time>2022-03-03T11:19:52Z</time>
      </trkpt>
      <trkpt lat="44.39073" lon="4.07086">
        <ele>596.3426</ele>
        <time>2022-03-03T11:19:56Z</time>
      </trkpt>
      <trkpt lat="44.39075" lon="4.07081">
        <ele>497.7</ele>
        <time>2022-03-03T11:19:59Z</time>
      </trkpt>
      <trkpt lat="44.39077" lon="4.07074">
        <ele>497.9</ele>
        <time>2022-03-03T11:20:03Z</time>
      </trkpt>
      <trkpt lat="44.39081" lon="4.07068">
        <ele>596.9847</ele>
        <time>2022-03-03T11:20:07Z</time>
      </trkpt>
      <trkpt lat="44.39085" lon="4.07061">
        <ele>499.3</ele>
        <time>2022-03-03T11:20:11Z</time>
      </trkpt>
      <trkpt lat="44.39087" lon="4.07056">
        <ele>499.7</ele>
        <time>2022-03-03T11:20:14Z</time>
      </trkpt>
      <trkpt lat="44.39092" lon="4.07051">
        <ele>598.07947</ele>
        <time>2022-03-03T11:20:18Z</time>
      </trkpt>
      <trkpt lat="44.39095" lon="4.07045">
        <ele>502.1</ele>
        <time>2022-03-03T11:20:21Z</time>
      </trkpt>
      <trkpt lat="44.39098" lon="4.0704">
        <ele>599.02216</ele>
        <time>2022-03-03T11:20:25Z</time>
      </trkpt>
      <trkpt lat="44.39101" lon="4.07033">
        <ele>503.3</ele>
        <time>2022-03-03T11:20:30Z</time>
      </trkpt>
      <trkpt lat="44.39105" lon="4.07028">
        <ele>600.5972</ele>
        <time>2022-03-03T11:20:35Z</time>
      </trkpt>
      <trkpt lat="44.39108" lon="4.07023">
        <ele>506.1</ele>
        <time>2022-03-03T11:20:40Z</time>
      </trkpt>
      <trkpt lat="44.3911" lon="4.07018">
        <ele>601.82776</ele>
        <time>2022-03-03T11:20:50Z</time>
      </trkpt>
      <trkpt lat="44.39112" lon="4.07015">
        <ele>602.02124</ele>
        <time>2022-03-03T11:21:00Z</time>
      </trkpt>
      <trkpt lat="44.39113" lon="4.07014">
        <ele>602.1283</ele>
        <time>2022-03-03T11:21:10Z</time>
      </trkpt>
      <trkpt lat="44.39114" lon="4.07007">
        <ele>506.9</ele>
        <time>2022-03-03T11:21:15Z</time>
      </trkpt>
      <trkpt lat="44.39112" lon="4.07">
        <ele>601.77277</ele>
        <time>2022-03-03T11:21:20Z</time>
      </trkpt>
      <trkpt lat="44.39111" lon="4.06993">
        <ele>503.1</ele>
        <time>2022-03-03T11:21:25Z</time>
      </trkpt>
      <trkpt lat="44.39112" lon="4.06986">
        <ele>502.3</ele>
        <time>2022-03-03T11:21:29Z</time>
      </trkpt>
      <trkpt lat="44.39116" lon="4.06979">
        <ele>602.1607</ele>
        <time>2022-03-03T11:21:33Z</time>
      </trkpt>
      <trkpt lat="44.39119" lon="4.06973">
        <ele>602.4789</ele>
        <time>2022-03-03T11:21:37Z</time>
      </trkpt>
      <trkpt lat="44.39122" lon="4.06968">
        <ele>504</ele>
        <time>2022-03-03T11:21:40Z</time>
      </trkpt>
      <trkpt lat="44.39125" lon="4.06963">
        <ele>504.6</ele>
        <time>2022-03-03T11:21:43Z</time>
      </trkpt>
      <trkpt lat="44.39129" lon="4.06959">
        <ele>602.92773</ele>
        <time>2022-03-03T11:21:46Z</time>
      </trkpt>
      <trkpt lat="44.39134" lon="4.06955">
        <ele>506.8</ele>
        <time>2022-03-03T11:21:49Z</time>
      </trkpt>
      <trkpt lat="44.39138" lon="4.06952">
        <ele>507.6</ele>
        <time>2022-03-03T11:21:52Z</time>
      </trkpt>
      <trkpt lat="44.39144" lon="4.06951">
        <ele>604.33905</ele>
        <time>2022-03-03T11:21:56Z</time>
      </trkpt>
      <trkpt lat="44.39148" lon="4.06949">
        <ele>511.3</ele>
        <time>2022-03-03T11:22:00Z</time>
      </trkpt>
      <trkpt lat="44.39153" lon="4.06945">
        <ele>512.5</ele>
        <time>2022-03-03T11:22:04Z</time>
      </trkpt>
      <trkpt lat="44.39151" lon="4.06937">
        <ele>605.3478</ele>
        <time>2022-03-03T11:22:10Z</time>
      </trkpt>
      <trkpt lat="44.39151" lon="4.06931">
        <ele>607.0098</ele>
        <time>2022-03-03T11:22:15Z</time>
      </trkpt>
      <trkpt lat="44.39148" lon="4.06927">
        <ele>607.388</ele>
        <time>2022-03-03T11:22:25Z</time>
      </trkpt>
      <trkpt lat="44.39148" lon="4.06927">
        <ele>607.3222</ele>
        <time>2022-03-03T11:22:35Z</time>
      </trkpt>
      <trkpt lat="44.39148" lon="4.06926">
        <ele>607.67487</ele>
        <time>2022-03-03T11:22:45Z</time>
      </trkpt>
      <trkpt lat="44.39147" lon="4.06921">
        <ele>608.6975</ele>
        <time>2022-03-03T11:22:55Z</time>
      </trkpt>
      <trkpt lat="44.39147" lon="4.06923">
        <ele>608.60614</ele>
        <time>2022-03-03T11:23:05Z</time>
      </trkpt>
      <trkpt lat="44.39144" lon="4.06916">
        <ele>508</ele>
        <time>2022-03-03T11:23:14Z</time>
      </trkpt>
      <trkpt lat="44.39144" lon="4.06909">
        <ele>609.0983</ele>
        <time>2022-03-03T11:23:19Z</time>
      </trkpt>
      <trkpt lat="44.39142" lon="4.06902">
        <ele>508.4</ele>
        <time>2022-03-03T11:23:22Z</time>
      </trkpt>
      <trkpt lat="44.39142" lon="4.06895">
        <ele>508.9</ele>
        <time>2022-03-03T11:23:25Z</time>
      </trkpt>
      <trkpt lat="44.39142" lon="4.06889">
        <ele>510.1</ele>
        <time>2022-03-03T11:23:29Z</time>
      </trkpt>
      <trkpt lat="44.39142" lon="4.06882">
        <ele>610.93646</ele>
        <time>2022-03-03T11:23:33Z</time>
      </trkpt>
      <trkpt lat="44.39143" lon="4.06876">
        <ele>512.8</ele>
        <time>2022-03-03T11:23:37Z</time>
      </trkpt>
      <trkpt lat="44.39144" lon="4.06869">
        <ele>612.15576</ele>
        <time>2022-03-03T11:23:42Z</time>
      </trkpt>
      <trkpt lat="44.39145" lon="4.06862">
        <ele>515.7</ele>
        <time>2022-03-03T11:23:46Z</time>
      </trkpt>
      <trkpt lat="44.39145" lon="4.06856">
        <ele>613.8252</ele>
        <time>2022-03-03T11:23:51Z</time>
      </trkpt>
      <trkpt lat="44.39146" lon="4.06849">
        <ele>614.68304</ele>
        <time>2022-03-03T11:24:01Z</time>
      </trkpt>
      <trkpt lat="44.39146" lon="4.06842">
        <ele>614.8894</ele>
        <time>2022-03-03T11:24:05Z</time>
      </trkpt>
      <trkpt lat="44.39145" lon="4.06835">
        <ele>518.2</ele>
        <time>2022-03-03T11:24:09Z</time>
      </trkpt>
      <trkpt lat="44.39146" lon="4.06829">
        <ele>614.4973</ele>
        <time>2022-03-03T11:24:19Z</time>
      </trkpt>
      <trkpt lat="44.39145" lon="4.06827">
        <ele>614.5042</ele>
        <time>2022-03-03T11:24:29Z</time>
      </trkpt>
      <trkpt lat="44.39145" lon="4.06821">
        <ele>614.7361</ele>
        <time>2022-03-03T11:24:37Z</time>
      </trkpt>
      <trkpt lat="44.39143" lon="4.06815">
        <ele>519.1</ele>
        <time>2022-03-03T11:24:40Z</time>
      </trkpt>
      <trkpt lat="44.3914" lon="4.06809">
        <ele>518.9</ele>
        <time>2022-03-03T11:24:43Z</time>
      </trkpt>
      <trkpt lat="44.39137" lon="4.06804">
        <ele>615.41907</ele>
        <time>2022-03-03T11:24:49Z</time>
      </trkpt>
      <trkpt lat="44.39135" lon="4.06796">
        <ele>517.6</ele>
        <time>2022-03-03T11:24:53Z</time>
      </trkpt>
      <trkpt lat="44.39136" lon="4.06789">
        <ele>615.8839</ele>
        <time>2022-03-03T11:24:57Z</time>
      </trkpt>
      <trkpt lat="44.39141" lon="4.06784">
        <ele>519.3</ele>
        <time>2022-03-03T11:25:01Z</time>
      </trkpt>
      <trkpt lat="44.39145" lon="4.06786">
        <ele>615.6618</ele>
        <time>2022-03-03T11:25:09Z</time>
      </trkpt>
      <trkpt lat="44.3915" lon="4.06789">
        <ele>520.9</ele>
        <time>2022-03-03T11:25:13Z</time>
      </trkpt>
      <trkpt lat="44.39154" lon="4.06793">
        <ele>617.1556</ele>
        <time>2022-03-03T11:25:18Z</time>
      </trkpt>
      <trkpt lat="44.39158" lon="4.06798">
        <ele>523</ele>
        <time>2022-03-03T11:25:22Z</time>
      </trkpt>
      <trkpt lat="44.39159" lon="4.06796">
        <ele>619.24506</ele>
        <time>2022-03-03T11:25:32Z</time>
      </trkpt>
      <trkpt lat="44.39162" lon="4.068">
        <ele>619.89374</ele>
        <time>2022-03-03T11:25:42Z</time>
      </trkpt>
      <trkpt lat="44.39166" lon="4.06805">
        <ele>620.90027</ele>
        <time>2022-03-03T11:25:46Z</time>
      </trkpt>
      <trkpt lat="44.39171" lon="4.06805">
        <ele>526.5</ele>
        <time>2022-03-03T11:25:49Z</time>
      </trkpt>
      <trkpt lat="44.39176" lon="4.06806">
        <ele>527.4</ele>
        <time>2022-03-03T11:25:53Z</time>
      </trkpt>
      <trkpt lat="44.3918" lon="4.06809">
        <ele>528.3</ele>
        <time>2022-03-03T11:25:57Z</time>
      </trkpt>
      <trkpt lat="44.39183" lon="4.06814">
        <ele>623.41284</ele>
        <time>2022-03-03T11:26:01Z</time>
      </trkpt>
      <trkpt lat="44.39187" lon="4.0682">
        <ele>530.8</ele>
        <time>2022-03-03T11:26:06Z</time>
      </trkpt>
      <trkpt lat="44.3919" lon="4.06826">
        <ele>625.42035</ele>
        <time>2022-03-03T11:26:12Z</time>
      </trkpt>
      <trkpt lat="44.3919" lon="4.06832">
        <ele>533.5</ele>
        <time>2022-03-03T11:26:17Z</time>
      </trkpt>
      <trkpt lat="44.39192" lon="4.0684">
        <ele>627.96686</ele>
        <time>2022-03-03T11:26:24Z</time>
      </trkpt>
      <trkpt lat="44.39195" lon="4.06846">
        <ele>535.8</ele>
        <time>2022-03-03T11:26:29Z</time>
      </trkpt>
      <trkpt lat="44.39196" lon="4.06853">
        <ele>630.9788</ele>
        <time>2022-03-03T11:26:36Z</time>
      </trkpt>
      <trkpt lat="44.39199" lon="4.0686">
        <ele>537.7</ele>
        <time>2022-03-03T11:26:41Z</time>
      </trkpt>
      <trkpt lat="44.39201" lon="4.06867">
        <ele>632.62805</ele>
        <time>2022-03-03T11:26:46Z</time>
      </trkpt>
      <trkpt lat="44.39201" lon="4.06874">
        <ele>539.6</ele>
        <time>2022-03-03T11:26:51Z</time>
      </trkpt>
      <trkpt lat="44.39203" lon="4.0688">
        <ele>634.2951</ele>
        <time>2022-03-03T11:26:58Z</time>
      </trkpt>
      <trkpt lat="44.39202" lon="4.06882">
        <ele>635.04755</ele>
        <time>2022-03-03T11:27:08Z</time>
      </trkpt>
      <trkpt lat="44.39203" lon="4.06887">
        <ele>635.1046</ele>
        <time>2022-03-03T11:27:18Z</time>
      </trkpt>
      <trkpt lat="44.39203" lon="4.06893">
        <ele>541.7</ele>
        <time>2022-03-03T11:27:23Z</time>
      </trkpt>
      <trkpt lat="44.39206" lon="4.06898">
        <ele>635.8826</ele>
        <time>2022-03-03T11:27:33Z</time>
      </trkpt>
      <trkpt lat="44.39207" lon="4.06906">
        <ele>636.2712</ele>
        <time>2022-03-03T11:27:37Z</time>
      </trkpt>
      <trkpt lat="44.39208" lon="4.06912">
        <ele>543.4</ele>
        <time>2022-03-03T11:27:41Z</time>
      </trkpt>
      <trkpt lat="44.39209" lon="4.06918">
        <ele>637.3778</ele>
        <time>2022-03-03T11:27:46Z</time>
      </trkpt>
      <trkpt lat="44.39212" lon="4.06926">
        <ele>545</ele>
        <time>2022-03-03T11:27:51Z</time>
      </trkpt>
      <trkpt lat="44.39214" lon="4.06932">
        <ele>638.44025</ele>
        <time>2022-03-03T11:27:56Z</time>
      </trkpt>
      <trkpt lat="44.39214" lon="4.06938">
        <ele>545.8</ele>
        <time>2022-03-03T11:28:00Z</time>
      </trkpt>
      <trkpt lat="44.39213" lon="4.06946">
        <ele>639.40826</ele>
        <time>2022-03-03T11:28:05Z</time>
      </trkpt>
      <trkpt lat="44.39214" lon="4.06952">
        <ele>545.9</ele>
        <time>2022-03-03T11:28:09Z</time>
      </trkpt>
      <trkpt lat="44.39215" lon="4.06959">
        <ele>546.3</ele>
        <time>2022-03-03T11:28:13Z</time>
      </trkpt>
      <trkpt lat="44.39216" lon="4.06966">
        <ele>547.4</ele>
        <time>2022-03-03T11:28:17Z</time>
      </trkpt>
      <trkpt lat="44.39217" lon="4.06973">
        <ele>641.6524</ele>
        <time>2022-03-03T11:28:21Z</time>
      </trkpt>
      <trkpt lat="44.39217" lon="4.06981">
        <ele>548.6</ele>
        <time>2022-03-03T11:28:26Z</time>
      </trkpt>
      <trkpt lat="44.39219" lon="4.06988">
        <ele>643.3861</ele>
        <time>2022-03-03T11:28:30Z</time>
      </trkpt>
      <trkpt lat="44.3922" lon="4.06994">
        <ele>550.7</ele>
        <time>2022-03-03T11:28:35Z</time>
      </trkpt>
      <trkpt lat="44.39219" lon="4.07001">
        <ele>644.46655</ele>
        <time>2022-03-03T11:28:41Z</time>
      </trkpt>
      <trkpt lat="44.39218" lon="4.07007">
        <ele>552.2</ele>
        <time>2022-03-03T11:28:45Z</time>
      </trkpt>
      <trkpt lat="44.39218" lon="4.07014">
        <ele>553.8</ele>
        <time>2022-03-03T11:28:49Z</time>
      </trkpt>
      <trkpt lat="44.3922" lon="4.07013">
        <ele>646.41797</ele>
        <time>2022-03-03T11:28:59Z</time>
      </trkpt>
      <trkpt lat="44.39222" lon="4.07021">
        <ele>649.37146</ele>
        <time>2022-03-03T11:29:09Z</time>
      </trkpt>
      <trkpt lat="44.39221" lon="4.07027">
        <ele>558.5</ele>
        <time>2022-03-03T11:29:13Z</time>
      </trkpt>
      <trkpt lat="44.39218" lon="4.07033">
        <ele>651.4375</ele>
        <time>2022-03-03T11:29:19Z</time>
      </trkpt>
      <trkpt lat="44.39216" lon="4.0704">
        <ele>653.55194</ele>
        <time>2022-03-03T11:29:25Z</time>
      </trkpt>
      <trkpt lat="44.39214" lon="4.07048">
        <ele>563.1</ele>
        <time>2022-03-03T11:29:31Z</time>
      </trkpt>
      <trkpt lat="44.39212" lon="4.07053">
        <ele>655.1636</ele>
        <time>2022-03-03T11:29:39Z</time>
      </trkpt>
      <trkpt lat="44.39212" lon="4.07061">
        <ele>566.3</ele>
        <time>2022-03-03T11:29:44Z</time>
      </trkpt>
      <trkpt lat="44.39211" lon="4.07067">
        <ele>656.8304</ele>
        <time>2022-03-03T11:29:49Z</time>
      </trkpt>
      <trkpt lat="44.39208" lon="4.07073">
        <ele>659.163</ele>
        <time>2022-03-03T11:29:55Z</time>
      </trkpt>
      <trkpt lat="44.39206" lon="4.07079">
        <ele>568.8</ele>
        <time>2022-03-03T11:30:00Z</time>
      </trkpt>
      <trkpt lat="44.39206" lon="4.07086">
        <ele>661.2841</ele>
        <time>2022-03-03T11:30:05Z</time>
      </trkpt>
      <trkpt lat="44.39204" lon="4.07092">
        <ele>663.51874</ele>
        <time>2022-03-03T11:30:15Z</time>
      </trkpt>
      <trkpt lat="44.39207" lon="4.07095">
        <ele>665.16064</ele>
        <time>2022-03-03T11:30:25Z</time>
      </trkpt>
      <trkpt lat="44.39204" lon="4.07102">
        <ele>573.8</ele>
        <time>2022-03-03T11:30:31Z</time>
      </trkpt>
      <trkpt lat="44.39203" lon="4.0711">
        <ele>667.3217</ele>
        <time>2022-03-03T11:30:40Z</time>
      </trkpt>
      <trkpt lat="44.39203" lon="4.07117">
        <ele>669.1422</ele>
        <time>2022-03-03T11:30:49Z</time>
      </trkpt>
      <trkpt lat="44.39204" lon="4.07124">
        <ele>576.9</ele>
        <time>2022-03-03T11:30:56Z</time>
      </trkpt>
      <trkpt lat="44.39206" lon="4.0713">
        <ele>672.25256</ele>
        <time>2022-03-03T11:31:01Z</time>
      </trkpt>
      <trkpt lat="44.3921" lon="4.07134">
        <ele>580.9</ele>
        <time>2022-03-03T11:31:09Z</time>
      </trkpt>
      <trkpt lat="44.39214" lon="4.0714">
        <ele>674.0469</ele>
        <time>2022-03-03T11:31:13Z</time>
      </trkpt>
      <trkpt lat="44.39217" lon="4.07144">
        <ele>675.92505</ele>
        <time>2022-03-03T11:31:22Z</time>
      </trkpt>
      <trkpt lat="44.39221" lon="4.0715">
        <ele>585.8</ele>
        <time>2022-03-03T11:31:28Z</time>
      </trkpt>
      <trkpt lat="44.39225" lon="4.07154">
        <ele>677.77185</ele>
        <time>2022-03-03T11:31:33Z</time>
      </trkpt>
      <trkpt lat="44.39228" lon="4.07159">
        <ele>678.651</ele>
        <time>2022-03-03T11:31:38Z</time>
      </trkpt>
      <trkpt lat="44.39231" lon="4.07165">
        <ele>680.3364</ele>
        <time>2022-03-03T11:31:45Z</time>
      </trkpt>
      <trkpt lat="44.39234" lon="4.07171">
        <ele>591.1</ele>
        <time>2022-03-03T11:31:50Z</time>
      </trkpt>
      <trkpt lat="44.39235" lon="4.07179">
        <ele>681.89185</ele>
        <time>2022-03-03T11:31:55Z</time>
      </trkpt>
      <trkpt lat="44.39236" lon="4.07186">
        <ele>593.5</ele>
        <time>2022-03-03T11:32:00Z</time>
      </trkpt>
      <trkpt lat="44.39237" lon="4.07193">
        <ele>683.9551</ele>
        <time>2022-03-03T11:32:08Z</time>
      </trkpt>
      <trkpt lat="44.39238" lon="4.07199">
        <ele>595.5</ele>
        <time>2022-03-03T11:32:13Z</time>
      </trkpt>
      <trkpt lat="44.39239" lon="4.07206">
        <ele>685.66754</ele>
        <time>2022-03-03T11:32:18Z</time>
      </trkpt>
      <trkpt lat="44.3924" lon="4.07212">
        <ele>596.1</ele>
        <time>2022-03-03T11:32:23Z</time>
      </trkpt>
      <trkpt lat="44.39241" lon="4.07219">
        <ele>687.04486</ele>
        <time>2022-03-03T11:32:28Z</time>
      </trkpt>
      <trkpt lat="44.39241" lon="4.07226">
        <ele>596.7</ele>
        <time>2022-03-03T11:32:32Z</time>
      </trkpt>
      <trkpt lat="44.39244" lon="4.07232">
        <ele>688.1985</ele>
        <time>2022-03-03T11:32:38Z</time>
      </trkpt>
      <trkpt lat="44.39246" lon="4.07238">
        <ele>599.1</ele>
        <time>2022-03-03T11:32:44Z</time>
      </trkpt>
      <trkpt lat="44.39248" lon="4.07244">
        <ele>690.10455</ele>
        <time>2022-03-03T11:32:49Z</time>
      </trkpt>
      <trkpt lat="44.39249" lon="4.0725">
        <ele>692.00977</ele>
        <time>2022-03-03T11:32:56Z</time>
      </trkpt>
      <trkpt lat="44.39252" lon="4.07256">
        <ele>601.8</ele>
        <time>2022-03-03T11:33:02Z</time>
      </trkpt>
      <trkpt lat="44.39254" lon="4.07262">
        <ele>694.2387</ele>
        <time>2022-03-03T11:33:07Z</time>
      </trkpt>
      <trkpt lat="44.39257" lon="4.0727">
        <ele>604</ele>
        <time>2022-03-03T11:33:13Z</time>
      </trkpt>
      <trkpt lat="44.39258" lon="4.07276">
        <ele>604.6</ele>
        <time>2022-03-03T11:33:19Z</time>
      </trkpt>
      <trkpt lat="44.39261" lon="4.07283">
        <ele>696.70264</ele>
        <time>2022-03-03T11:33:26Z</time>
      </trkpt>
      <trkpt lat="44.39263" lon="4.07289">
        <ele>698.88367</ele>
        <time>2022-03-03T11:33:30Z</time>
      </trkpt>
      <trkpt lat="44.39267" lon="4.07293">
        <ele>605.1</ele>
        <time>2022-03-03T11:33:36Z</time>
      </trkpt>
      <trkpt lat="44.39271" lon="4.07296">
        <ele>699.90375</ele>
        <time>2022-03-03T11:33:42Z</time>
      </trkpt>
      <trkpt lat="44.39276" lon="4.07297">
        <ele>606.3</ele>
        <time>2022-03-03T11:33:49Z</time>
      </trkpt>
      <trkpt lat="44.3928" lon="4.07294">
        <ele>701.3629</ele>
        <time>2022-03-03T11:33:59Z</time>
      </trkpt>
      <trkpt lat="44.39282" lon="4.07295">
        <ele>702.8054</ele>
        <time>2022-03-03T11:34:09Z</time>
      </trkpt>
      <trkpt lat="44.39281" lon="4.07295">
        <ele>705.068</ele>
        <time>2022-03-03T11:34:19Z</time>
      </trkpt>
      <trkpt lat="44.3928" lon="4.07295">
        <ele>703.4487</ele>
        <time>2022-03-03T11:34:29Z</time>
      </trkpt>
      <trkpt lat="44.39278" lon="4.07295">
        <ele>702.6544</ele>
        <time>2022-03-03T11:34:39Z</time>
      </trkpt>
      <trkpt lat="44.39279" lon="4.07295">
        <ele>702.7778</ele>
        <time>2022-03-03T11:34:49Z</time>
      </trkpt>
      <trkpt lat="44.3928" lon="4.07295">
        <ele>702.7156</ele>
        <time>2022-03-03T11:34:59Z</time>
      </trkpt>
      <trkpt lat="44.3928" lon="4.07294">
        <ele>702.8093</ele>
        <time>2022-03-03T11:35:09Z</time>
      </trkpt>
      <trkpt lat="44.3928" lon="4.07295">
        <ele>703.2563</ele>
        <time>2022-03-03T11:35:19Z</time>
        <extensions>
          <gpxtpx:TrackPointExtension xmlns:gpxtpx="http://www.garmin.com/xmlschemas/TrackPointExtension/v1">
            <gpxtpx:hr>141</gpxtpx:hr>
          </gpxtpx:TrackPointExtension>
        </extensions>
      </trkpt>
      <trkpt lat="44.39279" lon="4.07295">
        <ele>703.1497</ele>
        <time>2022-03-03T11:35:29Z</time>
      </trkpt>
      <trkpt lat="44.39279" lon="4.07295">
        <ele>702.9978</ele>
        <time>2022-03-03T11:35:39Z</time>
      </trkpt>
      <trkpt lat="44.39278" lon="4.07295">
        <ele>607.3</ele>
        <time>2022-03-03T11:35:49Z</time>
      </trkpt>
      <trkpt lat="44.39278" lon="4.07296">
        <ele>702.985</ele>
        <time>2022-03-03T11:35:59Z</time>
      </trkpt>
      <trkpt lat="44.39278" lon="4.07296">
        <ele>703.0649</ele>
        <time>2022-03-03T11:36:09Z</time>
      </trkpt>
      <trkpt lat="44.39278" lon="4.07296">
        <ele>703.11523</ele>
        <time>2022-03-03T11:36:19Z</time>
      </trkpt>
      <trkpt lat="44.39278" lon="4.07297">
        <ele>703.129</ele>
        <time>2022-03-03T11:36:29Z</time>
      </trkpt>
      <trkpt lat="44.39279" lon="4.07297">
        <ele>703.1902</ele>
        <time>2022-03-03T11:36:39Z</time>
      </trkpt>
      <trkpt lat="44.39281" lon="4.07298">
        <ele>703.0975</ele>
        <time>2022-03-03T11:36:49Z</time>
      </trkpt>
      <trkpt lat="44.3928" lon="4.07297">
        <ele>703.28296</ele>
        <time>2022-03-03T11:36:59Z</time>
      </trkpt>
      <trkpt lat="44.39278" lon="4.07297">
        <ele>703.1083</ele>
        <time>2022-03-03T11:37:09Z</time>
      </trkpt>
      <trkpt lat="44.39278" lon="4.07296">
        <ele>703.054</ele>
        <time>2022-03-03T11:37:19Z</time>
      </trkpt>
      <trkpt lat="44.39278" lon="4.07296">
        <ele>703.1596</ele>
        <time>2022-03-03T11:37:29Z</time>
      </trkpt>
      <trkpt lat="44.3928" lon="4.07296">
        <ele>702.9751</ele>
        <time>2022-03-03T11:37:39Z</time>
      </trkpt>
      <trkpt lat="44.39286" lon="4.07299">
        <ele>703.0353</ele>
        <time>2022-03-03T11:37:45Z</time>
      </trkpt>
      <trkpt lat="44.3929" lon="4.07303">
        <ele>605</ele>
        <time>2022-03-03T11:37:49Z</time>
      </trkpt>
      <trkpt lat="44.39295" lon="4.073">
        <ele>605.9</ele>
        <time>2022-03-03T11:37:53Z</time>
      </trkpt>
      <trkpt lat="44.393" lon="4.07297">
        <ele>703.2593</ele>
        <time>2022-03-03T11:37:58Z</time>
      </trkpt>
      <trkpt lat="44.39305" lon="4.07295">
        <ele>608.2</ele>
        <time>2022-03-03T11:38:03Z</time>
      </trkpt>
      <trkpt lat="44.39309" lon="4.07293">
        <ele>703.5651</ele>
        <time>2022-03-03T11:38:12Z</time>
      </trkpt>
      <trkpt lat="44.39314" lon="4.07291">
        <ele>703.8483</ele>
        <time>2022-03-03T11:38:17Z</time>
      </trkpt>
      <trkpt lat="44.39319" lon="4.07288">
        <ele>610.7</ele>
        <time>2022-03-03T11:38:21Z</time>
      </trkpt>
      <trkpt lat="44.39324" lon="4.07287">
        <ele>611.3</ele>
        <time>2022-03-03T11:38:25Z</time>
      </trkpt>
      <trkpt lat="44.39328" lon="4.07286">
        <ele>611.5</ele>
        <time>2022-03-03T11:38:29Z</time>
      </trkpt>
      <trkpt lat="44.39334" lon="4.07288">
        <ele>704.32495</ele>
        <time>2022-03-03T11:38:33Z</time>
      </trkpt>
      <trkpt lat="44.39338" lon="4.07289">
        <ele>610.4</ele>
        <time>2022-03-03T11:38:36Z</time>
      </trkpt>
      <trkpt lat="44.39343" lon="4.0729">
        <ele>704.5815</ele>
        <time>2022-03-03T11:38:40Z</time>
      </trkpt>
      <trkpt lat="44.39348" lon="4.0729">
        <ele>610.3</ele>
        <time>2022-03-03T11:38:45Z</time>
      </trkpt>
      <trkpt lat="44.39353" lon="4.0729">
        <ele>610.5</ele>
        <time>2022-03-03T11:38:49Z</time>
      </trkpt>
      <trkpt lat="44.39358" lon="4.07289">
        <ele>705.1726</ele>
        <time>2022-03-03T11:38:53Z</time>
      </trkpt>
      <trkpt lat="44.39364" lon="4.0729">
        <ele>610.8</ele>
        <time>2022-03-03T11:38:58Z</time>
      </trkpt>
      <trkpt lat="44.39369" lon="4.07288">
        <ele>705.55347</ele>
        <time>2022-03-03T11:39:03Z</time>
      </trkpt>
      <trkpt lat="44.39375" lon="4.07289">
        <ele>705.74396</ele>
        <time>2022-03-03T11:39:07Z</time>
      </trkpt>
      <trkpt lat="44.3938" lon="4.07287">
        <ele>611.4</ele>
        <time>2022-03-03T11:39:13Z</time>
      </trkpt>
      <trkpt lat="44.39385" lon="4.07285">
        <ele>706.08636</ele>
        <time>2022-03-03T11:39:20Z</time>
      </trkpt>
      <trkpt lat="44.3939" lon="4.07287">
        <ele>611.4</ele>
        <time>2022-03-03T11:39:24Z</time>
      </trkpt>
      <trkpt lat="44.39395" lon="4.07287">
        <ele>706.47815</ele>
        <time>2022-03-03T11:39:29Z</time>
      </trkpt>
      <trkpt lat="44.39399" lon="4.07288">
        <ele>612.4</ele>
        <time>2022-03-03T11:39:33Z</time>
      </trkpt>
      <trkpt lat="44.39405" lon="4.07291">
        <ele>706.7762</ele>
        <time>2022-03-03T11:39:37Z</time>
      </trkpt>
      <trkpt lat="44.3941" lon="4.07293">
        <ele>612.8</ele>
        <time>2022-03-03T11:39:40Z</time>
      </trkpt>
      <trkpt lat="44.39415" lon="4.07294">
        <ele>613.1</ele>
        <time>2022-03-03T11:39:44Z</time>
        <extensions>
          <gpxtpx:TrackPointExtension xmlns:gpxtpx="http://www.garmin.com/xmlschemas/TrackPointExtension/v1">
            <gpxtpx:hr>126</gpxtpx:hr>
          </gpxtpx:TrackPointExtension>
        </extensions>
      </trkpt>
      <trkpt lat="44.3942" lon="4.07296">
        <ele>707.2222</ele>
        <time>2022-03-03T11:39:48Z</time>
      </trkpt>
      <trkpt lat="44.39425" lon="4.07298">
        <ele>614</ele>
        <time>2022-03-03T11:39:52Z</time>
      </trkpt>
      <trkpt lat="44.3943" lon="4.07301">
        <ele>707.7098</ele>
        <time>2022-03-03T11:39:56Z</time>
      </trkpt>
      <trkpt lat="44.39434" lon="4.07306">
        <ele>613.2</ele>
        <time>2022-03-03T11:40:00Z</time>
      </trkpt>
      <trkpt lat="44.39439" lon="4.07309">
        <ele>613.2</ele>
        <time>2022-03-03T11:40:04Z</time>
      </trkpt>
      <trkpt lat="44.39443" lon="4.07312">
        <ele>708.07294</ele>
        <time>2022-03-03T11:40:07Z</time>
      </trkpt>
      <trkpt lat="44.39448" lon="4.07315">
        <ele>613.5</ele>
        <time>2022-03-03T11:40:11Z</time>
      </trkpt>
      <trkpt lat="44.39453" lon="4.07319">
        <ele>708.36414</ele>
        <time>2022-03-03T11:40:15Z</time>
      </trkpt>
      <trkpt lat="44.39457" lon="4.07322">
        <ele>614.5</ele>
        <time>2022-03-03T11:40:20Z</time>
      </trkpt>
      <trkpt lat="44.39462" lon="4.07325">
        <ele>615.1</ele>
        <time>2022-03-03T11:40:23Z</time>
      </trkpt>
      <trkpt lat="44.39467" lon="4.0733">
        <ele>709.0352</ele>
        <time>2022-03-03T11:40:28Z</time>
      </trkpt>
      <trkpt lat="44.39471" lon="4.07333">
        <ele>615.8</ele>
        <time>2022-03-03T11:40:32Z</time>
      </trkpt>
      <trkpt lat="44.39476" lon="4.07336">
        <ele>709.5919</ele>
        <time>2022-03-03T11:40:35Z</time>
      </trkpt>
      <trkpt lat="44.3948" lon="4.07339">
        <ele>617.1</ele>
        <time>2022-03-03T11:40:38Z</time>
      </trkpt>
      <trkpt lat="44.39484" lon="4.07344">
        <ele>616.9</ele>
        <time>2022-03-03T11:40:42Z</time>
      </trkpt>
      <trkpt lat="44.39488" lon="4.07348">
        <ele>709.92554</ele>
        <time>2022-03-03T11:40:47Z</time>
      </trkpt>
      <trkpt lat="44.39491" lon="4.07352">
        <ele>616.9</ele>
        <time>2022-03-03T11:40:51Z</time>
      </trkpt>
      <trkpt lat="44.39496" lon="4.07355">
        <ele>617</ele>
        <time>2022-03-03T11:40:55Z</time>
      </trkpt>
      <trkpt lat="44.395" lon="4.0736">
        <ele>710.1308</ele>
        <time>2022-03-03T11:41:00Z</time>
      </trkpt>
      <trkpt lat="44.39504" lon="4.07365">
        <ele>616</ele>
        <time>2022-03-03T11:41:04Z</time>
      </trkpt>
      <trkpt lat="44.39508" lon="4.0737">
        <ele>615.8</ele>
        <time>2022-03-03T11:41:09Z</time>
      </trkpt>
      <trkpt lat="44.39513" lon="4.07372">
        <ele>710.2483</ele>
        <time>2022-03-03T11:41:12Z</time>
      </trkpt>
      <trkpt lat="44.39518" lon="4.07373">
        <ele>616.4</ele>
        <time>2022-03-03T11:41:15Z</time>
      </trkpt>
      <trkpt lat="44.39523" lon="4.07376">
        <ele>616.6</ele>
        <time>2022-03-03T11:41:19Z</time>
      </trkpt>
      <trkpt lat="44.39529" lon="4.07377">
        <ele>710.30945</ele>
        <time>2022-03-03T11:41:24Z</time>
      </trkpt>
      <trkpt lat="44.39533" lon="4.07378">
        <ele>616.9</ele>
        <time>2022-03-03T11:41:28Z</time>
      </trkpt>
      <trkpt lat="44.39539" lon="4.07379">
        <ele>710.40125</ele>
        <time>2022-03-03T11:41:32Z</time>
      </trkpt>
      <trkpt lat="44.39543" lon="4.07378">
        <ele>710.59766</ele>
        <time>2022-03-03T11:41:35Z</time>
      </trkpt>
      <trkpt lat="44.39549" lon="4.07377">
        <ele>617.2</ele>
        <time>2022-03-03T11:41:39Z</time>
      </trkpt>
      <trkpt lat="44.39555" lon="4.07376">
        <ele>617.5</ele>
        <time>2022-03-03T11:41:43Z</time>
      </trkpt>
      <trkpt lat="44.3956" lon="4.07377">
        <ele>710.8701</ele>
        <time>2022-03-03T11:41:47Z</time>
      </trkpt>
      <trkpt lat="44.39565" lon="4.07376">
        <ele>619.1</ele>
        <time>2022-03-03T11:41:50Z</time>
      </trkpt>
      <trkpt lat="44.39571" lon="4.07377">
        <ele>619.6</ele>
        <time>2022-03-03T11:41:53Z</time>
      </trkpt>
      <trkpt lat="44.39576" lon="4.07377">
        <ele>711.1208</ele>
        <time>2022-03-03T11:41:56Z</time>
      </trkpt>
      <trkpt lat="44.39579" lon="4.07379">
        <ele>619.8</ele>
        <time>2022-03-03T11:42:00Z</time>
      </trkpt>
      <trkpt lat="44.39585" lon="4.07381">
        <ele>620</ele>
        <time>2022-03-03T11:42:03Z</time>
      </trkpt>
      <trkpt lat="44.39589" lon="4.07384">
        <ele>711.53046</ele>
        <time>2022-03-03T11:42:07Z</time>
      </trkpt>
      <trkpt lat="44.39594" lon="4.07387">
        <ele>620</ele>
        <time>2022-03-03T11:42:11Z</time>
      </trkpt>
      <trkpt lat="44.39599" lon="4.07389">
        <ele>620.1</ele>
        <time>2022-03-03T11:42:14Z</time>
      </trkpt>
      <trkpt lat="44.39603" lon="4.07391">
        <ele>712.22437</ele>
        <time>2022-03-03T11:42:17Z</time>
      </trkpt>
      <trkpt lat="44.39608" lon="4.07394">
        <ele>620.8</ele>
        <time>2022-03-03T11:42:21Z</time>
      </trkpt>
      <trkpt lat="44.39613" lon="4.07396">
        <ele>712.5403</ele>
        <time>2022-03-03T11:42:25Z</time>
      </trkpt>
      <trkpt lat="44.39618" lon="4.07399">
        <ele>622.3</ele>
        <time>2022-03-03T11:42:28Z</time>
      </trkpt>
      <trkpt lat="44.39623" lon="4.07403">
        <ele>623.1</ele>
        <time>2022-03-03T11:42:33Z</time>
      </trkpt>
      <trkpt lat="44.39628" lon="4.07406">
        <ele>712.92426</ele>
        <time>2022-03-03T11:42:36Z</time>
      </trkpt>
      <trkpt lat="44.39632" lon="4.0741">
        <ele>624.2</ele>
        <time>2022-03-03T11:42:40Z</time>
      </trkpt>
      <trkpt lat="44.39636" lon="4.07414">
        <ele>713.43756</ele>
        <time>2022-03-03T11:42:47Z</time>
      </trkpt>
      <trkpt lat="44.3964" lon="4.07418">
        <ele>624.7</ele>
        <time>2022-03-03T11:42:51Z</time>
      </trkpt>
      <trkpt lat="44.39643" lon="4.07423">
        <ele>713.8542</ele>
        <time>2022-03-03T11:42:55Z</time>
      </trkpt>
      <trkpt lat="44.39647" lon="4.07428">
        <ele>622.7</ele>
        <time>2022-03-03T11:43:02Z</time>
      </trkpt>
      <trkpt lat="44.3965" lon="4.07432">
        <ele>713.86304</ele>
        <time>2022-03-03T11:43:07Z</time>
      </trkpt>
      <trkpt lat="44.39654" lon="4.07435">
        <ele>622.1</ele>
        <time>2022-03-03T11:43:12Z</time>
      </trkpt>
      <trkpt lat="44.39658" lon="4.07438">
        <ele>713.49384</ele>
        <time>2022-03-03T11:43:16Z</time>
      </trkpt>
      <trkpt lat="44.39661" lon="4.07444">
        <ele>621.2</ele>
        <time>2022-03-03T11:43:20Z</time>
      </trkpt>
      <trkpt lat="44.39659" lon="4.07446">
        <ele>713.636</ele>
        <time>2022-03-03T11:43:30Z</time>
      </trkpt>
      <trkpt lat="44.3966" lon="4.07447">
        <ele>713.8285</ele>
        <time>2022-03-03T11:43:40Z</time>
      </trkpt>
      <trkpt lat="44.39664" lon="4.07452">
        <ele>715.5848</ele>
        <time>2022-03-03T11:43:50Z</time>
      </trkpt>
      <trkpt lat="44.39666" lon="4.07459">
        <ele>622.2</ele>
        <time>2022-03-03T11:43:54Z</time>
      </trkpt>
      <trkpt lat="44.39666" lon="4.07466">
        <ele>622.1</ele>
        <time>2022-03-03T11:43:58Z</time>
      </trkpt>
      <trkpt lat="44.39668" lon="4.07473">
        <ele>716.9581</ele>
        <time>2022-03-03T11:44:04Z</time>
      </trkpt>
      <trkpt lat="44.39665" lon="4.0748">
        <ele>718.0166</ele>
        <time>2022-03-03T11:44:09Z</time>
      </trkpt>
      <trkpt lat="44.39664" lon="4.07487">
        <ele>719.84235</ele>
        <time>2022-03-03T11:44:18Z</time>
      </trkpt>
      <trkpt lat="44.39661" lon="4.07493">
        <ele>626.9</ele>
        <time>2022-03-03T11:44:23Z</time>
      </trkpt>
      <trkpt lat="44.39657" lon="4.075">
        <ele>721.1853</ele>
        <time>2022-03-03T11:44:28Z</time>
      </trkpt>
      <trkpt lat="44.39654" lon="4.07506">
        <ele>628.7</ele>
        <time>2022-03-03T11:44:33Z</time>
      </trkpt>
      <trkpt lat="44.3965" lon="4.07512">
        <ele>721.9112</ele>
        <time>2022-03-03T11:44:38Z</time>
      </trkpt>
      <trkpt lat="44.39646" lon="4.07517">
        <ele>629.1</ele>
        <time>2022-03-03T11:44:42Z</time>
      </trkpt>
      <trkpt lat="44.39642" lon="4.07522">
        <ele>723.0449</ele>
        <time>2022-03-03T11:44:46Z</time>
      </trkpt>
      <trkpt lat="44.3964" lon="4.07527">
        <ele>629.1</ele>
        <time>2022-03-03T11:44:50Z</time>
      </trkpt>
      <trkpt lat="44.39636" lon="4.07533">
        <ele>723.5002</ele>
        <time>2022-03-03T11:44:55Z</time>
      </trkpt>
      <trkpt lat="44.39634" lon="4.07539">
        <ele>628.4</ele>
        <time>2022-03-03T11:44:59Z</time>
      </trkpt>
      <trkpt lat="44.39632" lon="4.07545">
        <ele>724.2844</ele>
        <time>2022-03-03T11:45:06Z</time>
      </trkpt>
      <trkpt lat="44.39632" lon="4.07552">
        <ele>629.1</ele>
        <time>2022-03-03T11:45:11Z</time>
      </trkpt>
      <trkpt lat="44.39632" lon="4.0756">
        <ele>725.2247</ele>
        <time>2022-03-03T11:45:18Z</time>
      </trkpt>
      <trkpt lat="44.39633" lon="4.07568">
        <ele>632.5</ele>
        <time>2022-03-03T11:45:22Z</time>
      </trkpt>
      <trkpt lat="44.39633" lon="4.07575">
        <ele>726.98883</ele>
        <time>2022-03-03T11:45:25Z</time>
      </trkpt>
      <trkpt lat="44.39631" lon="4.07581">
        <ele>634.2</ele>
        <time>2022-03-03T11:45:29Z</time>
      </trkpt>
      <trkpt lat="44.39628" lon="4.07586">
        <ele>634.3</ele>
        <time>2022-03-03T11:45:32Z</time>
      </trkpt>
      <trkpt lat="44.39625" lon="4.07592">
        <ele>728.2414</ele>
        <time>2022-03-03T11:45:36Z</time>
      </trkpt>
      <trkpt lat="44.39622" lon="4.07598">
        <ele>634.5</ele>
        <time>2022-03-03T11:45:41Z</time>
      </trkpt>
      <trkpt lat="44.3962" lon="4.07604">
        <ele>729.1176</ele>
        <time>2022-03-03T11:45:45Z</time>
      </trkpt>
      <trkpt lat="44.39619" lon="4.07611">
        <ele>636.2</ele>
        <time>2022-03-03T11:45:51Z</time>
      </trkpt>
      <trkpt lat="44.39617" lon="4.07618">
        <ele>637.2</ele>
        <time>2022-03-03T11:45:55Z</time>
      </trkpt>
      <trkpt lat="44.39616" lon="4.07624">
        <ele>638.4</ele>
        <time>2022-03-03T11:45:58Z</time>
      </trkpt>
      <trkpt lat="44.39613" lon="4.0763">
        <ele>730.58563</ele>
        <time>2022-03-03T11:46:06Z</time>
      </trkpt>
      <trkpt lat="44.39609" lon="4.07633">
        <ele>731.4531</ele>
        <time>2022-03-03T11:46:10Z</time>
      </trkpt>
      <trkpt lat="44.39606" lon="4.07639">
        <ele>639</ele>
        <time>2022-03-03T11:46:16Z</time>
      </trkpt>
      <trkpt lat="44.39602" lon="4.07644">
        <ele>732.10913</ele>
        <time>2022-03-03T11:46:22Z</time>
      </trkpt>
      <trkpt lat="44.396" lon="4.0765">
        <ele>639.1</ele>
        <time>2022-03-03T11:46:25Z</time>
      </trkpt>
      <trkpt lat="44.39597" lon="4.07656">
        <ele>639.6</ele>
        <time>2022-03-03T11:46:29Z</time>
      </trkpt>
      <trkpt lat="44.39594" lon="4.07661">
        <ele>732.1625</ele>
        <time>2022-03-03T11:46:33Z</time>
      </trkpt>
      <trkpt lat="44.3959" lon="4.07666">
        <ele>732.1625</ele>
        <time>2022-03-03T11:46:38Z</time>
      </trkpt>
      <trkpt lat="44.39587" lon="4.07671">
        <ele>638.9</ele>
        <time>2022-03-03T11:46:43Z</time>
        <extensions>
          <gpxtpx:TrackPointExtension xmlns:gpxtpx="http://www.garmin.com/xmlschemas/TrackPointExtension/v1">
            <gpxtpx:hr>137</gpxtpx:hr>
          </gpxtpx:TrackPointExtension>
        </extensions>
      </trkpt>
      <trkpt lat="44.39583" lon="4.07675">
        <ele>731.87006</ele>
        <time>2022-03-03T11:46:48Z</time>
      </trkpt>
      <trkpt lat="44.3958" lon="4.07681">
        <ele>637</ele>
        <time>2022-03-03T11:46:52Z</time>
      </trkpt>
      <trkpt lat="44.39578" lon="4.07688">
        <ele>731.5608</ele>
        <time>2022-03-03T11:46:57Z</time>
      </trkpt>
      <trkpt lat="44.39576" lon="4.07694">
        <ele>636.2</ele>
        <time>2022-03-03T11:47:03Z</time>
      </trkpt>
      <trkpt lat="44.39576" lon="4.07702">
        <ele>730.90576</ele>
        <time>2022-03-03T11:47:08Z</time>
      </trkpt>
      <trkpt lat="44.39576" lon="4.07709">
        <ele>635.2</ele>
        <time>2022-03-03T11:47:12Z</time>
      </trkpt>
      <trkpt lat="44.39576" lon="4.07716">
        <ele>730.5698</ele>
        <time>2022-03-03T11:47:16Z</time>
      </trkpt>
      <trkpt lat="44.39579" lon="4.07722">
        <ele>636.6</ele>
        <time>2022-03-03T11:47:21Z</time>
      </trkpt>
      <trkpt lat="44.39581" lon="4.07727">
        <ele>730.48883</ele>
        <time>2022-03-03T11:47:25Z</time>
      </trkpt>
      <trkpt lat="44.39582" lon="4.07733">
        <ele>637.4</ele>
        <time>2022-03-03T11:47:29Z</time>
      </trkpt>
      <trkpt lat="44.39581" lon="4.07741">
        <ele>636.3</ele>
        <time>2022-03-03T11:47:33Z</time>
      </trkpt>
      <trkpt lat="44.39581" lon="4.07749">
        <ele>731.62305</ele>
        <time>2022-03-03T11:47:39Z</time>
      </trkpt>
      <trkpt lat="44.39579" lon="4.07755">
        <ele>635.3</ele>
        <time>2022-03-03T11:47:44Z</time>
      </trkpt>
      <trkpt lat="44.39579" lon="4.07763">
        <ele>732.23065</ele>
        <time>2022-03-03T11:47:48Z</time>
      </trkpt>
      <trkpt lat="44.39576" lon="4.07769">
        <ele>637.7</ele>
        <time>2022-03-03T11:47:52Z</time>
      </trkpt>
      <trkpt lat="44.39571" lon="4.07771">
        <ele>733.2365</ele>
        <time>2022-03-03T11:47:58Z</time>
      </trkpt>
      <trkpt lat="44.39566" lon="4.07772">
        <ele>637.8</ele>
        <time>2022-03-03T11:48:03Z</time>
      </trkpt>
      <trkpt lat="44.39561" lon="4.07774">
        <ele>733.3867</ele>
        <time>2022-03-03T11:48:07Z</time>
      </trkpt>
      <trkpt lat="44.39557" lon="4.07776">
        <ele>638.8</ele>
        <time>2022-03-03T11:48:13Z</time>
      </trkpt>
      <trkpt lat="44.39553" lon="4.07779">
        <ele>733.54974</ele>
        <time>2022-03-03T11:48:17Z</time>
      </trkpt>
      <trkpt lat="44.39548" lon="4.07781">
        <ele>639.9</ele>
        <time>2022-03-03T11:48:22Z</time>
      </trkpt>
      <trkpt lat="44.39543" lon="4.07783">
        <ele>640.3</ele>
        <time>2022-03-03T11:48:28Z</time>
      </trkpt>
      <trkpt lat="44.39537" lon="4.07786">
        <ele>733.4549</ele>
        <time>2022-03-03T11:48:32Z</time>
      </trkpt>
      <trkpt lat="44.39532" lon="4.0779">
        <ele>641.2</ele>
        <time>2022-03-03T11:48:36Z</time>
      </trkpt>
      <trkpt lat="44.39527" lon="4.0779">
        <ele>641</ele>
        <time>2022-03-03T11:48:39Z</time>
      </trkpt>
      <trkpt lat="44.39523" lon="4.07793">
        <ele>734.02203</ele>
        <time>2022-03-03T11:48:45Z</time>
      </trkpt>
      <trkpt lat="44.39518" lon="4.07793">
        <ele>734.8857</ele>
        <time>2022-03-03T11:48:50Z</time>
      </trkpt>
      <trkpt lat="44.39513" lon="4.07794">
        <ele>644.5</ele>
        <time>2022-03-03T11:48:54Z</time>
      </trkpt>
      <trkpt lat="44.39508" lon="4.07794">
        <ele>645.2</ele>
        <time>2022-03-03T11:48:59Z</time>
      </trkpt>
      <trkpt lat="44.39502" lon="4.07794">
        <ele>735.9321</ele>
        <time>2022-03-03T11:49:05Z</time>
      </trkpt>
      <trkpt lat="44.39497" lon="4.07795">
        <ele>647</ele>
        <time>2022-03-03T11:49:11Z</time>
      </trkpt>
      <trkpt lat="44.39494" lon="4.07799">
        <ele>737.2307</ele>
        <time>2022-03-03T11:49:18Z</time>
      </trkpt>
      <trkpt lat="44.39489" lon="4.07802">
        <ele>649.9</ele>
        <time>2022-03-03T11:49:23Z</time>
      </trkpt>
      <trkpt lat="44.39484" lon="4.07802">
        <ele>738.7813</ele>
        <time>2022-03-03T11:49:33Z</time>
      </trkpt>
      <trkpt lat="44.39479" lon="4.07803">
        <ele>740.3044</ele>
        <time>2022-03-03T11:49:41Z</time>
      </trkpt>
      <trkpt lat="44.39474" lon="4.07805">
        <ele>742.0589</ele>
        <time>2022-03-03T11:49:46Z</time>
      </trkpt>
      <trkpt lat="44.3947" lon="4.07806">
        <ele>651.5</ele>
        <time>2022-03-03T11:49:54Z</time>
      </trkpt>
      <trkpt lat="44.39465" lon="4.07808">
        <ele>743.6939</ele>
        <time>2022-03-03T11:50:00Z</time>
      </trkpt>
      <trkpt lat="44.39461" lon="4.07811">
        <ele>745.2608</ele>
        <time>2022-03-03T11:50:05Z</time>
      </trkpt>
      <trkpt lat="44.39456" lon="4.07812">
        <ele>654.5</ele>
        <time>2022-03-03T11:50:13Z</time>
      </trkpt>
      <trkpt lat="44.39451" lon="4.07814">
        <ele>746.67957</ele>
        <time>2022-03-03T11:50:20Z</time>
      </trkpt>
      <trkpt lat="44.39447" lon="4.07818">
        <ele>748.2289</ele>
        <time>2022-03-03T11:50:27Z</time>
      </trkpt>
      <trkpt lat="44.39442" lon="4.07819">
        <ele>657.1</ele>
        <time>2022-03-03T11:50:32Z</time>
      </trkpt>
      <trkpt lat="44.39438" lon="4.07822">
        <ele>749.71405</ele>
        <time>2022-03-03T11:50:39Z</time>
      </trkpt>
      <trkpt lat="44.39434" lon="4.07827">
        <ele>751.55634</ele>
        <time>2022-03-03T11:50:47Z</time>
      </trkpt>
      <trkpt lat="44.39431" lon="4.07832">
        <ele>658.7</ele>
        <time>2022-03-03T11:50:53Z</time>
      </trkpt>
      <trkpt lat="44.39428" lon="4.07837">
        <ele>659</ele>
        <time>2022-03-03T11:50:59Z</time>
      </trkpt>
      <trkpt lat="44.39426" lon="4.07843">
        <ele>754.3492</ele>
        <time>2022-03-03T11:51:06Z</time>
      </trkpt>
      <trkpt lat="44.39426" lon="4.07849">
        <ele>755.54596</ele>
        <time>2022-03-03T11:51:12Z</time>
      </trkpt>
      <trkpt lat="44.39428" lon="4.07855">
        <ele>756.9179</ele>
        <time>2022-03-03T11:51:20Z</time>
      </trkpt>
      <trkpt lat="44.3943" lon="4.07861">
        <ele>662.8</ele>
        <time>2022-03-03T11:51:28Z</time>
      </trkpt>
      <trkpt lat="44.39432" lon="4.07868">
        <ele>759.1812</ele>
        <time>2022-03-03T11:51:35Z</time>
      </trkpt>
      <trkpt lat="44.39436" lon="4.07873">
        <ele>665.5</ele>
        <time>2022-03-03T11:51:41Z</time>
      </trkpt>
      <trkpt lat="44.39438" lon="4.0788">
        <ele>760.7918</ele>
        <time>2022-03-03T11:51:48Z</time>
      </trkpt>
      <trkpt lat="44.39439" lon="4.07886">
        <ele>668</ele>
        <time>2022-03-03T11:51:52Z</time>
      </trkpt>
      <trkpt lat="44.39441" lon="4.07892">
        <ele>762.1156</ele>
        <time>2022-03-03T11:51:57Z</time>
      </trkpt>
      <trkpt lat="44.39442" lon="4.07899">
        <ele>669.9</ele>
        <time>2022-03-03T11:52:02Z</time>
      </trkpt>
      <trkpt lat="44.39442" lon="4.07906">
        <ele>762.99615</ele>
        <time>2022-03-03T11:52:07Z</time>
      </trkpt>
      <trkpt lat="44.39444" lon="4.07913">
        <ele>671.6</ele>
        <time>2022-03-03T11:52:11Z</time>
      </trkpt>
      <trkpt lat="44.39446" lon="4.07919">
        <ele>764.36755</ele>
        <time>2022-03-03T11:52:16Z</time>
      </trkpt>
      <trkpt lat="44.39448" lon="4.07925">
        <ele>674.1</ele>
        <time>2022-03-03T11:52:21Z</time>
      </trkpt>
      <trkpt lat="44.39449" lon="4.07931">
        <ele>765.4551</ele>
        <time>2022-03-03T11:52:29Z</time>
      </trkpt>
      <trkpt lat="44.39451" lon="4.07939">
        <ele>676.2</ele>
        <time>2022-03-03T11:52:33Z</time>
      </trkpt>
      <trkpt lat="44.39451" lon="4.07946">
        <ele>766.9197</ele>
        <time>2022-03-03T11:52:39Z</time>
      </trkpt>
      <trkpt lat="44.39452" lon="4.07953">
        <ele>769.2028</ele>
        <time>2022-03-03T11:52:46Z</time>
      </trkpt>
      <trkpt lat="44.39452" lon="4.0796">
        <ele>679.7</ele>
        <time>2022-03-03T11:52:54Z</time>
      </trkpt>
      <trkpt lat="44.39452" lon="4.07967">
        <ele>771.45654</ele>
        <time>2022-03-03T11:53:01Z</time>
      </trkpt>
      <trkpt lat="44.3945" lon="4.07972">
        <ele>773.3729</ele>
        <time>2022-03-03T11:53:09Z</time>
      </trkpt>
      <trkpt lat="44.39451" lon="4.0798">
        <ele>682.1</ele>
        <time>2022-03-03T11:53:13Z</time>
      </trkpt>
      <trkpt lat="44.39453" lon="4.07987">
        <ele>775.3766</ele>
        <time>2022-03-03T11:53:18Z</time>
      </trkpt>
      <trkpt lat="44.39453" lon="4.07994">
        <ele>685.9</ele>
        <time>2022-03-03T11:53:24Z</time>
      </trkpt>
      <trkpt lat="44.39453" lon="4.08001">
        <ele>687.1</ele>
        <time>2022-03-03T11:53:27Z</time>
      </trkpt>
      <trkpt lat="44.39451" lon="4.08008">
        <ele>777.1052</ele>
        <time>2022-03-03T11:53:33Z</time>
      </trkpt>
      <trkpt lat="44.39451" lon="4.08016">
        <ele>688.4</ele>
        <time>2022-03-03T11:53:38Z</time>
      </trkpt>
      <trkpt lat="44.3945" lon="4.08022">
        <ele>778.1181</ele>
        <time>2022-03-03T11:53:44Z</time>
      </trkpt>
      <trkpt lat="44.3945" lon="4.0803">
        <ele>779.28845</ele>
        <time>2022-03-03T11:53:50Z</time>
      </trkpt>
      <trkpt lat="44.39449" lon="4.08037">
        <ele>690.4</ele>
        <time>2022-03-03T11:53:56Z</time>
      </trkpt>
      <trkpt lat="44.39447" lon="4.08043">
        <ele>780.8718</ele>
        <time>2022-03-03T11:54:01Z</time>
      </trkpt>
      <trkpt lat="44.39445" lon="4.0805">
        <ele>780.6995</ele>
        <time>2022-03-03T11:54:06Z</time>
      </trkpt>
      <trkpt lat="44.39443" lon="4.08056">
        <ele>689.1</ele>
        <time>2022-03-03T11:54:10Z</time>
      </trkpt>
      <trkpt lat="44.39441" lon="4.08062">
        <ele>779.5766</ele>
        <time>2022-03-03T11:54:16Z</time>
      </trkpt>
      <trkpt lat="44.39439" lon="4.08069">
        <ele>689.7</ele>
        <time>2022-03-03T11:54:21Z</time>
      </trkpt>
      <trkpt lat="44.39436" lon="4.08074">
        <ele>780.7956</ele>
        <time>2022-03-03T11:54:26Z</time>
      </trkpt>
      <trkpt lat="44.39434" lon="4.0808">
        <ele>689.9</ele>
        <time>2022-03-03T11:54:30Z</time>
      </trkpt>
      <trkpt lat="44.39433" lon="4.08086">
        <ele>782.1176</ele>
        <time>2022-03-03T11:54:36Z</time>
      </trkpt>
      <trkpt lat="44.3943" lon="4.08091">
        <ele>689.5</ele>
        <time>2022-03-03T11:54:44Z</time>
      </trkpt>
      <trkpt lat="44.39426" lon="4.08096">
        <ele>781.34814</ele>
        <time>2022-03-03T11:54:49Z</time>
      </trkpt>
      <trkpt lat="44.39423" lon="4.08101">
        <ele>688.5</ele>
        <time>2022-03-03T11:54:53Z</time>
      </trkpt>
      <trkpt lat="44.3942" lon="4.08107">
        <ele>780.38165</ele>
        <time>2022-03-03T11:54:57Z</time>
      </trkpt>
      <trkpt lat="44.39417" lon="4.08112">
        <ele>688.6</ele>
        <time>2022-03-03T11:55:01Z</time>
      </trkpt>
      <trkpt lat="44.39414" lon="4.08118">
        <ele>781.3541</ele>
        <time>2022-03-03T11:55:05Z</time>
      </trkpt>
      <trkpt lat="44.39411" lon="4.08124">
        <ele>688.9</ele>
        <time>2022-03-03T11:55:09Z</time>
      </trkpt>
      <trkpt lat="44.39408" lon="4.08129">
        <ele>688.4</ele>
        <time>2022-03-03T11:55:14Z</time>
      </trkpt>
      <trkpt lat="44.39406" lon="4.08135">
        <ele>781.82056</ele>
        <time>2022-03-03T11:55:18Z</time>
      </trkpt>
      <trkpt lat="44.39404" lon="4.08141">
        <ele>689.1</ele>
        <time>2022-03-03T11:55:22Z</time>
      </trkpt>
      <trkpt lat="44.39402" lon="4.08147">
        <ele>781.3145</ele>
        <time>2022-03-03T11:55:27Z</time>
      </trkpt>
      <trkpt lat="44.39401" lon="4.08154">
        <ele>689.8</ele>
        <time>2022-03-03T11:55:31Z</time>
      </trkpt>
      <trkpt lat="44.39398" lon="4.08161">
        <ele>781.7977</ele>
        <time>2022-03-03T11:55:35Z</time>
      </trkpt>
      <trkpt lat="44.39396" lon="4.08167">
        <ele>689.1</ele>
        <time>2022-03-03T11:55:40Z</time>
      </trkpt>
      <trkpt lat="44.39394" lon="4.08175">
        <ele>782.3731</ele>
        <time>2022-03-03T11:55:46Z</time>
      </trkpt>
      <trkpt lat="44.39394" lon="4.08181">
        <ele>692.4</ele>
        <time>2022-03-03T11:55:55Z</time>
      </trkpt>
      <trkpt lat="44.39392" lon="4.08188">
        <ele>785.2225</ele>
        <time>2022-03-03T11:56:00Z</time>
      </trkpt>
      <trkpt lat="44.39388" lon="4.08193">
        <ele>692.5</ele>
        <time>2022-03-03T11:56:07Z</time>
      </trkpt>
      <trkpt lat="44.39384" lon="4.08196">
        <ele>786.33777</ele>
        <time>2022-03-03T11:56:11Z</time>
      </trkpt>
      <trkpt lat="44.3938" lon="4.08201">
        <ele>695</ele>
        <time>2022-03-03T11:56:18Z</time>
      </trkpt>
      <trkpt lat="44.39377" lon="4.08206">
        <ele>788.3288</ele>
        <time>2022-03-03T11:56:27Z</time>
      </trkpt>
      <trkpt lat="44.39373" lon="4.0821">
        <ele>790.1367</ele>
        <time>2022-03-03T11:56:35Z</time>
      </trkpt>
      <trkpt lat="44.39368" lon="4.0821">
        <ele>792.1241</ele>
        <time>2022-03-03T11:56:42Z</time>
      </trkpt>
      <trkpt lat="44.39363" lon="4.08213">
        <ele>793.3854</ele>
        <time>2022-03-03T11:56:46Z</time>
      </trkpt>
      <trkpt lat="44.39358" lon="4.08216">
        <ele>700.1</ele>
        <time>2022-03-03T11:56:51Z</time>
      </trkpt>
      <trkpt lat="44.39355" lon="4.08221">
        <ele>795.24426</ele>
        <time>2022-03-03T11:56:58Z</time>
      </trkpt>
      <trkpt lat="44.39351" lon="4.08223">
        <ele>701.6</ele>
        <time>2022-03-03T11:57:02Z</time>
      </trkpt>
      <trkpt lat="44.39346" lon="4.08227">
        <ele>795.79126</ele>
        <time>2022-03-03T11:57:09Z</time>
      </trkpt>
      <trkpt lat="44.39342" lon="4.08231">
        <ele>702.8</ele>
        <time>2022-03-03T11:57:13Z</time>
      </trkpt>
      <trkpt lat="44.39339" lon="4.08236">
        <ele>796.5008</ele>
        <time>2022-03-03T11:57:17Z</time>
      </trkpt>
      <trkpt lat="44.39336" lon="4.08242">
        <ele>705.7</ele>
        <time>2022-03-03T11:57:23Z</time>
      </trkpt>
      <trkpt lat="44.39332" lon="4.08246">
        <ele>797.7623</ele>
        <time>2022-03-03T11:57:31Z</time>
      </trkpt>
      <trkpt lat="44.39328" lon="4.08249">
        <ele>799.7445</ele>
        <time>2022-03-03T11:57:35Z</time>
      </trkpt>
      <trkpt lat="44.39327" lon="4.08249">
        <ele>801.5395</ele>
        <time>2022-03-03T11:57:45Z</time>
      </trkpt>
      <trkpt lat="44.3933" lon="4.08254">
        <ele>708.7</ele>
        <time>2022-03-03T11:57:52Z</time>
      </trkpt>
      <trkpt lat="44.39328" lon="4.08261">
        <ele>803.8045</ele>
        <time>2022-03-03T11:57:58Z</time>
      </trkpt>
      <trkpt lat="44.39325" lon="4.08266">
        <ele>712.1</ele>
        <time>2022-03-03T11:58:04Z</time>
      </trkpt>
      <trkpt lat="44.39322" lon="4.08271">
        <ele>805.8903</ele>
        <time>2022-03-03T11:58:12Z</time>
      </trkpt>
      <trkpt lat="44.39318" lon="4.08274">
        <ele>807.48755</ele>
        <time>2022-03-03T11:58:19Z</time>
      </trkpt>
      <trkpt lat="44.39317" lon="4.08281">
        <ele>809.19196</ele>
        <time>2022-03-03T11:58:25Z</time>
      </trkpt>
      <trkpt lat="44.39318" lon="4.08286">
        <ele>715.6</ele>
        <time>2022-03-03T11:58:35Z</time>
      </trkpt>
      <trkpt lat="44.39322" lon="4.08288">
        <ele>812.1708</ele>
        <time>2022-03-03T11:58:45Z</time>
      </trkpt>
      <trkpt lat="44.39327" lon="4.08291">
        <ele>814.20483</ele>
        <time>2022-03-03T11:58:51Z</time>
      </trkpt>
      <trkpt lat="44.39331" lon="4.08293">
        <ele>816.0377</ele>
        <time>2022-03-03T11:59:00Z</time>
      </trkpt>
      <trkpt lat="44.39335" lon="4.08297">
        <ele>719.8</ele>
        <time>2022-03-03T11:59:05Z</time>
      </trkpt>
      <trkpt lat="44.39339" lon="4.08302">
        <ele>817.2508</ele>
        <time>2022-03-03T11:59:10Z</time>
      </trkpt>
      <trkpt lat="44.39343" lon="4.08306">
        <ele>723.1</ele>
        <time>2022-03-03T11:59:19Z</time>
      </trkpt>
      <trkpt lat="44.39349" lon="4.08307">
        <ele>818.8251</ele>
        <time>2022-03-03T11:59:24Z</time>
      </trkpt>
      <trkpt lat="44.39353" lon="4.08308">
        <ele>819.7308</ele>
        <time>2022-03-03T11:59:29Z</time>
      </trkpt>
      <trkpt lat="44.39359" lon="4.08308">
        <ele>821.0066</ele>
        <time>2022-03-03T11:59:35Z</time>
      </trkpt>
      <trkpt lat="44.39363" lon="4.0831">
        <ele>728.7</ele>
        <time>2022-03-03T11:59:43Z</time>
      </trkpt>
      <trkpt lat="44.39368" lon="4.08312">
        <ele>822.67236</ele>
        <time>2022-03-03T11:59:48Z</time>
      </trkpt>
      <trkpt lat="44.3937" lon="4.08318">
        <ele>823.8531</ele>
        <time>2022-03-03T11:59:56Z</time>
      </trkpt>
      <trkpt lat="44.39373" lon="4.08324">
        <ele>729.1</ele>
        <time>2022-03-03T12:00:01Z</time>
      </trkpt>
      <trkpt lat="44.39377" lon="4.08329">
        <ele>824.52484</ele>
        <time>2022-03-03T12:00:05Z</time>
      </trkpt>
      <trkpt lat="44.39381" lon="4.08331">
        <ele>730.6</ele>
        <time>2022-03-03T12:00:10Z</time>
      </trkpt>
      <trkpt lat="44.39385" lon="4.08336">
        <ele>731.2</ele>
        <time>2022-03-03T12:00:14Z</time>
      </trkpt>
      <trkpt lat="44.39388" lon="4.0834">
        <ele>825.49133</ele>
        <time>2022-03-03T12:00:21Z</time>
      </trkpt>
      <trkpt lat="44.39391" lon="4.08343">
        <ele>826.14624</ele>
        <time>2022-03-03T12:00:31Z</time>
      </trkpt>
      <trkpt lat="44.39393" lon="4.0835">
        <ele>826.5789</ele>
        <time>2022-03-03T12:00:35Z</time>
      </trkpt>
      <trkpt lat="44.39394" lon="4.08357">
        <ele>731.6</ele>
        <time>2022-03-03T12:00:40Z</time>
      </trkpt>
      <trkpt lat="44.39398" lon="4.08362">
        <ele>827.8591</ele>
        <time>2022-03-03T12:00:45Z</time>
      </trkpt>
      <trkpt lat="44.39398" lon="4.08368">
        <ele>829.69116</ele>
        <time>2022-03-03T12:00:55Z</time>
      </trkpt>
      <trkpt lat="44.39401" lon="4.08374">
        <ele>735.4</ele>
        <time>2022-03-03T12:01:00Z</time>
      </trkpt>
      <trkpt lat="44.39401" lon="4.08382">
        <ele>736.8</ele>
        <time>2022-03-03T12:01:06Z</time>
      </trkpt>
      <trkpt lat="44.39404" lon="4.08388">
        <ele>832.3621</ele>
        <time>2022-03-03T12:01:11Z</time>
      </trkpt>
      <trkpt lat="44.39407" lon="4.08395">
        <ele>741.5</ele>
        <time>2022-03-03T12:01:17Z</time>
      </trkpt>
      <trkpt lat="44.39407" lon="4.08401">
        <ele>834.3981</ele>
        <time>2022-03-03T12:01:20Z</time>
      </trkpt>
      <trkpt lat="44.39406" lon="4.08409">
        <ele>742.2</ele>
        <time>2022-03-03T12:01:26Z</time>
      </trkpt>
      <trkpt lat="44.39405" lon="4.08416">
        <ele>834.0357</ele>
        <time>2022-03-03T12:01:31Z</time>
      </trkpt>
      <trkpt lat="44.39404" lon="4.08424">
        <ele>743.4</ele>
        <time>2022-03-03T12:01:35Z</time>
      </trkpt>
      <trkpt lat="44.39401" lon="4.08431">
        <ele>833.8531</ele>
        <time>2022-03-03T12:01:40Z</time>
      </trkpt>
      <trkpt lat="44.39397" lon="4.08436">
        <ele>742.7</ele>
        <time>2022-03-03T12:01:44Z</time>
      </trkpt>
      <trkpt lat="44.39394" lon="4.08442">
        <ele>834.0447</ele>
        <time>2022-03-03T12:01:50Z</time>
      </trkpt>
      <trkpt lat="44.3939" lon="4.08445">
        <ele>741.8</ele>
        <time>2022-03-03T12:01:54Z</time>
      </trkpt>
      <trkpt lat="44.39386" lon="4.0845">
        <ele>834.9589</ele>
        <time>2022-03-03T12:02:02Z</time>
      </trkpt>
      <trkpt lat="44.39383" lon="4.08454">
        <ele>836.4957</ele>
        <time>2022-03-03T12:02:08Z</time>
      </trkpt>
      <trkpt lat="44.39378" lon="4.08458">
        <ele>742.2</ele>
        <time>2022-03-03T12:02:12Z</time>
      </trkpt>
      <trkpt lat="44.39375" lon="4.08462">
        <ele>836.15326</ele>
        <time>2022-03-03T12:02:17Z</time>
      </trkpt>
      <trkpt lat="44.39371" lon="4.08466">
        <ele>836.95844</ele>
        <time>2022-03-03T12:02:26Z</time>
      </trkpt>
      <trkpt lat="44.39373" lon="4.08472">
        <ele>745.5</ele>
        <time>2022-03-03T12:02:33Z</time>
      </trkpt>
      <trkpt lat="44.39372" lon="4.08478">
        <ele>837.94434</ele>
        <time>2022-03-03T12:02:38Z</time>
      </trkpt>
      <trkpt lat="44.39371" lon="4.08484">
        <ele>838.6691</ele>
        <time>2022-03-03T12:02:48Z</time>
      </trkpt>
      <trkpt lat="44.3937" lon="4.08491">
        <ele>839.385</ele>
        <time>2022-03-03T12:02:56Z</time>
      </trkpt>
      <trkpt lat="44.39371" lon="4.08497">
        <ele>747.7</ele>
        <time>2022-03-03T12:03:01Z</time>
      </trkpt>
      <trkpt lat="44.39371" lon="4.08504">
        <ele>840.18536</ele>
        <time>2022-03-03T12:03:06Z</time>
      </trkpt>
      <trkpt lat="44.39372" lon="4.08512">
        <ele>750.2</ele>
        <time>2022-03-03T12:03:12Z</time>
      </trkpt>
      <trkpt lat="44.39373" lon="4.08518">
        <ele>841.7235</ele>
        <time>2022-03-03T12:03:18Z</time>
      </trkpt>
      <trkpt lat="44.39373" lon="4.08526">
        <ele>752.6</ele>
        <time>2022-03-03T12:03:24Z</time>
      </trkpt>
      <trkpt lat="44.39374" lon="4.08532">
        <ele>843.30945</ele>
        <time>2022-03-03T12:03:30Z</time>
      </trkpt>
      <trkpt lat="44.39372" lon="4.08538">
        <ele>845.6732</ele>
        <time>2022-03-03T12:03:36Z</time>
      </trkpt>
      <trkpt lat="44.3937" lon="4.08545">
        <ele>754.7</ele>
        <time>2022-03-03T12:03:44Z</time>
      </trkpt>
      <trkpt lat="44.39369" lon="4.08552">
        <ele>848.6978</ele>
        <time>2022-03-03T12:03:52Z</time>
      </trkpt>
      <trkpt lat="44.39368" lon="4.08559">
        <ele>755.4</ele>
        <time>2022-03-03T12:03:59Z</time>
      </trkpt>
      <trkpt lat="44.39367" lon="4.08561">
        <ele>850.2356</ele>
        <time>2022-03-03T12:04:09Z</time>
      </trkpt>
      <trkpt lat="44.39368" lon="4.08561">
        <ele>850.51276</ele>
        <time>2022-03-03T12:04:19Z</time>
      </trkpt>
      <trkpt lat="44.39368" lon="4.08558">
        <ele>850.50977</ele>
        <time>2022-03-03T12:04:29Z</time>
      </trkpt>
      <trkpt lat="44.39368" lon="4.08561">
        <ele>850.75415</ele>
        <time>2022-03-03T12:04:39Z</time>
      </trkpt>
      <trkpt lat="44.39367" lon="4.08564">
        <ele>851.0234</ele>
        <time>2022-03-03T12:04:49Z</time>
      </trkpt>
      <trkpt lat="44.3937" lon="4.08567">
        <ele>851.1327</ele>
        <time>2022-03-03T12:04:59Z</time>
      </trkpt>
      <trkpt lat="44.3937" lon="4.08571">
        <ele>851.24396</ele>
        <time>2022-03-03T12:05:09Z</time>
      </trkpt>
      <trkpt lat="44.39369" lon="4.08571">
        <ele>851.3552</ele>
        <time>2022-03-03T12:05:19Z</time>
      </trkpt>
      <trkpt lat="44.39367" lon="4.08571">
        <ele>851.3006</ele>
        <time>2022-03-03T12:05:29Z</time>
      </trkpt>
      <trkpt lat="44.3937" lon="4.08577">
        <ele>851.7834</ele>
        <time>2022-03-03T12:05:36Z</time>
      </trkpt>
      <trkpt lat="44.39371" lon="4.08576">
        <ele>852.1401</ele>
        <time>2022-03-03T12:05:46Z</time>
      </trkpt>
      <trkpt lat="44.39371" lon="4.08583">
        <ele>852.76404</ele>
        <time>2022-03-03T12:05:55Z</time>
      </trkpt>
      <trkpt lat="44.39372" lon="4.0859">
        <ele>759.7</ele>
        <time>2022-03-03T12:05:59Z</time>
      </trkpt>
      <trkpt lat="44.39373" lon="4.08597">
        <ele>761.2</ele>
        <time>2022-03-03T12:06:03Z</time>
      </trkpt>
      <trkpt lat="44.39372" lon="4.08603">
        <ele>854.4333</ele>
        <time>2022-03-03T12:06:07Z</time>
      </trkpt>
      <trkpt lat="44.39373" lon="4.08611">
        <ele>763</ele>
        <time>2022-03-03T12:06:11Z</time>
      </trkpt>
      <trkpt lat="44.39374" lon="4.08618">
        <ele>764.4</ele>
        <time>2022-03-03T12:06:16Z</time>
      </trkpt>
      <trkpt lat="44.39374" lon="4.08626">
        <ele>856.9542</ele>
        <time>2022-03-03T12:06:21Z</time>
      </trkpt>
      <trkpt lat="44.39373" lon="4.08632">
        <ele>765.6</ele>
        <time>2022-03-03T12:06:26Z</time>
      </trkpt>
      <trkpt lat="44.39372" lon="4.08639">
        <ele>858.35645</ele>
        <time>2022-03-03T12:06:30Z</time>
      </trkpt>
      <trkpt lat="44.39371" lon="4.08645">
        <ele>766.3</ele>
        <time>2022-03-03T12:06:35Z</time>
      </trkpt>
      <trkpt lat="44.39371" lon="4.08652">
        <ele>767.8</ele>
        <time>2022-03-03T12:06:39Z</time>
      </trkpt>
      <trkpt lat="44.39371" lon="4.08659">
        <ele>860.8819</ele>
        <time>2022-03-03T12:06:43Z</time>
      </trkpt>
      <trkpt lat="44.3937" lon="4.08666">
        <ele>770.4</ele>
        <time>2022-03-03T12:06:49Z</time>
      </trkpt>
      <trkpt lat="44.3937" lon="4.08672">
        <ele>863.18097</ele>
        <time>2022-03-03T12:06:55Z</time>
      </trkpt>
      <trkpt lat="44.39369" lon="4.08678">
        <ele>865.4067</ele>
        <time>2022-03-03T12:07:00Z</time>
      </trkpt>
      <trkpt lat="44.39368" lon="4.08685">
        <ele>866.3203</ele>
        <time>2022-03-03T12:07:05Z</time>
      </trkpt>
      <trkpt lat="44.39369" lon="4.08692">
        <ele>775.2</ele>
        <time>2022-03-03T12:07:14Z</time>
      </trkpt>
      <trkpt lat="44.39373" lon="4.08695">
        <ele>868.2491</ele>
        <time>2022-03-03T12:07:24Z</time>
      </trkpt>
      <trkpt lat="44.39377" lon="4.08699">
        <ele>869.8817</ele>
        <time>2022-03-03T12:07:33Z</time>
      </trkpt>
      <trkpt lat="44.3938" lon="4.08694">
        <ele>871.7492</ele>
        <time>2022-03-03T12:07:43Z</time>
      </trkpt>
      <trkpt lat="44.3938" lon="4.08694">
        <ele>872.66406</ele>
        <time>2022-03-03T12:07:53Z</time>
      </trkpt>
      <trkpt lat="44.39383" lon="4.08688">
        <ele>873.6804</ele>
        <time>2022-03-03T12:08:03Z</time>
      </trkpt>
      <trkpt lat="44.39385" lon="4.08681">
        <ele>874.3239</ele>
        <time>2022-03-03T12:08:08Z</time>
      </trkpt>
      <trkpt lat="44.39388" lon="4.08676">
        <ele>778.2</ele>
        <time>2022-03-03T12:08:13Z</time>
      </trkpt>
      <trkpt lat="44.39392" lon="4.08672">
        <ele>875.13446</ele>
        <time>2022-03-03T12:08:17Z</time>
      </trkpt>
      <trkpt lat="44.39396" lon="4.08669">
        <ele>779.6</ele>
        <time>2022-03-03T12:08:23Z</time>
      </trkpt>
      <trkpt lat="44.39401" lon="4.08666">
        <ele>877.36346</ele>
        <time>2022-03-03T12:08:29Z</time>
      </trkpt>
      <trkpt lat="44.39405" lon="4.08662">
        <ele>781.7</ele>
        <time>2022-03-03T12:08:34Z</time>
      </trkpt>
      <trkpt lat="44.3941" lon="4.08658">
        <ele>879.0783</ele>
        <time>2022-03-03T12:08:40Z</time>
      </trkpt>
      <trkpt lat="44.39414" lon="4.08656">
        <ele>880.2383</ele>
        <time>2022-03-03T12:08:46Z</time>
      </trkpt>
      <trkpt lat="44.39416" lon="4.08649">
        <ele>786.8</ele>
        <time>2022-03-03T12:08:54Z</time>
      </trkpt>
      <trkpt lat="44.39418" lon="4.08644">
        <ele>882.7045</ele>
        <time>2022-03-03T12:09:04Z</time>
      </trkpt>
      <trkpt lat="44.3942" lon="4.08643">
        <ele>883.5254</ele>
        <time>2022-03-03T12:09:14Z</time>
      </trkpt>
      <trkpt lat="44.39421" lon="4.08639">
        <ele>883.9532</ele>
        <time>2022-03-03T12:09:24Z</time>
      </trkpt>
      <trkpt lat="44.39423" lon="4.08635">
        <ele>885.91144</ele>
        <time>2022-03-03T12:09:34Z</time>
      </trkpt>
      <trkpt lat="44.39426" lon="4.0863">
        <ele>887.9036</ele>
        <time>2022-03-03T12:09:41Z</time>
      </trkpt>
      <trkpt lat="44.39428" lon="4.08625">
        <ele>888.9854</ele>
        <time>2022-03-03T12:09:51Z</time>
      </trkpt>
      <trkpt lat="44.3943" lon="4.0862">
        <ele>891.16504</ele>
        <time>2022-03-03T12:09:57Z</time>
      </trkpt>
      <trkpt lat="44.39433" lon="4.08614">
        <ele>796.4</ele>
        <time>2022-03-03T12:10:03Z</time>
      </trkpt>
      <trkpt lat="44.39436" lon="4.08609">
        <ele>893.29016</ele>
        <time>2022-03-03T12:10:13Z</time>
      </trkpt>
      <trkpt lat="44.3944" lon="4.08604">
        <ele>895.02423</ele>
        <time>2022-03-03T12:10:19Z</time>
      </trkpt>
      <trkpt lat="44.39443" lon="4.08599">
        <ele>800.1</ele>
        <time>2022-03-03T12:10:24Z</time>
      </trkpt>
      <trkpt lat="44.39447" lon="4.08595">
        <ele>896.39703</ele>
        <time>2022-03-03T12:10:28Z</time>
      </trkpt>
      <trkpt lat="44.39451" lon="4.08592">
        <ele>898.2349</ele>
        <time>2022-03-03T12:10:38Z</time>
      </trkpt>
      <trkpt lat="44.39457" lon="4.08593">
        <ele>803.6</ele>
        <time>2022-03-03T12:10:44Z</time>
      </trkpt>
      <trkpt lat="44.39461" lon="4.08594">
        <ele>900.2223</ele>
        <time>2022-03-03T12:10:52Z</time>
      </trkpt>
      <trkpt lat="44.39467" lon="4.08593">
        <ele>902.0207</ele>
        <time>2022-03-03T12:11:01Z</time>
      </trkpt>
      <trkpt lat="44.39471" lon="4.08592">
        <ele>904.0154</ele>
        <time>2022-03-03T12:11:06Z</time>
      </trkpt>
      <trkpt lat="44.39475" lon="4.08587">
        <ele>810.4</ele>
        <time>2022-03-03T12:11:13Z</time>
      </trkpt>
      <trkpt lat="44.39479" lon="4.08586">
        <ele>906.0899</ele>
        <time>2022-03-03T12:11:23Z</time>
      </trkpt>
      <trkpt lat="44.39484" lon="4.08584">
        <ele>814</ele>
        <time>2022-03-03T12:11:29Z</time>
      </trkpt>
      <trkpt lat="44.39488" lon="4.0858">
        <ele>908.9855</ele>
        <time>2022-03-03T12:11:39Z</time>
      </trkpt>
      <trkpt lat="44.39489" lon="4.08572">
        <ele>910.9011</ele>
        <time>2022-03-03T12:11:47Z</time>
      </trkpt>
      <trkpt lat="44.39492" lon="4.08567">
        <ele>912.50415</ele>
        <time>2022-03-03T12:11:52Z</time>
      </trkpt>
      <trkpt lat="44.39496" lon="4.08564">
        <ele>818.5</ele>
        <time>2022-03-03T12:11:57Z</time>
      </trkpt>
      <trkpt lat="44.395" lon="4.08561">
        <ele>914.3543</ele>
        <time>2022-03-03T12:12:05Z</time>
      </trkpt>
      <trkpt lat="44.39505" lon="4.0856">
        <ele>916.46674</ele>
        <time>2022-03-03T12:12:14Z</time>
      </trkpt>
      <trkpt lat="44.3951" lon="4.08563">
        <ele>917.3746</ele>
        <time>2022-03-03T12:12:19Z</time>
      </trkpt>
      <trkpt lat="44.39515" lon="4.08564">
        <ele>919.85803</ele>
        <time>2022-03-03T12:12:29Z</time>
      </trkpt>
      <trkpt lat="44.39519" lon="4.08566">
        <ele>920.9862</ele>
        <time>2022-03-03T12:12:38Z</time>
      </trkpt>
      <trkpt lat="44.39522" lon="4.08561">
        <ele>922.99567</ele>
        <time>2022-03-03T12:12:48Z</time>
      </trkpt>
      <trkpt lat="44.39525" lon="4.08556">
        <ele>925.12885</ele>
        <time>2022-03-03T12:12:55Z</time>
      </trkpt>
      <trkpt lat="44.39528" lon="4.08553">
        <ele>831.5</ele>
        <time>2022-03-03T12:13:03Z</time>
      </trkpt>
      <trkpt lat="44.39532" lon="4.08551">
        <ele>926.97015</ele>
        <time>2022-03-03T12:13:13Z</time>
      </trkpt>
      <trkpt lat="44.39536" lon="4.0855">
        <ele>929.027</ele>
        <time>2022-03-03T12:13:23Z</time>
      </trkpt>
      <trkpt lat="44.39541" lon="4.08547">
        <ele>930.44183</ele>
        <time>2022-03-03T12:13:29Z</time>
      </trkpt>
      <trkpt lat="44.39544" lon="4.08546">
        <ele>932.35736</ele>
        <time>2022-03-03T12:13:39Z</time>
      </trkpt>
      <trkpt lat="44.39547" lon="4.0854">
        <ele>934.4626</ele>
        <time>2022-03-03T12:13:47Z</time>
      </trkpt>
      <trkpt lat="44.3955" lon="4.08537">
        <ele>840.1</ele>
        <time>2022-03-03T12:13:57Z</time>
      </trkpt>
      <trkpt lat="44.39553" lon="4.08531">
        <ele>937.4936</ele>
        <time>2022-03-03T12:14:05Z</time>
      </trkpt>
      <trkpt lat="44.39557" lon="4.08527">
        <ele>939.14343</ele>
        <time>2022-03-03T12:14:11Z</time>
      </trkpt>
      <trkpt lat="44.39562" lon="4.08526">
        <ele>845.4</ele>
        <time>2022-03-03T12:14:18Z</time>
      </trkpt>
      <trkpt lat="44.39566" lon="4.08528">
        <ele>941.3311</ele>
        <time>2022-03-03T12:14:28Z</time>
      </trkpt>
      <trkpt lat="44.39571" lon="4.0853">
        <ele>943.09094</ele>
        <time>2022-03-03T12:14:35Z</time>
      </trkpt>
      <trkpt lat="44.39577" lon="4.08531">
        <ele>944.7502</ele>
        <time>2022-03-03T12:14:42Z</time>
      </trkpt>
      <trkpt lat="44.39579" lon="4.08534">
        <ele>945.7859</ele>
        <time>2022-03-03T12:14:52Z</time>
      </trkpt>
      <trkpt lat="44.39586" lon="4.08537">
        <ele>947.152</ele>
        <time>2022-03-03T12:14:59Z</time>
      </trkpt>
      <trkpt lat="44.3959" lon="4.08539">
        <ele>853.2</ele>
        <time>2022-03-03T12:15:04Z</time>
      </trkpt>
      <trkpt lat="44.39595" lon="4.08538">
        <ele>948.4592</ele>
        <time>2022-03-03T12:15:13Z</time>
      </trkpt>
      <trkpt lat="44.396" lon="4.08539">
        <ele>949.83044</ele>
        <time>2022-03-03T12:15:18Z</time>
      </trkpt>
      <trkpt lat="44.39602" lon="4.08542">
        <ele>951.93634</ele>
        <time>2022-03-03T12:15:28Z</time>
      </trkpt>
      <trkpt lat="44.39607" lon="4.08541">
        <ele>953.9726</ele>
        <time>2022-03-03T12:15:38Z</time>
      </trkpt>
      <trkpt lat="44.39611" lon="4.0854">
        <ele>860.1</ele>
        <time>2022-03-03T12:15:43Z</time>
      </trkpt>
      <trkpt lat="44.39613" lon="4.08536">
        <ele>955.34515</ele>
        <time>2022-03-03T12:15:53Z</time>
      </trkpt>
      <trkpt lat="44.39615" lon="4.08535">
        <ele>957.1471</ele>
        <time>2022-03-03T12:16:03Z</time>
      </trkpt>
      <trkpt lat="44.39618" lon="4.0853">
        <ele>958.9612</ele>
        <time>2022-03-03T12:16:10Z</time>
      </trkpt>
      <trkpt lat="44.3962" lon="4.08528">
        <ele>960.7514</ele>
        <time>2022-03-03T12:16:20Z</time>
      </trkpt>
      <trkpt lat="44.39623" lon="4.08523">
        <ele>866.9</ele>
        <time>2022-03-03T12:16:27Z</time>
      </trkpt>
      <trkpt lat="44.39628" lon="4.08521">
        <ele>963.46356</ele>
        <time>2022-03-03T12:16:36Z</time>
      </trkpt>
      <trkpt lat="44.39633" lon="4.0852">
        <ele>965.0984</ele>
        <time>2022-03-03T12:16:43Z</time>
      </trkpt>
      <trkpt lat="44.39636" lon="4.08522">
        <ele>966.7343</ele>
        <time>2022-03-03T12:16:53Z</time>
      </trkpt>
      <trkpt lat="44.39639" lon="4.08518">
        <ele>968.72003</ele>
        <time>2022-03-03T12:17:03Z</time>
      </trkpt>
      <trkpt lat="44.39642" lon="4.08513">
        <ele>970.6529</ele>
        <time>2022-03-03T12:17:13Z</time>
      </trkpt>
      <trkpt lat="44.39645" lon="4.08509">
        <ele>971.1414</ele>
        <time>2022-03-03T12:17:23Z</time>
      </trkpt>
      <trkpt lat="44.3965" lon="4.08507">
        <ele>972.61096</ele>
        <time>2022-03-03T12:17:30Z</time>
      </trkpt>
      <trkpt lat="44.39655" lon="4.08508">
        <ele>974.5962</ele>
        <time>2022-03-03T12:17:36Z</time>
      </trkpt>
      <trkpt lat="44.3966" lon="4.08506">
        <ele>880.2</ele>
        <time>2022-03-03T12:17:42Z</time>
      </trkpt>
      <trkpt lat="44.39663" lon="4.08504">
        <ele>976.4127</ele>
        <time>2022-03-03T12:17:52Z</time>
      </trkpt>
      <trkpt lat="44.39665" lon="4.08501">
        <ele>978.3513</ele>
        <time>2022-03-03T12:18:02Z</time>
      </trkpt>
      <trkpt lat="44.39669" lon="4.08496">
        <ele>980.54596</ele>
        <time>2022-03-03T12:18:07Z</time>
      </trkpt>
      <trkpt lat="44.39673" lon="4.08492">
        <ele>884.9</ele>
        <time>2022-03-03T12:18:13Z</time>
      </trkpt>
      <trkpt lat="44.39677" lon="4.08488">
        <ele>982.33795</ele>
        <time>2022-03-03T12:18:18Z</time>
      </trkpt>
      <trkpt lat="44.39681" lon="4.08484">
        <ele>983.96124</ele>
        <time>2022-03-03T12:18:25Z</time>
      </trkpt>
      <trkpt lat="44.39682" lon="4.08481">
        <ele>985.6296</ele>
        <time>2022-03-03T12:18:35Z</time>
      </trkpt>
      <trkpt lat="44.39684" lon="4.08476">
        <ele>987.3111</ele>
        <time>2022-03-03T12:18:45Z</time>
      </trkpt>
      <trkpt lat="44.39681" lon="4.08474">
        <ele>887.2</ele>
        <time>2022-03-03T12:18:55Z</time>
      </trkpt>
      <trkpt lat="44.39677" lon="4.08469">
        <ele>988.6857</ele>
        <time>2022-03-03T12:19:01Z</time>
      </trkpt>
      <trkpt lat="44.39677" lon="4.08463">
        <ele>889.5</ele>
        <time>2022-03-03T12:19:07Z</time>
      </trkpt>
      <trkpt lat="44.39677" lon="4.08456">
        <ele>990.2445</ele>
        <time>2022-03-03T12:19:13Z</time>
      </trkpt>
      <trkpt lat="44.3968" lon="4.08452">
        <ele>991.31537</ele>
        <time>2022-03-03T12:19:23Z</time>
      </trkpt>
      <trkpt lat="44.3968" lon="4.08451">
        <ele>991.4974</ele>
        <time>2022-03-03T12:19:33Z</time>
      </trkpt>
      <trkpt lat="44.39679" lon="4.08443">
        <ele>991.66833</ele>
        <time>2022-03-03T12:19:39Z</time>
      </trkpt>
      <trkpt lat="44.39679" lon="4.08436">
        <ele>893.2</ele>
        <time>2022-03-03T12:19:44Z</time>
      </trkpt>
      <trkpt lat="44.39679" lon="4.08434">
        <ele>992.5903</ele>
        <time>2022-03-03T12:19:54Z</time>
      </trkpt>
      <trkpt lat="44.39678" lon="4.08431">
        <ele>992.8143</ele>
        <time>2022-03-03T12:20:04Z</time>
      </trkpt>
      <trkpt lat="44.39682" lon="4.08429">
        <ele>992.93427</ele>
        <time>2022-03-03T12:20:14Z</time>
      </trkpt>
      <trkpt lat="44.39683" lon="4.08426">
        <ele>993.0053</ele>
        <time>2022-03-03T12:20:24Z</time>
      </trkpt>
      <trkpt lat="44.39684" lon="4.08419">
        <ele>992.96027</ele>
        <time>2022-03-03T12:20:33Z</time>
      </trkpt>
      <trkpt lat="44.39688" lon="4.08414">
        <ele>994.69836</ele>
        <time>2022-03-03T12:20:39Z</time>
      </trkpt>
      <trkpt lat="44.3969" lon="4.08408">
        <ele>897.6</ele>
        <time>2022-03-03T12:20:44Z</time>
      </trkpt>
      <trkpt lat="44.39692" lon="4.08402">
        <ele>995.75146</ele>
        <time>2022-03-03T12:20:49Z</time>
      </trkpt>
      <trkpt lat="44.39692" lon="4.08396">
        <ele>996.8446</ele>
        <time>2022-03-03T12:20:57Z</time>
      </trkpt>
      <trkpt lat="44.39693" lon="4.08389">
        <ele>998.81305</ele>
        <time>2022-03-03T12:21:07Z</time>
      </trkpt>
      <trkpt lat="44.39696" lon="4.08383">
        <ele>903.4</ele>
        <time>2022-03-03T12:21:15Z</time>
      </trkpt>
      <trkpt lat="44.39699" lon="4.08378">
        <ele>1001.90204</ele>
        <time>2022-03-03T12:21:25Z</time>
      </trkpt>
      <trkpt lat="44.39701" lon="4.08374">
        <ele>1003.4227</ele>
        <time>2022-03-03T12:21:35Z</time>
      </trkpt>
      <trkpt lat="44.39704" lon="4.08372">
        <ele>1004.6043</ele>
        <time>2022-03-03T12:21:45Z</time>
      </trkpt>
      <trkpt lat="44.39704" lon="4.08373">
        <ele>1004.6073</ele>
        <time>2022-03-03T12:21:55Z</time>
      </trkpt>
      <trkpt lat="44.39704" lon="4.08376">
        <ele>1005.22363</ele>
        <time>2022-03-03T12:22:05Z</time>
      </trkpt>
      <trkpt lat="44.39705" lon="4.08376">
        <ele>1005.57983</ele>
        <time>2022-03-03T12:22:15Z</time>
      </trkpt>
      <trkpt lat="44.39705" lon="4.08376">
        <ele>1004.98553</ele>
        <time>2022-03-03T12:22:25Z</time>
      </trkpt>
      <trkpt lat="44.39704" lon="4.08376">
        <ele>1005.0896</ele>
        <time>2022-03-03T12:22:35Z</time>
      </trkpt>
      <trkpt lat="44.39704" lon="4.08376">
        <ele>1004.8344</ele>
        <time>2022-03-03T12:22:45Z</time>
      </trkpt>
      <trkpt lat="44.39703" lon="4.08369">
        <ele>903.1</ele>
        <time>2022-03-03T12:22:53Z</time>
      </trkpt>
      <trkpt lat="44.39704" lon="4.08363">
        <ele>1004.7734</ele>
        <time>2022-03-03T12:23:00Z</time>
      </trkpt>
      <trkpt lat="44.39705" lon="4.08356">
        <ele>1003.5678</ele>
        <time>2022-03-03T12:23:06Z</time>
      </trkpt>
      <trkpt lat="44.39706" lon="4.08349">
        <ele>904.4</ele>
        <time>2022-03-03T12:23:13Z</time>
      </trkpt>
      <trkpt lat="44.39706" lon="4.08349">
        <ele>1003.49274</ele>
        <time>2022-03-03T12:23:23Z</time>
      </trkpt>
      <trkpt lat="44.39706" lon="4.08351">
        <ele>1003.87396</ele>
        <time>2022-03-03T12:23:33Z</time>
      </trkpt>
      <trkpt lat="44.39706" lon="4.08351">
        <ele>1003.8249</ele>
        <time>2022-03-03T12:23:43Z</time>
      </trkpt>
      <trkpt lat="44.39706" lon="4.08351">
        <ele>1006.0961</ele>
        <time>2022-03-03T12:54:38Z</time>
      </trkpt>
      <trkpt lat="44.39704" lon="4.08349">
        <ele>1006.69354</ele>
        <time>2022-03-03T12:54:48Z</time>
      </trkpt>
      <trkpt lat="44.39703" lon="4.08342">
        <ele>1008.0614</ele>
        <time>2022-03-03T12:54:57Z</time>
      </trkpt>
      <trkpt lat="44.39702" lon="4.08342">
        <ele>1007.7432</ele>
        <time>2022-03-03T12:55:07Z</time>
      </trkpt>
      <trkpt lat="44.39698" lon="4.08343">
        <ele>1008.0074</ele>
        <time>2022-03-03T12:55:15Z</time>
      </trkpt>
      <trkpt lat="44.39698" lon="4.08344">
        <ele>1007.7372</ele>
        <time>2022-03-03T12:55:25Z</time>
      </trkpt>
      <trkpt lat="44.39693" lon="4.08344">
        <ele>1007.463</ele>
        <time>2022-03-03T12:55:33Z</time>
      </trkpt>
      <trkpt lat="44.39689" lon="4.08346">
        <ele>1006.4003</ele>
        <time>2022-03-03T12:55:40Z</time>
      </trkpt>
      <trkpt lat="44.39684" lon="4.08348">
        <ele>903.5</ele>
        <time>2022-03-03T12:55:44Z</time>
      </trkpt>
      <trkpt lat="44.3968" lon="4.08352">
        <ele>902.5</ele>
        <time>2022-03-03T12:55:49Z</time>
      </trkpt>
      <trkpt lat="44.39676" lon="4.08356">
        <ele>1004.52325</ele>
        <time>2022-03-03T12:55:54Z</time>
      </trkpt>
      <trkpt lat="44.39673" lon="4.08359">
        <ele>900.7</ele>
        <time>2022-03-03T12:55:58Z</time>
      </trkpt>
      <trkpt lat="44.39673" lon="4.08366">
        <ele>1003.46277</ele>
        <time>2022-03-03T12:56:06Z</time>
      </trkpt>
      <trkpt lat="44.39672" lon="4.08373">
        <ele>1002.57935</ele>
        <time>2022-03-03T12:56:12Z</time>
      </trkpt>
      <trkpt lat="44.39673" lon="4.08379">
        <ele>898.9</ele>
        <time>2022-03-03T12:56:17Z</time>
      </trkpt>
      <trkpt lat="44.39675" lon="4.08386">
        <ele>1001.1838</ele>
        <time>2022-03-03T12:56:22Z</time>
      </trkpt>
      <trkpt lat="44.39676" lon="4.08393">
        <ele>898</ele>
        <time>2022-03-03T12:56:27Z</time>
      </trkpt>
      <trkpt lat="44.39677" lon="4.084">
        <ele>897.4</ele>
        <time>2022-03-03T12:56:32Z</time>
      </trkpt>
      <trkpt lat="44.39679" lon="4.08405">
        <ele>999.52423</ele>
        <time>2022-03-03T12:56:39Z</time>
      </trkpt>
      <trkpt lat="44.39681" lon="4.08411">
        <ele>998.61</ele>
        <time>2022-03-03T12:56:47Z</time>
      </trkpt>
      <trkpt lat="44.39677" lon="4.08416">
        <ele>895.5</ele>
        <time>2022-03-03T12:56:52Z</time>
      </trkpt>
      <trkpt lat="44.39672" lon="4.08415">
        <ele>997.7608</ele>
        <time>2022-03-03T12:56:55Z</time>
      </trkpt>
      <trkpt lat="44.39667" lon="4.08413">
        <ele>895.2</ele>
        <time>2022-03-03T12:56:59Z</time>
      </trkpt>
      <trkpt lat="44.39664" lon="4.08407">
        <ele>894</ele>
        <time>2022-03-03T12:57:03Z</time>
      </trkpt>
      <trkpt lat="44.39661" lon="4.084">
        <ele>995.52844</ele>
        <time>2022-03-03T12:57:09Z</time>
      </trkpt>
      <trkpt lat="44.3966" lon="4.08393">
        <ele>892.5</ele>
        <time>2022-03-03T12:57:14Z</time>
      </trkpt>
      <trkpt lat="44.39659" lon="4.08386">
        <ele>993.8873</ele>
        <time>2022-03-03T12:57:19Z</time>
      </trkpt>
      <trkpt lat="44.39659" lon="4.08379">
        <ele>892.6</ele>
        <time>2022-03-03T12:57:22Z</time>
      </trkpt>
      <trkpt lat="44.39658" lon="4.08373">
        <ele>993.0703</ele>
        <time>2022-03-03T12:57:25Z</time>
      </trkpt>
      <trkpt lat="44.39657" lon="4.08366">
        <ele>892.4</ele>
        <time>2022-03-03T12:57:29Z</time>
        <extensions>
          <gpxtpx:TrackPointExtension xmlns:gpxtpx="http://www.garmin.com/xmlschemas/TrackPointExtension/v1">
            <gpxtpx:hr>126</gpxtpx:hr>
          </gpxtpx:TrackPointExtension>
        </extensions>
      </trkpt>
      <trkpt lat="44.39657" lon="4.08359">
        <ele>992.8803</ele>
        <time>2022-03-03T12:57:33Z</time>
      </trkpt>
      <trkpt lat="44.39657" lon="4.08352">
        <ele>892</ele>
        <time>2022-03-03T12:57:37Z</time>
      </trkpt>
      <trkpt lat="44.39658" lon="4.08345">
        <ele>992.7543</ele>
        <time>2022-03-03T12:57:40Z</time>
      </trkpt>
      <trkpt lat="44.3966" lon="4.08339">
        <ele>892.2</ele>
        <time>2022-03-03T12:57:44Z</time>
      </trkpt>
      <trkpt lat="44.39661" lon="4.08332">
        <ele>892.3</ele>
        <time>2022-03-03T12:57:49Z</time>
      </trkpt>
      <trkpt lat="44.39663" lon="4.08327">
        <ele>992.7743</ele>
        <time>2022-03-03T12:57:54Z</time>
      </trkpt>
      <trkpt lat="44.39665" lon="4.0832">
        <ele>891.8</ele>
        <time>2022-03-03T12:57:58Z</time>
      </trkpt>
      <trkpt lat="44.39667" lon="4.08313">
        <ele>991.80634</ele>
        <time>2022-03-03T12:58:02Z</time>
      </trkpt>
      <trkpt lat="44.39671" lon="4.08307">
        <ele>890.6</ele>
        <time>2022-03-03T12:58:07Z</time>
      </trkpt>
      <trkpt lat="44.39674" lon="4.083">
        <ele>990.8304</ele>
        <time>2022-03-03T12:58:12Z</time>
      </trkpt>
      <trkpt lat="44.39676" lon="4.08295">
        <ele>888.7</ele>
        <time>2022-03-03T12:58:16Z</time>
      </trkpt>
      <trkpt lat="44.39681" lon="4.0829">
        <ele>989.70056</ele>
        <time>2022-03-03T12:58:20Z</time>
      </trkpt>
      <trkpt lat="44.39684" lon="4.08285">
        <ele>888.6</ele>
        <time>2022-03-03T12:58:25Z</time>
      </trkpt>
      <trkpt lat="44.39689" lon="4.08281">
        <ele>889.1</ele>
        <time>2022-03-03T12:58:29Z</time>
        <extensions>
          <gpxtpx:TrackPointExtension xmlns:gpxtpx="http://www.garmin.com/xmlschemas/TrackPointExtension/v1">
            <gpxtpx:hr>123</gpxtpx:hr>
          </gpxtpx:TrackPointExtension>
        </extensions>
      </trkpt>
      <trkpt lat="44.39693" lon="4.08276">
        <ele>989.5106</ele>
        <time>2022-03-03T12:58:33Z</time>
      </trkpt>
      <trkpt lat="44.39697" lon="4.08271">
        <ele>887.9</ele>
        <time>2022-03-03T12:58:38Z</time>
      </trkpt>
      <trkpt lat="44.397" lon="4.08267">
        <ele>988.78174</ele>
        <time>2022-03-03T12:58:43Z</time>
      </trkpt>
      <trkpt lat="44.39705" lon="4.08262">
        <ele>886.6</ele>
        <time>2022-03-03T12:58:47Z</time>
      </trkpt>
      <trkpt lat="44.3971" lon="4.08261">
        <ele>988.0189</ele>
        <time>2022-03-03T12:58:52Z</time>
      </trkpt>
      <trkpt lat="44.39716" lon="4.08258">
        <ele>887</ele>
        <time>2022-03-03T12:58:57Z</time>
      </trkpt>
      <trkpt lat="44.3972" lon="4.08255">
        <ele>886.8</ele>
        <time>2022-03-03T12:59:01Z</time>
      </trkpt>
      <trkpt lat="44.39725" lon="4.08255">
        <ele>986.31934</ele>
        <time>2022-03-03T12:59:06Z</time>
      </trkpt>
      <trkpt lat="44.3973" lon="4.08253">
        <ele>888</ele>
        <time>2022-03-03T12:59:10Z</time>
      </trkpt>
      <trkpt lat="44.39735" lon="4.08251">
        <ele>888.1</ele>
        <time>2022-03-03T12:59:14Z</time>
      </trkpt>
      <trkpt lat="44.3974" lon="4.08248">
        <ele>985.2997</ele>
        <time>2022-03-03T12:59:19Z</time>
      </trkpt>
      <trkpt lat="44.39745" lon="4.08244">
        <ele>888</ele>
        <time>2022-03-03T12:59:23Z</time>
      </trkpt>
      <trkpt lat="44.39749" lon="4.0824">
        <ele>984.492</ele>
        <time>2022-03-03T12:59:29Z</time>
      </trkpt>
      <trkpt lat="44.39753" lon="4.08236">
        <ele>983.9922</ele>
        <time>2022-03-03T12:59:35Z</time>
      </trkpt>
      <trkpt lat="44.39757" lon="4.08231">
        <ele>887.3</ele>
        <time>2022-03-03T12:59:40Z</time>
      </trkpt>
      <trkpt lat="44.39761" lon="4.08227">
        <ele>887.2</ele>
        <time>2022-03-03T12:59:44Z</time>
      </trkpt>
      <trkpt lat="44.39764" lon="4.08223">
        <ele>983.47943</ele>
        <time>2022-03-03T12:59:48Z</time>
      </trkpt>
      <trkpt lat="44.39768" lon="4.08219">
        <ele>886.4</ele>
        <time>2022-03-03T12:59:52Z</time>
      </trkpt>
      <trkpt lat="44.39772" lon="4.08214">
        <ele>982.77277</ele>
        <time>2022-03-03T12:59:55Z</time>
      </trkpt>
      <trkpt lat="44.39776" lon="4.08208">
        <ele>884.8</ele>
        <time>2022-03-03T12:59:58Z</time>
      </trkpt>
      <trkpt lat="44.39776" lon="4.08202">
        <ele>982.6488</ele>
        <time>2022-03-03T13:00:08Z</time>
      </trkpt>
      <trkpt lat="44.3978" lon="4.08199">
        <ele>982.04114</ele>
        <time>2022-03-03T13:00:18Z</time>
      </trkpt>
      <trkpt lat="44.39785" lon="4.08196">
        <ele>981.9012</ele>
        <time>2022-03-03T13:00:23Z</time>
      </trkpt>
      <trkpt lat="44.39789" lon="4.08193">
        <ele>881.5</ele>
        <time>2022-03-03T13:00:27Z</time>
      </trkpt>
      <trkpt lat="44.39794" lon="4.0819">
        <ele>980.9467</ele>
        <time>2022-03-03T13:00:33Z</time>
      </trkpt>
      <trkpt lat="44.39799" lon="4.08189">
        <ele>881.1</ele>
        <time>2022-03-03T13:00:37Z</time>
      </trkpt>
      <trkpt lat="44.39803" lon="4.08183">
        <ele>979.66144</ele>
        <time>2022-03-03T13:00:42Z</time>
      </trkpt>
      <trkpt lat="44.39806" lon="4.08178">
        <ele>879.2</ele>
        <time>2022-03-03T13:00:46Z</time>
      </trkpt>
      <trkpt lat="44.39808" lon="4.08171">
        <ele>978.44226</ele>
        <time>2022-03-03T13:00:51Z</time>
      </trkpt>
      <trkpt lat="44.39809" lon="4.08165">
        <ele>877</ele>
        <time>2022-03-03T13:00:55Z</time>
      </trkpt>
      <trkpt lat="44.39812" lon="4.08158">
        <ele>876.1</ele>
        <time>2022-03-03T13:00:59Z</time>
      </trkpt>
      <trkpt lat="44.39814" lon="4.08151">
        <ele>976.72546</ele>
        <time>2022-03-03T13:01:03Z</time>
      </trkpt>
      <trkpt lat="44.39816" lon="4.08145">
        <ele>874.1</ele>
        <time>2022-03-03T13:01:07Z</time>
      </trkpt>
      <trkpt lat="44.39819" lon="4.08139">
        <ele>975.49243</ele>
        <time>2022-03-03T13:01:11Z</time>
      </trkpt>
      <trkpt lat="44.39822" lon="4.08134">
        <ele>873.3</ele>
        <time>2022-03-03T13:01:15Z</time>
      </trkpt>
      <trkpt lat="44.39825" lon="4.0813">
        <ele>974.17755</ele>
        <time>2022-03-03T13:01:20Z</time>
      </trkpt>
      <trkpt lat="44.3983" lon="4.08124">
        <ele>874.1</ele>
        <time>2022-03-03T13:01:24Z</time>
      </trkpt>
      <trkpt lat="44.39834" lon="4.08118">
        <ele>873.8</ele>
        <time>2022-03-03T13:01:28Z</time>
      </trkpt>
      <trkpt lat="44.39838" lon="4.08114">
        <ele>973.30133</ele>
        <time>2022-03-03T13:01:32Z</time>
      </trkpt>
      <trkpt lat="44.39841" lon="4.08109">
        <ele>873.3</ele>
        <time>2022-03-03T13:01:36Z</time>
      </trkpt>
      <trkpt lat="44.39842" lon="4.08102">
        <ele>872.1</ele>
        <time>2022-03-03T13:01:40Z</time>
      </trkpt>
      <trkpt lat="44.39843" lon="4.08095">
        <ele>871.4</ele>
        <time>2022-03-03T13:01:44Z</time>
      </trkpt>
      <trkpt lat="44.39846" lon="4.0809">
        <ele>972.0525</ele>
        <time>2022-03-03T13:01:48Z</time>
      </trkpt>
      <trkpt lat="44.39849" lon="4.08084">
        <ele>871.6</ele>
        <time>2022-03-03T13:01:52Z</time>
      </trkpt>
      <trkpt lat="44.39851" lon="4.08078">
        <ele>971.28125</ele>
        <time>2022-03-03T13:01:56Z</time>
      </trkpt>
      <trkpt lat="44.39853" lon="4.08072">
        <ele>871.5</ele>
        <time>2022-03-03T13:02:01Z</time>
      </trkpt>
      <trkpt lat="44.39853" lon="4.08065">
        <ele>970.556</ele>
        <time>2022-03-03T13:02:05Z</time>
      </trkpt>
      <trkpt lat="44.39852" lon="4.08058">
        <ele>869.3</ele>
        <time>2022-03-03T13:02:09Z</time>
      </trkpt>
      <trkpt lat="44.39852" lon="4.0805">
        <ele>868.2</ele>
        <time>2022-03-03T13:02:14Z</time>
      </trkpt>
      <trkpt lat="44.39853" lon="4.08043">
        <ele>969.23346</ele>
        <time>2022-03-03T13:02:18Z</time>
      </trkpt>
      <trkpt lat="44.39854" lon="4.08035">
        <ele>867.4</ele>
        <time>2022-03-03T13:02:22Z</time>
      </trkpt>
      <trkpt lat="44.39854" lon="4.08028">
        <ele>967.883</ele>
        <time>2022-03-03T13:02:26Z</time>
      </trkpt>
      <trkpt lat="44.39857" lon="4.08022">
        <ele>967.3486</ele>
        <time>2022-03-03T13:02:30Z</time>
      </trkpt>
      <trkpt lat="44.39861" lon="4.08018">
        <ele>866.4</ele>
        <time>2022-03-03T13:02:34Z</time>
      </trkpt>
      <trkpt lat="44.39864" lon="4.08013">
        <ele>866.4</ele>
        <time>2022-03-03T13:02:37Z</time>
      </trkpt>
      <trkpt lat="44.39869" lon="4.08009">
        <ele>966.15</ele>
        <time>2022-03-03T13:02:41Z</time>
      </trkpt>
      <trkpt lat="44.39871" lon="4.08003">
        <ele>865.9</ele>
        <time>2022-03-03T13:02:45Z</time>
      </trkpt>
      <trkpt lat="44.39873" lon="4.07997">
        <ele>865.2</ele>
        <time>2022-03-03T13:02:49Z</time>
      </trkpt>
      <trkpt lat="44.39875" lon="4.07991">
        <ele>964.98553</ele>
        <time>2022-03-03T13:02:53Z</time>
      </trkpt>
      <trkpt lat="44.39876" lon="4.07984">
        <ele>863.7</ele>
        <time>2022-03-03T13:02:58Z</time>
      </trkpt>
      <trkpt lat="44.39876" lon="4.07978">
        <ele>963.6573</ele>
        <time>2022-03-03T13:03:01Z</time>
      </trkpt>
      <trkpt lat="44.39878" lon="4.07972">
        <ele>862.2</ele>
        <time>2022-03-03T13:03:04Z</time>
      </trkpt>
      <trkpt lat="44.3988" lon="4.07965">
        <ele>862.1</ele>
        <time>2022-03-03T13:03:08Z</time>
      </trkpt>
      <trkpt lat="44.39882" lon="4.07958">
        <ele>962.67865</ele>
        <time>2022-03-03T13:03:13Z</time>
      </trkpt>
      <trkpt lat="44.39883" lon="4.07951">
        <ele>862</ele>
        <time>2022-03-03T13:03:17Z</time>
      </trkpt>
      <trkpt lat="44.39885" lon="4.07944">
        <ele>962.2972</ele>
        <time>2022-03-03T13:03:21Z</time>
      </trkpt>
      <trkpt lat="44.39885" lon="4.07937">
        <ele>861.4</ele>
        <time>2022-03-03T13:03:25Z</time>
      </trkpt>
      <trkpt lat="44.39886" lon="4.07931">
        <ele>861.3</ele>
        <time>2022-03-03T13:03:29Z</time>
      </trkpt>
      <trkpt lat="44.39886" lon="4.07923">
        <ele>961.738</ele>
        <time>2022-03-03T13:03:34Z</time>
      </trkpt>
      <trkpt lat="44.39886" lon="4.07915">
        <ele>859.9</ele>
        <time>2022-03-03T13:03:38Z</time>
      </trkpt>
      <trkpt lat="44.39887" lon="4.07909">
        <ele>960.85126</ele>
        <time>2022-03-03T13:03:42Z</time>
      </trkpt>
      <trkpt lat="44.39889" lon="4.07902">
        <ele>858.4</ele>
        <time>2022-03-03T13:03:47Z</time>
      </trkpt>
      <trkpt lat="44.39895" lon="4.079">
        <ele>959.9686</ele>
        <time>2022-03-03T13:03:51Z</time>
      </trkpt>
      <trkpt lat="44.399" lon="4.07898">
        <ele>859.4</ele>
        <time>2022-03-03T13:03:57Z</time>
      </trkpt>
      <trkpt lat="44.39905" lon="4.07896">
        <ele>959.03204</ele>
        <time>2022-03-03T13:04:01Z</time>
      </trkpt>
      <trkpt lat="44.39909" lon="4.079">
        <ele>861.8</ele>
        <time>2022-03-03T13:04:05Z</time>
      </trkpt>
      <trkpt lat="44.39914" lon="4.079">
        <ele>862.6</ele>
        <time>2022-03-03T13:04:10Z</time>
      </trkpt>
      <trkpt lat="44.39919" lon="4.079">
        <ele>863.6</ele>
        <time>2022-03-03T13:04:14Z</time>
      </trkpt>
      <trkpt lat="44.39925" lon="4.079">
        <ele>958.3771</ele>
        <time>2022-03-03T13:04:18Z</time>
      </trkpt>
      <trkpt lat="44.39929" lon="4.07896">
        <ele>864.8</ele>
        <time>2022-03-03T13:04:22Z</time>
      </trkpt>
      <trkpt lat="44.39933" lon="4.07893">
        <ele>958.1934</ele>
        <time>2022-03-03T13:04:27Z</time>
      </trkpt>
      <trkpt lat="44.39937" lon="4.07887">
        <ele>863.9</ele>
        <time>2022-03-03T13:04:31Z</time>
      </trkpt>
      <trkpt lat="44.3994" lon="4.07882">
        <ele>863</ele>
        <time>2022-03-03T13:04:34Z</time>
      </trkpt>
      <trkpt lat="44.39943" lon="4.07876">
        <ele>957.7661</ele>
        <time>2022-03-03T13:04:38Z</time>
      </trkpt>
      <trkpt lat="44.39945" lon="4.0787">
        <ele>860.1</ele>
        <time>2022-03-03T13:04:42Z</time>
      </trkpt>
      <trkpt lat="44.39947" lon="4.07862">
        <ele>957.2569</ele>
        <time>2022-03-03T13:04:45Z</time>
      </trkpt>
      <trkpt lat="44.39948" lon="4.07854">
        <ele>858.6</ele>
        <time>2022-03-03T13:04:48Z</time>
      </trkpt>
      <trkpt lat="44.39949" lon="4.07845">
        <ele>858.1</ele>
        <time>2022-03-03T13:04:51Z</time>
      </trkpt>
      <trkpt lat="44.3995" lon="4.07839">
        <ele>857.3</ele>
        <time>2022-03-03T13:04:54Z</time>
      </trkpt>
      <trkpt lat="44.39952" lon="4.07832">
        <ele>957.24194</ele>
        <time>2022-03-03T13:04:57Z</time>
      </trkpt>
      <trkpt lat="44.39954" lon="4.07825">
        <ele>957.2859</ele>
        <time>2022-03-03T13:05:01Z</time>
      </trkpt>
      <trkpt lat="44.39957" lon="4.0782">
        <ele>854</ele>
        <time>2022-03-03T13:05:06Z</time>
      </trkpt>
      <trkpt lat="44.39963" lon="4.0782">
        <ele>956.24365</ele>
        <time>2022-03-03T13:05:11Z</time>
      </trkpt>
      <trkpt lat="44.39967" lon="4.07823">
        <ele>861.5</ele>
        <time>2022-03-03T13:05:15Z</time>
      </trkpt>
      <trkpt lat="44.39973" lon="4.07821">
        <ele>863.1</ele>
        <time>2022-03-03T13:05:19Z</time>
      </trkpt>
      <trkpt lat="44.39977" lon="4.07816">
        <ele>955.2064</ele>
        <time>2022-03-03T13:05:24Z</time>
      </trkpt>
      <trkpt lat="44.39981" lon="4.07811">
        <ele>859.3</ele>
        <time>2022-03-03T13:05:28Z</time>
      </trkpt>
      <trkpt lat="44.39985" lon="4.07806">
        <ele>954.313</ele>
        <time>2022-03-03T13:05:32Z</time>
      </trkpt>
      <trkpt lat="44.39988" lon="4.07799">
        <ele>855.3</ele>
        <time>2022-03-03T13:05:36Z</time>
      </trkpt>
      <trkpt lat="44.39991" lon="4.07793">
        <ele>953.2479</ele>
        <time>2022-03-03T13:05:40Z</time>
      </trkpt>
      <trkpt lat="44.39995" lon="4.07788">
        <ele>853.5</ele>
        <time>2022-03-03T13:05:44Z</time>
      </trkpt>
      <trkpt lat="44.39999" lon="4.07784">
        <ele>853.2</ele>
        <time>2022-03-03T13:05:48Z</time>
      </trkpt>
      <trkpt lat="44.40002" lon="4.07779">
        <ele>952.2478</ele>
        <time>2022-03-03T13:05:52Z</time>
      </trkpt>
      <trkpt lat="44.40006" lon="4.07774">
        <ele>851.6</ele>
        <time>2022-03-03T13:05:56Z</time>
      </trkpt>
      <trkpt lat="44.4001" lon="4.07769">
        <ele>951.42535</ele>
        <time>2022-03-03T13:06:00Z</time>
      </trkpt>
      <trkpt lat="44.40015" lon="4.07766">
        <ele>851.9</ele>
        <time>2022-03-03T13:06:05Z</time>
      </trkpt>
      <trkpt lat="44.4002" lon="4.07763">
        <ele>852.2</ele>
        <time>2022-03-03T13:06:09Z</time>
      </trkpt>
      <trkpt lat="44.40023" lon="4.07758">
        <ele>950.3574</ele>
        <time>2022-03-03T13:06:13Z</time>
      </trkpt>
      <trkpt lat="44.40027" lon="4.07754">
        <ele>949.5081</ele>
        <time>2022-03-03T13:06:20Z</time>
      </trkpt>
      <trkpt lat="44.40031" lon="4.07748">
        <ele>850</ele>
        <time>2022-03-03T13:06:24Z</time>
      </trkpt>
      <trkpt lat="44.40036" lon="4.07746">
        <ele>850.6</ele>
        <time>2022-03-03T13:06:28Z</time>
      </trkpt>
      <trkpt lat="44.40042" lon="4.07744">
        <ele>851.5</ele>
        <time>2022-03-03T13:06:32Z</time>
      </trkpt>
      <trkpt lat="44.40047" lon="4.07742">
        <ele>948.1229</ele>
        <time>2022-03-03T13:06:36Z</time>
      </trkpt>
      <trkpt lat="44.40051" lon="4.07739">
        <ele>851.5</ele>
        <time>2022-03-03T13:06:41Z</time>
      </trkpt>
      <trkpt lat="44.40057" lon="4.07737">
        <ele>946.669</ele>
        <time>2022-03-03T13:06:45Z</time>
      </trkpt>
      <trkpt lat="44.40062" lon="4.07735">
        <ele>849.3</ele>
        <time>2022-03-03T13:06:48Z</time>
      </trkpt>
      <trkpt lat="44.40067" lon="4.07732">
        <ele>847.4</ele>
        <time>2022-03-03T13:06:52Z</time>
      </trkpt>
      <trkpt lat="44.40071" lon="4.07728">
        <ele>945.4556</ele>
        <time>2022-03-03T13:06:57Z</time>
      </trkpt>
      <trkpt lat="44.40075" lon="4.07723">
        <ele>844</ele>
        <time>2022-03-03T13:07:01Z</time>
      </trkpt>
      <trkpt lat="44.40078" lon="4.07719">
        <ele>843.2</ele>
        <time>2022-03-03T13:07:04Z</time>
      </trkpt>
      <trkpt lat="44.40082" lon="4.07713">
        <ele>944.4199</ele>
        <time>2022-03-03T13:07:09Z</time>
      </trkpt>
      <trkpt lat="44.40085" lon="4.07707">
        <ele>841.6</ele>
        <time>2022-03-03T13:07:14Z</time>
      </trkpt>
      <trkpt lat="44.40089" lon="4.07701">
        <ele>944.02484</ele>
        <time>2022-03-03T13:07:18Z</time>
      </trkpt>
      <trkpt lat="44.40093" lon="4.07697">
        <ele>943.37134</ele>
        <time>2022-03-03T13:07:23Z</time>
      </trkpt>
      <trkpt lat="44.40097" lon="4.07692">
        <ele>840.5</ele>
        <time>2022-03-03T13:07:28Z</time>
      </trkpt>
      <trkpt lat="44.401" lon="4.07687">
        <ele>942.4355</ele>
        <time>2022-03-03T13:07:32Z</time>
      </trkpt>
      <trkpt lat="44.40104" lon="4.07681">
        <ele>841</ele>
        <time>2022-03-03T13:07:36Z</time>
      </trkpt>
      <trkpt lat="44.40107" lon="4.07675">
        <ele>941.99854</ele>
        <time>2022-03-03T13:07:41Z</time>
      </trkpt>
      <trkpt lat="44.40109" lon="4.07668">
        <ele>841.3</ele>
        <time>2022-03-03T13:07:45Z</time>
      </trkpt>
      <trkpt lat="44.40111" lon="4.07661">
        <ele>941.8828</ele>
        <time>2022-03-03T13:07:50Z</time>
      </trkpt>
      <trkpt lat="44.40113" lon="4.07655">
        <ele>840</ele>
        <time>2022-03-03T13:07:54Z</time>
      </trkpt>
      <trkpt lat="44.40116" lon="4.07649">
        <ele>839.5</ele>
        <time>2022-03-03T13:07:58Z</time>
      </trkpt>
      <trkpt lat="44.40119" lon="4.07643">
        <ele>941.4887</ele>
        <time>2022-03-03T13:08:03Z</time>
      </trkpt>
      <trkpt lat="44.40122" lon="4.07637">
        <ele>840.2</ele>
        <time>2022-03-03T13:08:07Z</time>
      </trkpt>
      <trkpt lat="44.40124" lon="4.07632">
        <ele>941.3341</ele>
        <time>2022-03-03T13:08:11Z</time>
      </trkpt>
      <trkpt lat="44.40128" lon="4.07627">
        <ele>840.1</ele>
        <time>2022-03-03T13:08:14Z</time>
      </trkpt>
      <trkpt lat="44.40131" lon="4.07621">
        <ele>840.1</ele>
        <time>2022-03-03T13:08:19Z</time>
      </trkpt>
      <trkpt lat="44.40136" lon="4.07616">
        <ele>941.4129</ele>
        <time>2022-03-03T13:08:25Z</time>
      </trkpt>
      <trkpt lat="44.4014" lon="4.07611">
        <ele>841.1</ele>
        <time>2022-03-03T13:08:28Z</time>
      </trkpt>
      <trkpt lat="44.40142" lon="4.07606">
        <ele>941.4588</ele>
        <time>2022-03-03T13:08:32Z</time>
      </trkpt>
      <trkpt lat="44.40147" lon="4.07601">
        <ele>840.7</ele>
        <time>2022-03-03T13:08:37Z</time>
      </trkpt>
      <trkpt lat="44.40151" lon="4.07596">
        <ele>941.58746</ele>
        <time>2022-03-03T13:08:42Z</time>
      </trkpt>
      <trkpt lat="44.40154" lon="4.07592">
        <ele>841.3</ele>
        <time>2022-03-03T13:08:46Z</time>
      </trkpt>
      <trkpt lat="44.40159" lon="4.07588">
        <ele>942.2589</ele>
        <time>2022-03-03T13:08:52Z</time>
      </trkpt>
      <trkpt lat="44.40163" lon="4.07585">
        <ele>843</ele>
        <time>2022-03-03T13:08:57Z</time>
      </trkpt>
      <trkpt lat="44.40165" lon="4.07578">
        <ele>944.68933</ele>
        <time>2022-03-03T13:09:05Z</time>
      </trkpt>
      <trkpt lat="44.40168" lon="4.07574">
        <ele>843</ele>
        <time>2022-03-03T13:09:10Z</time>
      </trkpt>
      <trkpt lat="44.40173" lon="4.0757">
        <ele>945.4028</ele>
        <time>2022-03-03T13:09:15Z</time>
      </trkpt>
      <trkpt lat="44.40176" lon="4.07564">
        <ele>841.8</ele>
        <time>2022-03-03T13:09:21Z</time>
      </trkpt>
      <trkpt lat="44.40177" lon="4.07558">
        <ele>946.6022</ele>
        <time>2022-03-03T13:09:28Z</time>
      </trkpt>
      <trkpt lat="44.4018" lon="4.07551">
        <ele>946.9554</ele>
        <time>2022-03-03T13:09:35Z</time>
      </trkpt>
      <trkpt lat="44.40183" lon="4.07546">
        <ele>842.3</ele>
        <time>2022-03-03T13:09:41Z</time>
      </trkpt>
      <trkpt lat="44.40188" lon="4.07544">
        <ele>945.82184</ele>
        <time>2022-03-03T13:09:50Z</time>
      </trkpt>
      <trkpt lat="44.40193" lon="4.07541">
        <ele>843.9</ele>
        <time>2022-03-03T13:09:56Z</time>
      </trkpt>
      <trkpt lat="44.40197" lon="4.07539">
        <ele>945.3968</ele>
        <time>2022-03-03T13:10:00Z</time>
      </trkpt>
      <trkpt lat="44.40202" lon="4.07538">
        <ele>843.4</ele>
        <time>2022-03-03T13:10:05Z</time>
      </trkpt>
      <trkpt lat="44.40207" lon="4.07536">
        <ele>843.3</ele>
        <time>2022-03-03T13:10:08Z</time>
      </trkpt>
      <trkpt lat="44.40212" lon="4.07535">
        <ele>945.3778</ele>
        <time>2022-03-03T13:10:14Z</time>
      </trkpt>
      <trkpt lat="44.40216" lon="4.07533">
        <ele>945.45667</ele>
        <time>2022-03-03T13:10:24Z</time>
      </trkpt>
      <trkpt lat="44.4022" lon="4.07532">
        <ele>944.90186</ele>
        <time>2022-03-03T13:10:34Z</time>
      </trkpt>
      <trkpt lat="44.40223" lon="4.07528">
        <ele>944.395</ele>
        <time>2022-03-03T13:10:40Z</time>
      </trkpt>
      <trkpt lat="44.40226" lon="4.07523">
        <ele>844.7</ele>
        <time>2022-03-03T13:10:47Z</time>
      </trkpt>
      <trkpt lat="44.40231" lon="4.0752">
        <ele>945.10443</ele>
        <time>2022-03-03T13:10:55Z</time>
      </trkpt>
      <trkpt lat="44.40236" lon="4.07518">
        <ele>944.39996</ele>
        <time>2022-03-03T13:11:02Z</time>
      </trkpt>
      <trkpt lat="44.4024" lon="4.07515">
        <ele>944.00885</ele>
        <time>2022-03-03T13:11:11Z</time>
      </trkpt>
      <trkpt lat="44.40244" lon="4.07513">
        <ele>844.3</ele>
        <time>2022-03-03T13:11:16Z</time>
      </trkpt>
      <trkpt lat="44.40249" lon="4.07512">
        <ele>843.5</ele>
        <time>2022-03-03T13:11:22Z</time>
      </trkpt>
      <trkpt lat="44.40254" lon="4.0751">
        <ele>944.63544</ele>
        <time>2022-03-03T13:11:29Z</time>
      </trkpt>
      <trkpt lat="44.40258" lon="4.07509">
        <ele>945.3748</ele>
        <time>2022-03-03T13:11:36Z</time>
      </trkpt>
      <trkpt lat="44.40263" lon="4.07508">
        <ele>945.6592</ele>
        <time>2022-03-03T13:11:46Z</time>
      </trkpt>
      <trkpt lat="44.40267" lon="4.07509">
        <ele>946.02637</ele>
        <time>2022-03-03T13:11:55Z</time>
      </trkpt>
      <trkpt lat="44.40271" lon="4.07509">
        <ele>946.1731</ele>
        <time>2022-03-03T13:12:05Z</time>
      </trkpt>
      <trkpt lat="44.40276" lon="4.07511">
        <ele>844.4</ele>
        <time>2022-03-03T13:12:14Z</time>
      </trkpt>
      <trkpt lat="44.40281" lon="4.07512">
        <ele>944.9647</ele>
        <time>2022-03-03T13:12:22Z</time>
      </trkpt>
      <trkpt lat="44.40286" lon="4.0751">
        <ele>843.4</ele>
        <time>2022-03-03T13:12:27Z</time>
      </trkpt>
      <trkpt lat="44.40289" lon="4.07514">
        <ele>945.1094</ele>
        <time>2022-03-03T13:12:34Z</time>
      </trkpt>
      <trkpt lat="44.40294" lon="4.07517">
        <ele>944.2423</ele>
        <time>2022-03-03T13:12:42Z</time>
      </trkpt>
      <trkpt lat="44.40298" lon="4.07519">
        <ele>838.2</ele>
        <time>2022-03-03T13:12:48Z</time>
      </trkpt>
      <trkpt lat="44.40302" lon="4.07524">
        <ele>942.6819</ele>
        <time>2022-03-03T13:12:56Z</time>
      </trkpt>
      <trkpt lat="44.40306" lon="4.07524">
        <ele>939.9435</ele>
        <time>2022-03-03T13:13:02Z</time>
      </trkpt>
      <trkpt lat="44.40311" lon="4.07522">
        <ele>834.4</ele>
        <time>2022-03-03T13:13:09Z</time>
      </trkpt>
      <trkpt lat="44.40316" lon="4.07522">
        <ele>937.35</ele>
        <time>2022-03-03T13:13:15Z</time>
      </trkpt>
      <trkpt lat="44.40321" lon="4.0752">
        <ele>935.2754</ele>
        <time>2022-03-03T13:13:21Z</time>
      </trkpt>
      <trkpt lat="44.40326" lon="4.0752">
        <ele>829.7</ele>
        <time>2022-03-03T13:13:27Z</time>
      </trkpt>
      <trkpt lat="44.40331" lon="4.07518">
        <ele>933.55005</ele>
        <time>2022-03-03T13:13:35Z</time>
      </trkpt>
      <trkpt lat="44.40337" lon="4.07517">
        <ele>930.9663</ele>
        <time>2022-03-03T13:13:41Z</time>
      </trkpt>
      <trkpt lat="44.40341" lon="4.07514">
        <ele>824.9</ele>
        <time>2022-03-03T13:13:46Z</time>
      </trkpt>
      <trkpt lat="44.40346" lon="4.07515">
        <ele>824.2</ele>
        <time>2022-03-03T13:13:50Z</time>
      </trkpt>
      <trkpt lat="44.4035" lon="4.07514">
        <ele>928.39484</ele>
        <time>2022-03-03T13:13:57Z</time>
      </trkpt>
      <trkpt lat="44.40356" lon="4.07515">
        <ele>822.1</ele>
        <time>2022-03-03T13:14:03Z</time>
      </trkpt>
      <trkpt lat="44.4036" lon="4.07517">
        <ele>926.80865</ele>
        <time>2022-03-03T13:14:07Z</time>
      </trkpt>
      <trkpt lat="44.40363" lon="4.07514">
        <ele>926.46173</ele>
        <time>2022-03-03T13:14:17Z</time>
      </trkpt>
      <trkpt lat="44.40362" lon="4.07513">
        <ele>926.8455</ele>
        <time>2022-03-03T13:14:27Z</time>
      </trkpt>
      <trkpt lat="44.40365" lon="4.07518">
        <ele>926.79565</ele>
        <time>2022-03-03T13:14:37Z</time>
      </trkpt>
      <trkpt lat="44.40368" lon="4.07521">
        <ele>926.41284</ele>
        <time>2022-03-03T13:14:44Z</time>
      </trkpt>
      <trkpt lat="44.40373" lon="4.07523">
        <ele>924.766</ele>
        <time>2022-03-03T13:14:54Z</time>
      </trkpt>
      <trkpt lat="44.40377" lon="4.07527">
        <ele>922.5182</ele>
        <time>2022-03-03T13:15:01Z</time>
      </trkpt>
      <trkpt lat="44.40381" lon="4.07527">
        <ele>815.6</ele>
        <time>2022-03-03T13:15:09Z</time>
      </trkpt>
      <trkpt lat="44.40382" lon="4.07527">
        <ele>920.68024</ele>
        <time>2022-03-03T13:15:19Z</time>
      </trkpt>
      <trkpt lat="44.40382" lon="4.07534">
        <ele>919.79126</ele>
        <time>2022-03-03T13:15:26Z</time>
      </trkpt>
      <trkpt lat="44.40384" lon="4.07534">
        <ele>919.56104</ele>
        <time>2022-03-03T13:15:36Z</time>
      </trkpt>
      <trkpt lat="44.40387" lon="4.07534">
        <ele>813.2</ele>
        <time>2022-03-03T13:15:46Z</time>
      </trkpt>
      <trkpt lat="44.40391" lon="4.07537">
        <ele>811.4</ele>
        <time>2022-03-03T13:15:53Z</time>
      </trkpt>
      <trkpt lat="44.40396" lon="4.07538">
        <ele>808.8</ele>
        <time>2022-03-03T13:15:59Z</time>
      </trkpt>
      <trkpt lat="44.404" lon="4.07542">
        <ele>914.5775</ele>
        <time>2022-03-03T13:16:04Z</time>
      </trkpt>
      <trkpt lat="44.40403" lon="4.07548">
        <ele>806.5</ele>
        <time>2022-03-03T13:16:10Z</time>
      </trkpt>
      <trkpt lat="44.40407" lon="4.07553">
        <ele>806.1</ele>
        <time>2022-03-03T13:16:17Z</time>
      </trkpt>
      <trkpt lat="44.40409" lon="4.07558">
        <ele>805.6</ele>
        <time>2022-03-03T13:16:26Z</time>
      </trkpt>
      <trkpt lat="44.40412" lon="4.07564">
        <ele>803.9</ele>
        <time>2022-03-03T13:16:34Z</time>
      </trkpt>
      <trkpt lat="44.40413" lon="4.07568">
        <ele>911.18604</ele>
        <time>2022-03-03T13:16:44Z</time>
      </trkpt>
      <trkpt lat="44.40416" lon="4.07571">
        <ele>802.5</ele>
        <time>2022-03-03T13:16:54Z</time>
      </trkpt>
      <trkpt lat="44.40418" lon="4.07571">
        <ele>801.6</ele>
        <time>2022-03-03T13:17:04Z</time>
      </trkpt>
      <trkpt lat="44.4042" lon="4.07572">
        <ele>908.6538</ele>
        <time>2022-03-03T13:17:14Z</time>
      </trkpt>
      <trkpt lat="44.40423" lon="4.07576">
        <ele>798.9</ele>
        <time>2022-03-03T13:17:24Z</time>
      </trkpt>
      <trkpt lat="44.40425" lon="4.07575">
        <ele>905.3021</ele>
        <time>2022-03-03T13:17:34Z</time>
      </trkpt>
      <trkpt lat="44.40428" lon="4.07574">
        <ele>796.3</ele>
        <time>2022-03-03T13:17:44Z</time>
      </trkpt>
      <trkpt lat="44.40431" lon="4.07573">
        <ele>794.6</ele>
        <time>2022-03-03T13:17:54Z</time>
      </trkpt>
      <trkpt lat="44.40432" lon="4.07574">
        <ele>900.35077</ele>
        <time>2022-03-03T13:18:04Z</time>
      </trkpt>
      <trkpt lat="44.40432" lon="4.07574">
        <ele>794.3</ele>
        <time>2022-03-03T13:18:14Z</time>
      </trkpt>
      <trkpt lat="44.40432" lon="4.07574">
        <ele>794.4</ele>
        <time>2022-03-03T13:18:24Z</time>
      </trkpt>
      <trkpt lat="44.40435" lon="4.07575">
        <ele>900.1406</ele>
        <time>2022-03-03T13:18:34Z</time>
      </trkpt>
      <trkpt lat="44.40439" lon="4.07572">
        <ele>790.1</ele>
        <time>2022-03-03T13:18:43Z</time>
      </trkpt>
      <trkpt lat="44.40443" lon="4.07575">
        <ele>788.8</ele>
        <time>2022-03-03T13:18:53Z</time>
      </trkpt>
      <trkpt lat="44.40445" lon="4.07575">
        <ele>787.4</ele>
        <time>2022-03-03T13:19:03Z</time>
      </trkpt>
      <trkpt lat="44.4045" lon="4.07574">
        <ele>891.6547</ele>
        <time>2022-03-03T13:19:11Z</time>
      </trkpt>
      <trkpt lat="44.40455" lon="4.07578">
        <ele>783.7</ele>
        <time>2022-03-03T13:19:19Z</time>
      </trkpt>
      <trkpt lat="44.4046" lon="4.07581">
        <ele>782.4</ele>
        <time>2022-03-03T13:19:27Z</time>
      </trkpt>
      <trkpt lat="44.40465" lon="4.07582">
        <ele>780.7</ele>
        <time>2022-03-03T13:19:34Z</time>
      </trkpt>
      <trkpt lat="44.40469" lon="4.07584">
        <ele>884.27655</ele>
        <time>2022-03-03T13:19:44Z</time>
      </trkpt>
      <trkpt lat="44.40474" lon="4.07585">
        <ele>776.7</ele>
        <time>2022-03-03T13:19:52Z</time>
      </trkpt>
      <trkpt lat="44.40477" lon="4.07589">
        <ele>878.6884</ele>
        <time>2022-03-03T13:20:02Z</time>
      </trkpt>
      <trkpt lat="44.40481" lon="4.07586">
        <ele>774</ele>
        <time>2022-03-03T13:20:07Z</time>
      </trkpt>
      <trkpt lat="44.40486" lon="4.07585">
        <ele>772.2</ele>
        <time>2022-03-03T13:20:13Z</time>
      </trkpt>
      <trkpt lat="44.4049" lon="4.07584">
        <ele>770.8</ele>
        <time>2022-03-03T13:20:23Z</time>
      </trkpt>
      <trkpt lat="44.40494" lon="4.07588">
        <ele>873.7521</ele>
        <time>2022-03-03T13:20:32Z</time>
      </trkpt>
      <trkpt lat="44.40499" lon="4.07587">
        <ele>766.8</ele>
        <time>2022-03-03T13:20:41Z</time>
      </trkpt>
      <trkpt lat="44.405" lon="4.07582">
        <ele>766.5</ele>
        <time>2022-03-03T13:20:51Z</time>
      </trkpt>
      <trkpt lat="44.40497" lon="4.07577">
        <ele>869.63715</ele>
        <time>2022-03-03T13:21:01Z</time>
      </trkpt>
      <trkpt lat="44.40498" lon="4.07572">
        <ele>761.8</ele>
        <time>2022-03-03T13:21:11Z</time>
      </trkpt>
      <trkpt lat="44.405" lon="4.07566">
        <ele>757.5</ele>
        <time>2022-03-03T13:21:19Z</time>
      </trkpt>
      <trkpt lat="44.40503" lon="4.07568">
        <ele>757.4</ele>
        <time>2022-03-03T13:21:29Z</time>
        <extensions>
          <gpxtpx:TrackPointExtension xmlns:gpxtpx="http://www.garmin.com/xmlschemas/TrackPointExtension/v1">
            <gpxtpx:hr>117</gpxtpx:hr>
          </gpxtpx:TrackPointExtension>
        </extensions>
      </trkpt>
      <trkpt lat="44.40503" lon="4.07568">
        <ele>866.3233</ele>
        <time>2022-03-03T13:21:39Z</time>
      </trkpt>
      <trkpt lat="44.40503" lon="4.07569">
        <ele>758</ele>
        <time>2022-03-03T13:21:49Z</time>
      </trkpt>
      <trkpt lat="44.40503" lon="4.07569">
        <ele>758.3</ele>
        <time>2022-03-03T13:21:59Z</time>
      </trkpt>
      <trkpt lat="44.40503" lon="4.07569">
        <ele>866.4247</ele>
        <time>2022-03-03T13:22:09Z</time>
      </trkpt>
      <trkpt lat="44.40503" lon="4.0757">
        <ele>758.6</ele>
        <time>2022-03-03T13:22:19Z</time>
      </trkpt>
      <trkpt lat="44.40504" lon="4.07571">
        <ele>758.7</ele>
        <time>2022-03-03T13:22:29Z</time>
        <extensions>
          <gpxtpx:TrackPointExtension xmlns:gpxtpx="http://www.garmin.com/xmlschemas/TrackPointExtension/v1">
            <gpxtpx:hr>114</gpxtpx:hr>
          </gpxtpx:TrackPointExtension>
        </extensions>
      </trkpt>
      <trkpt lat="44.40506" lon="4.07569">
        <ele>865.3848</ele>
        <time>2022-03-03T13:22:39Z</time>
      </trkpt>
      <trkpt lat="44.40508" lon="4.07568">
        <ele>755.7</ele>
        <time>2022-03-03T13:22:49Z</time>
      </trkpt>
      <trkpt lat="44.40508" lon="4.0756">
        <ele>751.5</ele>
        <time>2022-03-03T13:22:53Z</time>
      </trkpt>
      <trkpt lat="44.40512" lon="4.07559">
        <ele>860.63043</ele>
        <time>2022-03-03T13:23:03Z</time>
      </trkpt>
      <trkpt lat="44.40512" lon="4.07563">
        <ele>751.5</ele>
        <time>2022-03-03T13:23:13Z</time>
      </trkpt>
      <trkpt lat="44.40509" lon="4.07562">
        <ele>752</ele>
        <time>2022-03-03T13:23:23Z</time>
      </trkpt>
      <trkpt lat="44.40506" lon="4.07556">
        <ele>857.55945</ele>
        <time>2022-03-03T13:23:32Z</time>
      </trkpt>
      <trkpt lat="44.40511" lon="4.07558">
        <ele>749.6</ele>
        <time>2022-03-03T13:23:42Z</time>
      </trkpt>
      <trkpt lat="44.40514" lon="4.07558">
        <ele>748.3</ele>
        <time>2022-03-03T13:23:52Z</time>
      </trkpt>
      <trkpt lat="44.40515" lon="4.07557">
        <ele>747.2</ele>
        <time>2022-03-03T13:24:02Z</time>
      </trkpt>
      <trkpt lat="44.40511" lon="4.07554">
        <ele>852.8028</ele>
        <time>2022-03-03T13:24:09Z</time>
      </trkpt>
      <trkpt lat="44.40508" lon="4.07549">
        <ele>745.7</ele>
        <time>2022-03-03T13:24:18Z</time>
      </trkpt>
      <trkpt lat="44.40507" lon="4.07542">
        <ele>742.8</ele>
        <time>2022-03-03T13:24:27Z</time>
      </trkpt>
      <trkpt lat="44.40508" lon="4.07542">
        <ele>846.69727</ele>
        <time>2022-03-03T13:24:37Z</time>
      </trkpt>
      <trkpt lat="44.40508" lon="4.07538">
        <ele>740.1</ele>
        <time>2022-03-03T13:24:47Z</time>
      </trkpt>
      <trkpt lat="44.40512" lon="4.07533">
        <ele>735.9</ele>
        <time>2022-03-03T13:24:57Z</time>
      </trkpt>
      <trkpt lat="44.40517" lon="4.07534">
        <ele>841.7295</ele>
        <time>2022-03-03T13:25:06Z</time>
      </trkpt>
      <trkpt lat="44.40521" lon="4.07536">
        <ele>733.6</ele>
        <time>2022-03-03T13:25:16Z</time>
      </trkpt>
      <trkpt lat="44.40522" lon="4.07537">
        <ele>733.1</ele>
        <time>2022-03-03T13:25:26Z</time>
      </trkpt>
      <trkpt lat="44.40526" lon="4.07537">
        <ele>838.6473</ele>
        <time>2022-03-03T13:25:36Z</time>
      </trkpt>
      <trkpt lat="44.40526" lon="4.07534">
        <ele>729.6</ele>
        <time>2022-03-03T13:25:46Z</time>
      </trkpt>
      <trkpt lat="44.40526" lon="4.0753">
        <ele>727.3</ele>
        <time>2022-03-03T13:25:56Z</time>
      </trkpt>
      <trkpt lat="44.40528" lon="4.07529">
        <ele>834.15283</ele>
        <time>2022-03-03T13:26:06Z</time>
      </trkpt>
      <trkpt lat="44.40527" lon="4.07529">
        <ele>726.4</ele>
        <time>2022-03-03T13:26:16Z</time>
      </trkpt>
      <trkpt lat="44.4053" lon="4.07524">
        <ele>722.3</ele>
        <time>2022-03-03T13:26:25Z</time>
      </trkpt>
      <trkpt lat="44.40531" lon="4.07523">
        <ele>828.3672</ele>
        <time>2022-03-03T13:26:35Z</time>
      </trkpt>
      <trkpt lat="44.40532" lon="4.07521">
        <ele>719.7</ele>
        <time>2022-03-03T13:26:45Z</time>
      </trkpt>
      <trkpt lat="44.40535" lon="4.07519">
        <ele>717.7</ele>
        <time>2022-03-03T13:26:55Z</time>
      </trkpt>
      <trkpt lat="44.40536" lon="4.07515">
        <ele>822.87476</ele>
        <time>2022-03-03T13:27:05Z</time>
      </trkpt>
      <trkpt lat="44.4054" lon="4.07516">
        <ele>714.6</ele>
        <time>2022-03-03T13:27:15Z</time>
      </trkpt>
      <trkpt lat="44.40543" lon="4.07516">
        <ele>713.2</ele>
        <time>2022-03-03T13:27:25Z</time>
      </trkpt>
      <trkpt lat="44.40547" lon="4.07513">
        <ele>817.3728</ele>
        <time>2022-03-03T13:27:32Z</time>
      </trkpt>
      <trkpt lat="44.40551" lon="4.07514">
        <ele>708.6</ele>
        <time>2022-03-03T13:27:42Z</time>
      </trkpt>
      <trkpt lat="44.40555" lon="4.07515">
        <ele>707.5</ele>
        <time>2022-03-03T13:27:52Z</time>
      </trkpt>
      <trkpt lat="44.40558" lon="4.07516">
        <ele>810.8033</ele>
        <time>2022-03-03T13:28:02Z</time>
      </trkpt>
      <trkpt lat="44.40562" lon="4.07511">
        <ele>702.3</ele>
        <time>2022-03-03T13:28:06Z</time>
      </trkpt>
      <trkpt lat="44.40565" lon="4.07509">
        <ele>700.1</ele>
        <time>2022-03-03T13:28:16Z</time>
      </trkpt>
      <trkpt lat="44.40567" lon="4.0751">
        <ele>699.5</ele>
        <time>2022-03-03T13:28:26Z</time>
      </trkpt>
      <trkpt lat="44.4057" lon="4.07506">
        <ele>803.60626</ele>
        <time>2022-03-03T13:28:36Z</time>
      </trkpt>
      <trkpt lat="44.40575" lon="4.07503">
        <ele>693.4</ele>
        <time>2022-03-03T13:28:42Z</time>
      </trkpt>
      <trkpt lat="44.40578" lon="4.07502">
        <ele>691.9</ele>
        <time>2022-03-03T13:28:52Z</time>
      </trkpt>
      <trkpt lat="44.40575" lon="4.07497">
        <ele>691.2</ele>
        <time>2022-03-03T13:29:02Z</time>
      </trkpt>
      <trkpt lat="44.40576" lon="4.07492">
        <ele>796.5493</ele>
        <time>2022-03-03T13:29:12Z</time>
      </trkpt>
      <trkpt lat="44.40581" lon="4.07491">
        <ele>686.4</ele>
        <time>2022-03-03T13:29:17Z</time>
      </trkpt>
      <trkpt lat="44.40584" lon="4.07496">
        <ele>687.1</ele>
        <time>2022-03-03T13:29:24Z</time>
      </trkpt>
      <trkpt lat="44.40588" lon="4.07496">
        <ele>684.1</ele>
        <time>2022-03-03T13:29:34Z</time>
      </trkpt>
      <trkpt lat="44.40588" lon="4.07491">
        <ele>790.4706</ele>
        <time>2022-03-03T13:29:44Z</time>
      </trkpt>
      <trkpt lat="44.40586" lon="4.07485">
        <ele>681</ele>
        <time>2022-03-03T13:29:51Z</time>
      </trkpt>
      <trkpt lat="44.40585" lon="4.07478">
        <ele>678.6</ele>
        <time>2022-03-03T13:29:58Z</time>
      </trkpt>
      <trkpt lat="44.40588" lon="4.07476">
        <ele>785.8306</ele>
        <time>2022-03-03T13:30:08Z</time>
      </trkpt>
      <trkpt lat="44.40589" lon="4.07473">
        <ele>674.5</ele>
        <time>2022-03-03T13:30:18Z</time>
      </trkpt>
      <trkpt lat="44.40592" lon="4.0747">
        <ele>671.7</ele>
        <time>2022-03-03T13:30:28Z</time>
        <extensions>
          <gpxtpx:TrackPointExtension xmlns:gpxtpx="http://www.garmin.com/xmlschemas/TrackPointExtension/v1">
            <gpxtpx:hr>109</gpxtpx:hr>
          </gpxtpx:TrackPointExtension>
        </extensions>
      </trkpt>
      <trkpt lat="44.40597" lon="4.07469">
        <ele>779.5786</ele>
        <time>2022-03-03T13:30:38Z</time>
      </trkpt>
      <trkpt lat="44.40596" lon="4.07462">
        <ele>666.8</ele>
        <time>2022-03-03T13:30:48Z</time>
      </trkpt>
      <trkpt lat="44.40597" lon="4.07459">
        <ele>665.7</ele>
        <time>2022-03-03T13:30:58Z</time>
      </trkpt>
      <trkpt lat="44.40596" lon="4.07458">
        <ele>774.744</ele>
        <time>2022-03-03T13:31:08Z</time>
      </trkpt>
      <trkpt lat="44.406" lon="4.07453">
        <ele>663.1</ele>
        <time>2022-03-03T13:31:14Z</time>
      </trkpt>
      <trkpt lat="44.40601" lon="4.07447">
        <ele>661.3</ele>
        <time>2022-03-03T13:31:21Z</time>
      </trkpt>
      <trkpt lat="44.40606" lon="4.07444">
        <ele>660.6</ele>
        <time>2022-03-03T13:31:26Z</time>
      </trkpt>
      <trkpt lat="44.40609" lon="4.07439">
        <ele>659.2</ele>
        <time>2022-03-03T13:31:33Z</time>
      </trkpt>
      <trkpt lat="44.40612" lon="4.07433">
        <ele>766.33185</ele>
        <time>2022-03-03T13:31:41Z</time>
      </trkpt>
      <trkpt lat="44.40615" lon="4.07427">
        <ele>654</ele>
        <time>2022-03-03T13:31:47Z</time>
      </trkpt>
      <trkpt lat="44.4062" lon="4.07424">
        <ele>650.8</ele>
        <time>2022-03-03T13:31:56Z</time>
      </trkpt>
      <trkpt lat="44.40622" lon="4.0742">
        <ele>758.8419</ele>
        <time>2022-03-03T13:32:06Z</time>
      </trkpt>
      <trkpt lat="44.40624" lon="4.07418">
        <ele>648.2</ele>
        <time>2022-03-03T13:32:16Z</time>
      </trkpt>
      <trkpt lat="44.40625" lon="4.07412">
        <ele>645.1</ele>
        <time>2022-03-03T13:32:26Z</time>
      </trkpt>
      <trkpt lat="44.40628" lon="4.07409">
        <ele>753.3691</ele>
        <time>2022-03-03T13:32:35Z</time>
      </trkpt>
      <trkpt lat="44.40632" lon="4.07407">
        <ele>639.8</ele>
        <time>2022-03-03T13:32:45Z</time>
      </trkpt>
      <trkpt lat="44.40634" lon="4.07406">
        <ele>638.4</ele>
        <time>2022-03-03T13:32:55Z</time>
      </trkpt>
      <trkpt lat="44.40635" lon="4.07402">
        <ele>746.7873</ele>
        <time>2022-03-03T13:33:05Z</time>
      </trkpt>
      <trkpt lat="44.4064" lon="4.074">
        <ele>634</ele>
        <time>2022-03-03T13:33:15Z</time>
      </trkpt>
      <trkpt lat="44.40644" lon="4.07396">
        <ele>630</ele>
        <time>2022-03-03T13:33:24Z</time>
      </trkpt>
      <trkpt lat="44.40648" lon="4.07398">
        <ele>628.2</ele>
        <time>2022-03-03T13:33:33Z</time>
      </trkpt>
      <trkpt lat="44.40649" lon="4.07399">
        <ele>739.1668</ele>
        <time>2022-03-03T13:33:43Z</time>
      </trkpt>
      <trkpt lat="44.40652" lon="4.07396">
        <ele>625.6</ele>
        <time>2022-03-03T13:33:53Z</time>
      </trkpt>
      <trkpt lat="44.40653" lon="4.07394">
        <ele>624.3</ele>
        <time>2022-03-03T13:34:03Z</time>
      </trkpt>
      <trkpt lat="44.40654" lon="4.07391">
        <ele>734.3758</ele>
        <time>2022-03-03T13:34:13Z</time>
      </trkpt>
      <trkpt lat="44.40656" lon="4.0739">
        <ele>621.2</ele>
        <time>2022-03-03T13:34:23Z</time>
      </trkpt>
      <trkpt lat="44.40657" lon="4.0739">
        <ele>729.79034</ele>
        <time>2022-03-03T13:34:33Z</time>
      </trkpt>
      <trkpt lat="44.40659" lon="4.0739">
        <ele>619.9</ele>
        <time>2022-03-03T13:34:43Z</time>
      </trkpt>
      <trkpt lat="44.40662" lon="4.07388">
        <ele>617.1</ele>
        <time>2022-03-03T13:34:53Z</time>
      </trkpt>
      <trkpt lat="44.40667" lon="4.07387">
        <ele>724.0296</ele>
        <time>2022-03-03T13:35:03Z</time>
      </trkpt>
      <trkpt lat="44.40668" lon="4.07387">
        <ele>613.3</ele>
        <time>2022-03-03T13:35:13Z</time>
      </trkpt>
      <trkpt lat="44.40667" lon="4.07388">
        <ele>615.2</ele>
        <time>2022-03-03T13:35:23Z</time>
      </trkpt>
      <trkpt lat="44.40668" lon="4.0739">
        <ele>722.2035</ele>
        <time>2022-03-03T13:35:33Z</time>
      </trkpt>
      <trkpt lat="44.40669" lon="4.07385">
        <ele>611.9</ele>
        <time>2022-03-03T13:35:43Z</time>
      </trkpt>
      <trkpt lat="44.40673" lon="4.0739">
        <ele>612.2</ele>
        <time>2022-03-03T13:35:49Z</time>
      </trkpt>
      <trkpt lat="44.40676" lon="4.07395">
        <ele>611</ele>
        <time>2022-03-03T13:35:56Z</time>
      </trkpt>
      <trkpt lat="44.40677" lon="4.07396">
        <ele>717.669</ele>
        <time>2022-03-03T13:36:06Z</time>
      </trkpt>
      <trkpt lat="44.40676" lon="4.07396">
        <ele>611.2</ele>
        <time>2022-03-03T13:36:16Z</time>
      </trkpt>
      <trkpt lat="44.40678" lon="4.07398">
        <ele>609.6</ele>
        <time>2022-03-03T13:36:26Z</time>
      </trkpt>
      <trkpt lat="44.40683" lon="4.07399">
        <ele>712.8443</ele>
        <time>2022-03-03T13:36:35Z</time>
      </trkpt>
      <trkpt lat="44.40686" lon="4.07405">
        <ele>605</ele>
        <time>2022-03-03T13:36:44Z</time>
      </trkpt>
      <trkpt lat="44.40686" lon="4.07411">
        <ele>605.9</ele>
        <time>2022-03-03T13:36:53Z</time>
      </trkpt>
      <trkpt lat="44.40686" lon="4.07414">
        <ele>711.9628</ele>
        <time>2022-03-03T13:37:03Z</time>
      </trkpt>
      <trkpt lat="44.40686" lon="4.07416">
        <ele>606.4</ele>
        <time>2022-03-03T13:37:13Z</time>
      </trkpt>
      <trkpt lat="44.40686" lon="4.07415">
        <ele>606.3</ele>
        <time>2022-03-03T13:37:23Z</time>
      </trkpt>
      <trkpt lat="44.40686" lon="4.07415">
        <ele>712.1375</ele>
        <time>2022-03-03T13:37:33Z</time>
      </trkpt>
      <trkpt lat="44.40686" lon="4.07416">
        <ele>606.5</ele>
        <time>2022-03-03T13:37:43Z</time>
      </trkpt>
      <trkpt lat="44.40686" lon="4.07416">
        <ele>606.2</ele>
        <time>2022-03-03T13:37:53Z</time>
      </trkpt>
      <trkpt lat="44.40686" lon="4.07416">
        <ele>711.79205</ele>
        <time>2022-03-03T13:38:03Z</time>
      </trkpt>
      <trkpt lat="44.40687" lon="4.07418">
        <ele>605.4</ele>
        <time>2022-03-03T13:38:13Z</time>
      </trkpt>
      <trkpt lat="44.40688" lon="4.07421">
        <ele>604.9</ele>
        <time>2022-03-03T13:38:23Z</time>
      </trkpt>
      <trkpt lat="44.40691" lon="4.07426">
        <ele>602.4</ele>
        <time>2022-03-03T13:38:33Z</time>
      </trkpt>
      <trkpt lat="44.40693" lon="4.07426">
        <ele>709.1655</ele>
        <time>2022-03-03T13:38:43Z</time>
      </trkpt>
      <trkpt lat="44.40693" lon="4.0742">
        <ele>600.1</ele>
        <time>2022-03-03T13:38:53Z</time>
      </trkpt>
      <trkpt lat="44.40694" lon="4.07419">
        <ele>599.7</ele>
        <time>2022-03-03T13:39:03Z</time>
      </trkpt>
      <trkpt lat="44.40696" lon="4.0742">
        <ele>704.8864</ele>
        <time>2022-03-03T13:39:13Z</time>
      </trkpt>
      <trkpt lat="44.40698" lon="4.07423">
        <ele>597</ele>
        <time>2022-03-03T13:39:23Z</time>
      </trkpt>
      <trkpt lat="44.40701" lon="4.07418">
        <ele>699.8021</ele>
        <time>2022-03-03T13:39:31Z</time>
      </trkpt>
      <trkpt lat="44.40706" lon="4.07416">
        <ele>591.8</ele>
        <time>2022-03-03T13:39:40Z</time>
      </trkpt>
      <trkpt lat="44.40706" lon="4.07417">
        <ele>591.5</ele>
        <time>2022-03-03T13:39:50Z</time>
      </trkpt>
      <trkpt lat="44.40707" lon="4.07417">
        <ele>698.09546</ele>
        <time>2022-03-03T13:40:00Z</time>
      </trkpt>
      <trkpt lat="44.40708" lon="4.07418">
        <ele>590.6</ele>
        <time>2022-03-03T13:40:10Z</time>
      </trkpt>
      <trkpt lat="44.40707" lon="4.07418">
        <ele>590.8</ele>
        <time>2022-03-03T13:40:20Z</time>
      </trkpt>
      <trkpt lat="44.40707" lon="4.07418">
        <ele>698.2533</ele>
        <time>2022-03-03T13:40:30Z</time>
      </trkpt>
      <trkpt lat="44.40707" lon="4.07417">
        <ele>590.7</ele>
        <time>2022-03-03T13:40:40Z</time>
      </trkpt>
      <trkpt lat="44.4071" lon="4.07414">
        <ele>588.2</ele>
        <time>2022-03-03T13:40:50Z</time>
      </trkpt>
      <trkpt lat="44.40714" lon="4.07418">
        <ele>586.4</ele>
        <time>2022-03-03T13:40:58Z</time>
      </trkpt>
      <trkpt lat="44.40719" lon="4.07416">
        <ele>582.8</ele>
        <time>2022-03-03T13:41:03Z</time>
      </trkpt>
      <trkpt lat="44.40721" lon="4.07417">
        <ele>690.6873</ele>
        <time>2022-03-03T13:41:13Z</time>
      </trkpt>
      <trkpt lat="44.40725" lon="4.07412">
        <ele>578.2</ele>
        <time>2022-03-03T13:41:22Z</time>
      </trkpt>
      <trkpt lat="44.4073" lon="4.07408">
        <ele>574.3</ele>
        <time>2022-03-03T13:41:29Z</time>
        <extensions>
          <gpxtpx:TrackPointExtension xmlns:gpxtpx="http://www.garmin.com/xmlschemas/TrackPointExtension/v1">
            <gpxtpx:hr>122</gpxtpx:hr>
          </gpxtpx:TrackPointExtension>
        </extensions>
      </trkpt>
      <trkpt lat="44.40734" lon="4.07407">
        <ele>681.8889</ele>
        <time>2022-03-03T13:41:36Z</time>
      </trkpt>
      <trkpt lat="44.40739" lon="4.07408">
        <ele>568.5</ele>
        <time>2022-03-03T13:41:44Z</time>
      </trkpt>
      <trkpt lat="44.4074" lon="4.07402">
        <ele>565.3</ele>
        <time>2022-03-03T13:41:52Z</time>
      </trkpt>
      <trkpt lat="44.40744" lon="4.07405">
        <ele>563.7</ele>
        <time>2022-03-03T13:41:59Z</time>
      </trkpt>
      <trkpt lat="44.4075" lon="4.07407">
        <ele>676.2453</ele>
        <time>2022-03-03T13:42:05Z</time>
      </trkpt>
      <trkpt lat="44.40754" lon="4.07407">
        <ele>559</ele>
        <time>2022-03-03T13:42:15Z</time>
      </trkpt>
      <trkpt lat="44.40754" lon="4.07409">
        <ele>559.8</ele>
        <time>2022-03-03T13:42:25Z</time>
      </trkpt>
      <trkpt lat="44.40754" lon="4.07411">
        <ele>672.54913</ele>
        <time>2022-03-03T13:42:35Z</time>
      </trkpt>
      <trkpt lat="44.40756" lon="4.07409">
        <ele>558.6</ele>
        <time>2022-03-03T13:42:45Z</time>
      </trkpt>
      <trkpt lat="44.40757" lon="4.07407">
        <ele>557.6</ele>
        <time>2022-03-03T13:42:55Z</time>
      </trkpt>
      <trkpt lat="44.4076" lon="4.07401">
        <ele>670.10175</ele>
        <time>2022-03-03T13:43:05Z</time>
      </trkpt>
      <trkpt lat="44.40764" lon="4.07399">
        <ele>552.9</ele>
        <time>2022-03-03T13:43:12Z</time>
      </trkpt>
      <trkpt lat="44.40768" lon="4.07395">
        <ele>551.2</ele>
        <time>2022-03-03T13:43:22Z</time>
      </trkpt>
      <trkpt lat="44.40771" lon="4.07393">
        <ele>550.3</ele>
        <time>2022-03-03T13:43:32Z</time>
      </trkpt>
      <trkpt lat="44.40774" lon="4.07395">
        <ele>661.8494</ele>
        <time>2022-03-03T13:43:42Z</time>
      </trkpt>
      <trkpt lat="44.40778" lon="4.07392">
        <ele>548.6</ele>
        <time>2022-03-03T13:43:46Z</time>
      </trkpt>
      <trkpt lat="44.40781" lon="4.07386">
        <ele>545.5</ele>
        <time>2022-03-03T13:43:53Z</time>
      </trkpt>
      <trkpt lat="44.40785" lon="4.07382">
        <ele>541.3</ele>
        <time>2022-03-03T13:44:01Z</time>
      </trkpt>
      <trkpt lat="44.40789" lon="4.07381">
        <ele>654.05597</ele>
        <time>2022-03-03T13:44:11Z</time>
      </trkpt>
      <trkpt lat="44.40792" lon="4.07388">
        <ele>541.1</ele>
        <time>2022-03-03T13:44:21Z</time>
      </trkpt>
      <trkpt lat="44.40795" lon="4.07382">
        <ele>537.2</ele>
        <time>2022-03-03T13:44:28Z</time>
      </trkpt>
      <trkpt lat="44.40799" lon="4.07382">
        <ele>647.8154</ele>
        <time>2022-03-03T13:44:38Z</time>
      </trkpt>
      <trkpt lat="44.40801" lon="4.07378">
        <ele>532.7</ele>
        <time>2022-03-03T13:44:48Z</time>
      </trkpt>
      <trkpt lat="44.40803" lon="4.07373">
        <ele>529.9</ele>
        <time>2022-03-03T13:44:58Z</time>
      </trkpt>
      <trkpt lat="44.40804" lon="4.07372">
        <ele>641.81866</ele>
        <time>2022-03-03T13:45:08Z</time>
      </trkpt>
      <trkpt lat="44.40804" lon="4.07374">
        <ele>529.4</ele>
        <time>2022-03-03T13:45:18Z</time>
      </trkpt>
      <trkpt lat="44.40808" lon="4.07372">
        <ele>526.6</ele>
        <time>2022-03-03T13:45:28Z</time>
      </trkpt>
      <trkpt lat="44.4081" lon="4.07374">
        <ele>638.07825</ele>
        <time>2022-03-03T13:45:38Z</time>
      </trkpt>
      <trkpt lat="44.40809" lon="4.07377">
        <ele>527.3</ele>
        <time>2022-03-03T13:45:48Z</time>
      </trkpt>
      <trkpt lat="44.40811" lon="4.07374">
        <ele>525</ele>
        <time>2022-03-03T13:45:58Z</time>
      </trkpt>
      <trkpt lat="44.40812" lon="4.07374">
        <ele>633.92926</ele>
        <time>2022-03-03T13:46:08Z</time>
      </trkpt>
      <trkpt lat="44.40814" lon="4.07371">
        <ele>521.5</ele>
        <time>2022-03-03T13:46:18Z</time>
      </trkpt>
      <trkpt lat="44.40817" lon="4.07366">
        <ele>518</ele>
        <time>2022-03-03T13:46:26Z</time>
      </trkpt>
      <trkpt lat="44.40818" lon="4.07367">
        <ele>628.61285</ele>
        <time>2022-03-03T13:46:36Z</time>
      </trkpt>
      <trkpt lat="44.4082" lon="4.07366">
        <ele>516.1</ele>
        <time>2022-03-03T13:46:46Z</time>
      </trkpt>
      <trkpt lat="44.40823" lon="4.0737">
        <ele>514.6</ele>
        <time>2022-03-03T13:46:55Z</time>
      </trkpt>
      <trkpt lat="44.40826" lon="4.07373">
        <ele>623.3106</ele>
        <time>2022-03-03T13:47:05Z</time>
      </trkpt>
      <trkpt lat="44.40829" lon="4.07375">
        <ele>511.2</ele>
        <time>2022-03-03T13:47:15Z</time>
      </trkpt>
      <trkpt lat="44.40831" lon="4.07374">
        <ele>509.6</ele>
        <time>2022-03-03T13:47:25Z</time>
      </trkpt>
      <trkpt lat="44.40832" lon="4.07374">
        <ele>620.2093</ele>
        <time>2022-03-03T13:47:35Z</time>
      </trkpt>
      <trkpt lat="44.40833" lon="4.07373">
        <ele>508</ele>
        <time>2022-03-03T13:47:45Z</time>
      </trkpt>
      <trkpt lat="44.40834" lon="4.0737">
        <ele>507.1</ele>
        <time>2022-03-03T13:47:55Z</time>
      </trkpt>
      <trkpt lat="44.40837" lon="4.07371">
        <ele>616.6239</ele>
        <time>2022-03-03T13:48:05Z</time>
      </trkpt>
      <trkpt lat="44.40836" lon="4.07371">
        <ele>505.7</ele>
        <time>2022-03-03T13:48:15Z</time>
      </trkpt>
      <trkpt lat="44.40837" lon="4.07369">
        <ele>504.9</ele>
        <time>2022-03-03T13:48:25Z</time>
      </trkpt>
      <trkpt lat="44.40842" lon="4.07372">
        <ele>502.1</ele>
        <time>2022-03-03T13:48:34Z</time>
      </trkpt>
      <trkpt lat="44.40844" lon="4.07371">
        <ele>612.6107</ele>
        <time>2022-03-03T13:48:44Z</time>
      </trkpt>
      <trkpt lat="44.40846" lon="4.07366">
        <ele>499</ele>
        <time>2022-03-03T13:48:54Z</time>
      </trkpt>
      <trkpt lat="44.4085" lon="4.07369">
        <ele>607.24066</ele>
        <time>2022-03-03T13:49:04Z</time>
      </trkpt>
      <trkpt lat="44.40854" lon="4.0737">
        <ele>494</ele>
        <time>2022-03-03T13:49:14Z</time>
      </trkpt>
      <trkpt lat="44.40857" lon="4.0737">
        <ele>492.5</ele>
        <time>2022-03-03T13:49:24Z</time>
      </trkpt>
      <trkpt lat="44.40859" lon="4.07367">
        <ele>600.7583</ele>
        <time>2022-03-03T13:49:34Z</time>
      </trkpt>
      <trkpt lat="44.40862" lon="4.07369">
        <ele>489</ele>
        <time>2022-03-03T13:49:44Z</time>
      </trkpt>
      <trkpt lat="44.40862" lon="4.07368">
        <ele>488.9</ele>
        <time>2022-03-03T13:49:54Z</time>
      </trkpt>
      <trkpt lat="44.40867" lon="4.07367">
        <ele>597.78784</ele>
        <time>2022-03-03T13:50:02Z</time>
      </trkpt>
      <trkpt lat="44.40867" lon="4.07367">
        <ele>486.4</ele>
        <time>2022-03-03T13:50:12Z</time>
      </trkpt>
      <trkpt lat="44.40866" lon="4.0737">
        <ele>487.1</ele>
        <time>2022-03-03T13:50:22Z</time>
      </trkpt>
      <trkpt lat="44.40868" lon="4.07372">
        <ele>486.2</ele>
        <time>2022-03-03T13:50:32Z</time>
      </trkpt>
      <trkpt lat="44.4087" lon="4.07373">
        <ele>596.3092</ele>
        <time>2022-03-03T13:50:42Z</time>
      </trkpt>
      <trkpt lat="44.40871" lon="4.07374">
        <ele>484.8</ele>
        <time>2022-03-03T13:50:52Z</time>
      </trkpt>
      <trkpt lat="44.40872" lon="4.07373">
        <ele>484.1</ele>
        <time>2022-03-03T13:51:02Z</time>
      </trkpt>
      <trkpt lat="44.40873" lon="4.07368">
        <ele>595.0633</ele>
        <time>2022-03-03T13:51:12Z</time>
      </trkpt>
      <trkpt lat="44.40874" lon="4.07367">
        <ele>483.1</ele>
        <time>2022-03-03T13:51:22Z</time>
      </trkpt>
      <trkpt lat="44.40877" lon="4.07366">
        <ele>592.26544</ele>
        <time>2022-03-03T13:51:32Z</time>
      </trkpt>
      <trkpt lat="44.40879" lon="4.07369">
        <ele>480.5</ele>
        <time>2022-03-03T13:51:42Z</time>
      </trkpt>
      <trkpt lat="44.40881" lon="4.07367">
        <ele>479.7</ele>
        <time>2022-03-03T13:51:52Z</time>
      </trkpt>
      <trkpt lat="44.40884" lon="4.07362">
        <ele>587.3941</ele>
        <time>2022-03-03T13:52:01Z</time>
      </trkpt>
      <trkpt lat="44.40887" lon="4.07367">
        <ele>476.5</ele>
        <time>2022-03-03T13:52:08Z</time>
      </trkpt>
      <trkpt lat="44.40886" lon="4.07368">
        <ele>477</ele>
        <time>2022-03-03T13:52:18Z</time>
      </trkpt>
      <trkpt lat="44.40886" lon="4.07369">
        <ele>476.7</ele>
        <time>2022-03-03T13:52:28Z</time>
      </trkpt>
      <trkpt lat="44.40886" lon="4.07368">
        <ele>585.79443</ele>
        <time>2022-03-03T13:52:38Z</time>
      </trkpt>
      <trkpt lat="44.40887" lon="4.07369">
        <ele>476.4</ele>
        <time>2022-03-03T13:52:48Z</time>
      </trkpt>
      <trkpt lat="44.40889" lon="4.07364">
        <ele>475.9</ele>
        <time>2022-03-03T13:52:58Z</time>
      </trkpt>
      <trkpt lat="44.40892" lon="4.07365">
        <ele>583.5895</ele>
        <time>2022-03-03T13:53:08Z</time>
      </trkpt>
      <trkpt lat="44.40893" lon="4.07361">
        <ele>473.1</ele>
        <time>2022-03-03T13:53:18Z</time>
      </trkpt>
      <trkpt lat="44.40897" lon="4.07357">
        <ele>469.8</ele>
        <time>2022-03-03T13:53:25Z</time>
      </trkpt>
      <trkpt lat="44.409" lon="4.07355">
        <ele>576.6149</ele>
        <time>2022-03-03T13:53:35Z</time>
      </trkpt>
      <trkpt lat="44.40905" lon="4.07357">
        <ele>465</ele>
        <time>2022-03-03T13:53:43Z</time>
      </trkpt>
      <trkpt lat="44.40908" lon="4.07363">
        <ele>463</ele>
        <time>2022-03-03T13:53:46Z</time>
      </trkpt>
      <trkpt lat="44.40912" lon="4.07367">
        <ele>460.7</ele>
        <time>2022-03-03T13:53:52Z</time>
      </trkpt>
      <trkpt lat="44.40914" lon="4.07366">
        <ele>571.652</ele>
        <time>2022-03-03T13:54:02Z</time>
      </trkpt>
      <trkpt lat="44.40916" lon="4.07367">
        <ele>457.8</ele>
        <time>2022-03-03T13:54:12Z</time>
      </trkpt>
      <trkpt lat="44.4092" lon="4.07369">
        <ele>456.9</ele>
        <time>2022-03-03T13:54:22Z</time>
      </trkpt>
      <trkpt lat="44.40922" lon="4.07369">
        <ele>567.7266</ele>
        <time>2022-03-03T13:54:32Z</time>
      </trkpt>
      <trkpt lat="44.40923" lon="4.07367">
        <ele>456.2</ele>
        <time>2022-03-03T13:54:42Z</time>
      </trkpt>
      <trkpt lat="44.40926" lon="4.07369">
        <ele>455.3</ele>
        <time>2022-03-03T13:54:52Z</time>
      </trkpt>
      <trkpt lat="44.40926" lon="4.07369">
        <ele>565.21954</ele>
        <time>2022-03-03T13:55:02Z</time>
      </trkpt>
      <trkpt lat="44.40928" lon="4.07369">
        <ele>455</ele>
        <time>2022-03-03T13:55:12Z</time>
      </trkpt>
      <trkpt lat="44.40931" lon="4.07374">
        <ele>454</ele>
        <time>2022-03-03T13:55:20Z</time>
      </trkpt>
      <trkpt lat="44.40932" lon="4.07377">
        <ele>453.5</ele>
        <time>2022-03-03T13:55:30Z</time>
      </trkpt>
      <trkpt lat="44.40933" lon="4.07372">
        <ele>561.76587</ele>
        <time>2022-03-03T13:55:40Z</time>
      </trkpt>
      <trkpt lat="44.40931" lon="4.07372">
        <ele>453.9</ele>
        <time>2022-03-03T13:55:50Z</time>
      </trkpt>
      <trkpt lat="44.40933" lon="4.0737">
        <ele>453.7</ele>
        <time>2022-03-03T13:56:00Z</time>
      </trkpt>
      <trkpt lat="44.40935" lon="4.07377">
        <ele>558.88995</ele>
        <time>2022-03-03T13:56:06Z</time>
      </trkpt>
      <trkpt lat="44.40937" lon="4.07377">
        <ele>451.5</ele>
        <time>2022-03-03T13:56:16Z</time>
      </trkpt>
      <trkpt lat="44.4094" lon="4.07377">
        <ele>450.7</ele>
        <time>2022-03-03T13:56:26Z</time>
      </trkpt>
      <trkpt lat="44.40939" lon="4.0738">
        <ele>558.00885</ele>
        <time>2022-03-03T13:56:36Z</time>
      </trkpt>
      <trkpt lat="44.40941" lon="4.07381">
        <ele>449.8</ele>
        <time>2022-03-03T13:56:46Z</time>
      </trkpt>
      <trkpt lat="44.40941" lon="4.07377">
        <ele>450.3</ele>
        <time>2022-03-03T13:56:56Z</time>
      </trkpt>
      <trkpt lat="44.40943" lon="4.07377">
        <ele>556.9573</ele>
        <time>2022-03-03T13:57:06Z</time>
      </trkpt>
      <trkpt lat="44.40945" lon="4.07376">
        <ele>449.3</ele>
        <time>2022-03-03T13:57:16Z</time>
      </trkpt>
      <trkpt lat="44.40948" lon="4.0738">
        <ele>447.2</ele>
        <time>2022-03-03T13:57:26Z</time>
      </trkpt>
      <trkpt lat="44.40952" lon="4.07386">
        <ele>551.5384</ele>
        <time>2022-03-03T13:57:30Z</time>
      </trkpt>
      <trkpt lat="44.40955" lon="4.0739">
        <ele>442.7</ele>
        <time>2022-03-03T13:57:38Z</time>
      </trkpt>
      <trkpt lat="44.40958" lon="4.07395">
        <ele>442.9</ele>
        <time>2022-03-03T13:57:44Z</time>
      </trkpt>
      <trkpt lat="44.40962" lon="4.07398">
        <ele>441.3</ele>
        <time>2022-03-03T13:57:50Z</time>
      </trkpt>
      <trkpt lat="44.40966" lon="4.074">
        <ele>439.8</ele>
        <time>2022-03-03T13:58:00Z</time>
      </trkpt>
      <trkpt lat="44.40971" lon="4.07404">
        <ele>544.07764</ele>
        <time>2022-03-03T13:58:08Z</time>
      </trkpt>
      <trkpt lat="44.40973" lon="4.07404">
        <ele>437.2</ele>
        <time>2022-03-03T13:58:18Z</time>
      </trkpt>
      <trkpt lat="44.40974" lon="4.07405">
        <ele>436.5</ele>
        <time>2022-03-03T13:58:28Z</time>
      </trkpt>
      <trkpt lat="44.40979" lon="4.07404">
        <ele>540.59595</ele>
        <time>2022-03-03T13:58:35Z</time>
      </trkpt>
      <trkpt lat="44.4098" lon="4.0741">
        <ele>433.5</ele>
        <time>2022-03-03T13:58:43Z</time>
      </trkpt>
      <trkpt lat="44.40981" lon="4.07414">
        <ele>432.7</ele>
        <time>2022-03-03T13:58:53Z</time>
      </trkpt>
      <trkpt lat="44.40982" lon="4.07418">
        <ele>538.90283</ele>
        <time>2022-03-03T13:59:03Z</time>
      </trkpt>
      <trkpt lat="44.40985" lon="4.07418">
        <ele>430.1</ele>
        <time>2022-03-03T13:59:13Z</time>
      </trkpt>
      <trkpt lat="44.40989" lon="4.0742">
        <ele>427.4</ele>
        <time>2022-03-03T13:59:18Z</time>
      </trkpt>
      <trkpt lat="44.40995" lon="4.0742">
        <ele>423.2</ele>
        <time>2022-03-03T13:59:25Z</time>
      </trkpt>
      <trkpt lat="44.40999" lon="4.07422">
        <ele>535.1146</ele>
        <time>2022-03-03T13:59:35Z</time>
      </trkpt>
      <trkpt lat="44.40999" lon="4.07421">
        <ele>419.7</ele>
        <time>2022-03-03T13:59:45Z</time>
      </trkpt>
      <trkpt lat="44.41001" lon="4.07422">
        <ele>419.5</ele>
        <time>2022-03-03T13:59:55Z</time>
      </trkpt>
      <trkpt lat="44.41004" lon="4.07426">
        <ele>531.4063</ele>
        <time>2022-03-03T14:00:05Z</time>
      </trkpt>
      <trkpt lat="44.41005" lon="4.0743">
        <ele>420.9</ele>
        <time>2022-03-03T14:00:15Z</time>
      </trkpt>
      <trkpt lat="44.4101" lon="4.07432">
        <ele>419.1</ele>
        <time>2022-03-03T14:00:22Z</time>
      </trkpt>
      <trkpt lat="44.41015" lon="4.07432">
        <ele>417.1</ele>
        <time>2022-03-03T14:00:32Z</time>
      </trkpt>
      <trkpt lat="44.41016" lon="4.07434">
        <ele>525.9234</ele>
        <time>2022-03-03T14:00:42Z</time>
      </trkpt>
      <trkpt lat="44.41021" lon="4.07435">
        <ele>414.1</ele>
        <time>2022-03-03T14:00:51Z</time>
      </trkpt>
      <trkpt lat="44.41026" lon="4.07434">
        <ele>411.7</ele>
        <time>2022-03-03T14:01:01Z</time>
      </trkpt>
      <trkpt lat="44.4103" lon="4.07437">
        <ele>520.8401</ele>
        <time>2022-03-03T14:01:09Z</time>
      </trkpt>
      <trkpt lat="44.41035" lon="4.07438">
        <ele>408.5</ele>
        <time>2022-03-03T14:01:15Z</time>
      </trkpt>
      <trkpt lat="44.41038" lon="4.07443">
        <ele>407.5</ele>
        <time>2022-03-03T14:01:18Z</time>
      </trkpt>
      <trkpt lat="44.41042" lon="4.07445">
        <ele>405.3</ele>
        <time>2022-03-03T14:01:27Z</time>
      </trkpt>
      <trkpt lat="44.41041" lon="4.07442">
        <ele>518.86676</ele>
        <time>2022-03-03T14:01:37Z</time>
      </trkpt>
      <trkpt lat="44.4104" lon="4.07442">
        <ele>406.1</ele>
        <time>2022-03-03T14:01:47Z</time>
      </trkpt>
      <trkpt lat="44.41039" lon="4.07439">
        <ele>406.9</ele>
        <time>2022-03-03T14:01:57Z</time>
      </trkpt>
      <trkpt lat="44.41038" lon="4.07438">
        <ele>518.73175</ele>
        <time>2022-03-03T14:02:07Z</time>
      </trkpt>
      <trkpt lat="44.4104" lon="4.0744">
        <ele>406.3</ele>
        <time>2022-03-03T14:02:17Z</time>
      </trkpt>
      <trkpt lat="44.41042" lon="4.07441">
        <ele>405.5</ele>
        <time>2022-03-03T14:02:27Z</time>
      </trkpt>
      <trkpt lat="44.41043" lon="4.07444">
        <ele>518.9235</ele>
        <time>2022-03-03T14:02:37Z</time>
      </trkpt>
      <trkpt lat="44.41045" lon="4.07449">
        <ele>404.4</ele>
        <time>2022-03-03T14:02:47Z</time>
      </trkpt>
      <trkpt lat="44.41044" lon="4.07449">
        <ele>405</ele>
        <time>2022-03-03T14:02:57Z</time>
      </trkpt>
      <trkpt lat="44.41044" lon="4.0745">
        <ele>518.7494</ele>
        <time>2022-03-03T14:03:07Z</time>
      </trkpt>
      <trkpt lat="44.41044" lon="4.07449">
        <ele>405</ele>
        <time>2022-03-03T14:03:17Z</time>
      </trkpt>
      <trkpt lat="44.41042" lon="4.07445">
        <ele>405.3</ele>
        <time>2022-03-03T14:03:27Z</time>
      </trkpt>
      <trkpt lat="44.41044" lon="4.07438">
        <ele>519.21014</ele>
        <time>2022-03-03T14:03:37Z</time>
      </trkpt>
      <trkpt lat="44.4104" lon="4.07437">
        <ele>406.2</ele>
        <time>2022-03-03T14:03:47Z</time>
      </trkpt>
      <trkpt lat="44.41036" lon="4.0744">
        <ele>408.1</ele>
        <time>2022-03-03T14:03:55Z</time>
      </trkpt>
      <trkpt lat="44.41038" lon="4.07439">
        <ele>519.53107</ele>
        <time>2022-03-03T14:04:05Z</time>
      </trkpt>
      <trkpt lat="44.41037" lon="4.07442">
        <ele>408</ele>
        <time>2022-03-03T14:04:15Z</time>
      </trkpt>
      <trkpt lat="44.41038" lon="4.07441">
        <ele>407.3</ele>
        <time>2022-03-03T14:04:25Z</time>
      </trkpt>
      <trkpt lat="44.41038" lon="4.07447">
        <ele>519.4459</ele>
        <time>2022-03-03T14:04:35Z</time>
      </trkpt>
      <trkpt lat="44.41039" lon="4.07448">
        <ele>407.6</ele>
        <time>2022-03-03T14:04:45Z</time>
      </trkpt>
      <trkpt lat="44.41042" lon="4.07443">
        <ele>405.2</ele>
        <time>2022-03-03T14:04:51Z</time>
      </trkpt>
      <trkpt lat="44.41042" lon="4.07439">
        <ele>405.2</ele>
        <time>2022-03-03T14:05:01Z</time>
      </trkpt>
      <trkpt lat="44.41044" lon="4.07439">
        <ele>519.2366</ele>
        <time>2022-03-03T14:05:11Z</time>
      </trkpt>
      <trkpt lat="44.41044" lon="4.07441">
        <ele>404.4</ele>
        <time>2022-03-03T14:05:21Z</time>
      </trkpt>
      <trkpt lat="44.41045" lon="4.07441">
        <ele>404.1</ele>
        <time>2022-03-03T14:05:31Z</time>
      </trkpt>
      <trkpt lat="44.41046" lon="4.0744">
        <ele>519.29626</ele>
        <time>2022-03-03T14:05:41Z</time>
      </trkpt>
      <trkpt lat="44.41045" lon="4.07432">
        <ele>404.3</ele>
        <time>2022-03-03T14:05:47Z</time>
      </trkpt>
      <trkpt lat="44.41048" lon="4.07427">
        <ele>404.1</ele>
        <time>2022-03-03T14:05:52Z</time>
      </trkpt>
      <trkpt lat="44.41052" lon="4.07423">
        <ele>404</ele>
        <time>2022-03-03T14:05:56Z</time>
      </trkpt>
      <trkpt lat="44.41056" lon="4.07419">
        <ele>404.7</ele>
        <time>2022-03-03T14:06:01Z</time>
      </trkpt>
      <trkpt lat="44.41061" lon="4.07423">
        <ele>519.7864</ele>
        <time>2022-03-03T14:06:09Z</time>
      </trkpt>
      <trkpt lat="44.41065" lon="4.07429">
        <ele>405.3</ele>
        <time>2022-03-03T14:06:13Z</time>
      </trkpt>
      <trkpt lat="44.4107" lon="4.07431">
        <ele>406.4</ele>
        <time>2022-03-03T14:06:17Z</time>
      </trkpt>
      <trkpt lat="44.41075" lon="4.07433">
        <ele>407.4</ele>
        <time>2022-03-03T14:06:21Z</time>
      </trkpt>
      <trkpt lat="44.41079" lon="4.07436">
        <ele>407.9</ele>
        <time>2022-03-03T14:06:26Z</time>
      </trkpt>
      <trkpt lat="44.41083" lon="4.07434">
        <ele>520.4585</ele>
        <time>2022-03-03T14:06:36Z</time>
      </trkpt>
      <trkpt lat="44.41087" lon="4.07432">
        <ele>410.6</ele>
        <time>2022-03-03T14:06:46Z</time>
      </trkpt>
      <trkpt lat="44.41093" lon="4.07434">
        <ele>410.5</ele>
        <time>2022-03-03T14:06:50Z</time>
      </trkpt>
      <trkpt lat="44.41098" lon="4.07435">
        <ele>410.3</ele>
        <time>2022-03-03T14:06:53Z</time>
      </trkpt>
      <trkpt lat="44.41103" lon="4.07438">
        <ele>409.6</ele>
        <time>2022-03-03T14:06:57Z</time>
      </trkpt>
      <trkpt lat="44.41109" lon="4.0744">
        <ele>522.47797</ele>
        <time>2022-03-03T14:07:01Z</time>
      </trkpt>
      <trkpt lat="44.41114" lon="4.07444">
        <ele>408.6</ele>
        <time>2022-03-03T14:07:04Z</time>
      </trkpt>
      <trkpt lat="44.41118" lon="4.07448">
        <ele>408</ele>
        <time>2022-03-03T14:07:08Z</time>
      </trkpt>
      <trkpt lat="44.41121" lon="4.07453">
        <ele>407.2</ele>
        <time>2022-03-03T14:07:11Z</time>
      </trkpt>
      <trkpt lat="44.41125" lon="4.07456">
        <ele>407</ele>
        <time>2022-03-03T14:07:16Z</time>
      </trkpt>
      <trkpt lat="44.41129" lon="4.0746">
        <ele>407</ele>
        <time>2022-03-03T14:07:21Z</time>
      </trkpt>
      <trkpt lat="44.41135" lon="4.07463">
        <ele>407.3</ele>
        <time>2022-03-03T14:07:26Z</time>
      </trkpt>
      <trkpt lat="44.41141" lon="4.07466">
        <ele>408</ele>
        <time>2022-03-03T14:07:30Z</time>
      </trkpt>
      <trkpt lat="44.41147" lon="4.0747">
        <ele>408.6</ele>
        <time>2022-03-03T14:07:33Z</time>
      </trkpt>
      <trkpt lat="44.41152" lon="4.07472">
        <ele>524.57684</ele>
        <time>2022-03-03T14:07:37Z</time>
      </trkpt>
      <trkpt lat="44.41157" lon="4.07474">
        <ele>410.1</ele>
        <time>2022-03-03T14:07:41Z</time>
      </trkpt>
      <trkpt lat="44.41162" lon="4.07475">
        <ele>410.8</ele>
        <time>2022-03-03T14:07:46Z</time>
      </trkpt>
      <trkpt lat="44.41166" lon="4.07478">
        <ele>411.1</ele>
        <time>2022-03-03T14:07:52Z</time>
      </trkpt>
      <trkpt lat="44.41172" lon="4.07482">
        <ele>411</ele>
        <time>2022-03-03T14:07:56Z</time>
      </trkpt>
      <trkpt lat="44.41176" lon="4.07485">
        <ele>410.7</ele>
        <time>2022-03-03T14:08:00Z</time>
      </trkpt>
      <trkpt lat="44.41181" lon="4.07487">
        <ele>525.02606</ele>
        <time>2022-03-03T14:08:05Z</time>
      </trkpt>
      <trkpt lat="44.41186" lon="4.07488">
        <ele>411.4</ele>
        <time>2022-03-03T14:08:09Z</time>
      </trkpt>
      <trkpt lat="44.41191" lon="4.07489">
        <ele>411.7</ele>
        <time>2022-03-03T14:08:12Z</time>
      </trkpt>
      <trkpt lat="44.41196" lon="4.07489">
        <ele>412.1</ele>
        <time>2022-03-03T14:08:15Z</time>
      </trkpt>
      <trkpt lat="44.41201" lon="4.07489">
        <ele>412</ele>
        <time>2022-03-03T14:08:20Z</time>
      </trkpt>
      <trkpt lat="44.41206" lon="4.07491">
        <ele>411.6</ele>
        <time>2022-03-03T14:08:23Z</time>
      </trkpt>
      <trkpt lat="44.41211" lon="4.07492">
        <ele>411.1</ele>
        <time>2022-03-03T14:08:28Z</time>
        <extensions>
          <gpxtpx:TrackPointExtension xmlns:gpxtpx="http://www.garmin.com/xmlschemas/TrackPointExtension/v1">
            <gpxtpx:hr>110</gpxtpx:hr>
          </gpxtpx:TrackPointExtension>
        </extensions>
      </trkpt>
      <trkpt lat="44.41216" lon="4.07493">
        <ele>522.41046</ele>
        <time>2022-03-03T14:08:32Z</time>
      </trkpt>
      <trkpt lat="44.41221" lon="4.07494">
        <ele>410.3</ele>
        <time>2022-03-03T14:08:37Z</time>
      </trkpt>
      <trkpt lat="44.41224" lon="4.07495">
        <ele>409.8</ele>
        <time>2022-03-03T14:08:47Z</time>
      </trkpt>
      <trkpt lat="44.41229" lon="4.07496">
        <ele>409.6</ele>
        <time>2022-03-03T14:08:57Z</time>
      </trkpt>
      <trkpt lat="44.41234" lon="4.07499">
        <ele>519.91943</ele>
        <time>2022-03-03T14:09:04Z</time>
      </trkpt>
      <trkpt lat="44.41238" lon="4.07503">
        <ele>407.8</ele>
        <time>2022-03-03T14:09:09Z</time>
      </trkpt>
      <trkpt lat="44.41235" lon="4.07509">
        <ele>406</ele>
        <time>2022-03-03T14:09:18Z</time>
      </trkpt>
      <trkpt lat="44.41231" lon="4.07514">
        <ele>404.4</ele>
        <time>2022-03-03T14:09:25Z</time>
      </trkpt>
      <trkpt lat="44.41227" lon="4.07513">
        <ele>516.42993</ele>
        <time>2022-03-03T14:09:32Z</time>
      </trkpt>
      <trkpt lat="44.41222" lon="4.07518">
        <ele>402.9</ele>
        <time>2022-03-03T14:09:42Z</time>
      </trkpt>
      <trkpt lat="44.41217" lon="4.07521">
        <ele>401.9</ele>
        <time>2022-03-03T14:09:46Z</time>
      </trkpt>
      <trkpt lat="44.41213" lon="4.07523">
        <ele>401.3</ele>
        <time>2022-03-03T14:09:49Z</time>
      </trkpt>
      <trkpt lat="44.41208" lon="4.07524">
        <ele>400.7</ele>
        <time>2022-03-03T14:09:53Z</time>
      </trkpt>
      <trkpt lat="44.41203" lon="4.07526">
        <ele>400</ele>
        <time>2022-03-03T14:09:58Z</time>
      </trkpt>
      <trkpt lat="44.41199" lon="4.07529">
        <ele>398.9</ele>
        <time>2022-03-03T14:10:04Z</time>
      </trkpt>
      <trkpt lat="44.41195" lon="4.07531">
        <ele>511.0584</ele>
        <time>2022-03-03T14:10:09Z</time>
      </trkpt>
      <trkpt lat="44.4119" lon="4.07534">
        <ele>396.8</ele>
        <time>2022-03-03T14:10:13Z</time>
      </trkpt>
      <trkpt lat="44.41186" lon="4.07539">
        <ele>394.7</ele>
        <time>2022-03-03T14:10:18Z</time>
      </trkpt>
      <trkpt lat="44.41181" lon="4.0754">
        <ele>393.2</ele>
        <time>2022-03-03T14:10:25Z</time>
      </trkpt>
      <trkpt lat="44.41176" lon="4.07539">
        <ele>392.7</ele>
        <time>2022-03-03T14:10:32Z</time>
      </trkpt>
      <trkpt lat="44.41171" lon="4.07538">
        <ele>505.5357</ele>
        <time>2022-03-03T14:10:40Z</time>
      </trkpt>
      <trkpt lat="44.41167" lon="4.07537">
        <ele>391.6</ele>
        <time>2022-03-03T14:10:45Z</time>
      </trkpt>
      <trkpt lat="44.41162" lon="4.07537">
        <ele>390.9</ele>
        <time>2022-03-03T14:10:49Z</time>
      </trkpt>
      <trkpt lat="44.41157" lon="4.07533">
        <ele>391.5</ele>
        <time>2022-03-03T14:10:56Z</time>
      </trkpt>
      <trkpt lat="44.41155" lon="4.07532">
        <ele>502.42883</ele>
        <time>2022-03-03T14:11:06Z</time>
      </trkpt>
      <trkpt lat="44.41155" lon="4.07532">
        <ele>391.7</ele>
        <time>2022-03-03T14:11:16Z</time>
      </trkpt>
      <trkpt lat="44.41151" lon="4.07532">
        <ele>390.9</ele>
        <time>2022-03-03T14:11:26Z</time>
      </trkpt>
      <trkpt lat="44.41148" lon="4.07537">
        <ele>501.20792</ele>
        <time>2022-03-03T14:11:33Z</time>
      </trkpt>
      <trkpt lat="44.41146" lon="4.07543">
        <ele>387.3</ele>
        <time>2022-03-03T14:11:41Z</time>
      </trkpt>
      <trkpt lat="44.41148" lon="4.07549">
        <ele>385.7</ele>
        <time>2022-03-03T14:11:46Z</time>
      </trkpt>
      <trkpt lat="44.4115" lon="4.07553">
        <ele>384.9</ele>
        <time>2022-03-03T14:11:56Z</time>
      </trkpt>
      <trkpt lat="44.41152" lon="4.07551">
        <ele>495.7786</ele>
        <time>2022-03-03T14:12:06Z</time>
      </trkpt>
      <trkpt lat="44.41156" lon="4.07559">
        <ele>383</ele>
        <time>2022-03-03T14:12:10Z</time>
      </trkpt>
      <trkpt lat="44.41157" lon="4.07565">
        <ele>381.3</ele>
        <time>2022-03-03T14:12:16Z</time>
      </trkpt>
      <trkpt lat="44.41159" lon="4.07571">
        <ele>379.9</ele>
        <time>2022-03-03T14:12:20Z</time>
      </trkpt>
      <trkpt lat="44.41162" lon="4.07576">
        <ele>378.8</ele>
        <time>2022-03-03T14:12:23Z</time>
      </trkpt>
      <trkpt lat="44.41164" lon="4.07583">
        <ele>377.5</ele>
        <time>2022-03-03T14:12:27Z</time>
      </trkpt>
      <trkpt lat="44.41166" lon="4.0759">
        <ele>377.2</ele>
        <time>2022-03-03T14:12:32Z</time>
      </trkpt>
      <trkpt lat="44.4117" lon="4.07595">
        <ele>492.41226</ele>
        <time>2022-03-03T14:12:35Z</time>
      </trkpt>
      <trkpt lat="44.41173" lon="4.07601">
        <ele>377.5</ele>
        <time>2022-03-03T14:12:38Z</time>
      </trkpt>
      <trkpt lat="44.41176" lon="4.07607">
        <ele>377.6</ele>
        <time>2022-03-03T14:12:42Z</time>
      </trkpt>
      <trkpt lat="44.41178" lon="4.07613">
        <ele>377.2</ele>
        <time>2022-03-03T14:12:46Z</time>
      </trkpt>
      <trkpt lat="44.4118" lon="4.0762">
        <ele>376.1</ele>
        <time>2022-03-03T14:12:51Z</time>
      </trkpt>
      <trkpt lat="44.41184" lon="4.07626">
        <ele>375.8</ele>
        <time>2022-03-03T14:12:57Z</time>
      </trkpt>
      <trkpt lat="44.41186" lon="4.07633">
        <ele>375</ele>
        <time>2022-03-03T14:13:02Z</time>
      </trkpt>
      <trkpt lat="44.41189" lon="4.0764">
        <ele>487.46286</ele>
        <time>2022-03-03T14:13:06Z</time>
      </trkpt>
      <trkpt lat="44.41192" lon="4.07646">
        <ele>374.4</ele>
        <time>2022-03-03T14:13:10Z</time>
      </trkpt>
      <trkpt lat="44.41195" lon="4.07651">
        <ele>374.4</ele>
        <time>2022-03-03T14:13:14Z</time>
      </trkpt>
      <trkpt lat="44.41198" lon="4.07652">
        <ele>374.7</ele>
        <time>2022-03-03T14:13:24Z</time>
      </trkpt>
      <trkpt lat="44.41196" lon="4.07658">
        <ele>486.19296</ele>
        <time>2022-03-03T14:13:32Z</time>
      </trkpt>
      <trkpt lat="44.41193" lon="4.07663">
        <ele>372.3</ele>
        <time>2022-03-03T14:13:42Z</time>
      </trkpt>
      <trkpt lat="44.41191" lon="4.07669">
        <ele>371</ele>
        <time>2022-03-03T14:13:47Z</time>
      </trkpt>
      <trkpt lat="44.41191" lon="4.07676">
        <ele>370.4</ele>
        <time>2022-03-03T14:13:52Z</time>
      </trkpt>
      <trkpt lat="44.4119" lon="4.07683">
        <ele>369.8</ele>
        <time>2022-03-03T14:13:55Z</time>
      </trkpt>
      <trkpt lat="44.41193" lon="4.07689">
        <ele>481.70596</ele>
        <time>2022-03-03T14:14:00Z</time>
      </trkpt>
      <trkpt lat="44.41196" lon="4.07694">
        <ele>371.2</ele>
        <time>2022-03-03T14:14:03Z</time>
      </trkpt>
      <trkpt lat="44.41198" lon="4.07701">
        <ele>370.3</ele>
        <time>2022-03-03T14:14:07Z</time>
      </trkpt>
      <trkpt lat="44.41201" lon="4.07706">
        <ele>369.6</ele>
        <time>2022-03-03T14:14:11Z</time>
      </trkpt>
      <trkpt lat="44.41202" lon="4.07716">
        <ele>368</ele>
        <time>2022-03-03T14:14:13Z</time>
      </trkpt>
      <trkpt lat="44.41204" lon="4.07725">
        <ele>366.5</ele>
        <time>2022-03-03T14:14:16Z</time>
      </trkpt>
      <trkpt lat="44.41205" lon="4.07731">
        <ele>365.3</ele>
        <time>2022-03-03T14:14:20Z</time>
      </trkpt>
      <trkpt lat="44.41206" lon="4.07738">
        <ele>364.3</ele>
        <time>2022-03-03T14:14:25Z</time>
      </trkpt>
      <trkpt lat="44.41208" lon="4.07746">
        <ele>476.8069</ele>
        <time>2022-03-03T14:14:30Z</time>
      </trkpt>
      <trkpt lat="44.41212" lon="4.0775">
        <ele>362.2</ele>
        <time>2022-03-03T14:14:38Z</time>
      </trkpt>
      <trkpt lat="44.41216" lon="4.07755">
        <ele>361.3</ele>
        <time>2022-03-03T14:14:45Z</time>
      </trkpt>
      <trkpt lat="44.4122" lon="4.07759">
        <ele>360.6</ele>
        <time>2022-03-03T14:14:49Z</time>
      </trkpt>
      <trkpt lat="44.41224" lon="4.07763">
        <ele>359.8</ele>
        <time>2022-03-03T14:14:52Z</time>
      </trkpt>
      <trkpt lat="44.41228" lon="4.07768">
        <ele>359.1</ele>
        <time>2022-03-03T14:14:56Z</time>
      </trkpt>
      <trkpt lat="44.41232" lon="4.07771">
        <ele>358.6</ele>
        <time>2022-03-03T14:15:00Z</time>
      </trkpt>
      <trkpt lat="44.41237" lon="4.07775">
        <ele>358.2</ele>
        <time>2022-03-03T14:15:03Z</time>
      </trkpt>
      <trkpt lat="44.41239" lon="4.07782">
        <ele>469.1407</ele>
        <time>2022-03-03T14:15:07Z</time>
      </trkpt>
      <trkpt lat="44.41241" lon="4.07788">
        <ele>356</ele>
        <time>2022-03-03T14:15:11Z</time>
      </trkpt>
      <trkpt lat="44.41243" lon="4.07795">
        <ele>354.5</ele>
        <time>2022-03-03T14:15:15Z</time>
      </trkpt>
      <trkpt lat="44.41244" lon="4.07801">
        <ele>353.1</ele>
        <time>2022-03-03T14:15:18Z</time>
      </trkpt>
      <trkpt lat="44.41245" lon="4.07808">
        <ele>351.7</ele>
        <time>2022-03-03T14:15:22Z</time>
      </trkpt>
      <trkpt lat="44.41246" lon="4.07817">
        <ele>350.2</ele>
        <time>2022-03-03T14:15:26Z</time>
      </trkpt>
      <trkpt lat="44.41247" lon="4.07823">
        <ele>349.1</ele>
        <time>2022-03-03T14:15:30Z</time>
      </trkpt>
      <trkpt lat="44.41246" lon="4.07831">
        <ele>347.8</ele>
        <time>2022-03-03T14:15:34Z</time>
      </trkpt>
      <trkpt lat="44.41245" lon="4.07837">
        <ele>461.02258</ele>
        <time>2022-03-03T14:15:39Z</time>
      </trkpt>
      <trkpt lat="44.41243" lon="4.07845">
        <ele>345.7</ele>
        <time>2022-03-03T14:15:44Z</time>
      </trkpt>
      <trkpt lat="44.41243" lon="4.07851">
        <ele>344.8</ele>
        <time>2022-03-03T14:15:52Z</time>
      </trkpt>
      <trkpt lat="44.41243" lon="4.07858">
        <ele>457.35828</ele>
        <time>2022-03-03T14:16:00Z</time>
      </trkpt>
      <trkpt lat="44.41244" lon="4.07865">
        <ele>342.4</ele>
        <time>2022-03-03T14:16:04Z</time>
      </trkpt>
      <trkpt lat="44.41242" lon="4.07872">
        <ele>341</ele>
        <time>2022-03-03T14:16:10Z</time>
      </trkpt>
      <trkpt lat="44.41238" lon="4.07877">
        <ele>340</ele>
        <time>2022-03-03T14:16:15Z</time>
      </trkpt>
      <trkpt lat="44.41237" lon="4.07883">
        <ele>338.7</ele>
        <time>2022-03-03T14:16:19Z</time>
      </trkpt>
      <trkpt lat="44.41238" lon="4.07891">
        <ele>337.1</ele>
        <time>2022-03-03T14:16:23Z</time>
      </trkpt>
      <trkpt lat="44.41235" lon="4.07896">
        <ele>336.5</ele>
        <time>2022-03-03T14:16:27Z</time>
      </trkpt>
      <trkpt lat="44.41231" lon="4.07901">
        <ele>450.49673</ele>
        <time>2022-03-03T14:16:32Z</time>
      </trkpt>
      <trkpt lat="44.41229" lon="4.07907">
        <ele>334.9</ele>
        <time>2022-03-03T14:16:36Z</time>
      </trkpt>
      <trkpt lat="44.41225" lon="4.07913">
        <ele>333.8</ele>
        <time>2022-03-03T14:16:40Z</time>
      </trkpt>
      <trkpt lat="44.41223" lon="4.07919">
        <ele>332.7</ele>
        <time>2022-03-03T14:16:46Z</time>
      </trkpt>
      <trkpt lat="44.41224" lon="4.07924">
        <ele>332</ele>
        <time>2022-03-03T14:16:56Z</time>
      </trkpt>
      <trkpt lat="44.41219" lon="4.07925">
        <ele>445.12897</ele>
        <time>2022-03-03T14:17:06Z</time>
      </trkpt>
      <trkpt lat="44.41213" lon="4.07923">
        <ele>329.9</ele>
        <time>2022-03-03T14:17:10Z</time>
      </trkpt>
      <trkpt lat="44.41208" lon="4.07922">
        <ele>329.1</ele>
        <time>2022-03-03T14:17:13Z</time>
      </trkpt>
      <trkpt lat="44.41202" lon="4.07923">
        <ele>327.5</ele>
        <time>2022-03-03T14:17:16Z</time>
      </trkpt>
      <trkpt lat="44.41197" lon="4.0792">
        <ele>326.8</ele>
        <time>2022-03-03T14:17:20Z</time>
      </trkpt>
      <trkpt lat="44.41192" lon="4.07917">
        <ele>326.7</ele>
        <time>2022-03-03T14:17:24Z</time>
      </trkpt>
      <trkpt lat="44.41187" lon="4.07913">
        <ele>326.9</ele>
        <time>2022-03-03T14:17:29Z</time>
        <extensions>
          <gpxtpx:TrackPointExtension xmlns:gpxtpx="http://www.garmin.com/xmlschemas/TrackPointExtension/v1">
            <gpxtpx:hr>122</gpxtpx:hr>
          </gpxtpx:TrackPointExtension>
        </extensions>
      </trkpt>
      <trkpt lat="44.41184" lon="4.07908">
        <ele>327.4</ele>
        <time>2022-03-03T14:17:33Z</time>
      </trkpt>
      <trkpt lat="44.4118" lon="4.07904">
        <ele>442.26575</ele>
        <time>2022-03-03T14:17:37Z</time>
      </trkpt>
      <trkpt lat="44.41176" lon="4.07897">
        <ele>327.6</ele>
        <time>2022-03-03T14:17:42Z</time>
      </trkpt>
      <trkpt lat="44.41173" lon="4.07892">
        <ele>327.4</ele>
        <time>2022-03-03T14:17:46Z</time>
      </trkpt>
      <trkpt lat="44.41171" lon="4.07887">
        <ele>327.5</ele>
        <time>2022-03-03T14:17:50Z</time>
      </trkpt>
      <trkpt lat="44.41173" lon="4.07884">
        <ele>328.7</ele>
        <time>2022-03-03T14:18:00Z</time>
      </trkpt>
      <trkpt lat="44.41173" lon="4.07884">
        <ele>442.55624</ele>
        <time>2022-03-03T14:18:10Z</time>
      </trkpt>
      <trkpt lat="44.41174" lon="4.07883">
        <ele>329.2</ele>
        <time>2022-03-03T14:18:20Z</time>
      </trkpt>
      <trkpt lat="44.41175" lon="4.07886">
        <ele>442.45096</ele>
        <time>2022-03-03T14:18:30Z</time>
      </trkpt>
      <trkpt lat="44.41179" lon="4.07888">
        <ele>329.8</ele>
        <time>2022-03-03T14:18:37Z</time>
      </trkpt>
      <trkpt lat="44.41181" lon="4.07888">
        <ele>330.4</ele>
        <time>2022-03-03T14:18:47Z</time>
      </trkpt>
      <trkpt lat="44.4118" lon="4.07889">
        <ele>329.8</ele>
        <time>2022-03-03T14:18:57Z</time>
      </trkpt>
      <trkpt lat="44.41175" lon="4.07891">
        <ele>442.55624</ele>
        <time>2022-03-03T14:19:01Z</time>
      </trkpt>
      <trkpt lat="44.41172" lon="4.07889">
        <ele>327.6</ele>
        <time>2022-03-03T14:19:11Z</time>
      </trkpt>
      <trkpt lat="44.41173" lon="4.07887">
        <ele>328.2</ele>
        <time>2022-03-03T14:19:21Z</time>
      </trkpt>
      <trkpt lat="44.41173" lon="4.07887">
        <ele>442.43146</ele>
        <time>2022-03-03T14:19:31Z</time>
      </trkpt>
      <trkpt lat="44.41173" lon="4.07886">
        <ele>328.5</ele>
        <time>2022-03-03T14:19:41Z</time>
      </trkpt>
      <trkpt lat="44.41174" lon="4.07882">
        <ele>329.5</ele>
        <time>2022-03-03T14:19:51Z</time>
      </trkpt>
      <trkpt lat="44.41173" lon="4.0788">
        <ele>329.7</ele>
        <time>2022-03-03T14:20:01Z</time>
      </trkpt>
      <trkpt lat="44.41167" lon="4.07879">
        <ele>442.37396</ele>
        <time>2022-03-03T14:20:10Z</time>
      </trkpt>
      <trkpt lat="44.41164" lon="4.07876">
        <ele>327.1</ele>
        <time>2022-03-03T14:20:15Z</time>
      </trkpt>
      <trkpt lat="44.41159" lon="4.07873">
        <ele>326</ele>
        <time>2022-03-03T14:20:21Z</time>
      </trkpt>
      <trkpt lat="44.41157" lon="4.07866">
        <ele>326</ele>
        <time>2022-03-03T14:20:26Z</time>
      </trkpt>
      <trkpt lat="44.41155" lon="4.07859">
        <ele>326.9</ele>
        <time>2022-03-03T14:20:30Z</time>
      </trkpt>
      <trkpt lat="44.41152" lon="4.07853">
        <ele>442.87405</ele>
        <time>2022-03-03T14:20:35Z</time>
      </trkpt>
      <trkpt lat="44.4115" lon="4.07846">
        <ele>328.2</ele>
        <time>2022-03-03T14:20:39Z</time>
      </trkpt>
      <trkpt lat="44.41147" lon="4.07839">
        <ele>329.3</ele>
        <time>2022-03-03T14:20:43Z</time>
      </trkpt>
      <trkpt lat="44.41145" lon="4.07833">
        <ele>330.2</ele>
        <time>2022-03-03T14:20:47Z</time>
      </trkpt>
      <trkpt lat="44.41145" lon="4.07826">
        <ele>331.1</ele>
        <time>2022-03-03T14:20:51Z</time>
      </trkpt>
      <trkpt lat="44.41143" lon="4.07818">
        <ele>330.8</ele>
        <time>2022-03-03T14:20:55Z</time>
      </trkpt>
      <trkpt lat="44.41142" lon="4.07812">
        <ele>331.4</ele>
        <time>2022-03-03T14:20:59Z</time>
      </trkpt>
      <trkpt lat="44.41141" lon="4.07805">
        <ele>444.07605</ele>
        <time>2022-03-03T14:21:03Z</time>
      </trkpt>
      <trkpt lat="44.4114" lon="4.07798">
        <ele>331.3</ele>
        <time>2022-03-03T14:21:07Z</time>
      </trkpt>
      <trkpt lat="44.41137" lon="4.07793">
        <ele>331.6</ele>
        <time>2022-03-03T14:21:16Z</time>
      </trkpt>
      <trkpt lat="44.41132" lon="4.07794">
        <ele>331.9</ele>
        <time>2022-03-03T14:21:20Z</time>
      </trkpt>
      <trkpt lat="44.41127" lon="4.07796">
        <ele>332.2</ele>
        <time>2022-03-03T14:21:25Z</time>
      </trkpt>
      <trkpt lat="44.41122" lon="4.07799">
        <ele>445.58038</ele>
        <time>2022-03-03T14:21:30Z</time>
      </trkpt>
      <trkpt lat="44.41118" lon="4.07802">
        <ele>332.1</ele>
        <time>2022-03-03T14:21:33Z</time>
      </trkpt>
      <trkpt lat="44.41113" lon="4.07806">
        <ele>331.8</ele>
        <time>2022-03-03T14:21:37Z</time>
      </trkpt>
      <trkpt lat="44.4111" lon="4.07811">
        <ele>332.2</ele>
        <time>2022-03-03T14:21:41Z</time>
      </trkpt>
      <trkpt lat="44.41107" lon="4.07816">
        <ele>332.8</ele>
        <time>2022-03-03T14:21:46Z</time>
      </trkpt>
      <trkpt lat="44.41103" lon="4.07822">
        <ele>333.5</ele>
        <time>2022-03-03T14:21:51Z</time>
      </trkpt>
      <trkpt lat="44.41102" lon="4.07829">
        <ele>333.2</ele>
        <time>2022-03-03T14:21:55Z</time>
      </trkpt>
      <trkpt lat="44.411" lon="4.07836">
        <ele>332.9</ele>
        <time>2022-03-03T14:21:59Z</time>
      </trkpt>
      <trkpt lat="44.41098" lon="4.07846">
        <ele>445.66812</ele>
        <time>2022-03-03T14:22:02Z</time>
      </trkpt>
      <trkpt lat="44.41096" lon="4.07854">
        <ele>331.8</ele>
        <time>2022-03-03T14:22:05Z</time>
      </trkpt>
      <trkpt lat="44.41094" lon="4.07861">
        <ele>331.5</ele>
        <time>2022-03-03T14:22:09Z</time>
      </trkpt>
      <trkpt lat="44.41092" lon="4.07867">
        <ele>331.4</ele>
        <time>2022-03-03T14:22:13Z</time>
      </trkpt>
      <trkpt lat="44.41089" lon="4.07872">
        <ele>331.6</ele>
        <time>2022-03-03T14:22:18Z</time>
      </trkpt>
      <trkpt lat="44.41088" lon="4.07881">
        <ele>330.8</ele>
        <time>2022-03-03T14:22:23Z</time>
      </trkpt>
      <trkpt lat="44.41087" lon="4.07888">
        <ele>330</ele>
        <time>2022-03-03T14:22:27Z</time>
      </trkpt>
      <trkpt lat="44.41085" lon="4.07895">
        <ele>330.1</ele>
        <time>2022-03-03T14:22:31Z</time>
      </trkpt>
      <trkpt lat="44.41083" lon="4.07903">
        <ele>446.14587</ele>
        <time>2022-03-03T14:22:35Z</time>
      </trkpt>
      <trkpt lat="44.41081" lon="4.07909">
        <ele>331.7</ele>
        <time>2022-03-03T14:22:39Z</time>
      </trkpt>
      <trkpt lat="44.41081" lon="4.07917">
        <ele>331.8</ele>
        <time>2022-03-03T14:22:44Z</time>
      </trkpt>
      <trkpt lat="44.4108" lon="4.07924">
        <ele>332</ele>
        <time>2022-03-03T14:22:47Z</time>
      </trkpt>
      <trkpt lat="44.4108" lon="4.07932">
        <ele>331.8</ele>
        <time>2022-03-03T14:22:51Z</time>
      </trkpt>
      <trkpt lat="44.4108" lon="4.0794">
        <ele>331.8</ele>
        <time>2022-03-03T14:22:55Z</time>
      </trkpt>
      <trkpt lat="44.4108" lon="4.07947">
        <ele>331.4</ele>
        <time>2022-03-03T14:22:59Z</time>
      </trkpt>
      <trkpt lat="44.41078" lon="4.07954">
        <ele>331.2</ele>
        <time>2022-03-03T14:23:03Z</time>
      </trkpt>
      <trkpt lat="44.41077" lon="4.07959">
        <ele>448.20905</ele>
        <time>2022-03-03T14:23:07Z</time>
      </trkpt>
      <trkpt lat="44.41075" lon="4.07967">
        <ele>330.8</ele>
        <time>2022-03-03T14:23:11Z</time>
      </trkpt>
      <trkpt lat="44.41072" lon="4.07973">
        <ele>331.4</ele>
        <time>2022-03-03T14:23:15Z</time>
      </trkpt>
      <trkpt lat="44.41068" lon="4.07978">
        <ele>332.4</ele>
        <time>2022-03-03T14:23:19Z</time>
      </trkpt>
      <trkpt lat="44.41066" lon="4.07985">
        <ele>332.5</ele>
        <time>2022-03-03T14:23:23Z</time>
      </trkpt>
      <trkpt lat="44.41063" lon="4.07991">
        <ele>333</ele>
        <time>2022-03-03T14:23:27Z</time>
      </trkpt>
      <trkpt lat="44.41061" lon="4.07998">
        <ele>448.8136</ele>
        <time>2022-03-03T14:23:31Z</time>
      </trkpt>
      <trkpt lat="44.41058" lon="4.08003">
        <ele>333.7</ele>
        <time>2022-03-03T14:23:34Z</time>
      </trkpt>
      <trkpt lat="44.41056" lon="4.08009">
        <ele>334.3</ele>
        <time>2022-03-03T14:23:38Z</time>
      </trkpt>
      <trkpt lat="44.41053" lon="4.08015">
        <ele>334.9</ele>
        <time>2022-03-03T14:23:43Z</time>
      </trkpt>
      <trkpt lat="44.41051" lon="4.08022">
        <ele>335</ele>
        <time>2022-03-03T14:23:47Z</time>
      </trkpt>
      <trkpt lat="44.41048" lon="4.08028">
        <ele>335.5</ele>
        <time>2022-03-03T14:23:51Z</time>
      </trkpt>
      <trkpt lat="44.41045" lon="4.08033">
        <ele>335.8</ele>
        <time>2022-03-03T14:23:55Z</time>
      </trkpt>
      <trkpt lat="44.41043" lon="4.08038">
        <ele>335.8</ele>
        <time>2022-03-03T14:23:59Z</time>
      </trkpt>
      <trkpt lat="44.41039" lon="4.08044">
        <ele>450.26462</ele>
        <time>2022-03-03T14:24:05Z</time>
      </trkpt>
      <trkpt lat="44.41037" lon="4.08049">
        <ele>336.6</ele>
        <time>2022-03-03T14:24:09Z</time>
      </trkpt>
      <trkpt lat="44.41035" lon="4.08055">
        <ele>336.6</ele>
        <time>2022-03-03T14:24:12Z</time>
      </trkpt>
      <trkpt lat="44.41032" lon="4.08061">
        <ele>336.3</ele>
        <time>2022-03-03T14:24:17Z</time>
      </trkpt>
      <trkpt lat="44.41029" lon="4.08068">
        <ele>336.5</ele>
        <time>2022-03-03T14:24:22Z</time>
      </trkpt>
      <trkpt lat="44.41025" lon="4.08073">
        <ele>336.5</ele>
        <time>2022-03-03T14:24:26Z</time>
      </trkpt>
      <trkpt lat="44.4102" lon="4.08075">
        <ele>451.98492</ele>
        <time>2022-03-03T14:24:30Z</time>
      </trkpt>
      <trkpt lat="44.41015" lon="4.08077">
        <ele>337.3</ele>
        <time>2022-03-03T14:24:34Z</time>
      </trkpt>
      <trkpt lat="44.4101" lon="4.08078">
        <ele>338</ele>
        <time>2022-03-03T14:24:38Z</time>
      </trkpt>
      <trkpt lat="44.41004" lon="4.08079">
        <ele>338.6</ele>
        <time>2022-03-03T14:24:41Z</time>
      </trkpt>
      <trkpt lat="44.41" lon="4.08082">
        <ele>338.5</ele>
        <time>2022-03-03T14:24:45Z</time>
      </trkpt>
      <trkpt lat="44.40995" lon="4.08082">
        <ele>339.6</ele>
        <time>2022-03-03T14:24:52Z</time>
      </trkpt>
      <trkpt lat="44.4099" lon="4.08086">
        <ele>340.2</ele>
        <time>2022-03-03T14:24:57Z</time>
      </trkpt>
      <trkpt lat="44.40986" lon="4.08089">
        <ele>340.8</ele>
        <time>2022-03-03T14:25:03Z</time>
      </trkpt>
      <trkpt lat="44.40982" lon="4.08094">
        <ele>454.73825</ele>
        <time>2022-03-03T14:25:07Z</time>
      </trkpt>
      <trkpt lat="44.40978" lon="4.08099">
        <ele>341.6</ele>
        <time>2022-03-03T14:25:10Z</time>
      </trkpt>
      <trkpt lat="44.40975" lon="4.08104">
        <ele>341.9</ele>
        <time>2022-03-03T14:25:13Z</time>
      </trkpt>
      <trkpt lat="44.40971" lon="4.08111">
        <ele>342.3</ele>
        <time>2022-03-03T14:25:17Z</time>
      </trkpt>
      <trkpt lat="44.40969" lon="4.08116">
        <ele>342.2</ele>
        <time>2022-03-03T14:25:21Z</time>
      </trkpt>
      <trkpt lat="44.40966" lon="4.08122">
        <ele>342</ele>
        <time>2022-03-03T14:25:25Z</time>
      </trkpt>
      <trkpt lat="44.40964" lon="4.08128">
        <ele>341.7</ele>
        <time>2022-03-03T14:25:29Z</time>
        <extensions>
          <gpxtpx:TrackPointExtension xmlns:gpxtpx="http://www.garmin.com/xmlschemas/TrackPointExtension/v1">
            <gpxtpx:hr>112</gpxtpx:hr>
          </gpxtpx:TrackPointExtension>
        </extensions>
      </trkpt>
      <trkpt lat="44.40961" lon="4.08133">
        <ele>341.8</ele>
        <time>2022-03-03T14:25:33Z</time>
      </trkpt>
      <trkpt lat="44.40958" lon="4.08138">
        <ele>456.58276</ele>
        <time>2022-03-03T14:25:36Z</time>
      </trkpt>
      <trkpt lat="44.40955" lon="4.08144">
        <ele>342.3</ele>
        <time>2022-03-03T14:25:39Z</time>
      </trkpt>
      <trkpt lat="44.40954" lon="4.0815">
        <ele>343</ele>
        <time>2022-03-03T14:25:43Z</time>
      </trkpt>
      <trkpt lat="44.40954" lon="4.08158">
        <ele>343.2</ele>
        <time>2022-03-03T14:25:49Z</time>
      </trkpt>
      <trkpt lat="44.40956" lon="4.08165">
        <ele>342.6</ele>
        <time>2022-03-03T14:25:53Z</time>
      </trkpt>
      <trkpt lat="44.40956" lon="4.08172">
        <ele>342.5</ele>
        <time>2022-03-03T14:25:57Z</time>
      </trkpt>
      <trkpt lat="44.40956" lon="4.08179">
        <ele>455.95264</ele>
        <time>2022-03-03T14:26:02Z</time>
      </trkpt>
      <trkpt lat="44.40957" lon="4.08186">
        <ele>341.6</ele>
        <time>2022-03-03T14:26:08Z</time>
      </trkpt>
      <trkpt lat="44.40957" lon="4.08192">
        <ele>341.7</ele>
        <time>2022-03-03T14:26:12Z</time>
      </trkpt>
      <trkpt lat="44.40954" lon="4.082">
        <ele>341.9</ele>
        <time>2022-03-03T14:26:16Z</time>
      </trkpt>
      <trkpt lat="44.4095" lon="4.08205">
        <ele>342.5</ele>
        <time>2022-03-03T14:26:19Z</time>
      </trkpt>
      <trkpt lat="44.40947" lon="4.08211">
        <ele>342.7</ele>
        <time>2022-03-03T14:26:23Z</time>
      </trkpt>
      <trkpt lat="44.40943" lon="4.08216">
        <ele>343.2</ele>
        <time>2022-03-03T14:26:27Z</time>
      </trkpt>
      <trkpt lat="44.40937" lon="4.0822">
        <ele>456.5096</ele>
        <time>2022-03-03T14:26:30Z</time>
      </trkpt>
      <trkpt lat="44.40933" lon="4.08223">
        <ele>343.6</ele>
        <time>2022-03-03T14:26:34Z</time>
      </trkpt>
      <trkpt lat="44.40928" lon="4.08224">
        <ele>344.1</ele>
        <time>2022-03-03T14:26:40Z</time>
      </trkpt>
      <trkpt lat="44.40923" lon="4.08226">
        <ele>344.2</ele>
        <time>2022-03-03T14:26:43Z</time>
      </trkpt>
      <trkpt lat="44.40918" lon="4.08227">
        <ele>344.7</ele>
        <time>2022-03-03T14:26:47Z</time>
      </trkpt>
      <trkpt lat="44.40915" lon="4.08232">
        <ele>344.5</ele>
        <time>2022-03-03T14:26:53Z</time>
      </trkpt>
      <trkpt lat="44.40912" lon="4.08239">
        <ele>343.8</ele>
        <time>2022-03-03T14:26:57Z</time>
      </trkpt>
      <trkpt lat="44.4091" lon="4.08246">
        <ele>458.05383</ele>
        <time>2022-03-03T14:27:00Z</time>
      </trkpt>
      <trkpt lat="44.40908" lon="4.08252">
        <ele>342.7</ele>
        <time>2022-03-03T14:27:03Z</time>
      </trkpt>
      <trkpt lat="44.40906" lon="4.0826">
        <ele>343.7</ele>
        <time>2022-03-03T14:27:06Z</time>
      </trkpt>
      <trkpt lat="44.40904" lon="4.08266">
        <ele>344.9</ele>
        <time>2022-03-03T14:27:11Z</time>
      </trkpt>
      <trkpt lat="44.40902" lon="4.08273">
        <ele>346.2</ele>
        <time>2022-03-03T14:27:15Z</time>
      </trkpt>
      <trkpt lat="44.40901" lon="4.08279">
        <ele>347.5</ele>
        <time>2022-03-03T14:27:18Z</time>
      </trkpt>
      <trkpt lat="44.409" lon="4.08287">
        <ele>349.2</ele>
        <time>2022-03-03T14:27:23Z</time>
      </trkpt>
      <trkpt lat="44.40901" lon="4.08294">
        <ele>350</ele>
        <time>2022-03-03T14:27:28Z</time>
      </trkpt>
      <trkpt lat="44.40904" lon="4.08302">
        <ele>349.8</ele>
        <time>2022-03-03T14:27:32Z</time>
      </trkpt>
      <trkpt lat="44.40907" lon="4.08307">
        <ele>460.9416</ele>
        <time>2022-03-03T14:27:37Z</time>
      </trkpt>
      <trkpt lat="44.40912" lon="4.0831">
        <ele>347.8</ele>
        <time>2022-03-03T14:27:41Z</time>
      </trkpt>
      <trkpt lat="44.40916" lon="4.08315">
        <ele>346.8</ele>
        <time>2022-03-03T14:27:44Z</time>
      </trkpt>
      <trkpt lat="44.40921" lon="4.08319">
        <ele>345.6</ele>
        <time>2022-03-03T14:27:47Z</time>
      </trkpt>
      <trkpt lat="44.40926" lon="4.08324">
        <ele>344.1</ele>
        <time>2022-03-03T14:27:50Z</time>
      </trkpt>
      <trkpt lat="44.4093" lon="4.0833">
        <ele>343.6</ele>
        <time>2022-03-03T14:27:53Z</time>
      </trkpt>
      <trkpt lat="44.40934" lon="4.08335">
        <ele>342.6</ele>
        <time>2022-03-03T14:27:57Z</time>
      </trkpt>
      <trkpt lat="44.40938" lon="4.08342">
        <ele>342.1</ele>
        <time>2022-03-03T14:28:01Z</time>
      </trkpt>
      <trkpt lat="44.4094" lon="4.08348">
        <ele>342.1</ele>
        <time>2022-03-03T14:28:04Z</time>
      </trkpt>
      <trkpt lat="44.40942" lon="4.08355">
        <ele>462.11536</ele>
        <time>2022-03-03T14:28:07Z</time>
      </trkpt>
      <trkpt lat="44.40944" lon="4.08362">
        <ele>342.4</ele>
        <time>2022-03-03T14:28:10Z</time>
      </trkpt>
      <trkpt lat="44.40944" lon="4.08368">
        <ele>342.7</ele>
        <time>2022-03-03T14:28:13Z</time>
      </trkpt>
      <trkpt lat="44.40944" lon="4.08375">
        <ele>343.4</ele>
        <time>2022-03-03T14:28:18Z</time>
      </trkpt>
      <trkpt lat="44.40942" lon="4.08383">
        <ele>344.9</ele>
        <time>2022-03-03T14:28:24Z</time>
      </trkpt>
      <trkpt lat="44.40942" lon="4.08389">
        <ele>345.5</ele>
        <time>2022-03-03T14:28:27Z</time>
      </trkpt>
      <trkpt lat="44.40942" lon="4.08396">
        <ele>464.18298</ele>
        <time>2022-03-03T14:28:31Z</time>
      </trkpt>
      <trkpt lat="44.40942" lon="4.08403">
        <ele>346</ele>
        <time>2022-03-03T14:28:35Z</time>
      </trkpt>
      <trkpt lat="44.40941" lon="4.08409">
        <ele>346.4</ele>
        <time>2022-03-03T14:28:40Z</time>
      </trkpt>
      <trkpt lat="44.40939" lon="4.08416">
        <ele>347.7</ele>
        <time>2022-03-03T14:28:45Z</time>
      </trkpt>
      <trkpt lat="44.40939" lon="4.08423">
        <ele>349</ele>
        <time>2022-03-03T14:28:50Z</time>
      </trkpt>
      <trkpt lat="44.40939" lon="4.08431">
        <ele>350.4</ele>
        <time>2022-03-03T14:28:55Z</time>
      </trkpt>
      <trkpt lat="44.40937" lon="4.08437">
        <ele>352</ele>
        <time>2022-03-03T14:28:59Z</time>
      </trkpt>
      <trkpt lat="44.40937" lon="4.08444">
        <ele>466.55533</ele>
        <time>2022-03-03T14:29:03Z</time>
      </trkpt>
      <trkpt lat="44.40937" lon="4.08451">
        <ele>354.1</ele>
        <time>2022-03-03T14:29:07Z</time>
      </trkpt>
      <trkpt lat="44.40939" lon="4.08458">
        <ele>354.5</ele>
        <time>2022-03-03T14:29:11Z</time>
      </trkpt>
      <trkpt lat="44.40939" lon="4.08465">
        <ele>355.4</ele>
        <time>2022-03-03T14:29:15Z</time>
      </trkpt>
      <trkpt lat="44.40939" lon="4.08471">
        <ele>356.3</ele>
        <time>2022-03-03T14:29:19Z</time>
      </trkpt>
      <trkpt lat="44.40942" lon="4.08478">
        <ele>356.1</ele>
        <time>2022-03-03T14:29:24Z</time>
      </trkpt>
      <trkpt lat="44.40944" lon="4.08485">
        <ele>355.9</ele>
        <time>2022-03-03T14:29:29Z</time>
        <extensions>
          <gpxtpx:TrackPointExtension xmlns:gpxtpx="http://www.garmin.com/xmlschemas/TrackPointExtension/v1">
            <gpxtpx:hr>130</gpxtpx:hr>
          </gpxtpx:TrackPointExtension>
        </extensions>
      </trkpt>
      <trkpt lat="44.40945" lon="4.08492">
        <ele>470.44373</ele>
        <time>2022-03-03T14:29:34Z</time>
      </trkpt>
      <trkpt lat="44.40945" lon="4.08499">
        <ele>356.8</ele>
        <time>2022-03-03T14:29:38Z</time>
      </trkpt>
      <trkpt lat="44.40941" lon="4.08506">
        <ele>357.8</ele>
        <time>2022-03-03T14:29:43Z</time>
      </trkpt>
      <trkpt lat="44.40936" lon="4.08507">
        <ele>358.9</ele>
        <time>2022-03-03T14:29:47Z</time>
      </trkpt>
      <trkpt lat="44.4093" lon="4.08504">
        <ele>359.8</ele>
        <time>2022-03-03T14:29:53Z</time>
      </trkpt>
      <trkpt lat="44.40927" lon="4.0851">
        <ele>360.5</ele>
        <time>2022-03-03T14:30:00Z</time>
      </trkpt>
      <trkpt lat="44.40923" lon="4.08513">
        <ele>474.286</ele>
        <time>2022-03-03T14:30:07Z</time>
      </trkpt>
      <trkpt lat="44.4092" lon="4.08517">
        <ele>362.1</ele>
        <time>2022-03-03T14:30:11Z</time>
      </trkpt>
      <trkpt lat="44.40918" lon="4.08524">
        <ele>362.7</ele>
        <time>2022-03-03T14:30:14Z</time>
      </trkpt>
      <trkpt lat="44.40914" lon="4.08528">
        <ele>363.6</ele>
        <time>2022-03-03T14:30:17Z</time>
      </trkpt>
      <trkpt lat="44.40911" lon="4.08534">
        <ele>364.5</ele>
        <time>2022-03-03T14:30:21Z</time>
      </trkpt>
      <trkpt lat="44.40907" lon="4.0854">
        <ele>365.3</ele>
        <time>2022-03-03T14:30:25Z</time>
      </trkpt>
      <trkpt lat="44.40903" lon="4.08546">
        <ele>366</ele>
        <time>2022-03-03T14:30:30Z</time>
      </trkpt>
      <trkpt lat="44.40901" lon="4.08552">
        <ele>479.20892</ele>
        <time>2022-03-03T14:30:35Z</time>
      </trkpt>
      <trkpt lat="44.40897" lon="4.08557">
        <ele>366.3</ele>
        <time>2022-03-03T14:30:41Z</time>
      </trkpt>
      <trkpt lat="44.40894" lon="4.08563">
        <ele>366</ele>
        <time>2022-03-03T14:30:46Z</time>
      </trkpt>
      <trkpt lat="44.40889" lon="4.08565">
        <ele>366</ele>
        <time>2022-03-03T14:30:50Z</time>
      </trkpt>
      <trkpt lat="44.40884" lon="4.08568">
        <ele>365.6</ele>
        <time>2022-03-03T14:30:53Z</time>
      </trkpt>
      <trkpt lat="44.4088" lon="4.08572">
        <ele>365</ele>
        <time>2022-03-03T14:30:57Z</time>
      </trkpt>
      <trkpt lat="44.40876" lon="4.08576">
        <ele>478.5547</ele>
        <time>2022-03-03T14:31:01Z</time>
      </trkpt>
      <trkpt lat="44.40871" lon="4.08579">
        <ele>363.5</ele>
        <time>2022-03-03T14:31:05Z</time>
      </trkpt>
      <trkpt lat="44.40866" lon="4.08581">
        <ele>362.8</ele>
        <time>2022-03-03T14:31:11Z</time>
      </trkpt>
      <trkpt lat="44.40862" lon="4.08585">
        <ele>361.9</ele>
        <time>2022-03-03T14:31:15Z</time>
      </trkpt>
      <trkpt lat="44.40857" lon="4.08587">
        <ele>361.8</ele>
        <time>2022-03-03T14:31:22Z</time>
      </trkpt>
      <trkpt lat="44.40854" lon="4.08592">
        <ele>361.4</ele>
        <time>2022-03-03T14:31:27Z</time>
      </trkpt>
      <trkpt lat="44.4085" lon="4.08597">
        <ele>474.14346</ele>
        <time>2022-03-03T14:31:32Z</time>
      </trkpt>
      <trkpt lat="44.40846" lon="4.08601">
        <ele>360.2</ele>
        <time>2022-03-03T14:31:36Z</time>
      </trkpt>
      <trkpt lat="44.40843" lon="4.08606">
        <ele>359.3</ele>
        <time>2022-03-03T14:31:40Z</time>
      </trkpt>
      <trkpt lat="44.40839" lon="4.08611">
        <ele>358.3</ele>
        <time>2022-03-03T14:31:45Z</time>
      </trkpt>
      <trkpt lat="44.40835" lon="4.08615">
        <ele>357.4</ele>
        <time>2022-03-03T14:31:48Z</time>
      </trkpt>
      <trkpt lat="44.40832" lon="4.08621">
        <ele>356.5</ele>
        <time>2022-03-03T14:31:52Z</time>
      </trkpt>
      <trkpt lat="44.40829" lon="4.08628">
        <ele>355.3</ele>
        <time>2022-03-03T14:31:58Z</time>
      </trkpt>
      <trkpt lat="44.40825" lon="4.08632">
        <ele>468.9289</ele>
        <time>2022-03-03T14:32:02Z</time>
      </trkpt>
      <trkpt lat="44.40821" lon="4.08635">
        <ele>353.4</ele>
        <time>2022-03-03T14:32:08Z</time>
      </trkpt>
      <trkpt lat="44.40817" lon="4.08638">
        <ele>352.4</ele>
        <time>2022-03-03T14:32:14Z</time>
      </trkpt>
      <trkpt lat="44.40812" lon="4.0864">
        <ele>351.5</ele>
        <time>2022-03-03T14:32:20Z</time>
      </trkpt>
      <trkpt lat="44.40807" lon="4.08642">
        <ele>350.7</ele>
        <time>2022-03-03T14:32:25Z</time>
      </trkpt>
      <trkpt lat="44.40801" lon="4.08644">
        <ele>350.3</ele>
        <time>2022-03-03T14:32:29Z</time>
        <extensions>
          <gpxtpx:TrackPointExtension xmlns:gpxtpx="http://www.garmin.com/xmlschemas/TrackPointExtension/v1">
            <gpxtpx:hr>133</gpxtpx:hr>
          </gpxtpx:TrackPointExtension>
        </extensions>
      </trkpt>
      <trkpt lat="44.40797" lon="4.08647">
        <ele>349.6</ele>
        <time>2022-03-03T14:32:33Z</time>
      </trkpt>
      <trkpt lat="44.40794" lon="4.08653">
        <ele>462.21097</ele>
        <time>2022-03-03T14:32:37Z</time>
      </trkpt>
      <trkpt lat="44.4079" lon="4.08656">
        <ele>347.3</ele>
        <time>2022-03-03T14:32:45Z</time>
      </trkpt>
      <trkpt lat="44.40785" lon="4.08661">
        <ele>345.7</ele>
        <time>2022-03-03T14:32:49Z</time>
      </trkpt>
      <trkpt lat="44.40779" lon="4.08663">
        <ele>344.4</ele>
        <time>2022-03-03T14:32:53Z</time>
      </trkpt>
      <trkpt lat="44.40774" lon="4.08664">
        <ele>344.4</ele>
        <time>2022-03-03T14:32:56Z</time>
      </trkpt>
      <trkpt lat="44.40769" lon="4.08665">
        <ele>344.5</ele>
        <time>2022-03-03T14:32:59Z</time>
      </trkpt>
      <trkpt lat="44.40764" lon="4.08666">
        <ele>344.6</ele>
        <time>2022-03-03T14:33:03Z</time>
      </trkpt>
      <trkpt lat="44.4076" lon="4.08667">
        <ele>460.364</ele>
        <time>2022-03-03T14:33:06Z</time>
      </trkpt>
      <trkpt lat="44.40755" lon="4.08667">
        <ele>345.2</ele>
        <time>2022-03-03T14:33:10Z</time>
      </trkpt>
      <trkpt lat="44.4075" lon="4.08669">
        <ele>345.1</ele>
        <time>2022-03-03T14:33:13Z</time>
      </trkpt>
      <trkpt lat="44.40745" lon="4.08671">
        <ele>344</ele>
        <time>2022-03-03T14:33:16Z</time>
      </trkpt>
      <trkpt lat="44.40741" lon="4.08674">
        <ele>343.3</ele>
        <time>2022-03-03T14:33:20Z</time>
      </trkpt>
      <trkpt lat="44.40735" lon="4.08677">
        <ele>342.5</ele>
        <time>2022-03-03T14:33:24Z</time>
      </trkpt>
      <trkpt lat="44.40729" lon="4.08678">
        <ele>342.5</ele>
        <time>2022-03-03T14:33:29Z</time>
        <extensions>
          <gpxtpx:TrackPointExtension xmlns:gpxtpx="http://www.garmin.com/xmlschemas/TrackPointExtension/v1">
            <gpxtpx:hr>132</gpxtpx:hr>
          </gpxtpx:TrackPointExtension>
        </extensions>
      </trkpt>
      <trkpt lat="44.40723" lon="4.08679">
        <ele>459.63132</ele>
        <time>2022-03-03T14:33:34Z</time>
      </trkpt>
      <trkpt lat="44.40718" lon="4.08681">
        <ele>343</ele>
        <time>2022-03-03T14:33:38Z</time>
      </trkpt>
      <trkpt lat="44.40713" lon="4.08681">
        <ele>343.3</ele>
        <time>2022-03-03T14:33:42Z</time>
      </trkpt>
      <trkpt lat="44.40707" lon="4.08682">
        <ele>343.9</ele>
        <time>2022-03-03T14:33:46Z</time>
      </trkpt>
      <trkpt lat="44.40702" lon="4.08683">
        <ele>343.9</ele>
        <time>2022-03-03T14:33:49Z</time>
      </trkpt>
      <trkpt lat="44.40699" lon="4.08689">
        <ele>342.6</ele>
        <time>2022-03-03T14:33:53Z</time>
      </trkpt>
      <trkpt lat="44.40698" lon="4.08695">
        <ele>340.9</ele>
        <time>2022-03-03T14:33:58Z</time>
      </trkpt>
      <trkpt lat="44.40695" lon="4.08701">
        <ele>458.60696</ele>
        <time>2022-03-03T14:34:03Z</time>
      </trkpt>
      <trkpt lat="44.40692" lon="4.08708">
        <ele>343.9</ele>
        <time>2022-03-03T14:34:07Z</time>
      </trkpt>
      <trkpt lat="44.40692" lon="4.08714">
        <ele>344.8</ele>
        <time>2022-03-03T14:34:10Z</time>
      </trkpt>
      <trkpt lat="44.4069" lon="4.08724">
        <ele>346.4</ele>
        <time>2022-03-03T14:34:13Z</time>
      </trkpt>
      <trkpt lat="44.4069" lon="4.08731">
        <ele>346.5</ele>
        <time>2022-03-03T14:34:16Z</time>
      </trkpt>
      <trkpt lat="44.40688" lon="4.08739">
        <ele>346.9</ele>
        <time>2022-03-03T14:34:20Z</time>
      </trkpt>
      <trkpt lat="44.40686" lon="4.08747">
        <ele>347.1</ele>
        <time>2022-03-03T14:34:24Z</time>
      </trkpt>
      <trkpt lat="44.40685" lon="4.08753">
        <ele>347.1</ele>
        <time>2022-03-03T14:34:27Z</time>
      </trkpt>
      <trkpt lat="44.40683" lon="4.08759">
        <ele>460.09766</ele>
        <time>2022-03-03T14:34:31Z</time>
      </trkpt>
      <trkpt lat="44.4068" lon="4.08765">
        <ele>346.1</ele>
        <time>2022-03-03T14:34:35Z</time>
      </trkpt>
      <trkpt lat="44.40677" lon="4.0877">
        <ele>345.8</ele>
        <time>2022-03-03T14:34:39Z</time>
      </trkpt>
      <trkpt lat="44.40672" lon="4.08772">
        <ele>346.3</ele>
        <time>2022-03-03T14:34:45Z</time>
      </trkpt>
      <trkpt lat="44.40668" lon="4.08773">
        <ele>346.8</ele>
        <time>2022-03-03T14:34:50Z</time>
      </trkpt>
      <trkpt lat="44.40663" lon="4.0878">
        <ele>346.9</ele>
        <time>2022-03-03T14:34:56Z</time>
      </trkpt>
      <trkpt lat="44.40659" lon="4.08785">
        <ele>347.4</ele>
        <time>2022-03-03T14:34:59Z</time>
      </trkpt>
      <trkpt lat="44.40657" lon="4.08792">
        <ele>347.3</ele>
        <time>2022-03-03T14:35:02Z</time>
      </trkpt>
      <trkpt lat="44.40656" lon="4.08798">
        <ele>347.5</ele>
        <time>2022-03-03T14:35:04Z</time>
      </trkpt>
      <trkpt lat="44.40655" lon="4.08805">
        <ele>462.20218</ele>
        <time>2022-03-03T14:35:06Z</time>
      </trkpt>
      <trkpt lat="44.40653" lon="4.08812">
        <ele>347.4</ele>
        <time>2022-03-03T14:35:09Z</time>
      </trkpt>
      <trkpt lat="44.40651" lon="4.0882">
        <ele>348.4</ele>
        <time>2022-03-03T14:35:13Z</time>
      </trkpt>
      <trkpt lat="44.40649" lon="4.08829">
        <ele>348.7</ele>
        <time>2022-03-03T14:35:16Z</time>
      </trkpt>
      <trkpt lat="44.4065" lon="4.08836">
        <ele>348.2</ele>
        <time>2022-03-03T14:35:20Z</time>
      </trkpt>
      <trkpt lat="44.40649" lon="4.08842">
        <ele>348.4</ele>
        <time>2022-03-03T14:35:24Z</time>
      </trkpt>
      <trkpt lat="44.40646" lon="4.08849">
        <ele>349.4</ele>
        <time>2022-03-03T14:35:28Z</time>
      </trkpt>
      <trkpt lat="44.40645" lon="4.08856">
        <ele>349.6</ele>
        <time>2022-03-03T14:35:31Z</time>
      </trkpt>
      <trkpt lat="44.40644" lon="4.08863">
        <ele>349.5</ele>
        <time>2022-03-03T14:35:34Z</time>
      </trkpt>
      <trkpt lat="44.40641" lon="4.0887">
        <ele>465.77167</ele>
        <time>2022-03-03T14:35:37Z</time>
      </trkpt>
      <trkpt lat="44.40639" lon="4.08876">
        <ele>351.1</ele>
        <time>2022-03-03T14:35:40Z</time>
      </trkpt>
      <trkpt lat="44.40637" lon="4.08883">
        <ele>351.4</ele>
        <time>2022-03-03T14:35:44Z</time>
      </trkpt>
      <trkpt lat="44.40635" lon="4.0889">
        <ele>352.2</ele>
        <time>2022-03-03T14:35:48Z</time>
      </trkpt>
      <trkpt lat="44.40635" lon="4.08898">
        <ele>353.1</ele>
        <time>2022-03-03T14:35:52Z</time>
      </trkpt>
      <trkpt lat="44.40635" lon="4.08905">
        <ele>353.7</ele>
        <time>2022-03-03T14:35:56Z</time>
      </trkpt>
      <trkpt lat="44.40635" lon="4.08912">
        <ele>468.78833</ele>
        <time>2022-03-03T14:36:01Z</time>
      </trkpt>
      <trkpt lat="44.40635" lon="4.0892">
        <ele>354.9</ele>
        <time>2022-03-03T14:36:05Z</time>
      </trkpt>
      <trkpt lat="44.40635" lon="4.08928">
        <ele>355.4</ele>
        <time>2022-03-03T14:36:10Z</time>
      </trkpt>
      <trkpt lat="44.40636" lon="4.08935">
        <ele>355.7</ele>
        <time>2022-03-03T14:36:14Z</time>
      </trkpt>
      <trkpt lat="44.40636" lon="4.08942">
        <ele>356.4</ele>
        <time>2022-03-03T14:36:18Z</time>
      </trkpt>
      <trkpt lat="44.40636" lon="4.08949">
        <ele>356.5</ele>
        <time>2022-03-03T14:36:21Z</time>
      </trkpt>
      <trkpt lat="44.40636" lon="4.08956">
        <ele>356.2</ele>
        <time>2022-03-03T14:36:24Z</time>
      </trkpt>
      <trkpt lat="44.40635" lon="4.08962">
        <ele>356.1</ele>
        <time>2022-03-03T14:36:28Z</time>
      </trkpt>
      <trkpt lat="44.40633" lon="4.08968">
        <ele>469.45206</ele>
        <time>2022-03-03T14:36:32Z</time>
      </trkpt>
      <trkpt lat="44.40631" lon="4.08975">
        <ele>356.2</ele>
        <time>2022-03-03T14:36:36Z</time>
      </trkpt>
      <trkpt lat="44.40628" lon="4.0898">
        <ele>356</ele>
        <time>2022-03-03T14:36:39Z</time>
      </trkpt>
      <trkpt lat="44.40625" lon="4.08986">
        <ele>355.7</ele>
        <time>2022-03-03T14:36:43Z</time>
      </trkpt>
      <trkpt lat="44.40622" lon="4.08993">
        <ele>355</ele>
        <time>2022-03-03T14:36:47Z</time>
      </trkpt>
      <trkpt lat="44.40619" lon="4.08997">
        <ele>354.6</ele>
        <time>2022-03-03T14:36:50Z</time>
      </trkpt>
      <trkpt lat="44.40615" lon="4.09002">
        <ele>353.8</ele>
        <time>2022-03-03T14:36:54Z</time>
      </trkpt>
      <trkpt lat="44.40611" lon="4.09009">
        <ele>353.4</ele>
        <time>2022-03-03T14:36:58Z</time>
      </trkpt>
      <trkpt lat="44.40606" lon="4.09013">
        <ele>466.57678</ele>
        <time>2022-03-03T14:37:01Z</time>
      </trkpt>
      <trkpt lat="44.40601" lon="4.09016">
        <ele>353.3</ele>
        <time>2022-03-03T14:37:05Z</time>
      </trkpt>
      <trkpt lat="44.40595" lon="4.09016">
        <ele>353.5</ele>
        <time>2022-03-03T14:37:09Z</time>
      </trkpt>
      <trkpt lat="44.4059" lon="4.09015">
        <ele>354</ele>
        <time>2022-03-03T14:37:12Z</time>
      </trkpt>
      <trkpt lat="44.40585" lon="4.09015">
        <ele>354.2</ele>
        <time>2022-03-03T14:37:16Z</time>
      </trkpt>
      <trkpt lat="44.40579" lon="4.09013">
        <ele>355</ele>
        <time>2022-03-03T14:37:21Z</time>
      </trkpt>
      <trkpt lat="44.40575" lon="4.09015">
        <ele>355</ele>
        <time>2022-03-03T14:37:25Z</time>
      </trkpt>
      <trkpt lat="44.40569" lon="4.09014">
        <ele>355.7</ele>
        <time>2022-03-03T14:37:30Z</time>
      </trkpt>
      <trkpt lat="44.40564" lon="4.09016">
        <ele>466.48114</ele>
        <time>2022-03-03T14:37:36Z</time>
      </trkpt>
      <trkpt lat="44.40559" lon="4.09018">
        <ele>355.8</ele>
        <time>2022-03-03T14:37:43Z</time>
      </trkpt>
      <trkpt lat="44.40554" lon="4.0902">
        <ele>356.2</ele>
        <time>2022-03-03T14:37:48Z</time>
      </trkpt>
      <trkpt lat="44.40549" lon="4.09021">
        <ele>357.4</ele>
        <time>2022-03-03T14:37:52Z</time>
      </trkpt>
      <trkpt lat="44.40543" lon="4.09022">
        <ele>358.7</ele>
        <time>2022-03-03T14:37:58Z</time>
      </trkpt>
      <trkpt lat="44.40538" lon="4.09023">
        <ele>360</ele>
        <time>2022-03-03T14:38:03Z</time>
      </trkpt>
      <trkpt lat="44.40533" lon="4.09023">
        <ele>468.59314</ele>
        <time>2022-03-03T14:38:09Z</time>
      </trkpt>
      <trkpt lat="44.40527" lon="4.09023">
        <ele>362.7</ele>
        <time>2022-03-03T14:38:15Z</time>
      </trkpt>
      <trkpt lat="44.40522" lon="4.09023">
        <ele>363.7</ele>
        <time>2022-03-03T14:38:21Z</time>
      </trkpt>
      <trkpt lat="44.40516" lon="4.09022">
        <ele>365.2</ele>
        <time>2022-03-03T14:38:25Z</time>
      </trkpt>
      <trkpt lat="44.40511" lon="4.09022">
        <ele>366.2</ele>
        <time>2022-03-03T14:38:29Z</time>
        <extensions>
          <gpxtpx:TrackPointExtension xmlns:gpxtpx="http://www.garmin.com/xmlschemas/TrackPointExtension/v1">
            <gpxtpx:hr>143</gpxtpx:hr>
          </gpxtpx:TrackPointExtension>
        </extensions>
      </trkpt>
      <trkpt lat="44.40506" lon="4.09021">
        <ele>471.02454</ele>
        <time>2022-03-03T14:38:32Z</time>
      </trkpt>
      <trkpt lat="44.405" lon="4.09021">
        <ele>368.9</ele>
        <time>2022-03-03T14:38:36Z</time>
      </trkpt>
      <trkpt lat="44.40495" lon="4.09019">
        <ele>370.2</ele>
        <time>2022-03-03T14:38:40Z</time>
      </trkpt>
      <trkpt lat="44.4049" lon="4.09019">
        <ele>370.8</ele>
        <time>2022-03-03T14:38:45Z</time>
      </trkpt>
      <trkpt lat="44.40484" lon="4.0902">
        <ele>370.8</ele>
        <time>2022-03-03T14:38:50Z</time>
      </trkpt>
      <trkpt lat="44.40479" lon="4.0902">
        <ele>371.2</ele>
        <time>2022-03-03T14:38:54Z</time>
      </trkpt>
      <trkpt lat="44.40476" lon="4.09026">
        <ele>367.9</ele>
        <time>2022-03-03T14:38:59Z</time>
      </trkpt>
      <trkpt lat="44.40476" lon="4.09034">
        <ele>474.8659</ele>
        <time>2022-03-03T14:39:01Z</time>
      </trkpt>
      <trkpt lat="44.40473" lon="4.09039">
        <ele>363.2</ele>
        <time>2022-03-03T14:39:04Z</time>
      </trkpt>
      <trkpt lat="44.40475" lon="4.09046">
        <ele>360.9</ele>
        <time>2022-03-03T14:39:07Z</time>
      </trkpt>
      <trkpt lat="44.40475" lon="4.09053">
        <ele>358.5</ele>
        <time>2022-03-03T14:39:10Z</time>
      </trkpt>
      <trkpt lat="44.40474" lon="4.09063">
        <ele>357.9</ele>
        <time>2022-03-03T14:39:13Z</time>
      </trkpt>
      <trkpt lat="44.40475" lon="4.09069">
        <ele>358</ele>
        <time>2022-03-03T14:39:15Z</time>
      </trkpt>
      <trkpt lat="44.40476" lon="4.09077">
        <ele>357.7</ele>
        <time>2022-03-03T14:39:18Z</time>
      </trkpt>
      <trkpt lat="44.40476" lon="4.09085">
        <ele>357.9</ele>
        <time>2022-03-03T14:39:21Z</time>
      </trkpt>
      <trkpt lat="44.40473" lon="4.09092">
        <ele>359.1</ele>
        <time>2022-03-03T14:39:24Z</time>
      </trkpt>
      <trkpt lat="44.40471" lon="4.091">
        <ele>360.1</ele>
        <time>2022-03-03T14:39:27Z</time>
      </trkpt>
      <trkpt lat="44.40469" lon="4.09107">
        <ele>477.48352</ele>
        <time>2022-03-03T14:39:33Z</time>
      </trkpt>
      <trkpt lat="44.40466" lon="4.09111">
        <ele>361.7</ele>
        <time>2022-03-03T14:39:36Z</time>
      </trkpt>
      <trkpt lat="44.4046" lon="4.09115">
        <ele>362.9</ele>
        <time>2022-03-03T14:39:39Z</time>
      </trkpt>
      <trkpt lat="44.40455" lon="4.09119">
        <ele>363.9</ele>
        <time>2022-03-03T14:39:42Z</time>
      </trkpt>
      <trkpt lat="44.40452" lon="4.09125">
        <ele>364.3</ele>
        <time>2022-03-03T14:39:45Z</time>
      </trkpt>
      <trkpt lat="44.40446" lon="4.09128">
        <ele>365.5</ele>
        <time>2022-03-03T14:39:48Z</time>
      </trkpt>
      <trkpt lat="44.40441" lon="4.09131">
        <ele>366.3</ele>
        <time>2022-03-03T14:39:51Z</time>
      </trkpt>
      <trkpt lat="44.40437" lon="4.09134">
        <ele>367</ele>
        <time>2022-03-03T14:39:54Z</time>
      </trkpt>
      <trkpt lat="44.40433" lon="4.09141">
        <ele>367.4</ele>
        <time>2022-03-03T14:39:57Z</time>
      </trkpt>
      <trkpt lat="44.4043" lon="4.09145">
        <ele>367.9</ele>
        <time>2022-03-03T14:40:01Z</time>
      </trkpt>
      <trkpt lat="44.40425" lon="4.0915">
        <ele>482.10736</ele>
        <time>2022-03-03T14:40:06Z</time>
      </trkpt>
      <trkpt lat="44.40419" lon="4.09151">
        <ele>369.6</ele>
        <time>2022-03-03T14:40:11Z</time>
      </trkpt>
      <trkpt lat="44.40415" lon="4.09146">
        <ele>370.8</ele>
        <time>2022-03-03T14:40:15Z</time>
      </trkpt>
      <trkpt lat="44.40411" lon="4.09141">
        <ele>372.4</ele>
        <time>2022-03-03T14:40:18Z</time>
      </trkpt>
      <trkpt lat="44.40406" lon="4.0914">
        <ele>373.7</ele>
        <time>2022-03-03T14:40:22Z</time>
      </trkpt>
      <trkpt lat="44.40401" lon="4.0914">
        <ele>374.9</ele>
        <time>2022-03-03T14:40:27Z</time>
      </trkpt>
      <trkpt lat="44.40396" lon="4.09138">
        <ele>376.3</ele>
        <time>2022-03-03T14:40:33Z</time>
      </trkpt>
      <trkpt lat="44.40392" lon="4.09142">
        <ele>486.36197</ele>
        <time>2022-03-03T14:40:39Z</time>
      </trkpt>
      <trkpt lat="44.40389" lon="4.09147">
        <ele>377</ele>
        <time>2022-03-03T14:40:43Z</time>
      </trkpt>
      <trkpt lat="44.40384" lon="4.09149">
        <ele>378.2</ele>
        <time>2022-03-03T14:40:46Z</time>
      </trkpt>
      <trkpt lat="44.4038" lon="4.09152">
        <ele>378.8</ele>
        <time>2022-03-03T14:40:52Z</time>
      </trkpt>
      <trkpt lat="44.40375" lon="4.09155">
        <ele>379.6</ele>
        <time>2022-03-03T14:40:57Z</time>
      </trkpt>
      <trkpt lat="44.40372" lon="4.0916">
        <ele>379.5</ele>
        <time>2022-03-03T14:41:02Z</time>
      </trkpt>
      <trkpt lat="44.40369" lon="4.09167">
        <ele>489.69318</ele>
        <time>2022-03-03T14:41:06Z</time>
      </trkpt>
      <trkpt lat="44.40368" lon="4.09174">
        <ele>377.9</ele>
        <time>2022-03-03T14:41:10Z</time>
      </trkpt>
      <trkpt lat="44.40365" lon="4.0918">
        <ele>377.4</ele>
        <time>2022-03-03T14:41:13Z</time>
      </trkpt>
      <trkpt lat="44.40361" lon="4.09185">
        <ele>377.2</ele>
        <time>2022-03-03T14:41:16Z</time>
      </trkpt>
      <trkpt lat="44.40356" lon="4.09189">
        <ele>377.7</ele>
        <time>2022-03-03T14:41:20Z</time>
      </trkpt>
      <trkpt lat="44.40352" lon="4.09191">
        <ele>378.7</ele>
        <time>2022-03-03T14:41:24Z</time>
      </trkpt>
      <trkpt lat="44.40347" lon="4.09194">
        <ele>379.1</ele>
        <time>2022-03-03T14:41:28Z</time>
      </trkpt>
      <trkpt lat="44.40343" lon="4.09199">
        <ele>493.09622</ele>
        <time>2022-03-03T14:41:31Z</time>
      </trkpt>
      <trkpt lat="44.40338" lon="4.09201">
        <ele>379</ele>
        <time>2022-03-03T14:41:34Z</time>
      </trkpt>
      <trkpt lat="44.40333" lon="4.09202">
        <ele>379.7</ele>
        <time>2022-03-03T14:41:38Z</time>
      </trkpt>
      <trkpt lat="44.40328" lon="4.09203">
        <ele>381.2</ele>
        <time>2022-03-03T14:41:44Z</time>
      </trkpt>
      <trkpt lat="44.40323" lon="4.09204">
        <ele>382.3</ele>
        <time>2022-03-03T14:41:48Z</time>
      </trkpt>
      <trkpt lat="44.40318" lon="4.09203">
        <ele>384.2</ele>
        <time>2022-03-03T14:41:54Z</time>
      </trkpt>
      <trkpt lat="44.40315" lon="4.09206">
        <ele>498.46133</ele>
        <time>2022-03-03T14:42:02Z</time>
      </trkpt>
      <trkpt lat="44.4031" lon="4.09207">
        <ele>386.1</ele>
        <time>2022-03-03T14:42:12Z</time>
      </trkpt>
      <trkpt lat="44.40305" lon="4.09209">
        <ele>387.2</ele>
        <time>2022-03-03T14:42:17Z</time>
      </trkpt>
      <trkpt lat="44.403" lon="4.09213">
        <ele>387.4</ele>
        <time>2022-03-03T14:42:22Z</time>
      </trkpt>
      <trkpt lat="44.40297" lon="4.09216">
        <ele>387.5</ele>
        <time>2022-03-03T14:42:26Z</time>
      </trkpt>
      <trkpt lat="44.40292" lon="4.09221">
        <ele>387.4</ele>
        <time>2022-03-03T14:42:29Z</time>
      </trkpt>
      <trkpt lat="44.40287" lon="4.09223">
        <ele>502.54907</ele>
        <time>2022-03-03T14:42:34Z</time>
      </trkpt>
      <trkpt lat="44.40281" lon="4.09226">
        <ele>389.1</ele>
        <time>2022-03-03T14:42:38Z</time>
      </trkpt>
      <trkpt lat="44.40276" lon="4.09227">
        <ele>390.3</ele>
        <time>2022-03-03T14:42:43Z</time>
      </trkpt>
      <trkpt lat="44.40271" lon="4.09228">
        <ele>391.4</ele>
        <time>2022-03-03T14:42:48Z</time>
      </trkpt>
      <trkpt lat="44.40268" lon="4.09232">
        <ele>391.3</ele>
        <time>2022-03-03T14:42:52Z</time>
      </trkpt>
      <trkpt lat="44.40264" lon="4.09236">
        <ele>391.1</ele>
        <time>2022-03-03T14:42:55Z</time>
      </trkpt>
      <trkpt lat="44.4026" lon="4.09241">
        <ele>390.6</ele>
        <time>2022-03-03T14:43:01Z</time>
      </trkpt>
      <trkpt lat="44.40254" lon="4.09243">
        <ele>506.7295</ele>
        <time>2022-03-03T14:43:05Z</time>
      </trkpt>
      <trkpt lat="44.4025" lon="4.09242">
        <ele>392.9</ele>
        <time>2022-03-03T14:43:08Z</time>
      </trkpt>
      <trkpt lat="44.40244" lon="4.09244">
        <ele>394.1</ele>
        <time>2022-03-03T14:43:12Z</time>
      </trkpt>
      <trkpt lat="44.4024" lon="4.09247">
        <ele>395.2</ele>
        <time>2022-03-03T14:43:18Z</time>
      </trkpt>
      <trkpt lat="44.40237" lon="4.09248">
        <ele>396</ele>
        <time>2022-03-03T14:43:28Z</time>
      </trkpt>
      <trkpt lat="44.40233" lon="4.09253">
        <ele>512.71906</ele>
        <time>2022-03-03T14:43:35Z</time>
      </trkpt>
      <trkpt lat="44.4023" lon="4.09258">
        <ele>395.6</ele>
        <time>2022-03-03T14:43:41Z</time>
      </trkpt>
      <trkpt lat="44.40226" lon="4.09261">
        <ele>396.1</ele>
        <time>2022-03-03T14:43:45Z</time>
      </trkpt>
      <trkpt lat="44.40221" lon="4.09264">
        <ele>397.1</ele>
        <time>2022-03-03T14:43:50Z</time>
      </trkpt>
      <trkpt lat="44.40215" lon="4.09263">
        <ele>399.1</ele>
        <time>2022-03-03T14:43:53Z</time>
      </trkpt>
      <trkpt lat="44.4021" lon="4.09264">
        <ele>400.8</ele>
        <time>2022-03-03T14:43:56Z</time>
      </trkpt>
      <trkpt lat="44.40205" lon="4.09264">
        <ele>517.2507</ele>
        <time>2022-03-03T14:44:00Z</time>
      </trkpt>
      <trkpt lat="44.40201" lon="4.09265">
        <ele>404</ele>
        <time>2022-03-03T14:44:03Z</time>
      </trkpt>
      <trkpt lat="44.40196" lon="4.09265">
        <ele>405.7</ele>
        <time>2022-03-03T14:44:07Z</time>
      </trkpt>
      <trkpt lat="44.40191" lon="4.09267">
        <ele>408.2</ele>
        <time>2022-03-03T14:44:13Z</time>
      </trkpt>
      <trkpt lat="44.40189" lon="4.09272">
        <ele>409.1</ele>
        <time>2022-03-03T14:44:20Z</time>
      </trkpt>
      <trkpt lat="44.40186" lon="4.09278">
        <ele>410.5</ele>
        <time>2022-03-03T14:44:26Z</time>
      </trkpt>
      <trkpt lat="44.40188" lon="4.09285">
        <ele>519.7942</ele>
        <time>2022-03-03T14:44:30Z</time>
      </trkpt>
      <trkpt lat="44.40188" lon="4.09292">
        <ele>411.3</ele>
        <time>2022-03-03T14:44:38Z</time>
      </trkpt>
      <trkpt lat="44.4019" lon="4.09299">
        <ele>410.9</ele>
        <time>2022-03-03T14:44:47Z</time>
      </trkpt>
      <trkpt lat="44.4019" lon="4.09306">
        <ele>412</ele>
        <time>2022-03-03T14:44:52Z</time>
      </trkpt>
      <trkpt lat="44.40188" lon="4.09312">
        <ele>413.5</ele>
        <time>2022-03-03T14:44:58Z</time>
      </trkpt>
      <trkpt lat="44.40185" lon="4.09319">
        <ele>526.24536</ele>
        <time>2022-03-03T14:45:04Z</time>
      </trkpt>
      <trkpt lat="44.40182" lon="4.09324">
        <ele>415.8</ele>
        <time>2022-03-03T14:45:08Z</time>
      </trkpt>
      <trkpt lat="44.40178" lon="4.09328">
        <ele>417.1</ele>
        <time>2022-03-03T14:45:13Z</time>
      </trkpt>
      <trkpt lat="44.40176" lon="4.09334">
        <ele>417</ele>
        <time>2022-03-03T14:45:20Z</time>
      </trkpt>
      <trkpt lat="44.40174" lon="4.0934">
        <ele>416.8</ele>
        <time>2022-03-03T14:45:28Z</time>
      </trkpt>
      <trkpt lat="44.40171" lon="4.09346">
        <ele>532.91583</ele>
        <time>2022-03-03T14:45:36Z</time>
      </trkpt>
      <trkpt lat="44.40168" lon="4.09352">
        <ele>417.6</ele>
        <time>2022-03-03T14:45:42Z</time>
      </trkpt>
      <trkpt lat="44.40165" lon="4.09357">
        <ele>418.8</ele>
        <time>2022-03-03T14:45:47Z</time>
      </trkpt>
      <trkpt lat="44.40162" lon="4.09363">
        <ele>419</ele>
        <time>2022-03-03T14:45:54Z</time>
      </trkpt>
      <trkpt lat="44.40158" lon="4.09368">
        <ele>419.2</ele>
        <time>2022-03-03T14:46:01Z</time>
      </trkpt>
      <trkpt lat="44.40154" lon="4.09372">
        <ele>538.81274</ele>
        <time>2022-03-03T14:46:08Z</time>
      </trkpt>
      <trkpt lat="44.4015" lon="4.09376">
        <ele>420.5</ele>
        <time>2022-03-03T14:46:11Z</time>
      </trkpt>
      <trkpt lat="44.40145" lon="4.09377">
        <ele>423.1</ele>
        <time>2022-03-03T14:46:14Z</time>
      </trkpt>
      <trkpt lat="44.4014" lon="4.09377">
        <ele>425.7</ele>
        <time>2022-03-03T14:46:19Z</time>
      </trkpt>
      <trkpt lat="44.40134" lon="4.09376">
        <ele>428</ele>
        <time>2022-03-03T14:46:24Z</time>
      </trkpt>
      <trkpt lat="44.4013" lon="4.09374">
        <ele>543.08154</ele>
        <time>2022-03-03T14:46:30Z</time>
      </trkpt>
      <trkpt lat="44.40125" lon="4.09374">
        <ele>431.8</ele>
        <time>2022-03-03T14:46:38Z</time>
      </trkpt>
      <trkpt lat="44.40122" lon="4.09379">
        <ele>430.2</ele>
        <time>2022-03-03T14:46:47Z</time>
      </trkpt>
      <trkpt lat="44.4012" lon="4.09383">
        <ele>429.1</ele>
        <time>2022-03-03T14:46:57Z</time>
      </trkpt>
      <trkpt lat="44.40117" lon="4.09388">
        <ele>548.50616</ele>
        <time>2022-03-03T14:47:03Z</time>
      </trkpt>
      <trkpt lat="44.40112" lon="4.09389">
        <ele>428.8</ele>
        <time>2022-03-03T14:47:06Z</time>
      </trkpt>
      <trkpt lat="44.40106" lon="4.09392">
        <ele>431</ele>
        <time>2022-03-03T14:47:13Z</time>
      </trkpt>
      <trkpt lat="44.40102" lon="4.09388">
        <ele>434.7</ele>
        <time>2022-03-03T14:47:22Z</time>
      </trkpt>
      <trkpt lat="44.40101" lon="4.09385">
        <ele>436.9</ele>
        <time>2022-03-03T14:47:32Z</time>
      </trkpt>
      <trkpt lat="44.40101" lon="4.09382">
        <ele>551.4257</ele>
        <time>2022-03-03T14:47:42Z</time>
      </trkpt>
      <trkpt lat="44.40101" lon="4.09382">
        <ele>438.3</ele>
        <time>2022-03-03T14:47:52Z</time>
      </trkpt>
      <trkpt lat="44.40099" lon="4.09382">
        <ele>439.3</ele>
        <time>2022-03-03T14:48:02Z</time>
      </trkpt>
      <trkpt lat="44.40102" lon="4.09388">
        <ele>552.525</ele>
        <time>2022-03-03T14:48:07Z</time>
      </trkpt>
      <trkpt lat="44.40103" lon="4.0939">
        <ele>433.3</ele>
        <time>2022-03-03T14:48:17Z</time>
      </trkpt>
      <trkpt lat="44.40102" lon="4.0939">
        <ele>433.8</ele>
        <time>2022-03-03T14:48:27Z</time>
      </trkpt>
      <trkpt lat="44.40097" lon="4.09393">
        <ele>435.9</ele>
        <time>2022-03-03T14:48:34Z</time>
      </trkpt>
      <trkpt lat="44.40094" lon="4.09397">
        <ele>554.47107</ele>
        <time>2022-03-03T14:48:40Z</time>
      </trkpt>
      <trkpt lat="44.40092" lon="4.09399">
        <ele>438</ele>
        <time>2022-03-03T14:48:50Z</time>
      </trkpt>
      <trkpt lat="44.40088" lon="4.09399">
        <ele>441</ele>
        <time>2022-03-03T14:48:57Z</time>
      </trkpt>
      <trkpt lat="44.40082" lon="4.094">
        <ele>559.2193</ele>
        <time>2022-03-03T14:49:04Z</time>
      </trkpt>
      <trkpt lat="44.40077" lon="4.09399">
        <ele>448.6</ele>
        <time>2022-03-03T14:49:12Z</time>
      </trkpt>
      <trkpt lat="44.40073" lon="4.09403">
        <ele>451.3</ele>
        <time>2022-03-03T14:49:16Z</time>
      </trkpt>
      <trkpt lat="44.40074" lon="4.0941">
        <ele>450</ele>
        <time>2022-03-03T14:49:25Z</time>
      </trkpt>
      <trkpt lat="44.40076" lon="4.09416">
        <ele>562.7618</ele>
        <time>2022-03-03T14:49:35Z</time>
      </trkpt>
      <trkpt lat="44.40078" lon="4.09422">
        <ele>447.9</ele>
        <time>2022-03-03T14:49:40Z</time>
      </trkpt>
      <trkpt lat="44.40079" lon="4.09429">
        <ele>449.7</ele>
        <time>2022-03-03T14:49:45Z</time>
      </trkpt>
      <trkpt lat="44.40081" lon="4.09436">
        <ele>450.1</ele>
        <time>2022-03-03T14:49:50Z</time>
      </trkpt>
      <trkpt lat="44.40082" lon="4.09444">
        <ele>452.1</ele>
        <time>2022-03-03T14:49:54Z</time>
      </trkpt>
      <trkpt lat="44.40082" lon="4.09451">
        <ele>566.46173</ele>
        <time>2022-03-03T14:50:02Z</time>
      </trkpt>
      <trkpt lat="44.40081" lon="4.09458">
        <ele>455.3</ele>
        <time>2022-03-03T14:50:07Z</time>
      </trkpt>
      <trkpt lat="44.4008" lon="4.09466">
        <ele>457.8</ele>
        <time>2022-03-03T14:50:12Z</time>
      </trkpt>
      <trkpt lat="44.40081" lon="4.09473">
        <ele>458.5</ele>
        <time>2022-03-03T14:50:19Z</time>
      </trkpt>
      <trkpt lat="44.4008" lon="4.09479">
        <ele>460.2</ele>
        <time>2022-03-03T14:50:29Z</time>
        <extensions>
          <gpxtpx:TrackPointExtension xmlns:gpxtpx="http://www.garmin.com/xmlschemas/TrackPointExtension/v1">
            <gpxtpx:hr>140</gpxtpx:hr>
          </gpxtpx:TrackPointExtension>
        </extensions>
      </trkpt>
      <trkpt lat="44.4008" lon="4.09486">
        <ele>571.04395</ele>
        <time>2022-03-03T14:50:38Z</time>
      </trkpt>
      <trkpt lat="44.4008" lon="4.09493">
        <ele>462.4</ele>
        <time>2022-03-03T14:50:45Z</time>
      </trkpt>
      <trkpt lat="44.4008" lon="4.095">
        <ele>463.9</ele>
        <time>2022-03-03T14:50:54Z</time>
      </trkpt>
      <trkpt lat="44.40076" lon="4.09505">
        <ele>467</ele>
        <time>2022-03-03T14:51:01Z</time>
      </trkpt>
      <trkpt lat="44.40076" lon="4.09509">
        <ele>576.2039</ele>
        <time>2022-03-03T14:51:11Z</time>
      </trkpt>
      <trkpt lat="44.40077" lon="4.09508">
        <ele>467.5</ele>
        <time>2022-03-03T14:51:21Z</time>
      </trkpt>
      <trkpt lat="44.4008" lon="4.09514">
        <ele>468.7</ele>
        <time>2022-03-03T14:51:29Z</time>
        <extensions>
          <gpxtpx:TrackPointExtension xmlns:gpxtpx="http://www.garmin.com/xmlschemas/TrackPointExtension/v1">
            <gpxtpx:hr>148</gpxtpx:hr>
          </gpxtpx:TrackPointExtension>
        </extensions>
      </trkpt>
      <trkpt lat="44.40083" lon="4.09519">
        <ele>580.7558</ele>
        <time>2022-03-03T14:51:35Z</time>
      </trkpt>
      <trkpt lat="44.40085" lon="4.09526">
        <ele>470.9</ele>
        <time>2022-03-03T14:51:40Z</time>
      </trkpt>
      <trkpt lat="44.40082" lon="4.09532">
        <ele>473.6</ele>
        <time>2022-03-03T14:51:47Z</time>
      </trkpt>
      <trkpt lat="44.40077" lon="4.09531">
        <ele>474.5</ele>
        <time>2022-03-03T14:51:55Z</time>
      </trkpt>
      <trkpt lat="44.40072" lon="4.09532">
        <ele>585.38324</ele>
        <time>2022-03-03T14:52:02Z</time>
      </trkpt>
      <trkpt lat="44.4007" lon="4.09535">
        <ele>477</ele>
        <time>2022-03-03T14:52:12Z</time>
      </trkpt>
      <trkpt lat="44.40067" lon="4.0954">
        <ele>478.6</ele>
        <time>2022-03-03T14:52:21Z</time>
      </trkpt>
      <trkpt lat="44.40065" lon="4.09545">
        <ele>479.9</ele>
        <time>2022-03-03T14:52:27Z</time>
      </trkpt>
      <trkpt lat="44.40061" lon="4.09552">
        <ele>590.78906</ele>
        <time>2022-03-03T14:52:37Z</time>
      </trkpt>
      <trkpt lat="44.4006" lon="4.09558">
        <ele>482</ele>
        <time>2022-03-03T14:52:43Z</time>
      </trkpt>
      <trkpt lat="44.40057" lon="4.09564">
        <ele>482.8</ele>
        <time>2022-03-03T14:52:53Z</time>
      </trkpt>
      <trkpt lat="44.40054" lon="4.0957">
        <ele>483.9</ele>
        <time>2022-03-03T14:52:58Z</time>
      </trkpt>
      <trkpt lat="44.40051" lon="4.09576">
        <ele>595.7535</ele>
        <time>2022-03-03T14:53:05Z</time>
      </trkpt>
      <trkpt lat="44.4005" lon="4.09582">
        <ele>485.9</ele>
        <time>2022-03-03T14:53:09Z</time>
      </trkpt>
      <trkpt lat="44.40048" lon="4.09588">
        <ele>486.4</ele>
        <time>2022-03-03T14:53:15Z</time>
      </trkpt>
      <trkpt lat="44.40045" lon="4.09595">
        <ele>486.8</ele>
        <time>2022-03-03T14:53:22Z</time>
      </trkpt>
      <trkpt lat="44.40042" lon="4.096">
        <ele>487.2</ele>
        <time>2022-03-03T14:53:28Z</time>
      </trkpt>
      <trkpt lat="44.40038" lon="4.09605">
        <ele>487.7</ele>
        <time>2022-03-03T14:53:34Z</time>
      </trkpt>
      <trkpt lat="44.40036" lon="4.09606">
        <ele>599.70557</ele>
        <time>2022-03-03T14:53:44Z</time>
      </trkpt>
      <trkpt lat="44.40033" lon="4.09607">
        <ele>488.4</ele>
        <time>2022-03-03T14:53:54Z</time>
      </trkpt>
      <trkpt lat="44.40033" lon="4.09605">
        <ele>600.24664</ele>
        <time>2022-03-03T14:54:04Z</time>
      </trkpt>
      <trkpt lat="44.40032" lon="4.09605">
        <ele>488.5</ele>
        <time>2022-03-03T14:54:14Z</time>
      </trkpt>
      <trkpt lat="44.40032" lon="4.09606">
        <ele>488.6</ele>
        <time>2022-03-03T14:54:24Z</time>
      </trkpt>
      <trkpt lat="44.40032" lon="4.09606">
        <ele>600.1406</ele>
        <time>2022-03-03T14:54:34Z</time>
      </trkpt>
      <trkpt lat="44.40032" lon="4.09606">
        <ele>488.5</ele>
        <time>2022-03-03T14:54:44Z</time>
      </trkpt>
      <trkpt lat="44.40032" lon="4.09605">
        <ele>488.5</ele>
        <time>2022-03-03T14:54:54Z</time>
      </trkpt>
      <trkpt lat="44.40032" lon="4.09606">
        <ele>600.0041</ele>
        <time>2022-03-03T14:55:04Z</time>
      </trkpt>
      <trkpt lat="44.40033" lon="4.09606">
        <ele>488.5</ele>
        <time>2022-03-03T14:55:14Z</time>
      </trkpt>
      <trkpt lat="44.40032" lon="4.09606">
        <ele>488.5</ele>
        <time>2022-03-03T14:55:24Z</time>
      </trkpt>
      <trkpt lat="44.40032" lon="4.09605">
        <ele>488.6</ele>
        <time>2022-03-03T14:55:34Z</time>
      </trkpt>
      <trkpt lat="44.40032" lon="4.09606">
        <ele>600.16516</ele>
        <time>2022-03-03T14:55:44Z</time>
      </trkpt>
      <trkpt lat="44.40031" lon="4.09606">
        <ele>488.6</ele>
        <time>2022-03-03T14:55:54Z</time>
      </trkpt>
      <trkpt lat="44.4003" lon="4.09606">
        <ele>488.8</ele>
        <time>2022-03-03T14:56:04Z</time>
      </trkpt>
      <trkpt lat="44.40031" lon="4.09606">
        <ele>600.2624</ele>
        <time>2022-03-03T14:56:14Z</time>
      </trkpt>
      <trkpt lat="44.40031" lon="4.09606">
        <ele>488.7</ele>
        <time>2022-03-03T14:56:24Z</time>
      </trkpt>
      <trkpt lat="44.40031" lon="4.09606">
        <ele>600.2103</ele>
        <time>2022-03-03T14:56:34Z</time>
      </trkpt>
      <trkpt lat="44.4003" lon="4.09606">
        <ele>488.8</ele>
        <time>2022-03-03T14:56:44Z</time>
      </trkpt>
      <trkpt lat="44.4003" lon="4.09607">
        <ele>488.8</ele>
        <time>2022-03-03T14:56:54Z</time>
      </trkpt>
      <trkpt lat="44.4003" lon="4.09607">
        <ele>600.0071</ele>
        <time>2022-03-03T14:57:04Z</time>
      </trkpt>
      <trkpt lat="44.4003" lon="4.09607">
        <ele>488.8</ele>
        <time>2022-03-03T14:57:14Z</time>
      </trkpt>
      <trkpt lat="44.4003" lon="4.09607">
        <ele>488.8</ele>
        <time>2022-03-03T14:57:24Z</time>
      </trkpt>
      <trkpt lat="44.4003" lon="4.09608">
        <ele>600.03455</ele>
        <time>2022-03-03T14:57:34Z</time>
      </trkpt>
      <trkpt lat="44.40028" lon="4.09615">
        <ele>488.4</ele>
        <time>2022-03-03T14:57:44Z</time>
      </trkpt>
      <trkpt lat="44.40025" lon="4.0962">
        <ele>488</ele>
        <time>2022-03-03T14:57:53Z</time>
      </trkpt>
      <trkpt lat="44.40027" lon="4.09628">
        <ele>486.8</ele>
        <time>2022-03-03T14:57:59Z</time>
      </trkpt>
      <trkpt lat="44.40027" lon="4.09635">
        <ele>597.0868</ele>
        <time>2022-03-03T14:58:04Z</time>
      </trkpt>
      <trkpt lat="44.40028" lon="4.09642">
        <ele>484.6</ele>
        <time>2022-03-03T14:58:11Z</time>
      </trkpt>
      <trkpt lat="44.40025" lon="4.09649">
        <ele>484.4</ele>
        <time>2022-03-03T14:58:16Z</time>
      </trkpt>
      <trkpt lat="44.40021" lon="4.09655">
        <ele>484.2</ele>
        <time>2022-03-03T14:58:21Z</time>
      </trkpt>
      <trkpt lat="44.40018" lon="4.09661">
        <ele>483.8</ele>
        <time>2022-03-03T14:58:29Z</time>
      </trkpt>
      <trkpt lat="44.4002" lon="4.09666">
        <ele>594.2239</ele>
        <time>2022-03-03T14:58:38Z</time>
      </trkpt>
      <trkpt lat="44.40022" lon="4.09673">
        <ele>481.9</ele>
        <time>2022-03-03T14:58:42Z</time>
      </trkpt>
      <trkpt lat="44.40023" lon="4.09679">
        <ele>481</ele>
        <time>2022-03-03T14:58:45Z</time>
      </trkpt>
      <trkpt lat="44.40025" lon="4.09686">
        <ele>480.1</ele>
        <time>2022-03-03T14:58:51Z</time>
      </trkpt>
      <trkpt lat="44.40029" lon="4.09692">
        <ele>479.2</ele>
        <time>2022-03-03T14:58:59Z</time>
      </trkpt>
      <trkpt lat="44.40032" lon="4.09697">
        <ele>478.4</ele>
        <time>2022-03-03T14:59:03Z</time>
      </trkpt>
      <trkpt lat="44.40035" lon="4.09703">
        <ele>589.92334</ele>
        <time>2022-03-03T14:59:08Z</time>
      </trkpt>
      <trkpt lat="44.40036" lon="4.09709">
        <ele>476.4</ele>
        <time>2022-03-03T14:59:14Z</time>
      </trkpt>
      <trkpt lat="44.40035" lon="4.09717">
        <ele>475.5</ele>
        <time>2022-03-03T14:59:18Z</time>
      </trkpt>
      <trkpt lat="44.40034" lon="4.09723">
        <ele>474.7</ele>
        <time>2022-03-03T14:59:22Z</time>
      </trkpt>
      <trkpt lat="44.40033" lon="4.0973">
        <ele>474</ele>
        <time>2022-03-03T14:59:26Z</time>
      </trkpt>
      <trkpt lat="44.40033" lon="4.09738">
        <ele>585.10065</ele>
        <time>2022-03-03T14:59:30Z</time>
      </trkpt>
      <trkpt lat="44.40034" lon="4.09745">
        <ele>472.3</ele>
        <time>2022-03-03T14:59:33Z</time>
      </trkpt>
      <trkpt lat="44.40036" lon="4.09752">
        <ele>471.5</ele>
        <time>2022-03-03T14:59:37Z</time>
      </trkpt>
      <trkpt lat="44.40036" lon="4.09758">
        <ele>471</ele>
        <time>2022-03-03T14:59:41Z</time>
      </trkpt>
      <trkpt lat="44.40037" lon="4.09765">
        <ele>470.4</ele>
        <time>2022-03-03T14:59:45Z</time>
      </trkpt>
      <trkpt lat="44.40038" lon="4.09772">
        <ele>469.7</ele>
        <time>2022-03-03T14:59:52Z</time>
      </trkpt>
      <trkpt lat="44.40038" lon="4.0978">
        <ele>581.0521</ele>
        <time>2022-03-03T15:00:01Z</time>
      </trkpt>
      <trkpt lat="44.40038" lon="4.09788">
        <ele>468</ele>
        <time>2022-03-03T15:00:06Z</time>
      </trkpt>
      <trkpt lat="44.40036" lon="4.09793">
        <ele>467.3</ele>
        <time>2022-03-03T15:00:10Z</time>
      </trkpt>
      <trkpt lat="44.40035" lon="4.09801">
        <ele>466.4</ele>
        <time>2022-03-03T15:00:15Z</time>
      </trkpt>
      <trkpt lat="44.40036" lon="4.09808">
        <ele>465.4</ele>
        <time>2022-03-03T15:00:19Z</time>
      </trkpt>
      <trkpt lat="44.40036" lon="4.09816">
        <ele>464.3</ele>
        <time>2022-03-03T15:00:22Z</time>
      </trkpt>
      <trkpt lat="44.40036" lon="4.09823">
        <ele>463.4</ele>
        <time>2022-03-03T15:00:25Z</time>
      </trkpt>
      <trkpt lat="44.40037" lon="4.09829">
        <ele>462.6</ele>
        <time>2022-03-03T15:00:32Z</time>
      </trkpt>
      <trkpt lat="44.40037" lon="4.09836">
        <ele>575.87726</ele>
        <time>2022-03-03T15:00:37Z</time>
      </trkpt>
      <trkpt lat="44.40036" lon="4.09842">
        <ele>461.2</ele>
        <time>2022-03-03T15:00:40Z</time>
      </trkpt>
      <trkpt lat="44.40034" lon="4.09848">
        <ele>460.5</ele>
        <time>2022-03-03T15:00:45Z</time>
      </trkpt>
      <trkpt lat="44.40031" lon="4.09854">
        <ele>459.8</ele>
        <time>2022-03-03T15:00:50Z</time>
      </trkpt>
      <trkpt lat="44.4003" lon="4.0986">
        <ele>459.2</ele>
        <time>2022-03-03T15:00:54Z</time>
      </trkpt>
      <trkpt lat="44.4003" lon="4.09866">
        <ele>458.7</ele>
        <time>2022-03-03T15:01:00Z</time>
      </trkpt>
      <trkpt lat="44.40025" lon="4.09871">
        <ele>569.7397</ele>
        <time>2022-03-03T15:01:06Z</time>
      </trkpt>
      <trkpt lat="44.4002" lon="4.09876">
        <ele>457.8</ele>
        <time>2022-03-03T15:01:10Z</time>
      </trkpt>
      <trkpt lat="44.40017" lon="4.09882">
        <ele>457.2</ele>
        <time>2022-03-03T15:01:14Z</time>
      </trkpt>
      <trkpt lat="44.40014" lon="4.09886">
        <ele>456.7</ele>
        <time>2022-03-03T15:01:18Z</time>
      </trkpt>
      <trkpt lat="44.4001" lon="4.09891">
        <ele>456</ele>
        <time>2022-03-03T15:01:26Z</time>
      </trkpt>
      <trkpt lat="44.40006" lon="4.09897">
        <ele>454.9</ele>
        <time>2022-03-03T15:01:34Z</time>
      </trkpt>
      <trkpt lat="44.40002" lon="4.09901">
        <ele>565.5725</ele>
        <time>2022-03-03T15:01:39Z</time>
      </trkpt>
      <trkpt lat="44.39998" lon="4.09905">
        <ele>453.2</ele>
        <time>2022-03-03T15:01:43Z</time>
      </trkpt>
      <trkpt lat="44.39993" lon="4.09905">
        <ele>453.6</ele>
        <time>2022-03-03T15:01:49Z</time>
      </trkpt>
      <trkpt lat="44.3999" lon="4.0991">
        <ele>453.1</ele>
        <time>2022-03-03T15:01:53Z</time>
      </trkpt>
      <trkpt lat="44.39988" lon="4.09917">
        <ele>452.3</ele>
        <time>2022-03-03T15:01:58Z</time>
      </trkpt>
      <trkpt lat="44.39986" lon="4.09923">
        <ele>561.61487</ele>
        <time>2022-03-03T15:02:01Z</time>
      </trkpt>
      <trkpt lat="44.39985" lon="4.09931">
        <ele>451.1</ele>
        <time>2022-03-03T15:02:04Z</time>
      </trkpt>
      <trkpt lat="44.39984" lon="4.09937">
        <ele>450.4</ele>
        <time>2022-03-03T15:02:10Z</time>
      </trkpt>
      <trkpt lat="44.39984" lon="4.09945">
        <ele>449.5</ele>
        <time>2022-03-03T15:02:15Z</time>
      </trkpt>
      <trkpt lat="44.39983" lon="4.09952">
        <ele>448.6</ele>
        <time>2022-03-03T15:02:19Z</time>
      </trkpt>
      <trkpt lat="44.39981" lon="4.09959">
        <ele>447.6</ele>
        <time>2022-03-03T15:02:23Z</time>
      </trkpt>
      <trkpt lat="44.3998" lon="4.09965">
        <ele>446.6</ele>
        <time>2022-03-03T15:02:27Z</time>
      </trkpt>
      <trkpt lat="44.39977" lon="4.09971">
        <ele>559.0095</ele>
        <time>2022-03-03T15:02:32Z</time>
      </trkpt>
      <trkpt lat="44.39973" lon="4.09976">
        <ele>444.5</ele>
        <time>2022-03-03T15:02:36Z</time>
      </trkpt>
      <trkpt lat="44.39971" lon="4.09982">
        <ele>443.8</ele>
        <time>2022-03-03T15:02:39Z</time>
      </trkpt>
      <trkpt lat="44.39969" lon="4.09987">
        <ele>443.4</ele>
        <time>2022-03-03T15:02:43Z</time>
      </trkpt>
      <trkpt lat="44.39965" lon="4.09992">
        <ele>443.1</ele>
        <time>2022-03-03T15:02:46Z</time>
      </trkpt>
      <trkpt lat="44.39962" lon="4.09998">
        <ele>442.7</ele>
        <time>2022-03-03T15:02:50Z</time>
      </trkpt>
      <trkpt lat="44.39958" lon="4.10003">
        <ele>442.7</ele>
        <time>2022-03-03T15:02:54Z</time>
      </trkpt>
      <trkpt lat="44.39955" lon="4.10008">
        <ele>442.6</ele>
        <time>2022-03-03T15:02:58Z</time>
      </trkpt>
      <trkpt lat="44.39953" lon="4.10015">
        <ele>555.68225</ele>
        <time>2022-03-03T15:03:02Z</time>
      </trkpt>
      <trkpt lat="44.39951" lon="4.10022">
        <ele>441.3</ele>
        <time>2022-03-03T15:03:06Z</time>
      </trkpt>
      <trkpt lat="44.39951" lon="4.10029">
        <ele>440.4</ele>
        <time>2022-03-03T15:03:11Z</time>
      </trkpt>
      <trkpt lat="44.39949" lon="4.10036">
        <ele>439.6</ele>
        <time>2022-03-03T15:03:16Z</time>
      </trkpt>
      <trkpt lat="44.39949" lon="4.10043">
        <ele>438.7</ele>
        <time>2022-03-03T15:03:19Z</time>
      </trkpt>
      <trkpt lat="44.39948" lon="4.10049">
        <ele>437.8</ele>
        <time>2022-03-03T15:03:23Z</time>
      </trkpt>
      <trkpt lat="44.39947" lon="4.10056">
        <ele>436.9</ele>
        <time>2022-03-03T15:03:26Z</time>
      </trkpt>
      <trkpt lat="44.39945" lon="4.10063">
        <ele>436.2</ele>
        <time>2022-03-03T15:03:29Z</time>
        <extensions>
          <gpxtpx:TrackPointExtension xmlns:gpxtpx="http://www.garmin.com/xmlschemas/TrackPointExtension/v1">
            <gpxtpx:hr>130</gpxtpx:hr>
          </gpxtpx:TrackPointExtension>
        </extensions>
      </trkpt>
      <trkpt lat="44.39943" lon="4.10068">
        <ele>435.6</ele>
        <time>2022-03-03T15:03:32Z</time>
      </trkpt>
      <trkpt lat="44.39939" lon="4.10073">
        <ele>548.659</ele>
        <time>2022-03-03T15:03:35Z</time>
      </trkpt>
      <trkpt lat="44.39935" lon="4.10078">
        <ele>434.6</ele>
        <time>2022-03-03T15:03:39Z</time>
      </trkpt>
      <trkpt lat="44.39934" lon="4.10084">
        <ele>433.9</ele>
        <time>2022-03-03T15:03:44Z</time>
      </trkpt>
      <trkpt lat="44.39935" lon="4.10091">
        <ele>433.1</ele>
        <time>2022-03-03T15:03:50Z</time>
      </trkpt>
      <trkpt lat="44.39933" lon="4.10098">
        <ele>432.4</ele>
        <time>2022-03-03T15:03:53Z</time>
      </trkpt>
      <trkpt lat="44.3993" lon="4.10104">
        <ele>431.7</ele>
        <time>2022-03-03T15:03:57Z</time>
      </trkpt>
      <trkpt lat="44.3993" lon="4.10113">
        <ele>430.9</ele>
        <time>2022-03-03T15:04:02Z</time>
      </trkpt>
      <trkpt lat="44.39926" lon="4.10118">
        <ele>544.5095</ele>
        <time>2022-03-03T15:04:05Z</time>
      </trkpt>
      <trkpt lat="44.39922" lon="4.10123">
        <ele>430.1</ele>
        <time>2022-03-03T15:04:08Z</time>
      </trkpt>
      <trkpt lat="44.3992" lon="4.10129">
        <ele>429.6</ele>
        <time>2022-03-03T15:04:12Z</time>
      </trkpt>
      <trkpt lat="44.3992" lon="4.10135">
        <ele>429.1</ele>
        <time>2022-03-03T15:04:18Z</time>
      </trkpt>
      <trkpt lat="44.39917" lon="4.10142">
        <ele>428.8</ele>
        <time>2022-03-03T15:04:22Z</time>
      </trkpt>
      <trkpt lat="44.39914" lon="4.10149">
        <ele>428</ele>
        <time>2022-03-03T15:04:26Z</time>
      </trkpt>
      <trkpt lat="44.3991" lon="4.10154">
        <ele>427.3</ele>
        <time>2022-03-03T15:04:29Z</time>
        <extensions>
          <gpxtpx:TrackPointExtension xmlns:gpxtpx="http://www.garmin.com/xmlschemas/TrackPointExtension/v1">
            <gpxtpx:hr>132</gpxtpx:hr>
          </gpxtpx:TrackPointExtension>
        </extensions>
      </trkpt>
      <trkpt lat="44.39905" lon="4.10157">
        <ele>426.7</ele>
        <time>2022-03-03T15:04:32Z</time>
      </trkpt>
      <trkpt lat="44.39901" lon="4.10162">
        <ele>539.7763</ele>
        <time>2022-03-03T15:04:37Z</time>
      </trkpt>
      <trkpt lat="44.39899" lon="4.10169">
        <ele>425.5</ele>
        <time>2022-03-03T15:04:43Z</time>
      </trkpt>
      <trkpt lat="44.39899" lon="4.10176">
        <ele>424.9</ele>
        <time>2022-03-03T15:04:50Z</time>
      </trkpt>
      <trkpt lat="44.39897" lon="4.10184">
        <ele>424.1</ele>
        <time>2022-03-03T15:04:54Z</time>
      </trkpt>
      <trkpt lat="44.39896" lon="4.10191">
        <ele>423.6</ele>
        <time>2022-03-03T15:04:58Z</time>
      </trkpt>
      <trkpt lat="44.39898" lon="4.10198">
        <ele>535.9801</ele>
        <time>2022-03-03T15:05:04Z</time>
      </trkpt>
      <trkpt lat="44.39898" lon="4.10206">
        <ele>422.4</ele>
        <time>2022-03-03T15:05:08Z</time>
      </trkpt>
      <trkpt lat="44.39898" lon="4.10212">
        <ele>421.8</ele>
        <time>2022-03-03T15:05:11Z</time>
      </trkpt>
      <trkpt lat="44.39899" lon="4.1022">
        <ele>421.2</ele>
        <time>2022-03-03T15:05:14Z</time>
      </trkpt>
      <trkpt lat="44.399" lon="4.10227">
        <ele>420.5</ele>
        <time>2022-03-03T15:05:19Z</time>
      </trkpt>
      <trkpt lat="44.39901" lon="4.10233">
        <ele>419.8</ele>
        <time>2022-03-03T15:05:24Z</time>
      </trkpt>
      <trkpt lat="44.39902" lon="4.10241">
        <ele>419</ele>
        <time>2022-03-03T15:05:28Z</time>
      </trkpt>
      <trkpt lat="44.39903" lon="4.10247">
        <ele>531.7744</ele>
        <time>2022-03-03T15:05:32Z</time>
      </trkpt>
      <trkpt lat="44.39903" lon="4.10254">
        <ele>417.5</ele>
        <time>2022-03-03T15:05:35Z</time>
      </trkpt>
      <trkpt lat="44.39903" lon="4.10261">
        <ele>416.7</ele>
        <time>2022-03-03T15:05:39Z</time>
      </trkpt>
      <trkpt lat="44.39903" lon="4.10268">
        <ele>415.8</ele>
        <time>2022-03-03T15:05:43Z</time>
      </trkpt>
      <trkpt lat="44.39903" lon="4.10275">
        <ele>414.8</ele>
        <time>2022-03-03T15:05:47Z</time>
      </trkpt>
      <trkpt lat="44.39904" lon="4.10282">
        <ele>413.9</ele>
        <time>2022-03-03T15:05:52Z</time>
      </trkpt>
      <trkpt lat="44.39905" lon="4.10289">
        <ele>413</ele>
        <time>2022-03-03T15:05:57Z</time>
      </trkpt>
      <trkpt lat="44.39906" lon="4.10296">
        <ele>412.1</ele>
        <time>2022-03-03T15:06:02Z</time>
      </trkpt>
      <trkpt lat="44.39906" lon="4.10303">
        <ele>526.17786</ele>
        <time>2022-03-03T15:06:06Z</time>
      </trkpt>
      <trkpt lat="44.39906" lon="4.10311">
        <ele>410.1</ele>
        <time>2022-03-03T15:06:11Z</time>
      </trkpt>
      <trkpt lat="44.39907" lon="4.10318">
        <ele>409.1</ele>
        <time>2022-03-03T15:06:16Z</time>
      </trkpt>
      <trkpt lat="44.39906" lon="4.10324">
        <ele>408.3</ele>
        <time>2022-03-03T15:06:20Z</time>
      </trkpt>
      <trkpt lat="44.39907" lon="4.10331">
        <ele>407.4</ele>
        <time>2022-03-03T15:06:26Z</time>
      </trkpt>
      <trkpt lat="44.39906" lon="4.10338">
        <ele>406.4</ele>
        <time>2022-03-03T15:06:33Z</time>
      </trkpt>
      <trkpt lat="44.39906" lon="4.10338">
        <ele>521.04456</ele>
        <time>2022-03-03T15:06:43Z</time>
      </trkpt>
      <trkpt lat="44.39905" lon="4.10338">
        <ele>406.5</ele>
        <time>2022-03-03T15:06:53Z</time>
      </trkpt>
      <trkpt lat="44.39906" lon="4.10339">
        <ele>406.3</ele>
        <time>2022-03-03T15:07:03Z</time>
      </trkpt>
      <trkpt lat="44.39906" lon="4.1034">
        <ele>521.0827</ele>
        <time>2022-03-03T15:07:13Z</time>
      </trkpt>
      <trkpt lat="44.39908" lon="4.10341">
        <ele>405.7</ele>
        <time>2022-03-03T15:07:23Z</time>
      </trkpt>
      <trkpt lat="44.3991" lon="4.10339">
        <ele>520.4086</ele>
        <time>2022-03-03T15:07:33Z</time>
      </trkpt>
      <trkpt lat="44.39909" lon="4.10343">
        <ele>405.2</ele>
        <time>2022-03-03T15:07:43Z</time>
      </trkpt>
      <trkpt lat="44.3991" lon="4.10349">
        <ele>404.1</ele>
        <time>2022-03-03T15:07:51Z</time>
      </trkpt>
      <trkpt lat="44.39909" lon="4.10355">
        <ele>403.2</ele>
        <time>2022-03-03T15:07:55Z</time>
      </trkpt>
      <trkpt lat="44.39907" lon="4.10362">
        <ele>402.4</ele>
        <time>2022-03-03T15:07:59Z</time>
      </trkpt>
      <trkpt lat="44.39904" lon="4.10368">
        <ele>516.4016</ele>
        <time>2022-03-03T15:08:04Z</time>
      </trkpt>
      <trkpt lat="44.39902" lon="4.10374">
        <ele>401.9</ele>
        <time>2022-03-03T15:08:12Z</time>
      </trkpt>
      <trkpt lat="44.39901" lon="4.10381">
        <ele>401.1</ele>
        <time>2022-03-03T15:08:17Z</time>
      </trkpt>
      <trkpt lat="44.39898" lon="4.10388">
        <ele>400.1</ele>
        <time>2022-03-03T15:08:23Z</time>
      </trkpt>
      <trkpt lat="44.39897" lon="4.10391">
        <ele>399.7</ele>
        <time>2022-03-03T15:08:33Z</time>
      </trkpt>
      <trkpt lat="44.39898" lon="4.10392">
        <ele>511.2716</ele>
        <time>2022-03-03T15:08:43Z</time>
      </trkpt>
      <trkpt lat="44.39895" lon="4.10399">
        <ele>398.8</ele>
        <time>2022-03-03T15:08:48Z</time>
      </trkpt>
      <trkpt lat="44.39897" lon="4.10405">
        <ele>398.6</ele>
        <time>2022-03-03T15:08:56Z</time>
      </trkpt>
      <trkpt lat="44.39896" lon="4.10412">
        <ele>397.7</ele>
        <time>2022-03-03T15:09:01Z</time>
      </trkpt>
      <trkpt lat="44.39892" lon="4.10417">
        <ele>510.05997</ele>
        <time>2022-03-03T15:09:08Z</time>
      </trkpt>
      <trkpt lat="44.39889" lon="4.10425">
        <ele>395.6</ele>
        <time>2022-03-03T15:09:12Z</time>
      </trkpt>
      <trkpt lat="44.39887" lon="4.10431">
        <ele>395.9</ele>
        <time>2022-03-03T15:09:16Z</time>
      </trkpt>
      <trkpt lat="44.39884" lon="4.10437">
        <ele>395.7</ele>
        <time>2022-03-03T15:09:21Z</time>
      </trkpt>
      <trkpt lat="44.39882" lon="4.10444">
        <ele>395.3</ele>
        <time>2022-03-03T15:09:25Z</time>
      </trkpt>
      <trkpt lat="44.39882" lon="4.10451">
        <ele>394</ele>
        <time>2022-03-03T15:09:28Z</time>
      </trkpt>
      <trkpt lat="44.3988" lon="4.10458">
        <ele>391.7</ele>
        <time>2022-03-03T15:09:32Z</time>
      </trkpt>
      <trkpt lat="44.3988" lon="4.10465">
        <ele>506.48996</ele>
        <time>2022-03-03T15:09:37Z</time>
      </trkpt>
      <trkpt lat="44.3988" lon="4.10472">
        <ele>388.1</ele>
        <time>2022-03-03T15:09:42Z</time>
      </trkpt>
      <trkpt lat="44.3988" lon="4.10478">
        <ele>386.9</ele>
        <time>2022-03-03T15:09:46Z</time>
      </trkpt>
      <trkpt lat="44.39879" lon="4.10486">
        <ele>383.9</ele>
        <time>2022-03-03T15:09:52Z</time>
      </trkpt>
      <trkpt lat="44.3988" lon="4.10493">
        <ele>383.7</ele>
        <time>2022-03-03T15:09:58Z</time>
      </trkpt>
      <trkpt lat="44.39881" lon="4.105">
        <ele>502.55005</ele>
        <time>2022-03-03T15:10:03Z</time>
      </trkpt>
      <trkpt lat="44.39881" lon="4.10509">
        <ele>382</ele>
        <time>2022-03-03T15:10:09Z</time>
      </trkpt>
      <trkpt lat="44.39882" lon="4.10516">
        <ele>382.1</ele>
        <time>2022-03-03T15:10:13Z</time>
      </trkpt>
      <trkpt lat="44.39882" lon="4.10523">
        <ele>380.6</ele>
        <time>2022-03-03T15:10:17Z</time>
      </trkpt>
      <trkpt lat="44.39884" lon="4.1053">
        <ele>381</ele>
        <time>2022-03-03T15:10:24Z</time>
      </trkpt>
      <trkpt lat="44.39886" lon="4.10537">
        <ele>381</ele>
        <time>2022-03-03T15:10:27Z</time>
      </trkpt>
      <trkpt lat="44.39887" lon="4.10544">
        <ele>496.97675</ele>
        <time>2022-03-03T15:10:30Z</time>
      </trkpt>
      <trkpt lat="44.39889" lon="4.10552">
        <ele>379.3</ele>
        <time>2022-03-03T15:10:33Z</time>
      </trkpt>
      <trkpt lat="44.39891" lon="4.10557">
        <ele>379</ele>
        <time>2022-03-03T15:10:37Z</time>
      </trkpt>
      <trkpt lat="44.39895" lon="4.10562">
        <ele>380.2</ele>
        <time>2022-03-03T15:10:42Z</time>
      </trkpt>
      <trkpt lat="44.39897" lon="4.1057">
        <ele>379.1</ele>
        <time>2022-03-03T15:10:47Z</time>
      </trkpt>
      <trkpt lat="44.39898" lon="4.10577">
        <ele>377.8</ele>
        <time>2022-03-03T15:10:52Z</time>
      </trkpt>
      <trkpt lat="44.39901" lon="4.10582">
        <ele>378.2</ele>
        <time>2022-03-03T15:10:56Z</time>
      </trkpt>
      <trkpt lat="44.39903" lon="4.10588">
        <ele>493.30435</ele>
        <time>2022-03-03T15:11:00Z</time>
      </trkpt>
      <trkpt lat="44.39906" lon="4.10595">
        <ele>379.2</ele>
        <time>2022-03-03T15:11:05Z</time>
      </trkpt>
      <trkpt lat="44.39908" lon="4.10601">
        <ele>378.5</ele>
        <time>2022-03-03T15:11:09Z</time>
      </trkpt>
      <trkpt lat="44.39911" lon="4.10608">
        <ele>378.2</ele>
        <time>2022-03-03T15:11:14Z</time>
      </trkpt>
      <trkpt lat="44.39914" lon="4.10613">
        <ele>378.7</ele>
        <time>2022-03-03T15:11:19Z</time>
      </trkpt>
      <trkpt lat="44.39918" lon="4.10619">
        <ele>380.4</ele>
        <time>2022-03-03T15:11:23Z</time>
      </trkpt>
      <trkpt lat="44.39919" lon="4.10626">
        <ele>379.2</ele>
        <time>2022-03-03T15:11:27Z</time>
      </trkpt>
      <trkpt lat="44.3992" lon="4.10634">
        <ele>378</ele>
        <time>2022-03-03T15:11:31Z</time>
      </trkpt>
      <trkpt lat="44.39921" lon="4.1064">
        <ele>488.90182</ele>
        <time>2022-03-03T15:11:36Z</time>
      </trkpt>
      <trkpt lat="44.39922" lon="4.10648">
        <ele>375.1</ele>
        <time>2022-03-03T15:11:40Z</time>
      </trkpt>
      <trkpt lat="44.39924" lon="4.10653">
        <ele>375.1</ele>
        <time>2022-03-03T15:11:44Z</time>
      </trkpt>
      <trkpt lat="44.39925" lon="4.10659">
        <ele>375</ele>
        <time>2022-03-03T15:11:48Z</time>
      </trkpt>
      <trkpt lat="44.39927" lon="4.10667">
        <ele>374.2</ele>
        <time>2022-03-03T15:11:52Z</time>
      </trkpt>
      <trkpt lat="44.39929" lon="4.10674">
        <ele>373.3</ele>
        <time>2022-03-03T15:11:57Z</time>
      </trkpt>
      <trkpt lat="44.39929" lon="4.10682">
        <ele>370.9</ele>
        <time>2022-03-03T15:12:02Z</time>
      </trkpt>
      <trkpt lat="44.39931" lon="4.10688">
        <ele>486.17734</ele>
        <time>2022-03-03T15:12:06Z</time>
      </trkpt>
      <trkpt lat="44.39933" lon="4.10696">
        <ele>369.8</ele>
        <time>2022-03-03T15:12:11Z</time>
      </trkpt>
      <trkpt lat="44.39934" lon="4.10703">
        <ele>369.3</ele>
        <time>2022-03-03T15:12:15Z</time>
      </trkpt>
      <trkpt lat="44.39936" lon="4.1071">
        <ele>369.7</ele>
        <time>2022-03-03T15:12:20Z</time>
      </trkpt>
      <trkpt lat="44.39938" lon="4.10716">
        <ele>370.1</ele>
        <time>2022-03-03T15:12:25Z</time>
      </trkpt>
      <trkpt lat="44.39938" lon="4.10723">
        <ele>368.5</ele>
        <time>2022-03-03T15:12:30Z</time>
      </trkpt>
      <trkpt lat="44.39937" lon="4.10729">
        <ele>367.4</ele>
        <time>2022-03-03T15:12:33Z</time>
      </trkpt>
      <trkpt lat="44.39937" lon="4.10737">
        <ele>480.50964</ele>
        <time>2022-03-03T15:12:39Z</time>
      </trkpt>
      <trkpt lat="44.39937" lon="4.10743">
        <ele>365.7</ele>
        <time>2022-03-03T15:12:49Z</time>
      </trkpt>
      <trkpt lat="44.39937" lon="4.1075">
        <ele>364.9</ele>
        <time>2022-03-03T15:12:54Z</time>
      </trkpt>
      <trkpt lat="44.39937" lon="4.10757">
        <ele>476.17517</ele>
        <time>2022-03-03T15:13:00Z</time>
      </trkpt>
      <trkpt lat="44.39938" lon="4.10764">
        <ele>364.2</ele>
        <time>2022-03-03T15:13:05Z</time>
      </trkpt>
      <trkpt lat="44.39938" lon="4.10771">
        <ele>363.2</ele>
        <time>2022-03-03T15:13:14Z</time>
      </trkpt>
      <trkpt lat="44.39938" lon="4.10777">
        <ele>362.5</ele>
        <time>2022-03-03T15:13:24Z</time>
      </trkpt>
      <trkpt lat="44.39938" lon="4.10784">
        <ele>361.4</ele>
        <time>2022-03-03T15:13:28Z</time>
      </trkpt>
      <trkpt lat="44.39936" lon="4.10792">
        <ele>474.06537</ele>
        <time>2022-03-03T15:13:34Z</time>
      </trkpt>
      <trkpt lat="44.39935" lon="4.108">
        <ele>358.9</ele>
        <time>2022-03-03T15:13:39Z</time>
      </trkpt>
      <trkpt lat="44.39935" lon="4.10806">
        <ele>358.5</ele>
        <time>2022-03-03T15:13:43Z</time>
      </trkpt>
      <trkpt lat="44.39936" lon="4.10813">
        <ele>358.6</ele>
        <time>2022-03-03T15:13:47Z</time>
      </trkpt>
      <trkpt lat="44.39936" lon="4.1082">
        <ele>358.5</ele>
        <time>2022-03-03T15:13:51Z</time>
      </trkpt>
      <trkpt lat="44.39936" lon="4.10828">
        <ele>358.4</ele>
        <time>2022-03-03T15:13:56Z</time>
      </trkpt>
      <trkpt lat="44.39936" lon="4.10836">
        <ele>358.3</ele>
        <time>2022-03-03T15:14:01Z</time>
      </trkpt>
      <trkpt lat="44.39937" lon="4.10842">
        <ele>471.2266</ele>
        <time>2022-03-03T15:14:05Z</time>
      </trkpt>
      <trkpt lat="44.39937" lon="4.10849">
        <ele>360.2</ele>
        <time>2022-03-03T15:14:08Z</time>
      </trkpt>
      <trkpt lat="44.39936" lon="4.10855">
        <ele>359.8</ele>
        <time>2022-03-03T15:14:11Z</time>
      </trkpt>
      <trkpt lat="44.39935" lon="4.10862">
        <ele>359.8</ele>
        <time>2022-03-03T15:14:16Z</time>
      </trkpt>
      <trkpt lat="44.39935" lon="4.1087">
        <ele>359.4</ele>
        <time>2022-03-03T15:14:21Z</time>
      </trkpt>
      <trkpt lat="44.39934" lon="4.10879">
        <ele>359.1</ele>
        <time>2022-03-03T15:14:24Z</time>
      </trkpt>
      <trkpt lat="44.39933" lon="4.10886">
        <ele>358.3</ele>
        <time>2022-03-03T15:14:28Z</time>
      </trkpt>
      <trkpt lat="44.39932" lon="4.10892">
        <ele>358.4</ele>
        <time>2022-03-03T15:14:31Z</time>
      </trkpt>
      <trkpt lat="44.39931" lon="4.10899">
        <ele>469.0265</ele>
        <time>2022-03-03T15:14:35Z</time>
      </trkpt>
      <trkpt lat="44.39929" lon="4.10906">
        <ele>358</ele>
        <time>2022-03-03T15:14:38Z</time>
      </trkpt>
      <trkpt lat="44.39926" lon="4.10911">
        <ele>356</ele>
        <time>2022-03-03T15:14:44Z</time>
      </trkpt>
      <trkpt lat="44.39923" lon="4.10917">
        <ele>354.3</ele>
        <time>2022-03-03T15:14:50Z</time>
      </trkpt>
      <trkpt lat="44.3992" lon="4.10924">
        <ele>353.1</ele>
        <time>2022-03-03T15:14:54Z</time>
      </trkpt>
      <trkpt lat="44.39917" lon="4.1093">
        <ele>352.6</ele>
        <time>2022-03-03T15:14:58Z</time>
      </trkpt>
      <trkpt lat="44.39915" lon="4.10937">
        <ele>352.1</ele>
        <time>2022-03-03T15:15:03Z</time>
      </trkpt>
      <trkpt lat="44.39913" lon="4.10944">
        <ele>466.65292</ele>
        <time>2022-03-03T15:15:07Z</time>
      </trkpt>
      <trkpt lat="44.39912" lon="4.10951">
        <ele>353.4</ele>
        <time>2022-03-03T15:15:12Z</time>
      </trkpt>
      <trkpt lat="44.3991" lon="4.10958">
        <ele>353.1</ele>
        <time>2022-03-03T15:15:17Z</time>
      </trkpt>
      <trkpt lat="44.39907" lon="4.10964">
        <ele>352.1</ele>
        <time>2022-03-03T15:15:21Z</time>
      </trkpt>
      <trkpt lat="44.39905" lon="4.1097">
        <ele>351.6</ele>
        <time>2022-03-03T15:15:26Z</time>
      </trkpt>
      <trkpt lat="44.39903" lon="4.10976">
        <ele>464.102</ele>
        <time>2022-03-03T15:15:31Z</time>
      </trkpt>
      <trkpt lat="44.39901" lon="4.10982">
        <ele>349.7</ele>
        <time>2022-03-03T15:15:36Z</time>
      </trkpt>
      <trkpt lat="44.39899" lon="4.10988">
        <ele>348.8</ele>
        <time>2022-03-03T15:15:41Z</time>
      </trkpt>
      <trkpt lat="44.39897" lon="4.10995">
        <ele>347.9</ele>
        <time>2022-03-03T15:15:46Z</time>
      </trkpt>
      <trkpt lat="44.39895" lon="4.11002">
        <ele>347.2</ele>
        <time>2022-03-03T15:15:50Z</time>
      </trkpt>
      <trkpt lat="44.39895" lon="4.11009">
        <ele>347.6</ele>
        <time>2022-03-03T15:15:55Z</time>
      </trkpt>
      <trkpt lat="44.39894" lon="4.11017">
        <ele>348.1</ele>
        <time>2022-03-03T15:16:00Z</time>
      </trkpt>
      <trkpt lat="44.39892" lon="4.11023">
        <ele>347.8</ele>
        <time>2022-03-03T15:16:04Z</time>
      </trkpt>
      <trkpt lat="44.39891" lon="4.11031">
        <ele>347.8</ele>
        <time>2022-03-03T15:16:09Z</time>
      </trkpt>
      <trkpt lat="44.39888" lon="4.11038">
        <ele>345.8</ele>
        <time>2022-03-03T15:16:13Z</time>
      </trkpt>
      <trkpt lat="44.39887" lon="4.11046">
        <ele>345.9</ele>
        <time>2022-03-03T15:16:19Z</time>
      </trkpt>
      <trkpt lat="44.39887" lon="4.11053">
        <ele>346</ele>
        <time>2022-03-03T15:16:25Z</time>
      </trkpt>
      <trkpt lat="44.39887" lon="4.1106">
        <ele>459.84204</ele>
        <time>2022-03-03T15:16:30Z</time>
      </trkpt>
      <trkpt lat="44.39887" lon="4.11067">
        <ele>345.5</ele>
        <time>2022-03-03T15:16:35Z</time>
      </trkpt>
      <trkpt lat="44.39887" lon="4.11073">
        <ele>345</ele>
        <time>2022-03-03T15:16:39Z</time>
      </trkpt>
      <trkpt lat="44.39887" lon="4.11081">
        <ele>344.9</ele>
        <time>2022-03-03T15:16:45Z</time>
      </trkpt>
      <trkpt lat="44.39887" lon="4.11088">
        <ele>343.5</ele>
        <time>2022-03-03T15:16:50Z</time>
      </trkpt>
      <trkpt lat="44.39885" lon="4.11094">
        <ele>341.3</ele>
        <time>2022-03-03T15:16:57Z</time>
      </trkpt>
      <trkpt lat="44.39884" lon="4.11101">
        <ele>339.9</ele>
        <time>2022-03-03T15:17:07Z</time>
      </trkpt>
      <trkpt lat="44.39883" lon="4.11107">
        <ele>338.3</ele>
        <time>2022-03-03T15:17:15Z</time>
      </trkpt>
      <trkpt lat="44.39885" lon="4.11113">
        <ele>338</ele>
        <time>2022-03-03T15:17:20Z</time>
      </trkpt>
      <trkpt lat="44.39888" lon="4.11118">
        <ele>337.4</ele>
        <time>2022-03-03T15:17:27Z</time>
      </trkpt>
      <trkpt lat="44.3989" lon="4.11124">
        <ele>335.9</ele>
        <time>2022-03-03T15:17:32Z</time>
      </trkpt>
      <trkpt lat="44.39891" lon="4.1113">
        <ele>449.28265</ele>
        <time>2022-03-03T15:17:39Z</time>
      </trkpt>
      <trkpt lat="44.39891" lon="4.11134">
        <ele>332.2</ele>
        <time>2022-03-03T15:17:49Z</time>
      </trkpt>
      <trkpt lat="44.39886" lon="4.11131">
        <ele>331.5</ele>
        <time>2022-03-03T15:17:55Z</time>
      </trkpt>
      <trkpt lat="44.39882" lon="4.11126">
        <ele>331.4</ele>
        <time>2022-03-03T15:18:03Z</time>
      </trkpt>
      <trkpt lat="44.39877" lon="4.11126">
        <ele>329</ele>
        <time>2022-03-03T15:18:09Z</time>
      </trkpt>
      <trkpt lat="44.39876" lon="4.11131">
        <ele>326.7</ele>
        <time>2022-03-03T15:18:19Z</time>
      </trkpt>
      <trkpt lat="44.3988" lon="4.11136">
        <ele>327.2</ele>
        <time>2022-03-03T15:18:25Z</time>
      </trkpt>
      <trkpt lat="44.39883" lon="4.11142">
        <ele>442.54358</ele>
        <time>2022-03-03T15:18:30Z</time>
      </trkpt>
      <trkpt lat="44.3988" lon="4.11148">
        <ele>322.3</ele>
        <time>2022-03-03T15:18:35Z</time>
      </trkpt>
      <trkpt lat="44.39883" lon="4.11155">
        <ele>320.1</ele>
        <time>2022-03-03T15:18:41Z</time>
      </trkpt>
      <trkpt lat="44.39887" lon="4.11158">
        <ele>320.5</ele>
        <time>2022-03-03T15:18:50Z</time>
      </trkpt>
      <trkpt lat="44.3989" lon="4.11158">
        <ele>320.9</ele>
        <time>2022-03-03T15:19:00Z</time>
      </trkpt>
      <trkpt lat="44.39891" lon="4.11159">
        <ele>320.7</ele>
        <time>2022-03-03T15:19:10Z</time>
      </trkpt>
      <trkpt lat="44.3989" lon="4.11165">
        <ele>317.7</ele>
        <time>2022-03-03T15:19:17Z</time>
      </trkpt>
      <trkpt lat="44.39888" lon="4.11171">
        <ele>314.5</ele>
        <time>2022-03-03T15:19:23Z</time>
      </trkpt>
      <trkpt lat="44.39885" lon="4.11172">
        <ele>313</ele>
        <time>2022-03-03T15:19:33Z</time>
      </trkpt>
      <trkpt lat="44.39885" lon="4.1117">
        <ele>433.81772</ele>
        <time>2022-03-03T15:19:43Z</time>
      </trkpt>
      <trkpt lat="44.39886" lon="4.1117">
        <ele>314.4</ele>
        <time>2022-03-03T15:19:53Z</time>
      </trkpt>
      <trkpt lat="44.3989" lon="4.11171">
        <ele>315</ele>
        <time>2022-03-03T15:20:03Z</time>
      </trkpt>
      <trkpt lat="44.39894" lon="4.11173">
        <ele>314</ele>
        <time>2022-03-03T15:20:12Z</time>
      </trkpt>
      <trkpt lat="44.39899" lon="4.11176">
        <ele>312.8</ele>
        <time>2022-03-03T15:20:16Z</time>
      </trkpt>
      <trkpt lat="44.39904" lon="4.11177">
        <ele>312.8</ele>
        <time>2022-03-03T15:20:22Z</time>
      </trkpt>
      <trkpt lat="44.39909" lon="4.11181">
        <ele>311.1</ele>
        <time>2022-03-03T15:20:27Z</time>
      </trkpt>
      <trkpt lat="44.39913" lon="4.11185">
        <ele>309.7</ele>
        <time>2022-03-03T15:20:32Z</time>
      </trkpt>
      <trkpt lat="44.39917" lon="4.1119">
        <ele>425.03793</ele>
        <time>2022-03-03T15:20:37Z</time>
      </trkpt>
      <trkpt lat="44.3992" lon="4.11196">
        <ele>306.7</ele>
        <time>2022-03-03T15:20:42Z</time>
      </trkpt>
      <trkpt lat="44.39922" lon="4.11201">
        <ele>305.6</ele>
        <time>2022-03-03T15:20:46Z</time>
      </trkpt>
      <trkpt lat="44.39925" lon="4.11208">
        <ele>304.4</ele>
        <time>2022-03-03T15:20:51Z</time>
      </trkpt>
      <trkpt lat="44.39926" lon="4.11214">
        <ele>302.5</ele>
        <time>2022-03-03T15:20:57Z</time>
      </trkpt>
      <trkpt lat="44.39927" lon="4.11217">
        <ele>301.9</ele>
        <time>2022-03-03T15:21:07Z</time>
      </trkpt>
      <trkpt lat="44.39928" lon="4.11217">
        <ele>302.1</ele>
        <time>2022-03-03T15:21:17Z</time>
      </trkpt>
      <trkpt lat="44.39932" lon="4.1122">
        <ele>301.9</ele>
        <time>2022-03-03T15:21:22Z</time>
      </trkpt>
      <trkpt lat="44.39937" lon="4.11223">
        <ele>302.8</ele>
        <time>2022-03-03T15:21:27Z</time>
      </trkpt>
      <trkpt lat="44.39942" lon="4.11227">
        <ele>419.89468</ele>
        <time>2022-03-03T15:21:32Z</time>
      </trkpt>
      <trkpt lat="44.39946" lon="4.11232">
        <ele>303</ele>
        <time>2022-03-03T15:21:37Z</time>
      </trkpt>
      <trkpt lat="44.39949" lon="4.11237">
        <ele>302.9</ele>
        <time>2022-03-03T15:21:41Z</time>
      </trkpt>
      <trkpt lat="44.39951" lon="4.11245">
        <ele>301.7</ele>
        <time>2022-03-03T15:21:44Z</time>
      </trkpt>
      <trkpt lat="44.39951" lon="4.11252">
        <ele>300.3</ele>
        <time>2022-03-03T15:21:47Z</time>
      </trkpt>
      <trkpt lat="44.3995" lon="4.11258">
        <ele>299</ele>
        <time>2022-03-03T15:21:53Z</time>
      </trkpt>
      <trkpt lat="44.39949" lon="4.11264">
        <ele>297.9</ele>
        <time>2022-03-03T15:21:57Z</time>
      </trkpt>
      <trkpt lat="44.39949" lon="4.11272">
        <ele>296.8</ele>
        <time>2022-03-03T15:22:02Z</time>
      </trkpt>
      <trkpt lat="44.39951" lon="4.1128">
        <ele>296</ele>
        <time>2022-03-03T15:22:07Z</time>
      </trkpt>
      <trkpt lat="44.39952" lon="4.11286">
        <ele>294.8</ele>
        <time>2022-03-03T15:22:12Z</time>
      </trkpt>
      <trkpt lat="44.39954" lon="4.11293">
        <ele>293.5</ele>
        <time>2022-03-03T15:22:20Z</time>
      </trkpt>
      <trkpt lat="44.39954" lon="4.113">
        <ele>292</ele>
        <time>2022-03-03T15:22:25Z</time>
      </trkpt>
      <trkpt lat="44.39956" lon="4.11307">
        <ele>290.3</ele>
        <time>2022-03-03T15:22:32Z</time>
      </trkpt>
      <trkpt lat="44.39957" lon="4.11314">
        <ele>407.60788</ele>
        <time>2022-03-03T15:22:41Z</time>
      </trkpt>
      <trkpt lat="44.39957" lon="4.1132">
        <ele>286.9</ele>
        <time>2022-03-03T15:22:50Z</time>
      </trkpt>
      <trkpt lat="44.39959" lon="4.11328">
        <ele>284.8</ele>
        <time>2022-03-03T15:22:57Z</time>
      </trkpt>
      <trkpt lat="44.3996" lon="4.11334">
        <ele>283</ele>
        <time>2022-03-03T15:23:03Z</time>
      </trkpt>
      <trkpt lat="44.39959" lon="4.11342">
        <ele>281.8</ele>
        <time>2022-03-03T15:23:09Z</time>
      </trkpt>
      <trkpt lat="44.39961" lon="4.11348">
        <ele>280.9</ele>
        <time>2022-03-03T15:23:12Z</time>
      </trkpt>
      <trkpt lat="44.39962" lon="4.11355">
        <ele>280</ele>
        <time>2022-03-03T15:23:16Z</time>
      </trkpt>
      <trkpt lat="44.39965" lon="4.11359">
        <ele>279.3</ele>
        <time>2022-03-03T15:23:26Z</time>
      </trkpt>
      <trkpt lat="44.3997" lon="4.11362">
        <ele>398.23663</ele>
        <time>2022-03-03T15:23:34Z</time>
      </trkpt>
      <trkpt lat="44.39971" lon="4.11367">
        <ele>278.8</ele>
        <time>2022-03-03T15:23:44Z</time>
      </trkpt>
      <trkpt lat="44.39972" lon="4.11369">
        <ele>278.7</ele>
        <time>2022-03-03T15:23:54Z</time>
      </trkpt>
      <trkpt lat="44.39972" lon="4.1137">
        <ele>278.7</ele>
        <time>2022-03-03T15:24:04Z</time>
      </trkpt>
      <trkpt lat="44.39973" lon="4.11372">
        <ele>278.6</ele>
        <time>2022-03-03T15:24:14Z</time>
      </trkpt>
      <trkpt lat="44.39974" lon="4.11376">
        <ele>278.3</ele>
        <time>2022-03-03T15:24:24Z</time>
      </trkpt>
      <trkpt lat="44.39975" lon="4.11378">
        <ele>394.78925</ele>
        <time>2022-03-03T15:24:34Z</time>
      </trkpt>
      <trkpt lat="44.3997" lon="4.11379">
        <ele>278.5</ele>
        <time>2022-03-03T15:24:41Z</time>
      </trkpt>
      <trkpt lat="44.39964" lon="4.1138">
        <ele>278.9</ele>
        <time>2022-03-03T15:24:46Z</time>
      </trkpt>
      <trkpt lat="44.39959" lon="4.1138">
        <ele>279.3</ele>
        <time>2022-03-03T15:24:49Z</time>
      </trkpt>
      <trkpt lat="44.39953" lon="4.11377">
        <ele>279.6</ele>
        <time>2022-03-03T15:24:53Z</time>
      </trkpt>
      <trkpt lat="44.39949" lon="4.11379">
        <ele>280</ele>
        <time>2022-03-03T15:24:57Z</time>
      </trkpt>
      <trkpt lat="44.39943" lon="4.11381">
        <ele>280.6</ele>
        <time>2022-03-03T15:25:06Z</time>
      </trkpt>
      <trkpt lat="44.39939" lon="4.11383">
        <ele>281.6</ele>
        <time>2022-03-03T15:25:12Z</time>
      </trkpt>
      <trkpt lat="44.39935" lon="4.11386">
        <ele>282.5</ele>
        <time>2022-03-03T15:25:16Z</time>
      </trkpt>
      <trkpt lat="44.39934" lon="4.11393">
        <ele>283.2</ele>
        <time>2022-03-03T15:25:24Z</time>
      </trkpt>
      <trkpt lat="44.39933" lon="4.114">
        <ele>283.7</ele>
        <time>2022-03-03T15:25:33Z</time>
      </trkpt>
      <trkpt lat="44.39932" lon="4.11407">
        <ele>399.69687</ele>
        <time>2022-03-03T15:25:43Z</time>
      </trkpt>
      <trkpt lat="44.39932" lon="4.11414">
        <ele>284.5</ele>
        <time>2022-03-03T15:25:48Z</time>
      </trkpt>
      <trkpt lat="44.39933" lon="4.11421">
        <ele>284.2</ele>
        <time>2022-03-03T15:25:57Z</time>
      </trkpt>
      <trkpt lat="44.39935" lon="4.11428">
        <ele>283.5</ele>
        <time>2022-03-03T15:26:02Z</time>
      </trkpt>
      <trkpt lat="44.39938" lon="4.11435">
        <ele>283.2</ele>
        <time>2022-03-03T15:26:06Z</time>
      </trkpt>
      <trkpt lat="44.39937" lon="4.11442">
        <ele>282.2</ele>
        <time>2022-03-03T15:26:14Z</time>
      </trkpt>
      <trkpt lat="44.39933" lon="4.11447">
        <ele>280</ele>
        <time>2022-03-03T15:26:19Z</time>
      </trkpt>
      <trkpt lat="44.39935" lon="4.11438">
        <ele>282.2</ele>
        <time>2022-03-03T15:26:27Z</time>
      </trkpt>
      <trkpt lat="44.39934" lon="4.11432">
        <ele>400.5754</ele>
        <time>2022-03-03T15:26:30Z</time>
      </trkpt>
      <trkpt lat="44.39931" lon="4.11429">
        <ele>282.5</ele>
        <time>2022-03-03T15:26:40Z</time>
      </trkpt>
      <trkpt lat="44.39932" lon="4.1143">
        <ele>282.6</ele>
        <time>2022-03-03T15:26:50Z</time>
      </trkpt>
      <trkpt lat="44.39932" lon="4.11435">
        <ele>281.9</ele>
        <time>2022-03-03T15:27:00Z</time>
      </trkpt>
      <trkpt lat="44.39927" lon="4.11437">
        <ele>280.4</ele>
        <time>2022-03-03T15:27:07Z</time>
      </trkpt>
      <trkpt lat="44.39922" lon="4.11434">
        <ele>279.9</ele>
        <time>2022-03-03T15:27:12Z</time>
      </trkpt>
      <trkpt lat="44.39919" lon="4.11433">
        <ele>279.4</ele>
        <time>2022-03-03T15:27:22Z</time>
      </trkpt>
      <trkpt lat="44.3992" lon="4.1144">
        <ele>278</ele>
        <time>2022-03-03T15:27:30Z</time>
      </trkpt>
      <trkpt lat="44.39919" lon="4.11445">
        <ele>394.1483</ele>
        <time>2022-03-03T15:27:40Z</time>
      </trkpt>
      <trkpt lat="44.39915" lon="4.1145">
        <ele>274.2</ele>
        <time>2022-03-03T15:27:48Z</time>
      </trkpt>
      <trkpt lat="44.39913" lon="4.11455">
        <ele>272.3</ele>
        <time>2022-03-03T15:27:58Z</time>
      </trkpt>
      <trkpt lat="44.39909" lon="4.1146">
        <ele>270.1</ele>
        <time>2022-03-03T15:28:05Z</time>
      </trkpt>
      <trkpt lat="44.39904" lon="4.11459">
        <ele>269</ele>
        <time>2022-03-03T15:28:10Z</time>
      </trkpt>
      <trkpt lat="44.399" lon="4.1146">
        <ele>267.7</ele>
        <time>2022-03-03T15:28:20Z</time>
      </trkpt>
      <trkpt lat="44.39896" lon="4.11457">
        <ele>267.3</ele>
        <time>2022-03-03T15:28:28Z</time>
        <extensions>
          <gpxtpx:TrackPointExtension xmlns:gpxtpx="http://www.garmin.com/xmlschemas/TrackPointExtension/v1">
            <gpxtpx:hr>122</gpxtpx:hr>
          </gpxtpx:TrackPointExtension>
        </extensions>
      </trkpt>
      <trkpt lat="44.39892" lon="4.11453">
        <ele>385.25055</ele>
        <time>2022-03-03T15:28:38Z</time>
      </trkpt>
      <trkpt lat="44.39891" lon="4.11451">
        <ele>267.5</ele>
        <time>2022-03-03T15:28:48Z</time>
      </trkpt>
      <trkpt lat="44.39887" lon="4.11454">
        <ele>265.2</ele>
        <time>2022-03-03T15:28:53Z</time>
      </trkpt>
      <trkpt lat="44.39883" lon="4.11458">
        <ele>262.5</ele>
        <time>2022-03-03T15:28:59Z</time>
      </trkpt>
      <trkpt lat="44.39878" lon="4.11461">
        <ele>259.9</ele>
        <time>2022-03-03T15:29:09Z</time>
      </trkpt>
      <trkpt lat="44.39876" lon="4.11465">
        <ele>258.1</ele>
        <time>2022-03-03T15:29:19Z</time>
      </trkpt>
      <trkpt lat="44.39878" lon="4.11472">
        <ele>257.2</ele>
        <time>2022-03-03T15:29:28Z</time>
        <extensions>
          <gpxtpx:TrackPointExtension xmlns:gpxtpx="http://www.garmin.com/xmlschemas/TrackPointExtension/v1">
            <gpxtpx:hr>116</gpxtpx:hr>
          </gpxtpx:TrackPointExtension>
        </extensions>
      </trkpt>
      <trkpt lat="44.39876" lon="4.11477">
        <ele>373.49078</ele>
        <time>2022-03-03T15:29:32Z</time>
      </trkpt>
      <trkpt lat="44.39874" lon="4.11483">
        <ele>253.1</ele>
        <time>2022-03-03T15:29:40Z</time>
      </trkpt>
      <trkpt lat="44.39872" lon="4.1149">
        <ele>251.1</ele>
        <time>2022-03-03T15:29:45Z</time>
      </trkpt>
      <trkpt lat="44.39875" lon="4.11496">
        <ele>250.2</ele>
        <time>2022-03-03T15:29:51Z</time>
      </trkpt>
      <trkpt lat="44.39878" lon="4.11502">
        <ele>249.6</ele>
        <time>2022-03-03T15:29:56Z</time>
      </trkpt>
      <trkpt lat="44.39882" lon="4.11506">
        <ele>249.5</ele>
        <time>2022-03-03T15:30:00Z</time>
      </trkpt>
      <trkpt lat="44.39887" lon="4.11506">
        <ele>250.6</ele>
        <time>2022-03-03T15:30:05Z</time>
      </trkpt>
      <trkpt lat="44.39889" lon="4.11512">
        <ele>249.6</ele>
        <time>2022-03-03T15:30:15Z</time>
      </trkpt>
      <trkpt lat="44.39886" lon="4.11517">
        <ele>247.4</ele>
        <time>2022-03-03T15:30:24Z</time>
      </trkpt>
      <trkpt lat="44.39881" lon="4.11518">
        <ele>246.1</ele>
        <time>2022-03-03T15:30:33Z</time>
      </trkpt>
      <trkpt lat="44.39876" lon="4.11516">
        <ele>364.46274</ele>
        <time>2022-03-03T15:30:40Z</time>
      </trkpt>
      <trkpt lat="44.39871" lon="4.11518">
        <ele>243.9</ele>
        <time>2022-03-03T15:30:46Z</time>
      </trkpt>
      <trkpt lat="44.39866" lon="4.1152">
        <ele>242.3</ele>
        <time>2022-03-03T15:30:52Z</time>
      </trkpt>
      <trkpt lat="44.39867" lon="4.11526">
        <ele>240.7</ele>
        <time>2022-03-03T15:31:01Z</time>
      </trkpt>
      <trkpt lat="44.39871" lon="4.11531">
        <ele>240.4</ele>
        <time>2022-03-03T15:31:09Z</time>
      </trkpt>
      <trkpt lat="44.39874" lon="4.11536">
        <ele>239.7</ele>
        <time>2022-03-03T15:31:15Z</time>
      </trkpt>
      <trkpt lat="44.39877" lon="4.1154">
        <ele>239.1</ele>
        <time>2022-03-03T15:31:20Z</time>
      </trkpt>
      <trkpt lat="44.3988" lon="4.11547">
        <ele>237.7</ele>
        <time>2022-03-03T15:31:28Z</time>
        <extensions>
          <gpxtpx:TrackPointExtension xmlns:gpxtpx="http://www.garmin.com/xmlschemas/TrackPointExtension/v1">
            <gpxtpx:hr>113</gpxtpx:hr>
          </gpxtpx:TrackPointExtension>
        </extensions>
      </trkpt>
      <trkpt lat="44.39883" lon="4.11552">
        <ele>355.26956</ele>
        <time>2022-03-03T15:31:32Z</time>
      </trkpt>
      <trkpt lat="44.39886" lon="4.11558">
        <ele>235.4</ele>
        <time>2022-03-03T15:31:36Z</time>
      </trkpt>
      <trkpt lat="44.39889" lon="4.11564">
        <ele>234.7</ele>
        <time>2022-03-03T15:31:42Z</time>
      </trkpt>
      <trkpt lat="44.39893" lon="4.11569">
        <ele>234.4</ele>
        <time>2022-03-03T15:31:46Z</time>
      </trkpt>
      <trkpt lat="44.39896" lon="4.11575">
        <ele>233.5</ele>
        <time>2022-03-03T15:31:51Z</time>
      </trkpt>
      <trkpt lat="44.39899" lon="4.1158">
        <ele>232.7</ele>
        <time>2022-03-03T15:31:55Z</time>
      </trkpt>
      <trkpt lat="44.39903" lon="4.11584">
        <ele>231.8</ele>
        <time>2022-03-03T15:32:00Z</time>
      </trkpt>
      <trkpt lat="44.39906" lon="4.11591">
        <ele>230.4</ele>
        <time>2022-03-03T15:32:05Z</time>
      </trkpt>
      <trkpt lat="44.39909" lon="4.11595">
        <ele>229.4</ele>
        <time>2022-03-03T15:32:10Z</time>
      </trkpt>
      <trkpt lat="44.39912" lon="4.11601">
        <ele>228.1</ele>
        <time>2022-03-03T15:32:15Z</time>
      </trkpt>
      <trkpt lat="44.39914" lon="4.11608">
        <ele>226.7</ele>
        <time>2022-03-03T15:32:19Z</time>
      </trkpt>
      <trkpt lat="44.39917" lon="4.11613">
        <ele>225.8</ele>
        <time>2022-03-03T15:32:23Z</time>
      </trkpt>
      <trkpt lat="44.39919" lon="4.11619">
        <ele>225.1</ele>
        <time>2022-03-03T15:32:27Z</time>
      </trkpt>
      <trkpt lat="44.3992" lon="4.11626">
        <ele>344.08713</ele>
        <time>2022-03-03T15:32:33Z</time>
      </trkpt>
      <trkpt lat="44.39922" lon="4.11632">
        <ele>223.7</ele>
        <time>2022-03-03T15:32:37Z</time>
      </trkpt>
      <trkpt lat="44.39922" lon="4.11639">
        <ele>222.8</ele>
        <time>2022-03-03T15:32:44Z</time>
      </trkpt>
      <trkpt lat="44.39922" lon="4.11646">
        <ele>221.6</ele>
        <time>2022-03-03T15:32:48Z</time>
      </trkpt>
      <trkpt lat="44.39924" lon="4.11653">
        <ele>220.9</ele>
        <time>2022-03-03T15:32:58Z</time>
      </trkpt>
      <trkpt lat="44.39926" lon="4.11659">
        <ele>220.4</ele>
        <time>2022-03-03T15:33:01Z</time>
      </trkpt>
      <trkpt lat="44.39928" lon="4.11666">
        <ele>219.8</ele>
        <time>2022-03-03T15:33:05Z</time>
      </trkpt>
      <trkpt lat="44.3993" lon="4.11673">
        <ele>218.3</ele>
        <time>2022-03-03T15:33:12Z</time>
      </trkpt>
      <trkpt lat="44.39934" lon="4.11679">
        <ele>217.1</ele>
        <time>2022-03-03T15:33:16Z</time>
      </trkpt>
      <trkpt lat="44.39936" lon="4.11685">
        <ele>216.1</ele>
        <time>2022-03-03T15:33:21Z</time>
      </trkpt>
      <trkpt lat="44.39939" lon="4.1169">
        <ele>215.3</ele>
        <time>2022-03-03T15:33:25Z</time>
      </trkpt>
      <trkpt lat="44.39942" lon="4.11695">
        <ele>214.4</ele>
        <time>2022-03-03T15:33:30Z</time>
      </trkpt>
      <trkpt lat="44.39945" lon="4.117">
        <ele>213.7</ele>
        <time>2022-03-03T15:33:33Z</time>
      </trkpt>
      <trkpt lat="44.3995" lon="4.11703">
        <ele>334.0705</ele>
        <time>2022-03-03T15:33:38Z</time>
      </trkpt>
      <trkpt lat="44.39953" lon="4.11708">
        <ele>211.8</ele>
        <time>2022-03-03T15:33:45Z</time>
      </trkpt>
      <trkpt lat="44.39957" lon="4.11712">
        <ele>211.1</ele>
        <time>2022-03-03T15:33:50Z</time>
      </trkpt>
      <trkpt lat="44.39962" lon="4.11715">
        <ele>210.3</ele>
        <time>2022-03-03T15:33:54Z</time>
      </trkpt>
      <trkpt lat="44.39965" lon="4.11719">
        <ele>209.6</ele>
        <time>2022-03-03T15:33:59Z</time>
      </trkpt>
      <trkpt lat="44.39969" lon="4.11723">
        <ele>208.8</ele>
        <time>2022-03-03T15:34:03Z</time>
      </trkpt>
      <trkpt lat="44.39975" lon="4.11726">
        <ele>208.3</ele>
        <time>2022-03-03T15:34:08Z</time>
      </trkpt>
      <trkpt lat="44.39979" lon="4.11727">
        <ele>208.3</ele>
        <time>2022-03-03T15:34:13Z</time>
      </trkpt>
      <trkpt lat="44.39984" lon="4.11729">
        <ele>207.8</ele>
        <time>2022-03-03T15:34:17Z</time>
      </trkpt>
      <trkpt lat="44.39988" lon="4.11732">
        <ele>207.4</ele>
        <time>2022-03-03T15:34:22Z</time>
      </trkpt>
      <trkpt lat="44.39991" lon="4.11737">
        <ele>206.7</ele>
        <time>2022-03-03T15:34:27Z</time>
      </trkpt>
      <trkpt lat="44.39994" lon="4.11742">
        <ele>326.54242</ele>
        <time>2022-03-03T15:34:31Z</time>
      </trkpt>
      <trkpt lat="44.39997" lon="4.11749">
        <ele>205</ele>
        <time>2022-03-03T15:34:35Z</time>
      </trkpt>
      <trkpt lat="44.4" lon="4.11754">
        <ele>204.7</ele>
        <time>2022-03-03T15:34:38Z</time>
      </trkpt>
      <trkpt lat="44.40003" lon="4.11759">
        <ele>204.8</ele>
        <time>2022-03-03T15:34:42Z</time>
      </trkpt>
      <trkpt lat="44.40004" lon="4.11765">
        <ele>204.6</ele>
        <time>2022-03-03T15:34:45Z</time>
      </trkpt>
      <trkpt lat="44.40007" lon="4.11772">
        <ele>204.6</ele>
        <time>2022-03-03T15:34:50Z</time>
      </trkpt>
      <trkpt lat="44.40009" lon="4.11779">
        <ele>204.5</ele>
        <time>2022-03-03T15:34:55Z</time>
      </trkpt>
      <trkpt lat="44.4001" lon="4.11786">
        <ele>204.1</ele>
        <time>2022-03-03T15:34:59Z</time>
      </trkpt>
      <trkpt lat="44.40012" lon="4.11792">
        <ele>204</ele>
        <time>2022-03-03T15:35:06Z</time>
      </trkpt>
      <trkpt lat="44.40016" lon="4.11799">
        <ele>203.9</ele>
        <time>2022-03-03T15:35:11Z</time>
      </trkpt>
      <trkpt lat="44.40019" lon="4.11806">
        <ele>203.7</ele>
        <time>2022-03-03T15:35:15Z</time>
      </trkpt>
      <trkpt lat="44.40021" lon="4.11812">
        <ele>203.6</ele>
        <time>2022-03-03T15:35:20Z</time>
      </trkpt>
      <trkpt lat="44.40024" lon="4.11816">
        <ele>203.6</ele>
        <time>2022-03-03T15:35:23Z</time>
      </trkpt>
      <trkpt lat="44.40027" lon="4.11822">
        <ele>203.2</ele>
        <time>2022-03-03T15:35:27Z</time>
      </trkpt>
      <trkpt lat="44.4003" lon="4.11828">
        <ele>203.2</ele>
        <time>2022-03-03T15:35:31Z</time>
      </trkpt>
      <trkpt lat="44.40033" lon="4.11834">
        <ele>323.1114</ele>
        <time>2022-03-03T15:35:35Z</time>
      </trkpt>
      <trkpt lat="44.40036" lon="4.1184">
        <ele>204.4</ele>
        <time>2022-03-03T15:35:39Z</time>
      </trkpt>
      <trkpt lat="44.40038" lon="4.11846">
        <ele>204.7</ele>
        <time>2022-03-03T15:35:43Z</time>
      </trkpt>
      <trkpt lat="44.40038" lon="4.11853">
        <ele>204.3</ele>
        <time>2022-03-03T15:35:47Z</time>
      </trkpt>
      <trkpt lat="44.40039" lon="4.11859">
        <ele>203.9</ele>
        <time>2022-03-03T15:35:51Z</time>
      </trkpt>
      <trkpt lat="44.4004" lon="4.11866">
        <ele>203.9</ele>
        <time>2022-03-03T15:35:54Z</time>
      </trkpt>
      <trkpt lat="44.40042" lon="4.11872">
        <ele>203.9</ele>
        <time>2022-03-03T15:35:57Z</time>
      </trkpt>
      <trkpt lat="44.40044" lon="4.1188">
        <ele>204</ele>
        <time>2022-03-03T15:36:02Z</time>
      </trkpt>
      <trkpt lat="44.40045" lon="4.11888">
        <ele>203.7</ele>
        <time>2022-03-03T15:36:07Z</time>
      </trkpt>
      <trkpt lat="44.40048" lon="4.11895">
        <ele>204.1</ele>
        <time>2022-03-03T15:36:12Z</time>
      </trkpt>
      <trkpt lat="44.40047" lon="4.119">
        <ele>203.8</ele>
        <time>2022-03-03T15:36:22Z</time>
      </trkpt>
      <trkpt lat="44.40049" lon="4.11907">
        <ele>204.1</ele>
        <time>2022-03-03T15:36:28Z</time>
        <extensions>
          <gpxtpx:TrackPointExtension xmlns:gpxtpx="http://www.garmin.com/xmlschemas/TrackPointExtension/v1">
            <gpxtpx:hr>137</gpxtpx:hr>
          </gpxtpx:TrackPointExtension>
        </extensions>
      </trkpt>
      <trkpt lat="44.40052" lon="4.11912">
        <ele>204.4</ele>
        <time>2022-03-03T15:36:33Z</time>
      </trkpt>
      <trkpt lat="44.40052" lon="4.1192">
        <ele>322.96213</ele>
        <time>2022-03-03T15:36:37Z</time>
      </trkpt>
      <trkpt lat="44.40052" lon="4.11927">
        <ele>204.6</ele>
        <time>2022-03-03T15:36:41Z</time>
      </trkpt>
      <trkpt lat="44.40052" lon="4.11934">
        <ele>204.9</ele>
        <time>2022-03-03T15:36:46Z</time>
      </trkpt>
      <trkpt lat="44.40052" lon="4.11942">
        <ele>205.1</ele>
        <time>2022-03-03T15:36:50Z</time>
      </trkpt>
      <trkpt lat="44.40051" lon="4.11949">
        <ele>204.9</ele>
        <time>2022-03-03T15:36:55Z</time>
      </trkpt>
      <trkpt lat="44.4005" lon="4.11956">
        <ele>204.4</ele>
        <time>2022-03-03T15:37:01Z</time>
      </trkpt>
      <trkpt lat="44.40047" lon="4.11961">
        <ele>203.7</ele>
        <time>2022-03-03T15:37:06Z</time>
      </trkpt>
      <trkpt lat="44.40044" lon="4.11967">
        <ele>203</ele>
        <time>2022-03-03T15:37:10Z</time>
      </trkpt>
      <trkpt lat="44.40039" lon="4.11971">
        <ele>202.1</ele>
        <time>2022-03-03T15:37:16Z</time>
      </trkpt>
      <trkpt lat="44.40038" lon="4.11977">
        <ele>201.6</ele>
        <time>2022-03-03T15:37:19Z</time>
      </trkpt>
      <trkpt lat="44.40036" lon="4.11985">
        <ele>201.1</ele>
        <time>2022-03-03T15:37:26Z</time>
      </trkpt>
      <trkpt lat="44.40034" lon="4.11992">
        <ele>322.4464</ele>
        <time>2022-03-03T15:37:31Z</time>
      </trkpt>
      <trkpt lat="44.40031" lon="4.11999">
        <ele>200.4</ele>
        <time>2022-03-03T15:37:35Z</time>
      </trkpt>
      <trkpt lat="44.40028" lon="4.12006">
        <ele>199.8</ele>
        <time>2022-03-03T15:37:41Z</time>
      </trkpt>
      <trkpt lat="44.40024" lon="4.1201">
        <ele>199.6</ele>
        <time>2022-03-03T15:37:48Z</time>
      </trkpt>
      <trkpt lat="44.4002" lon="4.12016">
        <ele>199.3</ele>
        <time>2022-03-03T15:37:53Z</time>
      </trkpt>
      <trkpt lat="44.40017" lon="4.12021">
        <ele>199</ele>
        <time>2022-03-03T15:37:57Z</time>
      </trkpt>
      <trkpt lat="44.40013" lon="4.12024">
        <ele>198.7</ele>
        <time>2022-03-03T15:38:01Z</time>
      </trkpt>
      <trkpt lat="44.4001" lon="4.12029">
        <ele>198.4</ele>
        <time>2022-03-03T15:38:04Z</time>
      </trkpt>
      <trkpt lat="44.40008" lon="4.12035">
        <ele>198.3</ele>
        <time>2022-03-03T15:38:08Z</time>
      </trkpt>
      <trkpt lat="44.40007" lon="4.12041">
        <ele>198.2</ele>
        <time>2022-03-03T15:38:13Z</time>
      </trkpt>
      <trkpt lat="44.40006" lon="4.12048">
        <ele>198.2</ele>
        <time>2022-03-03T15:38:16Z</time>
      </trkpt>
      <trkpt lat="44.40006" lon="4.12055">
        <ele>198.2</ele>
        <time>2022-03-03T15:38:21Z</time>
      </trkpt>
      <trkpt lat="44.40006" lon="4.12063">
        <ele>198.1</ele>
        <time>2022-03-03T15:38:25Z</time>
      </trkpt>
      <trkpt lat="44.40007" lon="4.1207">
        <ele>198.1</ele>
        <time>2022-03-03T15:38:30Z</time>
      </trkpt>
      <trkpt lat="44.40007" lon="4.12077">
        <ele>198.1</ele>
        <time>2022-03-03T15:38:34Z</time>
      </trkpt>
      <trkpt lat="44.40009" lon="4.12084">
        <ele>318.8532</ele>
        <time>2022-03-03T15:38:39Z</time>
      </trkpt>
      <trkpt lat="44.40009" lon="4.1209">
        <ele>197.8</ele>
        <time>2022-03-03T15:38:43Z</time>
      </trkpt>
      <trkpt lat="44.40011" lon="4.12097">
        <ele>197.5</ele>
        <time>2022-03-03T15:38:47Z</time>
      </trkpt>
      <trkpt lat="44.40013" lon="4.12104">
        <ele>197.3</ele>
        <time>2022-03-03T15:38:51Z</time>
      </trkpt>
      <trkpt lat="44.40015" lon="4.1211">
        <ele>197</ele>
        <time>2022-03-03T15:38:55Z</time>
      </trkpt>
      <trkpt lat="44.40016" lon="4.12117">
        <ele>197.2</ele>
        <time>2022-03-03T15:38:59Z</time>
      </trkpt>
      <trkpt lat="44.40018" lon="4.12123">
        <ele>197.3</ele>
        <time>2022-03-03T15:39:04Z</time>
      </trkpt>
      <trkpt lat="44.40021" lon="4.12128">
        <ele>197.3</ele>
        <time>2022-03-03T15:39:07Z</time>
      </trkpt>
      <trkpt lat="44.40023" lon="4.12134">
        <ele>197.3</ele>
        <time>2022-03-03T15:39:11Z</time>
      </trkpt>
      <trkpt lat="44.40025" lon="4.1214">
        <ele>197.1</ele>
        <time>2022-03-03T15:39:14Z</time>
      </trkpt>
      <trkpt lat="44.40029" lon="4.12145">
        <ele>196.5</ele>
        <time>2022-03-03T15:39:19Z</time>
      </trkpt>
      <trkpt lat="44.40033" lon="4.12149">
        <ele>196.2</ele>
        <time>2022-03-03T15:39:22Z</time>
      </trkpt>
      <trkpt lat="44.40036" lon="4.12153">
        <ele>196</ele>
        <time>2022-03-03T15:39:25Z</time>
      </trkpt>
      <trkpt lat="44.4004" lon="4.12159">
        <ele>195.8</ele>
        <time>2022-03-03T15:39:29Z</time>
        <extensions>
          <gpxtpx:TrackPointExtension xmlns:gpxtpx="http://www.garmin.com/xmlschemas/TrackPointExtension/v1">
            <gpxtpx:hr>155</gpxtpx:hr>
          </gpxtpx:TrackPointExtension>
        </extensions>
      </trkpt>
      <trkpt lat="44.40043" lon="4.12164">
        <ele>317.35776</ele>
        <time>2022-03-03T15:39:33Z</time>
      </trkpt>
      <trkpt lat="44.40048" lon="4.12167">
        <ele>195.7</ele>
        <time>2022-03-03T15:39:37Z</time>
      </trkpt>
      <trkpt lat="44.40052" lon="4.1217">
        <ele>195.8</ele>
        <time>2022-03-03T15:39:42Z</time>
      </trkpt>
      <trkpt lat="44.40056" lon="4.12174">
        <ele>195.8</ele>
        <time>2022-03-03T15:39:46Z</time>
      </trkpt>
      <trkpt lat="44.4006" lon="4.12178">
        <ele>195.9</ele>
        <time>2022-03-03T15:39:50Z</time>
      </trkpt>
      <trkpt lat="44.40065" lon="4.12182">
        <ele>195.9</ele>
        <time>2022-03-03T15:39:54Z</time>
      </trkpt>
      <trkpt lat="44.40069" lon="4.12188">
        <ele>195.9</ele>
        <time>2022-03-03T15:39:58Z</time>
      </trkpt>
      <trkpt lat="44.40073" lon="4.12192">
        <ele>195.8</ele>
        <time>2022-03-03T15:40:02Z</time>
      </trkpt>
      <trkpt lat="44.40076" lon="4.12198">
        <ele>195.6</ele>
        <time>2022-03-03T15:40:07Z</time>
      </trkpt>
      <trkpt lat="44.40081" lon="4.12203">
        <ele>195.4</ele>
        <time>2022-03-03T15:40:11Z</time>
      </trkpt>
      <trkpt lat="44.40083" lon="4.12208">
        <ele>195</ele>
        <time>2022-03-03T15:40:14Z</time>
      </trkpt>
      <trkpt lat="44.40086" lon="4.12214">
        <ele>194.8</ele>
        <time>2022-03-03T15:40:18Z</time>
      </trkpt>
      <trkpt lat="44.40088" lon="4.12221">
        <ele>194.5</ele>
        <time>2022-03-03T15:40:22Z</time>
      </trkpt>
      <trkpt lat="44.40089" lon="4.12227">
        <ele>194.3</ele>
        <time>2022-03-03T15:40:26Z</time>
      </trkpt>
      <trkpt lat="44.40091" lon="4.12234">
        <ele>194</ele>
        <time>2022-03-03T15:40:31Z</time>
      </trkpt>
      <trkpt lat="44.40094" lon="4.12241">
        <ele>315.5678</ele>
        <time>2022-03-03T15:40:35Z</time>
      </trkpt>
      <trkpt lat="44.40096" lon="4.12247">
        <ele>193.6</ele>
        <time>2022-03-03T15:40:40Z</time>
      </trkpt>
      <trkpt lat="44.40098" lon="4.12254">
        <ele>193.6</ele>
        <time>2022-03-03T15:40:44Z</time>
      </trkpt>
      <trkpt lat="44.401" lon="4.12261">
        <ele>193.7</ele>
        <time>2022-03-03T15:40:48Z</time>
      </trkpt>
      <trkpt lat="44.40101" lon="4.12268">
        <ele>193.7</ele>
        <time>2022-03-03T15:40:53Z</time>
      </trkpt>
      <trkpt lat="44.40102" lon="4.12276">
        <ele>193.7</ele>
        <time>2022-03-03T15:40:57Z</time>
      </trkpt>
      <trkpt lat="44.40103" lon="4.12282">
        <ele>193.6</ele>
        <time>2022-03-03T15:41:00Z</time>
      </trkpt>
      <trkpt lat="44.40104" lon="4.1229">
        <ele>193.5</ele>
        <time>2022-03-03T15:41:04Z</time>
      </trkpt>
      <trkpt lat="44.40107" lon="4.12295">
        <ele>193.4</ele>
        <time>2022-03-03T15:41:08Z</time>
      </trkpt>
      <trkpt lat="44.40111" lon="4.12302">
        <ele>193.1</ele>
        <time>2022-03-03T15:41:12Z</time>
      </trkpt>
      <trkpt lat="44.40114" lon="4.12308">
        <ele>192.8</ele>
        <time>2022-03-03T15:41:17Z</time>
      </trkpt>
      <trkpt lat="44.40117" lon="4.12314">
        <ele>192.5</ele>
        <time>2022-03-03T15:41:22Z</time>
      </trkpt>
      <trkpt lat="44.40121" lon="4.12318">
        <ele>192.3</ele>
        <time>2022-03-03T15:41:25Z</time>
      </trkpt>
      <trkpt lat="44.40124" lon="4.12322">
        <ele>192.1</ele>
        <time>2022-03-03T15:41:28Z</time>
      </trkpt>
      <trkpt lat="44.40128" lon="4.12328">
        <ele>191.9</ele>
        <time>2022-03-03T15:41:33Z</time>
      </trkpt>
      <trkpt lat="44.40131" lon="4.12333">
        <ele>314.23248</ele>
        <time>2022-03-03T15:41:37Z</time>
      </trkpt>
      <trkpt lat="44.40135" lon="4.12336">
        <ele>191.8</ele>
        <time>2022-03-03T15:41:42Z</time>
      </trkpt>
      <trkpt lat="44.40139" lon="4.1234">
        <ele>191.5</ele>
        <time>2022-03-03T15:41:47Z</time>
      </trkpt>
      <trkpt lat="44.40143" lon="4.12343">
        <ele>191</ele>
        <time>2022-03-03T15:41:51Z</time>
      </trkpt>
      <trkpt lat="44.40147" lon="4.12347">
        <ele>190.2</ele>
        <time>2022-03-03T15:41:55Z</time>
      </trkpt>
      <trkpt lat="44.40151" lon="4.1235">
        <ele>189.4</ele>
        <time>2022-03-03T15:41:58Z</time>
      </trkpt>
      <trkpt lat="44.40155" lon="4.12354">
        <ele>188.4</ele>
        <time>2022-03-03T15:42:02Z</time>
      </trkpt>
      <trkpt lat="44.40155" lon="4.12362">
        <ele>187.2</ele>
        <time>2022-03-03T15:42:07Z</time>
      </trkpt>
      <trkpt lat="44.40156" lon="4.12368">
        <ele>188.9</ele>
        <time>2022-03-03T15:42:10Z</time>
      </trkpt>
      <trkpt lat="44.40159" lon="4.12374">
        <ele>190.1</ele>
        <time>2022-03-03T15:42:14Z</time>
      </trkpt>
      <trkpt lat="44.40162" lon="4.12378">
        <ele>190.9</ele>
        <time>2022-03-03T15:42:19Z</time>
      </trkpt>
      <trkpt lat="44.40165" lon="4.12384">
        <ele>192.4</ele>
        <time>2022-03-03T15:42:24Z</time>
      </trkpt>
      <trkpt lat="44.4017" lon="4.12388">
        <ele>193.3</ele>
        <time>2022-03-03T15:42:28Z</time>
      </trkpt>
      <trkpt lat="44.40174" lon="4.12392">
        <ele>314.16077</ele>
        <time>2022-03-03T15:42:32Z</time>
      </trkpt>
      <trkpt lat="44.40179" lon="4.12397">
        <ele>193.4</ele>
        <time>2022-03-03T15:42:36Z</time>
      </trkpt>
      <trkpt lat="44.40182" lon="4.12401">
        <ele>193.6</ele>
        <time>2022-03-03T15:42:39Z</time>
      </trkpt>
      <trkpt lat="44.40187" lon="4.12406">
        <ele>193.8</ele>
        <time>2022-03-03T15:42:44Z</time>
      </trkpt>
      <trkpt lat="44.40191" lon="4.12411">
        <ele>194.2</ele>
        <time>2022-03-03T15:42:48Z</time>
      </trkpt>
      <trkpt lat="44.40195" lon="4.12414">
        <ele>194.3</ele>
        <time>2022-03-03T15:42:52Z</time>
      </trkpt>
      <trkpt lat="44.40199" lon="4.12418">
        <ele>194.4</ele>
        <time>2022-03-03T15:42:55Z</time>
      </trkpt>
      <trkpt lat="44.40204" lon="4.12422">
        <ele>194.3</ele>
        <time>2022-03-03T15:42:59Z</time>
      </trkpt>
      <trkpt lat="44.40208" lon="4.12427">
        <ele>194.4</ele>
        <time>2022-03-03T15:43:02Z</time>
      </trkpt>
      <trkpt lat="44.40212" lon="4.12432">
        <ele>194.6</ele>
        <time>2022-03-03T15:43:06Z</time>
      </trkpt>
      <trkpt lat="44.40216" lon="4.12436">
        <ele>194.7</ele>
        <time>2022-03-03T15:43:10Z</time>
      </trkpt>
      <trkpt lat="44.40219" lon="4.12441">
        <ele>195</ele>
        <time>2022-03-03T15:43:14Z</time>
      </trkpt>
      <trkpt lat="44.40221" lon="4.12447">
        <ele>195.7</ele>
        <time>2022-03-03T15:43:18Z</time>
      </trkpt>
      <trkpt lat="44.40225" lon="4.12451">
        <ele>196.2</ele>
        <time>2022-03-03T15:43:21Z</time>
      </trkpt>
      <trkpt lat="44.40228" lon="4.12456">
        <ele>196.5</ele>
        <time>2022-03-03T15:43:26Z</time>
      </trkpt>
      <trkpt lat="44.40233" lon="4.12461">
        <ele>196.8</ele>
        <time>2022-03-03T15:43:30Z</time>
      </trkpt>
      <trkpt lat="44.40237" lon="4.12465">
        <ele>196.8</ele>
        <time>2022-03-03T15:43:34Z</time>
      </trkpt>
      <trkpt lat="44.40241" lon="4.12471">
        <ele>318.44904</ele>
        <time>2022-03-03T15:43:38Z</time>
      </trkpt>
      <trkpt lat="44.40243" lon="4.12477">
        <ele>197</ele>
        <time>2022-03-03T15:43:42Z</time>
      </trkpt>
      <trkpt lat="44.40246" lon="4.12483">
        <ele>197</ele>
        <time>2022-03-03T15:43:46Z</time>
      </trkpt>
      <trkpt lat="44.40249" lon="4.12488">
        <ele>197.1</ele>
        <time>2022-03-03T15:43:50Z</time>
      </trkpt>
      <trkpt lat="44.40252" lon="4.12493">
        <ele>197</ele>
        <time>2022-03-03T15:43:56Z</time>
      </trkpt>
      <trkpt lat="44.4025" lon="4.12496">
        <ele>197.4</ele>
        <time>2022-03-03T15:44:06Z</time>
      </trkpt>
      <trkpt lat="44.40246" lon="4.12493">
        <ele>198</ele>
        <time>2022-03-03T15:44:14Z</time>
      </trkpt>
      <trkpt lat="44.40244" lon="4.12493">
        <ele>198.5</ele>
        <time>2022-03-03T15:44:24Z</time>
      </trkpt>
      <trkpt lat="44.40244" lon="4.12493">
        <ele>320.23438</ele>
        <time>2022-03-03T15:44:34Z</time>
      </trkpt>
      <trkpt lat="44.40247" lon="4.12492">
        <ele>197.7</ele>
        <time>2022-03-03T15:44:44Z</time>
      </trkpt>
      <trkpt lat="44.4025" lon="4.12499">
        <ele>197.8</ele>
        <time>2022-03-03T15:44:52Z</time>
      </trkpt>
      <trkpt lat="44.40255" lon="4.12503">
        <ele>197.4</ele>
        <time>2022-03-03T15:44:55Z</time>
      </trkpt>
      <trkpt lat="44.40259" lon="4.12506">
        <ele>197.2</ele>
        <time>2022-03-03T15:44:58Z</time>
      </trkpt>
      <trkpt lat="44.40263" lon="4.12511">
        <ele>196.9</ele>
        <time>2022-03-03T15:45:01Z</time>
      </trkpt>
      <trkpt lat="44.40266" lon="4.12515">
        <ele>196.6</ele>
        <time>2022-03-03T15:45:04Z</time>
      </trkpt>
      <trkpt lat="44.4027" lon="4.1252">
        <ele>196.2</ele>
        <time>2022-03-03T15:45:07Z</time>
      </trkpt>
      <trkpt lat="44.40274" lon="4.12526">
        <ele>195.9</ele>
        <time>2022-03-03T15:45:11Z</time>
      </trkpt>
      <trkpt lat="44.40277" lon="4.12532">
        <ele>195.9</ele>
        <time>2022-03-03T15:45:15Z</time>
      </trkpt>
      <trkpt lat="44.40281" lon="4.12538">
        <ele>195.9</ele>
        <time>2022-03-03T15:45:19Z</time>
      </trkpt>
      <trkpt lat="44.40284" lon="4.12545">
        <ele>196.1</ele>
        <time>2022-03-03T15:45:23Z</time>
      </trkpt>
      <trkpt lat="44.40287" lon="4.12551">
        <ele>196.2</ele>
        <time>2022-03-03T15:45:26Z</time>
      </trkpt>
      <trkpt lat="44.4029" lon="4.12555">
        <ele>195.9</ele>
        <time>2022-03-03T15:45:29Z</time>
        <extensions>
          <gpxtpx:TrackPointExtension xmlns:gpxtpx="http://www.garmin.com/xmlschemas/TrackPointExtension/v1">
            <gpxtpx:hr>121</gpxtpx:hr>
          </gpxtpx:TrackPointExtension>
        </extensions>
      </trkpt>
      <trkpt lat="44.40294" lon="4.12559">
        <ele>195.1</ele>
        <time>2022-03-03T15:45:32Z</time>
      </trkpt>
      <trkpt lat="44.40298" lon="4.12565">
        <ele>315.69186</ele>
        <time>2022-03-03T15:45:35Z</time>
      </trkpt>
      <trkpt lat="44.40302" lon="4.12569">
        <ele>193.9</ele>
        <time>2022-03-03T15:45:38Z</time>
      </trkpt>
      <trkpt lat="44.40304" lon="4.12575">
        <ele>193.7</ele>
        <time>2022-03-03T15:45:41Z</time>
      </trkpt>
      <trkpt lat="44.40308" lon="4.1258">
        <ele>193.4</ele>
        <time>2022-03-03T15:45:44Z</time>
      </trkpt>
      <trkpt lat="44.40312" lon="4.12585">
        <ele>193.1</ele>
        <time>2022-03-03T15:45:48Z</time>
      </trkpt>
      <trkpt lat="44.40317" lon="4.12588">
        <ele>192.6</ele>
        <time>2022-03-03T15:45:51Z</time>
      </trkpt>
      <trkpt lat="44.40321" lon="4.12592">
        <ele>192.1</ele>
        <time>2022-03-03T15:45:54Z</time>
      </trkpt>
      <trkpt lat="44.40325" lon="4.12597">
        <ele>191.5</ele>
        <time>2022-03-03T15:45:58Z</time>
      </trkpt>
      <trkpt lat="44.40326" lon="4.12603">
        <ele>191.4</ele>
        <time>2022-03-03T15:46:01Z</time>
      </trkpt>
      <trkpt lat="44.4033" lon="4.12608">
        <ele>190.8</ele>
        <time>2022-03-03T15:46:04Z</time>
      </trkpt>
      <trkpt lat="44.40333" lon="4.12613">
        <ele>190.3</ele>
        <time>2022-03-03T15:46:07Z</time>
      </trkpt>
      <trkpt lat="44.40336" lon="4.12619">
        <ele>190.7</ele>
        <time>2022-03-03T15:46:10Z</time>
      </trkpt>
      <trkpt lat="44.40339" lon="4.12625">
        <ele>190.8</ele>
        <time>2022-03-03T15:46:14Z</time>
      </trkpt>
      <trkpt lat="44.40342" lon="4.1263">
        <ele>190.8</ele>
        <time>2022-03-03T15:46:17Z</time>
      </trkpt>
      <trkpt lat="44.40345" lon="4.12635">
        <ele>190.6</ele>
        <time>2022-03-03T15:46:20Z</time>
      </trkpt>
      <trkpt lat="44.40348" lon="4.1264">
        <ele>190.3</ele>
        <time>2022-03-03T15:46:23Z</time>
      </trkpt>
      <trkpt lat="44.40351" lon="4.12645">
        <ele>190</ele>
        <time>2022-03-03T15:46:27Z</time>
      </trkpt>
      <trkpt lat="44.40354" lon="4.12652">
        <ele>189.6</ele>
        <time>2022-03-03T15:46:31Z</time>
      </trkpt>
      <trkpt lat="44.40356" lon="4.12657">
        <ele>189.4</ele>
        <time>2022-03-03T15:46:34Z</time>
      </trkpt>
      <trkpt lat="44.40361" lon="4.12663">
        <ele>310.80536</ele>
        <time>2022-03-03T15:46:38Z</time>
      </trkpt>
      <trkpt lat="44.40365" lon="4.12668">
        <ele>188.7</ele>
        <time>2022-03-03T15:46:42Z</time>
      </trkpt>
      <trkpt lat="44.40367" lon="4.12675">
        <ele>188.6</ele>
        <time>2022-03-03T15:46:46Z</time>
      </trkpt>
      <trkpt lat="44.40371" lon="4.12679">
        <ele>188.2</ele>
        <time>2022-03-03T15:46:50Z</time>
      </trkpt>
      <trkpt lat="44.40375" lon="4.12684">
        <ele>187.8</ele>
        <time>2022-03-03T15:46:54Z</time>
      </trkpt>
      <trkpt lat="44.40377" lon="4.1269">
        <ele>187.6</ele>
        <time>2022-03-03T15:46:57Z</time>
      </trkpt>
      <trkpt lat="44.40381" lon="4.12696">
        <ele>187.2</ele>
        <time>2022-03-03T15:47:01Z</time>
      </trkpt>
      <trkpt lat="44.40384" lon="4.12703">
        <ele>187.2</ele>
        <time>2022-03-03T15:47:05Z</time>
      </trkpt>
      <trkpt lat="44.40385" lon="4.1271">
        <ele>187.6</ele>
        <time>2022-03-03T15:47:09Z</time>
      </trkpt>
      <trkpt lat="44.40385" lon="4.12717">
        <ele>188.1</ele>
        <time>2022-03-03T15:47:13Z</time>
      </trkpt>
      <trkpt lat="44.40384" lon="4.12725">
        <ele>188.6</ele>
        <time>2022-03-03T15:47:18Z</time>
      </trkpt>
      <trkpt lat="44.40381" lon="4.12733">
        <ele>188.9</ele>
        <time>2022-03-03T15:47:22Z</time>
      </trkpt>
      <trkpt lat="44.40381" lon="4.12741">
        <ele>189</ele>
        <time>2022-03-03T15:47:26Z</time>
      </trkpt>
      <trkpt lat="44.4038" lon="4.12748">
        <ele>311.5582</ele>
        <time>2022-03-03T15:47:30Z</time>
      </trkpt>
      <trkpt lat="44.40381" lon="4.12756">
        <ele>189.4</ele>
        <time>2022-03-03T15:47:34Z</time>
      </trkpt>
      <trkpt lat="44.40381" lon="4.12763">
        <ele>189.5</ele>
        <time>2022-03-03T15:47:38Z</time>
      </trkpt>
      <trkpt lat="44.40383" lon="4.12769">
        <ele>189.4</ele>
        <time>2022-03-03T15:47:41Z</time>
      </trkpt>
      <trkpt lat="44.40384" lon="4.12777">
        <ele>189.6</ele>
        <time>2022-03-03T15:47:46Z</time>
      </trkpt>
      <trkpt lat="44.40384" lon="4.12784">
        <ele>189.9</ele>
        <time>2022-03-03T15:47:50Z</time>
      </trkpt>
      <trkpt lat="44.40385" lon="4.1279">
        <ele>190.3</ele>
        <time>2022-03-03T15:47:53Z</time>
      </trkpt>
      <trkpt lat="44.40387" lon="4.12797">
        <ele>190.6</ele>
        <time>2022-03-03T15:47:57Z</time>
      </trkpt>
      <trkpt lat="44.40389" lon="4.12805">
        <ele>191</ele>
        <time>2022-03-03T15:48:01Z</time>
      </trkpt>
      <trkpt lat="44.4039" lon="4.12813">
        <ele>190.5</ele>
        <time>2022-03-03T15:48:05Z</time>
      </trkpt>
      <trkpt lat="44.4039" lon="4.12819">
        <ele>190.3</ele>
        <time>2022-03-03T15:48:09Z</time>
      </trkpt>
      <trkpt lat="44.4039" lon="4.12826">
        <ele>190</ele>
        <time>2022-03-03T15:48:12Z</time>
      </trkpt>
      <trkpt lat="44.40389" lon="4.12832">
        <ele>190</ele>
        <time>2022-03-03T15:48:16Z</time>
      </trkpt>
      <trkpt lat="44.40389" lon="4.1284">
        <ele>189.7</ele>
        <time>2022-03-03T15:48:20Z</time>
      </trkpt>
      <trkpt lat="44.4039" lon="4.12847">
        <ele>189.3</ele>
        <time>2022-03-03T15:48:23Z</time>
      </trkpt>
      <trkpt lat="44.40391" lon="4.12855">
        <ele>188.9</ele>
        <time>2022-03-03T15:48:27Z</time>
      </trkpt>
      <trkpt lat="44.40392" lon="4.12862">
        <ele>188.5</ele>
        <time>2022-03-03T15:48:31Z</time>
      </trkpt>
      <trkpt lat="44.40392" lon="4.12871">
        <ele>311.004</ele>
        <time>2022-03-03T15:48:35Z</time>
      </trkpt>
      <trkpt lat="44.4039" lon="4.12877">
        <ele>188.2</ele>
        <time>2022-03-03T15:48:38Z</time>
      </trkpt>
      <trkpt lat="44.4039" lon="4.12884">
        <ele>188</ele>
        <time>2022-03-03T15:48:41Z</time>
      </trkpt>
      <trkpt lat="44.4039" lon="4.12891">
        <ele>187.9</ele>
        <time>2022-03-03T15:48:45Z</time>
      </trkpt>
      <trkpt lat="44.4039" lon="4.12899">
        <ele>187.9</ele>
        <time>2022-03-03T15:48:49Z</time>
      </trkpt>
      <trkpt lat="44.40389" lon="4.12906">
        <ele>187.9</ele>
        <time>2022-03-03T15:48:53Z</time>
      </trkpt>
      <trkpt lat="44.40389" lon="4.12913">
        <ele>187.9</ele>
        <time>2022-03-03T15:48:58Z</time>
      </trkpt>
      <trkpt lat="44.4039" lon="4.1292">
        <ele>187.8</ele>
        <time>2022-03-03T15:49:01Z</time>
      </trkpt>
      <trkpt lat="44.40391" lon="4.12926">
        <ele>187.6</ele>
        <time>2022-03-03T15:49:04Z</time>
      </trkpt>
      <trkpt lat="44.40394" lon="4.12933">
        <ele>186.9</ele>
        <time>2022-03-03T15:49:07Z</time>
      </trkpt>
      <trkpt lat="44.40396" lon="4.12939">
        <ele>186.3</ele>
        <time>2022-03-03T15:49:10Z</time>
      </trkpt>
      <trkpt lat="44.40398" lon="4.12946">
        <ele>185.7</ele>
        <time>2022-03-03T15:49:14Z</time>
      </trkpt>
      <trkpt lat="44.40399" lon="4.12953">
        <ele>185.6</ele>
        <time>2022-03-03T15:49:18Z</time>
      </trkpt>
      <trkpt lat="44.404" lon="4.12959">
        <ele>185.5</ele>
        <time>2022-03-03T15:49:23Z</time>
      </trkpt>
      <trkpt lat="44.40399" lon="4.12967">
        <ele>185.7</ele>
        <time>2022-03-03T15:49:29Z</time>
      </trkpt>
      <trkpt lat="44.40399" lon="4.12974">
        <ele>308.15378</ele>
        <time>2022-03-03T15:49:34Z</time>
      </trkpt>
      <trkpt lat="44.404" lon="4.12981">
        <ele>185.9</ele>
        <time>2022-03-03T15:49:38Z</time>
      </trkpt>
      <trkpt lat="44.40402" lon="4.12987">
        <ele>185.4</ele>
        <time>2022-03-03T15:49:42Z</time>
      </trkpt>
      <trkpt lat="44.40403" lon="4.12994">
        <ele>185.2</ele>
        <time>2022-03-03T15:49:50Z</time>
      </trkpt>
      <trkpt lat="44.40401" lon="4.13002">
        <ele>185.9</ele>
        <time>2022-03-03T15:49:54Z</time>
      </trkpt>
      <trkpt lat="44.40398" lon="4.13009">
        <ele>186.5</ele>
        <time>2022-03-03T15:49:57Z</time>
      </trkpt>
      <trkpt lat="44.40398" lon="4.13015">
        <ele>186.5</ele>
        <time>2022-03-03T15:50:01Z</time>
      </trkpt>
      <trkpt lat="44.404" lon="4.13022">
        <ele>185.6</ele>
        <time>2022-03-03T15:50:05Z</time>
      </trkpt>
      <trkpt lat="44.40402" lon="4.13029">
        <ele>184.8</ele>
        <time>2022-03-03T15:50:09Z</time>
      </trkpt>
      <trkpt lat="44.40402" lon="4.13037">
        <ele>185</ele>
        <time>2022-03-03T15:50:13Z</time>
      </trkpt>
      <trkpt lat="44.40402" lon="4.13045">
        <ele>185.3</ele>
        <time>2022-03-03T15:50:17Z</time>
      </trkpt>
      <trkpt lat="44.40401" lon="4.13052">
        <ele>185.9</ele>
        <time>2022-03-03T15:50:20Z</time>
      </trkpt>
      <trkpt lat="44.40401" lon="4.13059">
        <ele>186</ele>
        <time>2022-03-03T15:50:23Z</time>
      </trkpt>
      <trkpt lat="44.40401" lon="4.13066">
        <ele>186</ele>
        <time>2022-03-03T15:50:26Z</time>
      </trkpt>
      <trkpt lat="44.40401" lon="4.13073">
        <ele>186</ele>
        <time>2022-03-03T15:50:30Z</time>
      </trkpt>
      <trkpt lat="44.40402" lon="4.1308">
        <ele>309.93634</ele>
        <time>2022-03-03T15:50:35Z</time>
      </trkpt>
      <trkpt lat="44.40402" lon="4.13088">
        <ele>186</ele>
        <time>2022-03-03T15:50:40Z</time>
      </trkpt>
      <trkpt lat="44.40401" lon="4.13094">
        <ele>186.6</ele>
        <time>2022-03-03T15:50:43Z</time>
      </trkpt>
      <trkpt lat="44.404" lon="4.13102">
        <ele>187.1</ele>
        <time>2022-03-03T15:50:47Z</time>
      </trkpt>
      <trkpt lat="44.40402" lon="4.13109">
        <ele>187.2</ele>
        <time>2022-03-03T15:50:53Z</time>
      </trkpt>
      <trkpt lat="44.40402" lon="4.13116">
        <ele>187.2</ele>
        <time>2022-03-03T15:50:56Z</time>
      </trkpt>
      <trkpt lat="44.40402" lon="4.13124">
        <ele>187.4</ele>
        <time>2022-03-03T15:50:59Z</time>
      </trkpt>
      <trkpt lat="44.40401" lon="4.13131">
        <ele>187.7</ele>
        <time>2022-03-03T15:51:02Z</time>
      </trkpt>
      <trkpt lat="44.404" lon="4.13139">
        <ele>188</ele>
        <time>2022-03-03T15:51:05Z</time>
      </trkpt>
      <trkpt lat="44.40398" lon="4.13147">
        <ele>188.1</ele>
        <time>2022-03-03T15:51:09Z</time>
      </trkpt>
      <trkpt lat="44.40398" lon="4.13153">
        <ele>188</ele>
        <time>2022-03-03T15:51:12Z</time>
      </trkpt>
      <trkpt lat="44.40398" lon="4.1316">
        <ele>187.8</ele>
        <time>2022-03-03T15:51:15Z</time>
      </trkpt>
      <trkpt lat="44.40398" lon="4.13167">
        <ele>187.6</ele>
        <time>2022-03-03T15:51:19Z</time>
      </trkpt>
      <trkpt lat="44.40397" lon="4.13174">
        <ele>187.5</ele>
        <time>2022-03-03T15:51:24Z</time>
      </trkpt>
      <trkpt lat="44.40395" lon="4.13182">
        <ele>187.5</ele>
        <time>2022-03-03T15:51:28Z</time>
      </trkpt>
      <trkpt lat="44.40396" lon="4.13189">
        <ele>187.2</ele>
        <time>2022-03-03T15:51:31Z</time>
      </trkpt>
      <trkpt lat="44.40395" lon="4.13197">
        <ele>309.46838</ele>
        <time>2022-03-03T15:51:35Z</time>
      </trkpt>
      <trkpt lat="44.40396" lon="4.13204">
        <ele>186.8</ele>
        <time>2022-03-03T15:51:39Z</time>
      </trkpt>
      <trkpt lat="44.40395" lon="4.13211">
        <ele>186.7</ele>
        <time>2022-03-03T15:51:44Z</time>
      </trkpt>
      <trkpt lat="44.40394" lon="4.13219">
        <ele>186.5</ele>
        <time>2022-03-03T15:51:48Z</time>
      </trkpt>
      <trkpt lat="44.40394" lon="4.13228">
        <ele>186.2</ele>
        <time>2022-03-03T15:51:52Z</time>
      </trkpt>
      <trkpt lat="44.40394" lon="4.13236">
        <ele>185.8</ele>
        <time>2022-03-03T15:51:55Z</time>
      </trkpt>
      <trkpt lat="44.40394" lon="4.13243">
        <ele>185.5</ele>
        <time>2022-03-03T15:51:59Z</time>
      </trkpt>
      <trkpt lat="44.40392" lon="4.1325">
        <ele>185.5</ele>
        <time>2022-03-03T15:52:02Z</time>
      </trkpt>
      <trkpt lat="44.40391" lon="4.13257">
        <ele>185.3</ele>
        <time>2022-03-03T15:52:07Z</time>
      </trkpt>
      <trkpt lat="44.4039" lon="4.13264">
        <ele>184.8</ele>
        <time>2022-03-03T15:52:12Z</time>
      </trkpt>
      <trkpt lat="44.40389" lon="4.13271">
        <ele>184.4</ele>
        <time>2022-03-03T15:52:18Z</time>
      </trkpt>
      <trkpt lat="44.40387" lon="4.13277">
        <ele>184.2</ele>
        <time>2022-03-03T15:52:25Z</time>
      </trkpt>
      <trkpt lat="44.40383" lon="4.13284">
        <ele>184.3</ele>
        <time>2022-03-03T15:52:29Z</time>
        <extensions>
          <gpxtpx:TrackPointExtension xmlns:gpxtpx="http://www.garmin.com/xmlschemas/TrackPointExtension/v1">
            <gpxtpx:hr>128</gpxtpx:hr>
          </gpxtpx:TrackPointExtension>
        </extensions>
      </trkpt>
      <trkpt lat="44.4038" lon="4.13289">
        <ele>306.82086</ele>
        <time>2022-03-03T15:52:32Z</time>
      </trkpt>
      <trkpt lat="44.40376" lon="4.13294">
        <ele>184.2</ele>
        <time>2022-03-03T15:52:36Z</time>
      </trkpt>
      <trkpt lat="44.40373" lon="4.133">
        <ele>184</ele>
        <time>2022-03-03T15:52:40Z</time>
      </trkpt>
      <trkpt lat="44.40369" lon="4.13305">
        <ele>183.8</ele>
        <time>2022-03-03T15:52:45Z</time>
      </trkpt>
      <trkpt lat="44.40366" lon="4.1331">
        <ele>183.7</ele>
        <time>2022-03-03T15:52:49Z</time>
      </trkpt>
      <trkpt lat="44.40362" lon="4.13315">
        <ele>183.6</ele>
        <time>2022-03-03T15:52:54Z</time>
      </trkpt>
      <trkpt lat="44.40359" lon="4.13321">
        <ele>183.5</ele>
        <time>2022-03-03T15:52:59Z</time>
      </trkpt>
      <trkpt lat="44.40356" lon="4.13328">
        <ele>183.4</ele>
        <time>2022-03-03T15:53:04Z</time>
      </trkpt>
      <trkpt lat="44.40354" lon="4.13335">
        <ele>183.2</ele>
        <time>2022-03-03T15:53:10Z</time>
      </trkpt>
      <trkpt lat="44.40351" lon="4.13342">
        <ele>182.9</ele>
        <time>2022-03-03T15:53:15Z</time>
      </trkpt>
      <trkpt lat="44.40348" lon="4.13349">
        <ele>182.7</ele>
        <time>2022-03-03T15:53:19Z</time>
      </trkpt>
      <trkpt lat="44.40345" lon="4.13355">
        <ele>182.5</ele>
        <time>2022-03-03T15:53:23Z</time>
      </trkpt>
      <trkpt lat="44.40344" lon="4.13361">
        <ele>182.3</ele>
        <time>2022-03-03T15:53:27Z</time>
      </trkpt>
      <trkpt lat="44.40342" lon="4.13368">
        <ele>182.1</ele>
        <time>2022-03-03T15:53:31Z</time>
      </trkpt>
      <trkpt lat="44.40342" lon="4.13375">
        <ele>181.9</ele>
        <time>2022-03-03T15:53:34Z</time>
      </trkpt>
      <trkpt lat="44.40341" lon="4.13381">
        <ele>305.20227</ele>
        <time>2022-03-03T15:53:38Z</time>
      </trkpt>
      <trkpt lat="44.4034" lon="4.13387">
        <ele>181.6</ele>
        <time>2022-03-03T15:53:42Z</time>
      </trkpt>
      <trkpt lat="44.40339" lon="4.13396">
        <ele>181.3</ele>
        <time>2022-03-03T15:53:46Z</time>
      </trkpt>
      <trkpt lat="44.40339" lon="4.13402">
        <ele>180.9</ele>
        <time>2022-03-03T15:53:50Z</time>
      </trkpt>
      <trkpt lat="44.40339" lon="4.1341">
        <ele>180.6</ele>
        <time>2022-03-03T15:53:55Z</time>
      </trkpt>
      <trkpt lat="44.4034" lon="4.13416">
        <ele>180.2</ele>
        <time>2022-03-03T15:53:59Z</time>
      </trkpt>
      <trkpt lat="44.40342" lon="4.13424">
        <ele>179.9</ele>
        <time>2022-03-03T15:54:03Z</time>
      </trkpt>
      <trkpt lat="44.40343" lon="4.1343">
        <ele>179.5</ele>
        <time>2022-03-03T15:54:06Z</time>
      </trkpt>
      <trkpt lat="44.40344" lon="4.13436">
        <ele>179.1</ele>
        <time>2022-03-03T15:54:09Z</time>
      </trkpt>
      <trkpt lat="44.40345" lon="4.13444">
        <ele>178.6</ele>
        <time>2022-03-03T15:54:14Z</time>
      </trkpt>
      <trkpt lat="44.40344" lon="4.13451">
        <ele>178.5</ele>
        <time>2022-03-03T15:54:18Z</time>
      </trkpt>
      <trkpt lat="44.40343" lon="4.13458">
        <ele>178.3</ele>
        <time>2022-03-03T15:54:22Z</time>
      </trkpt>
      <trkpt lat="44.40344" lon="4.13464">
        <ele>178.2</ele>
        <time>2022-03-03T15:54:26Z</time>
      </trkpt>
      <trkpt lat="44.40343" lon="4.13472">
        <ele>301.17328</ele>
        <time>2022-03-03T15:54:31Z</time>
      </trkpt>
      <trkpt lat="44.40342" lon="4.13479">
        <ele>177.9</ele>
        <time>2022-03-03T15:54:35Z</time>
      </trkpt>
      <trkpt lat="44.40341" lon="4.13486">
        <ele>177.9</ele>
        <time>2022-03-03T15:54:39Z</time>
      </trkpt>
      <trkpt lat="44.4034" lon="4.13493">
        <ele>177.8</ele>
        <time>2022-03-03T15:54:44Z</time>
      </trkpt>
      <trkpt lat="44.4034" lon="4.13499">
        <ele>177.8</ele>
        <time>2022-03-03T15:54:48Z</time>
      </trkpt>
      <trkpt lat="44.40339" lon="4.13507">
        <ele>177.5</ele>
        <time>2022-03-03T15:54:52Z</time>
      </trkpt>
      <trkpt lat="44.40339" lon="4.13514">
        <ele>177.2</ele>
        <time>2022-03-03T15:54:55Z</time>
      </trkpt>
      <trkpt lat="44.40337" lon="4.1352">
        <ele>177.1</ele>
        <time>2022-03-03T15:54:59Z</time>
      </trkpt>
      <trkpt lat="44.40337" lon="4.13526">
        <ele>176.8</ele>
        <time>2022-03-03T15:55:02Z</time>
      </trkpt>
      <trkpt lat="44.40336" lon="4.13533">
        <ele>176.8</ele>
        <time>2022-03-03T15:55:05Z</time>
      </trkpt>
      <trkpt lat="44.40337" lon="4.13541">
        <ele>176.7</ele>
        <time>2022-03-03T15:55:09Z</time>
      </trkpt>
      <trkpt lat="44.40337" lon="4.13549">
        <ele>176.7</ele>
        <time>2022-03-03T15:55:13Z</time>
      </trkpt>
      <trkpt lat="44.40337" lon="4.13556">
        <ele>176.6</ele>
        <time>2022-03-03T15:55:17Z</time>
      </trkpt>
      <trkpt lat="44.40338" lon="4.13563">
        <ele>176.8</ele>
        <time>2022-03-03T15:55:22Z</time>
      </trkpt>
      <trkpt lat="44.40339" lon="4.1357">
        <ele>176.9</ele>
        <time>2022-03-03T15:55:26Z</time>
      </trkpt>
      <trkpt lat="44.40341" lon="4.13576">
        <ele>176.9</ele>
        <time>2022-03-03T15:55:30Z</time>
      </trkpt>
      <trkpt lat="44.40342" lon="4.13584">
        <ele>300.44986</ele>
        <time>2022-03-03T15:55:35Z</time>
      </trkpt>
      <trkpt lat="44.40343" lon="4.13591">
        <ele>177.3</ele>
        <time>2022-03-03T15:55:38Z</time>
      </trkpt>
      <trkpt lat="44.40343" lon="4.13598">
        <ele>177.5</ele>
        <time>2022-03-03T15:55:42Z</time>
      </trkpt>
      <trkpt lat="44.40345" lon="4.13604">
        <ele>177.5</ele>
        <time>2022-03-03T15:55:46Z</time>
      </trkpt>
      <trkpt lat="44.40347" lon="4.13611">
        <ele>177.6</ele>
        <time>2022-03-03T15:55:50Z</time>
      </trkpt>
      <trkpt lat="44.40348" lon="4.1362">
        <ele>177.4</ele>
        <time>2022-03-03T15:55:56Z</time>
      </trkpt>
      <trkpt lat="44.4035" lon="4.13627">
        <ele>177.2</ele>
        <time>2022-03-03T15:55:59Z</time>
      </trkpt>
      <trkpt lat="44.40351" lon="4.13634">
        <ele>177.1</ele>
        <time>2022-03-03T15:56:02Z</time>
      </trkpt>
      <trkpt lat="44.40352" lon="4.1364">
        <ele>177.1</ele>
        <time>2022-03-03T15:56:06Z</time>
      </trkpt>
      <trkpt lat="44.40354" lon="4.13647">
        <ele>177.6</ele>
        <time>2022-03-03T15:56:10Z</time>
      </trkpt>
      <trkpt lat="44.40356" lon="4.13654">
        <ele>178.1</ele>
        <time>2022-03-03T15:56:14Z</time>
      </trkpt>
      <trkpt lat="44.40359" lon="4.1366">
        <ele>178.5</ele>
        <time>2022-03-03T15:56:19Z</time>
      </trkpt>
      <trkpt lat="44.40364" lon="4.13665">
        <ele>178.5</ele>
        <time>2022-03-03T15:56:23Z</time>
      </trkpt>
      <trkpt lat="44.40369" lon="4.13666">
        <ele>178.2</ele>
        <time>2022-03-03T15:56:27Z</time>
      </trkpt>
      <trkpt lat="44.40373" lon="4.13667">
        <ele>177.7</ele>
        <time>2022-03-03T15:56:31Z</time>
      </trkpt>
      <trkpt lat="44.40379" lon="4.13665">
        <ele>301.22168</ele>
        <time>2022-03-03T15:56:36Z</time>
      </trkpt>
      <trkpt lat="44.40384" lon="4.13664">
        <ele>176.4</ele>
        <time>2022-03-03T15:56:40Z</time>
      </trkpt>
      <trkpt lat="44.40389" lon="4.13666">
        <ele>176</ele>
        <time>2022-03-03T15:56:46Z</time>
      </trkpt>
      <trkpt lat="44.40393" lon="4.13664">
        <ele>175.6</ele>
        <time>2022-03-03T15:56:51Z</time>
      </trkpt>
      <trkpt lat="44.40397" lon="4.13666">
        <ele>175.4</ele>
        <time>2022-03-03T15:56:58Z</time>
      </trkpt>
      <trkpt lat="44.40402" lon="4.13664">
        <ele>175</ele>
        <time>2022-03-03T15:57:05Z</time>
      </trkpt>
      <trkpt lat="44.40403" lon="4.13664">
        <ele>175</ele>
        <time>2022-03-03T15:57:10Z</time>
      </trkpt>
    </trkseg>
  </trk>
</gpx>